<?xml version="1.0" encoding="utf-8"?>
<gpx xmlns:xsi="http://www.w3.org/2001/XMLSchema-instance" xmlns:xsd="http://www.w3.org/2001/XMLSchema" version="1.1" creator="Shapelink.com" xmlns="http://www.topografix.com/GPX/1/1" xmlns:gpxtpx="http://www.garmin.com/xmlschemas/TrackPointExtension/v1">
  <metadata>
    <name>Löpning 8.79 km, 2018-02-11</name>
    <desc></desc>
    <author><name>Bengt-Åke Forslund</name></author> 
    <time>2018-02-11T13:48:27Z</time>
  </metadata>
  <trk>
    <name>Löpning 8.79 km, 2018-02-11</name>
    <trkseg>
      <trkpt lat="62.635816235282" lon="17.967593725856">
        <ele>59.6</ele>
        <time>2018-02-11T13:48:27Z</time>
      </trkpt>
      <trkpt lat="62.635922350136" lon="17.967911735142">
        <ele>59.8</ele>
        <time>2018-02-11T13:49:46Z</time>
      </trkpt>
      <trkpt lat="62.635935593538" lon="17.967955740117">
        <ele>59.8</ele>
        <time>2018-02-11T13:49:47Z</time>
      </trkpt>
      <trkpt lat="62.635950848596" lon="17.968009049001">
        <ele>60</ele>
        <time>2018-02-11T13:49:48Z</time>
      </trkpt>
      <trkpt lat="62.635962415618" lon="17.968046516094">
        <ele>60</ele>
        <time>2018-02-11T13:49:49Z</time>
      </trkpt>
      <trkpt lat="62.635973731183" lon="17.968084737558">
        <ele>60</ele>
        <time>2018-02-11T13:49:50Z</time>
      </trkpt>
      <trkpt lat="62.635989572974" lon="17.968139387546">
        <ele>60</ele>
        <time>2018-02-11T13:49:51Z</time>
      </trkpt>
      <trkpt lat="62.636002062005" lon="17.968179201571">
        <ele>60</ele>
        <time>2018-02-11T13:49:52Z</time>
      </trkpt>
      <trkpt lat="62.636015137769" lon="17.968212980628">
        <ele>60.2</ele>
        <time>2018-02-11T13:49:53Z</time>
      </trkpt>
      <trkpt lat="62.636032823578" lon="17.968252375558">
        <ele>60.2</ele>
        <time>2018-02-11T13:49:54Z</time>
      </trkpt>
      <trkpt lat="62.636047827179" lon="17.968280538742">
        <ele>60.2</ele>
        <time>2018-02-11T13:49:55Z</time>
      </trkpt>
      <trkpt lat="62.636067524644" lon="17.968320688043">
        <ele>60.4</ele>
        <time>2018-02-11T13:49:56Z</time>
      </trkpt>
      <trkpt lat="62.636085294272" lon="17.968358909507">
        <ele>60.4</ele>
        <time>2018-02-11T13:49:57Z</time>
      </trkpt>
      <trkpt lat="62.636101890434" lon="17.968385899225">
        <ele>60.6</ele>
        <time>2018-02-11T13:49:58Z</time>
      </trkpt>
      <trkpt lat="62.636118905691" lon="17.968410709649">
        <ele>60.6</ele>
        <time>2018-02-11T13:49:59Z</time>
      </trkpt>
      <trkpt lat="62.636139776622" lon="17.968435352435">
        <ele>60.6</ele>
        <time>2018-02-11T13:50:00Z</time>
      </trkpt>
      <trkpt lat="62.636162156295" lon="17.968451948597">
        <ele>60.8</ele>
        <time>2018-02-11T13:50:01Z</time>
      </trkpt>
      <trkpt lat="62.6361868829" lon="17.96846426999">
        <ele>60.6</ele>
        <time>2018-02-11T13:50:02Z</time>
      </trkpt>
      <trkpt lat="62.636212531514" lon="17.968477513392">
        <ele>60.6</ele>
        <time>2018-02-11T13:50:03Z</time>
      </trkpt>
      <trkpt lat="62.636242035802" lon="17.968496791762">
        <ele>60.6</ele>
        <time>2018-02-11T13:50:04Z</time>
      </trkpt>
      <trkpt lat="62.636275395764" lon="17.968524954946">
        <ele>60.6</ele>
        <time>2018-02-11T13:50:05Z</time>
      </trkpt>
      <trkpt lat="62.63630590588" lon="17.968538785081">
        <ele>60.8</ele>
        <time>2018-02-11T13:50:06Z</time>
      </trkpt>
      <trkpt lat="62.636334236702" lon="17.968568540826">
        <ele>60.6</ele>
        <time>2018-02-11T13:50:07Z</time>
      </trkpt>
      <trkpt lat="62.636359801497" lon="17.968600643503">
        <ele>60.6</ele>
        <time>2018-02-11T13:50:08Z</time>
      </trkpt>
      <trkpt lat="62.636386120663" lon="17.968644313202">
        <ele>60.6</ele>
        <time>2018-02-11T13:50:09Z</time>
      </trkpt>
      <trkpt lat="62.636410511992" lon="17.96869141948">
        <ele>60.6</ele>
        <time>2018-02-11T13:50:10Z</time>
      </trkpt>
      <trkpt lat="62.636432137294" lon="17.968735927369">
        <ele>60.6</ele>
        <time>2018-02-11T13:50:11Z</time>
      </trkpt>
      <trkpt lat="62.63645258913" lon="17.968779177973">
        <ele>60.6</ele>
        <time>2018-02-11T13:50:12Z</time>
      </trkpt>
      <trkpt lat="62.636472454233" lon="17.96881463341">
        <ele>60.8</ele>
        <time>2018-02-11T13:50:13Z</time>
      </trkpt>
      <trkpt lat="62.63648779311" lon="17.968857045824">
        <ele>60.6</ele>
        <time>2018-02-11T13:50:14Z</time>
      </trkpt>
      <trkpt lat="62.636500701236" lon="17.968892836537">
        <ele>60.8</ele>
        <time>2018-02-11T13:50:15Z</time>
      </trkpt>
      <trkpt lat="62.636520817796" lon="17.968941535376">
        <ele>60.8</ele>
        <time>2018-02-11T13:50:16Z</time>
      </trkpt>
      <trkpt lat="62.636540431442" lon="17.968995766269">
        <ele>60.8</ele>
        <time>2018-02-11T13:50:17Z</time>
      </trkpt>
      <trkpt lat="62.636559374536" lon="17.969043878375">
        <ele>60.8</ele>
        <time>2018-02-11T13:50:18Z</time>
      </trkpt>
      <trkpt lat="62.636573623766" lon="17.969098696001">
        <ele>60.8</ele>
        <time>2018-02-11T13:50:19Z</time>
      </trkpt>
      <trkpt lat="62.636591225756" lon="17.969147143383">
        <ele>60.8</ele>
        <time>2018-02-11T13:50:20Z</time>
      </trkpt>
      <trkpt lat="62.636614024524" lon="17.969198775887">
        <ele>60.8</ele>
        <time>2018-02-11T13:50:21Z</time>
      </trkpt>
      <trkpt lat="62.636635649826" lon="17.96924881583">
        <ele>61</ele>
        <time>2018-02-11T13:50:22Z</time>
      </trkpt>
      <trkpt lat="62.636656604576" lon="17.969294832461">
        <ele>61</ele>
        <time>2018-02-11T13:50:23Z</time>
      </trkpt>
      <trkpt lat="62.636655682567" lon="17.969320983989">
        <ele>61</ele>
        <time>2018-02-11T13:50:24Z</time>
      </trkpt>
      <trkpt lat="62.63668309138" lon="17.969400695858">
        <ele>61</ele>
        <time>2018-02-11T13:50:25Z</time>
      </trkpt>
      <trkpt lat="62.6366981788" lon="17.969455429665">
        <ele>61.2</ele>
        <time>2018-02-11T13:50:26Z</time>
      </trkpt>
      <trkpt lat="62.636712679487" lon="17.969503960866">
        <ele>61.2</ele>
        <time>2018-02-11T13:50:27Z</time>
      </trkpt>
      <trkpt lat="62.636724414147" lon="17.969550312773">
        <ele>61.2</ele>
        <time>2018-02-11T13:50:28Z</time>
      </trkpt>
      <trkpt lat="62.636735562074" lon="17.96959834106">
        <ele>61.2</ele>
        <time>2018-02-11T13:50:29Z</time>
      </trkpt>
      <trkpt lat="62.636745536535" lon="17.969643100406">
        <ele>61.2</ele>
        <time>2018-02-11T13:50:30Z</time>
      </trkpt>
      <trkpt lat="62.636756349186" lon="17.969697163661">
        <ele>61.4</ele>
        <time>2018-02-11T13:50:31Z</time>
      </trkpt>
      <trkpt lat="62.636770849873" lon="17.969753573848">
        <ele>61.4</ele>
        <time>2018-02-11T13:50:32Z</time>
      </trkpt>
      <trkpt lat="62.636784260913" lon="17.969800093393">
        <ele>61.6</ele>
        <time>2018-02-11T13:50:33Z</time>
      </trkpt>
      <trkpt lat="62.636799935066" lon="17.969842924902">
        <ele>61.6</ele>
        <time>2018-02-11T13:50:34Z</time>
      </trkpt>
      <trkpt lat="62.636816531228" lon="17.969885085859">
        <ele>61.8</ele>
        <time>2018-02-11T13:50:35Z</time>
      </trkpt>
      <trkpt lat="62.636835558141" lon="17.969921211848">
        <ele>61.6</ele>
        <time>2018-02-11T13:50:36Z</time>
      </trkpt>
      <trkpt lat="62.636857099624" lon="17.969953314525">
        <ele>61.8</ele>
        <time>2018-02-11T13:50:37Z</time>
      </trkpt>
      <trkpt lat="62.636877300003" lon="17.969980136605">
        <ele>61.8</ele>
        <time>2018-02-11T13:50:38Z</time>
      </trkpt>
      <trkpt lat="62.63690269716" lon="17.970009808531">
        <ele>61.8</ele>
        <time>2018-02-11T13:50:39Z</time>
      </trkpt>
      <trkpt lat="62.636923735729" lon="17.970031014738">
        <ele>61.8</ele>
        <time>2018-02-11T13:50:40Z</time>
      </trkpt>
      <trkpt lat="62.636946199221" lon="17.970042162665">
        <ele>61.8</ele>
        <time>2018-02-11T13:50:41Z</time>
      </trkpt>
      <trkpt lat="62.636973272758" lon="17.970078121016">
        <ele>61.8</ele>
        <time>2018-02-11T13:50:42Z</time>
      </trkpt>
      <trkpt lat="62.637003196141" lon="17.970096980291">
        <ele>61.8</ele>
        <time>2018-02-11T13:50:43Z</time>
      </trkpt>
      <trkpt lat="62.63703513118" lon="17.970109804598">
        <ele>61.8</ele>
        <time>2018-02-11T13:50:44Z</time>
      </trkpt>
      <trkpt lat="62.63706614421" lon="17.970112822082">
        <ele>61.8</ele>
        <time>2018-02-11T13:50:45Z</time>
      </trkpt>
      <trkpt lat="62.637103611303" lon="17.970109888417">
        <ele>61.6</ele>
        <time>2018-02-11T13:50:46Z</time>
      </trkpt>
      <trkpt lat="62.637131355392" lon="17.970096561196">
        <ele>61.6</ele>
        <time>2018-02-11T13:50:47Z</time>
      </trkpt>
      <trkpt lat="62.637163290431" lon="17.970069906754">
        <ele>61.6</ele>
        <time>2018-02-11T13:50:48Z</time>
      </trkpt>
      <trkpt lat="62.637201763352" lon="17.970050628384">
        <ele>61.4</ele>
        <time>2018-02-11T13:50:49Z</time>
      </trkpt>
      <trkpt lat="62.637244846318" lon="17.970035708602">
        <ele>61</ele>
        <time>2018-02-11T13:50:50Z</time>
      </trkpt>
      <trkpt lat="62.637291533501" lon="17.970012909834">
        <ele>60.6</ele>
        <time>2018-02-11T13:50:51Z</time>
      </trkpt>
      <trkpt lat="62.637336376666" lon="17.969996732767">
        <ele>60</ele>
        <time>2018-02-11T13:50:52Z</time>
      </trkpt>
      <trkpt lat="62.637376609786" lon="17.969987093582">
        <ele>59.6</ele>
        <time>2018-02-11T13:50:53Z</time>
      </trkpt>
      <trkpt lat="62.637421285313" lon="17.969981896804">
        <ele>59.2</ele>
        <time>2018-02-11T13:50:54Z</time>
      </trkpt>
      <trkpt lat="62.637460764062" lon="17.969986925944">
        <ele>59.2</ele>
        <time>2018-02-11T13:50:55Z</time>
      </trkpt>
      <trkpt lat="62.637505439589" lon="17.970006288133">
        <ele>59.2</ele>
        <time>2018-02-11T13:50:56Z</time>
      </trkpt>
      <trkpt lat="62.63753972156" lon="17.97003000891">
        <ele>59.2</ele>
        <time>2018-02-11T13:50:57Z</time>
      </trkpt>
      <trkpt lat="62.637574674083" lon="17.970066470175">
        <ele>59.4</ele>
        <time>2018-02-11T13:50:58Z</time>
      </trkpt>
      <trkpt lat="62.637608704597" lon="17.970105948924">
        <ele>59.4</ele>
        <time>2018-02-11T13:50:59Z</time>
      </trkpt>
      <trkpt lat="62.637630581356" lon="17.970159257808">
        <ele>59.4</ele>
        <time>2018-02-11T13:51:00Z</time>
      </trkpt>
      <trkpt lat="62.637654721228" lon="17.970218769298">
        <ele>59.2</ele>
        <time>2018-02-11T13:51:01Z</time>
      </trkpt>
      <trkpt lat="62.637675759797" lon="17.970266713766">
        <ele>59.2</ele>
        <time>2018-02-11T13:51:02Z</time>
      </trkpt>
      <trkpt lat="62.637695038167" lon="17.970324884152">
        <ele>59</ele>
        <time>2018-02-11T13:51:03Z</time>
      </trkpt>
      <trkpt lat="62.637715238546" lon="17.970384814737">
        <ele>58.8</ele>
        <time>2018-02-11T13:51:04Z</time>
      </trkpt>
      <trkpt lat="62.637740300427" lon="17.970438458897">
        <ele>59</ele>
        <time>2018-02-11T13:51:05Z</time>
      </trkpt>
      <trkpt lat="62.637745329567" lon="17.970500401138">
        <ele>58.8</ele>
        <time>2018-02-11T13:51:06Z</time>
      </trkpt>
      <trkpt lat="62.637760249349" lon="17.970550357262">
        <ele>58.8</ele>
        <time>2018-02-11T13:51:07Z</time>
      </trkpt>
      <trkpt lat="62.637774079484" lon="17.970601822128">
        <ele>58.8</ele>
        <time>2018-02-11T13:51:08Z</time>
      </trkpt>
      <trkpt lat="62.637785143592" lon="17.970646832931">
        <ele>58.8</ele>
        <time>2018-02-11T13:51:09Z</time>
      </trkpt>
      <trkpt lat="62.637797548804" lon="17.970691005544">
        <ele>59</ele>
        <time>2018-02-11T13:51:10Z</time>
      </trkpt>
      <trkpt lat="62.637811462758" lon="17.970742721867">
        <ele>59</ele>
        <time>2018-02-11T13:51:11Z</time>
      </trkpt>
      <trkpt lat="62.637821772495" lon="17.970793180905">
        <ele>59.2</ele>
        <time>2018-02-11T13:51:12Z</time>
      </trkpt>
      <trkpt lat="62.637833339517" lon="17.97084472959">
        <ele>59.2</ele>
        <time>2018-02-11T13:51:13Z</time>
      </trkpt>
      <trkpt lat="62.637844571263" lon="17.970898792845">
        <ele>59.2</ele>
        <time>2018-02-11T13:51:14Z</time>
      </trkpt>
      <trkpt lat="62.637853288439" lon="17.970951682634">
        <ele>59.2</ele>
        <time>2018-02-11T13:51:15Z</time>
      </trkpt>
      <trkpt lat="62.637861754158" lon="17.971011110305">
        <ele>59.4</ele>
        <time>2018-02-11T13:51:16Z</time>
      </trkpt>
      <trkpt lat="62.637872566809" lon="17.971057126936">
        <ele>59.4</ele>
        <time>2018-02-11T13:51:17Z</time>
      </trkpt>
      <trkpt lat="62.637872315352" lon="17.97111965591">
        <ele>59.6</ele>
        <time>2018-02-11T13:51:18Z</time>
      </trkpt>
      <trkpt lat="62.637879104691" lon="17.971172880975">
        <ele>59.6</ele>
        <time>2018-02-11T13:51:19Z</time>
      </trkpt>
      <trkpt lat="62.637887989505" lon="17.971223340013">
        <ele>59.6</ele>
        <time>2018-02-11T13:51:20Z</time>
      </trkpt>
      <trkpt lat="62.637898634518" lon="17.971277067992">
        <ele>59.6</ele>
        <time>2018-02-11T13:51:21Z</time>
      </trkpt>
      <trkpt lat="62.637906764961" lon="17.971328951953">
        <ele>59.6</ele>
        <time>2018-02-11T13:51:22Z</time>
      </trkpt>
      <trkpt lat="62.63791858344" lon="17.971372202557">
        <ele>59.8</ele>
        <time>2018-02-11T13:51:23Z</time>
      </trkpt>
      <trkpt lat="62.637919756906" lon="17.971427942192">
        <ele>59.8</ele>
        <time>2018-02-11T13:51:24Z</time>
      </trkpt>
      <trkpt lat="62.637926210969" lon="17.971467840036">
        <ele>59.8</ele>
        <time>2018-02-11T13:51:25Z</time>
      </trkpt>
      <trkpt lat="62.637937694172" lon="17.97151863435">
        <ele>60</ele>
        <time>2018-02-11T13:51:26Z</time>
      </trkpt>
      <trkpt lat="62.63794624371" lon="17.971561549678">
        <ele>60</ele>
        <time>2018-02-11T13:51:27Z</time>
      </trkpt>
      <trkpt lat="62.637954960886" lon="17.971615110019">
        <ele>60</ele>
        <time>2018-02-11T13:51:28Z</time>
      </trkpt>
      <trkpt lat="62.637963342786" lon="17.97167202312">
        <ele>60.2</ele>
        <time>2018-02-11T13:51:29Z</time>
      </trkpt>
      <trkpt lat="62.637978011111" lon="17.971716195733">
        <ele>60.2</ele>
        <time>2018-02-11T13:51:30Z</time>
      </trkpt>
      <trkpt lat="62.637980944776" lon="17.971789034444">
        <ele>60.2</ele>
        <time>2018-02-11T13:51:31Z</time>
      </trkpt>
      <trkpt lat="62.637984968088" lon="17.971842678604">
        <ele>60.2</ele>
        <time>2018-02-11T13:51:32Z</time>
      </trkpt>
      <trkpt lat="62.637987398839" lon="17.9719000108">
        <ele>60.2</ele>
        <time>2018-02-11T13:51:33Z</time>
      </trkpt>
      <trkpt lat="62.637990164866" lon="17.971954241693">
        <ele>60.4</ele>
        <time>2018-02-11T13:51:34Z</time>
      </trkpt>
      <trkpt lat="62.637995194006" lon="17.971996989383">
        <ele>60.4</ele>
        <time>2018-02-11T13:51:35Z</time>
      </trkpt>
      <trkpt lat="62.637998882042" lon="17.972068570809">
        <ele>60.4</ele>
        <time>2018-02-11T13:51:36Z</time>
      </trkpt>
      <trkpt lat="62.638000390784" lon="17.972131770335">
        <ele>60.6</ele>
        <time>2018-02-11T13:51:37Z</time>
      </trkpt>
      <trkpt lat="62.638005252286" lon="17.972189270169">
        <ele>60.4</ele>
        <time>2018-02-11T13:51:38Z</time>
      </trkpt>
      <trkpt lat="62.638010029969" lon="17.972241070311">
        <ele>60.4</ele>
        <time>2018-02-11T13:51:39Z</time>
      </trkpt>
      <trkpt lat="62.638013466548" lon="17.972287589856">
        <ele>60.4</ele>
        <time>2018-02-11T13:51:40Z</time>
      </trkpt>
      <trkpt lat="62.638018495688" lon="17.972349029183">
        <ele>60.4</ele>
        <time>2018-02-11T13:51:41Z</time>
      </trkpt>
      <trkpt lat="62.638021764629" lon="17.972395716366">
        <ele>60.6</ele>
        <time>2018-02-11T13:51:42Z</time>
      </trkpt>
      <trkpt lat="62.63802587176" lon="17.972449360526">
        <ele>60.8</ele>
        <time>2018-02-11T13:51:43Z</time>
      </trkpt>
      <trkpt lat="62.6380309009" lon="17.972505100161">
        <ele>61</ele>
        <time>2018-02-11T13:51:44Z</time>
      </trkpt>
      <trkpt lat="62.638035762402" lon="17.972556229751">
        <ele>61.2</ele>
        <time>2018-02-11T13:51:45Z</time>
      </trkpt>
      <trkpt lat="62.638038276972" lon="17.972618842544">
        <ele>61.4</ele>
        <time>2018-02-11T13:51:46Z</time>
      </trkpt>
      <trkpt lat="62.638045736863" lon="17.972668882487">
        <ele>61.4</ele>
        <time>2018-02-11T13:51:47Z</time>
      </trkpt>
      <trkpt lat="62.638045066311" lon="17.972731076185">
        <ele>61.6</ele>
        <time>2018-02-11T13:51:48Z</time>
      </trkpt>
      <trkpt lat="62.638048335252" lon="17.972782205775">
        <ele>61.6</ele>
        <time>2018-02-11T13:51:49Z</time>
      </trkpt>
      <trkpt lat="62.638059734636" lon="17.972832413356">
        <ele>61.8</ele>
        <time>2018-02-11T13:51:50Z</time>
      </trkpt>
      <trkpt lat="62.638056298057" lon="17.972897037805">
        <ele>61.8</ele>
        <time>2018-02-11T13:51:51Z</time>
      </trkpt>
      <trkpt lat="62.638057806799" lon="17.972951352517">
        <ele>62</ele>
        <time>2018-02-11T13:51:52Z</time>
      </trkpt>
      <trkpt lat="62.638063925586" lon="17.972998207338">
        <ele>62.2</ele>
        <time>2018-02-11T13:51:53Z</time>
      </trkpt>
      <trkpt lat="62.638058477351" lon="17.973060484855">
        <ele>62.4</ele>
        <time>2018-02-11T13:51:54Z</time>
      </trkpt>
      <trkpt lat="62.638058980265" lon="17.973113877558">
        <ele>62.4</ele>
        <time>2018-02-11T13:51:55Z</time>
      </trkpt>
      <trkpt lat="62.638062416844" lon="17.973161822026">
        <ele>62.4</ele>
        <time>2018-02-11T13:51:56Z</time>
      </trkpt>
      <trkpt lat="62.638060321369" lon="17.973208090114">
        <ele>62.6</ele>
        <time>2018-02-11T13:51:57Z</time>
      </trkpt>
      <trkpt lat="62.63806191393" lon="17.973256621315">
        <ele>62.8</ele>
        <time>2018-02-11T13:51:58Z</time>
      </trkpt>
      <trkpt lat="62.638067529803" lon="17.973301715937">
        <ele>62.8</ele>
        <time>2018-02-11T13:51:59Z</time>
      </trkpt>
      <trkpt lat="62.638059064084" lon="17.9733500795">
        <ele>63.2</ele>
        <time>2018-02-11T13:52:00Z</time>
      </trkpt>
      <trkpt lat="62.638061997749" lon="17.973402550194">
        <ele>63.4</ele>
        <time>2018-02-11T13:52:01Z</time>
      </trkpt>
      <trkpt lat="62.638061578654" lon="17.97345485325">
        <ele>63.4</ele>
        <time>2018-02-11T13:52:02Z</time>
      </trkpt>
      <trkpt lat="62.638059902274" lon="17.973505731383">
        <ele>63.6</ele>
        <time>2018-02-11T13:52:03Z</time>
      </trkpt>
      <trkpt lat="62.63805688479" lon="17.973555352231">
        <ele>63.6</ele>
        <time>2018-02-11T13:52:04Z</time>
      </trkpt>
      <trkpt lat="62.638053699668" lon="17.973603548156">
        <ele>63.6</ele>
        <time>2018-02-11T13:52:05Z</time>
      </trkpt>
      <trkpt lat="62.638050682184" lon="17.973659790705">
        <ele>63.8</ele>
        <time>2018-02-11T13:52:06Z</time>
      </trkpt>
      <trkpt lat="62.638054705496" lon="17.973708489544">
        <ele>63.8</ele>
        <time>2018-02-11T13:52:07Z</time>
      </trkpt>
      <trkpt lat="62.638059483179" lon="17.973754422356">
        <ele>63.8</ele>
        <time>2018-02-11T13:52:08Z</time>
      </trkpt>
      <trkpt lat="62.63806359031" lon="17.973809994353">
        <ele>63.8</ele>
        <time>2018-02-11T13:52:09Z</time>
      </trkpt>
      <trkpt lat="62.63806694307" lon="17.973874115888">
        <ele>63.8</ele>
        <time>2018-02-11T13:52:10Z</time>
      </trkpt>
      <trkpt lat="62.638070714925" lon="17.973910996248">
        <ele>63.8</ele>
        <time>2018-02-11T13:52:11Z</time>
      </trkpt>
      <trkpt lat="62.638070044373" lon="17.973980649837">
        <ele>63.6</ele>
        <time>2018-02-11T13:52:12Z</time>
      </trkpt>
      <trkpt lat="62.638074402961" lon="17.974036724748">
        <ele>63.6</ele>
        <time>2018-02-11T13:52:13Z</time>
      </trkpt>
      <trkpt lat="62.638076666074" lon="17.974093218754">
        <ele>63.6</ele>
        <time>2018-02-11T13:52:14Z</time>
      </trkpt>
      <trkpt lat="62.638079432101" lon="17.974145689448">
        <ele>63.6</ele>
        <time>2018-02-11T13:52:15Z</time>
      </trkpt>
      <trkpt lat="62.638083287775" lon="17.974203440739">
        <ele>63.6</ele>
        <time>2018-02-11T13:52:16Z</time>
      </trkpt>
      <trkpt lat="62.638089071286" lon="17.974255911433">
        <ele>63.6</ele>
        <time>2018-02-11T13:52:17Z</time>
      </trkpt>
      <trkpt lat="62.638089993295" lon="17.974312070163">
        <ele>63.8</ele>
        <time>2018-02-11T13:52:18Z</time>
      </trkpt>
      <trkpt lat="62.638095190073" lon="17.974367306884">
        <ele>63.8</ele>
        <time>2018-02-11T13:52:19Z</time>
      </trkpt>
      <trkpt lat="62.638109355484" lon="17.974415083714">
        <ele>63.8</ele>
        <time>2018-02-11T13:52:20Z</time>
      </trkpt>
      <trkpt lat="62.638105918905" lon="17.974485994588">
        <ele>63.8</ele>
        <time>2018-02-11T13:52:21Z</time>
      </trkpt>
      <trkpt lat="62.638100805946" lon="17.974547685372">
        <ele>63.6</ele>
        <time>2018-02-11T13:52:22Z</time>
      </trkpt>
      <trkpt lat="62.638093429874" lon="17.974608370328">
        <ele>63.8</ele>
        <time>2018-02-11T13:52:23Z</time>
      </trkpt>
      <trkpt lat="62.638080102653" lon="17.974660254289">
        <ele>63.8</ele>
        <time>2018-02-11T13:52:24Z</time>
      </trkpt>
      <trkpt lat="62.638069792916" lon="17.974709875137">
        <ele>63.8</ele>
        <time>2018-02-11T13:52:25Z</time>
      </trkpt>
      <trkpt lat="62.638056465695" lon="17.974748850972">
        <ele>64</ele>
        <time>2018-02-11T13:52:26Z</time>
      </trkpt>
      <trkpt lat="62.638047077967" lon="17.974790425196">
        <ele>64</ele>
        <time>2018-02-11T13:52:27Z</time>
      </trkpt>
      <trkpt lat="62.638035427126" lon="17.974832753791">
        <ele>64</ele>
        <time>2018-02-11T13:52:28Z</time>
      </trkpt>
      <trkpt lat="62.638022602819" lon="17.974869550332">
        <ele>64</ele>
        <time>2018-02-11T13:52:29Z</time>
      </trkpt>
      <trkpt lat="62.638009443236" lon="17.97490995109">
        <ele>64</ele>
        <time>2018-02-11T13:52:30Z</time>
      </trkpt>
      <trkpt lat="62.637994607273" lon="17.97494012593">
        <ele>64.2</ele>
        <time>2018-02-11T13:52:31Z</time>
      </trkpt>
      <trkpt lat="62.637979100758" lon="17.974975246091">
        <ele>64.4</ele>
        <time>2018-02-11T13:52:32Z</time>
      </trkpt>
      <trkpt lat="62.637965605899" lon="17.975010785347">
        <ele>64.4</ele>
        <time>2018-02-11T13:52:33Z</time>
      </trkpt>
      <trkpt lat="62.637950602298" lon="17.975037942703">
        <ele>64.6</ele>
        <time>2018-02-11T13:52:34Z</time>
      </trkpt>
      <trkpt lat="62.637933754679" lon="17.975062417851">
        <ele>64.8</ele>
        <time>2018-02-11T13:52:35Z</time>
      </trkpt>
      <trkpt lat="62.637923528761" lon="17.97510860212">
        <ele>64.8</ele>
        <time>2018-02-11T13:52:36Z</time>
      </trkpt>
      <trkpt lat="62.637905842952" lon="17.97513877696">
        <ele>64.8</ele>
        <time>2018-02-11T13:52:37Z</time>
      </trkpt>
      <trkpt lat="62.637890839351" lon="17.975168700343">
        <ele>65</ele>
        <time>2018-02-11T13:52:38Z</time>
      </trkpt>
      <trkpt lat="62.637875165198" lon="17.975197534079">
        <ele>65.2</ele>
        <time>2018-02-11T13:52:39Z</time>
      </trkpt>
      <trkpt lat="62.637858317579" lon="17.975224691435">
        <ele>65.2</ele>
        <time>2018-02-11T13:52:40Z</time>
      </trkpt>
      <trkpt lat="62.637841972874" lon="17.975265176012">
        <ele>65.4</ele>
        <time>2018-02-11T13:52:41Z</time>
      </trkpt>
      <trkpt lat="62.637827136911" lon="17.975295686128">
        <ele>65.6</ele>
        <time>2018-02-11T13:52:42Z</time>
      </trkpt>
      <trkpt lat="62.637810624568" lon="17.975321250923">
        <ele>65.6</ele>
        <time>2018-02-11T13:52:43Z</time>
      </trkpt>
      <trkpt lat="62.637798135537" lon="17.975343798234">
        <ele>65.6</ele>
        <time>2018-02-11T13:52:44Z</time>
      </trkpt>
      <trkpt lat="62.637790172732" lon="17.975366177907">
        <ele>65.8</ele>
        <time>2018-02-11T13:52:45Z</time>
      </trkpt>
      <trkpt lat="62.63776854743" lon="17.975382187336">
        <ele>66</ele>
        <time>2018-02-11T13:52:46Z</time>
      </trkpt>
      <trkpt lat="62.637752957096" lon="17.97539861586">
        <ele>66</ele>
        <time>2018-02-11T13:52:47Z</time>
      </trkpt>
      <trkpt lat="62.637743066454" lon="17.975418397144">
        <ele>66.2</ele>
        <time>2018-02-11T13:52:48Z</time>
      </trkpt>
      <trkpt lat="62.637725632102" lon="17.975432897831">
        <ele>66.4</ele>
        <time>2018-02-11T13:52:49Z</time>
      </trkpt>
      <trkpt lat="62.637708533026" lon="17.975448488165">
        <ele>66.6</ele>
        <time>2018-02-11T13:52:50Z</time>
      </trkpt>
      <trkpt lat="62.63769227214" lon="17.975475645521">
        <ele>67</ele>
        <time>2018-02-11T13:52:51Z</time>
      </trkpt>
      <trkpt lat="62.637672071761" lon="17.975490900579">
        <ele>67.4</ele>
        <time>2018-02-11T13:52:52Z</time>
      </trkpt>
      <trkpt lat="62.637653380124" lon="17.975506239456">
        <ele>67.6</ele>
        <time>2018-02-11T13:52:53Z</time>
      </trkpt>
      <trkpt lat="62.637632593012" lon="17.975520740143">
        <ele>67.8</ele>
        <time>2018-02-11T13:52:54Z</time>
      </trkpt>
      <trkpt lat="62.637612141176" lon="17.975532055708">
        <ele>67.8</ele>
        <time>2018-02-11T13:52:55Z</time>
      </trkpt>
      <trkpt lat="62.63759671848" lon="17.975560805625">
        <ele>68</ele>
        <time>2018-02-11T13:52:56Z</time>
      </trkpt>
      <trkpt lat="62.637579535585" lon="17.975571953552">
        <ele>68</ele>
        <time>2018-02-11T13:52:57Z</time>
      </trkpt>
      <trkpt lat="62.637563777613" lon="17.975589052628">
        <ele>68.2</ele>
        <time>2018-02-11T13:52:58Z</time>
      </trkpt>
      <trkpt lat="62.637550785668" lon="17.97561067793">
        <ele>68.4</ele>
        <time>2018-02-11T13:52:59Z</time>
      </trkpt>
      <trkpt lat="62.637542319949" lon="17.975607157532">
        <ele>68.4</ele>
        <time>2018-02-11T13:53:00Z</time>
      </trkpt>
      <trkpt lat="62.637513402394" lon="17.975635236897">
        <ele>68.6</ele>
        <time>2018-02-11T13:53:01Z</time>
      </trkpt>
      <trkpt lat="62.637497644422" lon="17.975648145023">
        <ele>68.8</ele>
        <time>2018-02-11T13:53:02Z</time>
      </trkpt>
      <trkpt lat="62.637479036604" lon="17.97566180752">
        <ele>69</ele>
        <time>2018-02-11T13:53:03Z</time>
      </trkpt>
      <trkpt lat="62.63746260808" lon="17.975684690107">
        <ele>69.2</ele>
        <time>2018-02-11T13:53:04Z</time>
      </trkpt>
      <trkpt lat="62.637449029402" lon="17.975694664568">
        <ele>69.2</ele>
        <time>2018-02-11T13:53:05Z</time>
      </trkpt>
      <trkpt lat="62.637426062996" lon="17.975718050069">
        <ele>69.6</ele>
        <time>2018-02-11T13:53:06Z</time>
      </trkpt>
      <trkpt lat="62.637408041911" lon="17.975738921">
        <ele>69.8</ele>
        <time>2018-02-11T13:53:07Z</time>
      </trkpt>
      <trkpt lat="62.637391278111" lon="17.975764988709">
        <ele>70</ele>
        <time>2018-02-11T13:53:08Z</time>
      </trkpt>
      <trkpt lat="62.637374011397" lon="17.975789463857">
        <ele>70</ele>
        <time>2018-02-11T13:53:09Z</time>
      </trkpt>
      <trkpt lat="62.637355822674" lon="17.975806060019">
        <ele>70.2</ele>
        <time>2018-02-11T13:53:10Z</time>
      </trkpt>
      <trkpt lat="62.637337466313" lon="17.975813687548">
        <ele>70.2</ele>
        <time>2018-02-11T13:53:11Z</time>
      </trkpt>
      <trkpt lat="62.637325899291" lon="17.975858363075">
        <ele>70.4</ele>
        <time>2018-02-11T13:53:12Z</time>
      </trkpt>
      <trkpt lat="62.637311063328" lon="17.975892058313">
        <ele>70.4</ele>
        <time>2018-02-11T13:53:13Z</time>
      </trkpt>
      <trkpt lat="62.637295472994" lon="17.9759233228">
        <ele>70.8</ele>
        <time>2018-02-11T13:53:14Z</time>
      </trkpt>
      <trkpt lat="62.637280804669" lon="17.97595265945">
        <ele>70.8</ele>
        <time>2018-02-11T13:53:15Z</time>
      </trkpt>
      <trkpt lat="62.637273931511" lon="17.975996161511">
        <ele>71.2</ele>
        <time>2018-02-11T13:53:16Z</time>
      </trkpt>
      <trkpt lat="62.637261526299" lon="17.976031952224">
        <ele>71.2</ele>
        <time>2018-02-11T13:53:17Z</time>
      </trkpt>
      <trkpt lat="62.637249959277" lon="17.976070425145">
        <ele>71.4</ele>
        <time>2018-02-11T13:53:18Z</time>
      </trkpt>
      <trkpt lat="62.63724467868" lon="17.976117028509">
        <ele>71.6</ele>
        <time>2018-02-11T13:53:19Z</time>
      </trkpt>
      <trkpt lat="62.637228585432" lon="17.976141084562">
        <ele>71.6</ele>
        <time>2018-02-11T13:53:20Z</time>
      </trkpt>
      <trkpt lat="62.63722372393" lon="17.976203697355">
        <ele>72</ele>
        <time>2018-02-11T13:53:21Z</time>
      </trkpt>
      <trkpt lat="62.637211570175" lon="17.976245020122">
        <ele>72.2</ele>
        <time>2018-02-11T13:53:22Z</time>
      </trkpt>
      <trkpt lat="62.637200841343" lon="17.976291120572">
        <ele>72.2</ele>
        <time>2018-02-11T13:53:23Z</time>
      </trkpt>
      <trkpt lat="62.637192207986" lon="17.976315763358">
        <ele>72.4</ele>
        <time>2018-02-11T13:53:24Z</time>
      </trkpt>
      <trkpt lat="62.637183323172" lon="17.97635163789">
        <ele>72.6</ele>
        <time>2018-02-11T13:53:25Z</time>
      </trkpt>
      <trkpt lat="62.637181562973" lon="17.97638684187">
        <ele>72.6</ele>
        <time>2018-02-11T13:53:26Z</time>
      </trkpt>
      <trkpt lat="62.637175611824" lon="17.976423806049">
        <ele>72.6</ele>
        <time>2018-02-11T13:53:27Z</time>
      </trkpt>
      <trkpt lat="62.637170163589" lon="17.976461273142">
        <ele>72.6</ele>
        <time>2018-02-11T13:53:28Z</time>
      </trkpt>
      <trkpt lat="62.637166475553" lon="17.976499829882">
        <ele>72.6</ele>
        <time>2018-02-11T13:53:29Z</time>
      </trkpt>
      <trkpt lat="62.637160943499" lon="17.976541320287">
        <ele>72.8</ele>
        <time>2018-02-11T13:53:30Z</time>
      </trkpt>
      <trkpt lat="62.637157004006" lon="17.976586750185">
        <ele>72.8</ele>
        <time>2018-02-11T13:53:31Z</time>
      </trkpt>
      <trkpt lat="62.637155746721" lon="17.976630084608">
        <ele>73</ele>
        <time>2018-02-11T13:53:32Z</time>
      </trkpt>
      <trkpt lat="62.637154824712" lon="17.976679621637">
        <ele>72.8</ele>
        <time>2018-02-11T13:53:33Z</time>
      </trkpt>
      <trkpt lat="62.637151723409" lon="17.97673301434">
        <ele>73</ele>
        <time>2018-02-11T13:53:34Z</time>
      </trkpt>
      <trkpt lat="62.637155914359" lon="17.976767715406">
        <ele>73</ele>
        <time>2018-02-11T13:53:35Z</time>
      </trkpt>
      <trkpt lat="62.637154657074" lon="17.976819264091">
        <ele>73</ele>
        <time>2018-02-11T13:53:36Z</time>
      </trkpt>
      <trkpt lat="62.637156752549" lon="17.976867795292">
        <ele>73</ele>
        <time>2018-02-11T13:53:37Z</time>
      </trkpt>
      <trkpt lat="62.637159350938" lon="17.976917583778">
        <ele>73.2</ele>
        <time>2018-02-11T13:53:38Z</time>
      </trkpt>
      <trkpt lat="62.637163541888" lon="17.976965360608">
        <ele>73.2</ele>
        <time>2018-02-11T13:53:39Z</time>
      </trkpt>
      <trkpt lat="62.637171253236" lon="17.977012802162">
        <ele>73.2</ele>
        <time>2018-02-11T13:53:40Z</time>
      </trkpt>
      <trkpt lat="62.637175025091" lon="17.977068625616">
        <ele>73.2</ele>
        <time>2018-02-11T13:53:41Z</time>
      </trkpt>
      <trkpt lat="62.63717343253" lon="17.977122856509">
        <ele>73.4</ele>
        <time>2018-02-11T13:53:42Z</time>
      </trkpt>
      <trkpt lat="62.637168654847" lon="17.977185553121">
        <ele>73.4</ele>
        <time>2018-02-11T13:53:43Z</time>
      </trkpt>
      <trkpt lat="62.637160775861" lon="17.977246992448">
        <ele>73.4</ele>
        <time>2018-02-11T13:53:44Z</time>
      </trkpt>
      <trkpt lat="62.637153818884" lon="17.977305330472">
        <ele>73.4</ele>
        <time>2018-02-11T13:53:45Z</time>
      </trkpt>
      <trkpt lat="62.637138480007" lon="17.977362830306">
        <ele>73.4</ele>
        <time>2018-02-11T13:53:46Z</time>
      </trkpt>
      <trkpt lat="62.637127164442" lon="17.977411026231">
        <ele>73.4</ele>
        <time>2018-02-11T13:53:47Z</time>
      </trkpt>
      <trkpt lat="62.637108388986" lon="17.977470872997">
        <ele>73.4</ele>
        <time>2018-02-11T13:53:48Z</time>
      </trkpt>
      <trkpt lat="62.637102270199" lon="17.977517811637">
        <ele>73.4</ele>
        <time>2018-02-11T13:53:49Z</time>
      </trkpt>
      <trkpt lat="62.637087518055" lon="17.977569192684">
        <ele>73.6</ele>
        <time>2018-02-11T13:53:50Z</time>
      </trkpt>
      <trkpt lat="62.637079471431" lon="17.977619651722">
        <ele>73.4</ele>
        <time>2018-02-11T13:53:51Z</time>
      </trkpt>
      <trkpt lat="62.637069664608" lon="17.977668602018">
        <ele>73.4</ele>
        <time>2018-02-11T13:53:52Z</time>
      </trkpt>
      <trkpt lat="62.637066228029" lon="17.977713780459">
        <ele>73.6</ele>
        <time>2018-02-11T13:53:53Z</time>
      </trkpt>
      <trkpt lat="62.637050637695" lon="17.977758707443">
        <ele>73.6</ele>
        <time>2018-02-11T13:53:54Z</time>
      </trkpt>
      <trkpt lat="62.637045021822" lon="17.977810842861">
        <ele>73.6</ele>
        <time>2018-02-11T13:53:55Z</time>
      </trkpt>
      <trkpt lat="62.637036639922" lon="17.977856356578">
        <ele>73.6</ele>
        <time>2018-02-11T13:53:56Z</time>
      </trkpt>
      <trkpt lat="62.637029431488" lon="17.977911928575">
        <ele>73.8</ele>
        <time>2018-02-11T13:53:57Z</time>
      </trkpt>
      <trkpt lat="62.637019457027" lon="17.977969596047">
        <ele>73.8</ele>
        <time>2018-02-11T13:53:58Z</time>
      </trkpt>
      <trkpt lat="62.637011578041" lon="17.97802466513">
        <ele>73.8</ele>
        <time>2018-02-11T13:53:59Z</time>
      </trkpt>
      <trkpt lat="62.637009566385" lon="17.978067999553">
        <ele>73.8</ele>
        <time>2018-02-11T13:54:00Z</time>
      </trkpt>
      <trkpt lat="62.636993808413" lon="17.978123320093">
        <ele>73.8</ele>
        <time>2018-02-11T13:54:01Z</time>
      </trkpt>
      <trkpt lat="62.636984504504" lon="17.978171683656">
        <ele>74</ele>
        <time>2018-02-11T13:54:02Z</time>
      </trkpt>
      <trkpt lat="62.636972602206" lon="17.978218622296">
        <ele>74</ele>
        <time>2018-02-11T13:54:03Z</time>
      </trkpt>
      <trkpt lat="62.636961538098" lon="17.978267153497">
        <ele>74</ele>
        <time>2018-02-11T13:54:04Z</time>
      </trkpt>
      <trkpt lat="62.63695215037" lon="17.978316271431">
        <ele>74</ele>
        <time>2018-02-11T13:54:05Z</time>
      </trkpt>
      <trkpt lat="62.636928513412" lon="17.978370669962">
        <ele>74.2</ele>
        <time>2018-02-11T13:54:06Z</time>
      </trkpt>
      <trkpt lat="62.636914180363" lon="17.978414339661">
        <ele>74.2</ele>
        <time>2018-02-11T13:54:07Z</time>
      </trkpt>
      <trkpt lat="62.636896746011" lon="17.97845968574">
        <ele>74.2</ele>
        <time>2018-02-11T13:54:08Z</time>
      </trkpt>
      <trkpt lat="62.636880233668" lon="17.978501092326">
        <ele>74.2</ele>
        <time>2018-02-11T13:54:09Z</time>
      </trkpt>
      <trkpt lat="62.636869504836" lon="17.97853428465">
        <ele>74.2</ele>
        <time>2018-02-11T13:54:10Z</time>
      </trkpt>
      <trkpt lat="62.636847125163" lon="17.978562112558">
        <ele>74.2</ele>
        <time>2018-02-11T13:54:11Z</time>
      </trkpt>
      <trkpt lat="62.636831283372" lon="17.978606955723">
        <ele>74.2</ele>
        <time>2018-02-11T13:54:12Z</time>
      </trkpt>
      <trkpt lat="62.636816866504" lon="17.978645177187">
        <ele>74.2</ele>
        <time>2018-02-11T13:54:13Z</time>
      </trkpt>
      <trkpt lat="62.63679959979" lon="17.978674765294">
        <ele>74.2</ele>
        <time>2018-02-11T13:54:14Z</time>
      </trkpt>
      <trkpt lat="62.636780824334" lon="17.978696474415">
        <ele>74.4</ele>
        <time>2018-02-11T13:54:15Z</time>
      </trkpt>
      <trkpt lat="62.636756684462" lon="17.978718183536">
        <ele>74.4</ele>
        <time>2018-02-11T13:54:16Z</time>
      </trkpt>
      <trkpt lat="62.636736484083" lon="17.978732348947">
        <ele>74.6</ele>
        <time>2018-02-11T13:54:17Z</time>
      </trkpt>
      <trkpt lat="62.636706393062" lon="17.9787480231">
        <ele>74.8</ele>
        <time>2018-02-11T13:54:18Z</time>
      </trkpt>
      <trkpt lat="62.636689210167" lon="17.978766128004">
        <ele>74.8</ele>
        <time>2018-02-11T13:54:19Z</time>
      </trkpt>
      <trkpt lat="62.636660963164" lon="17.978756656457">
        <ele>74.8</ele>
        <time>2018-02-11T13:54:20Z</time>
      </trkpt>
      <trkpt lat="62.636634895455" lon="17.978768474936">
        <ele>75</ele>
        <time>2018-02-11T13:54:21Z</time>
      </trkpt>
      <trkpt lat="62.636613186334" lon="17.978766379461">
        <ele>75</ele>
        <time>2018-02-11T13:54:22Z</time>
      </trkpt>
      <trkpt lat="62.636594829973" lon="17.978765122176">
        <ele>75.2</ele>
        <time>2018-02-11T13:54:23Z</time>
      </trkpt>
      <trkpt lat="62.636570690101" lon="17.978768307298">
        <ele>75.4</ele>
        <time>2018-02-11T13:54:24Z</time>
      </trkpt>
      <trkpt lat="62.636547723695" lon="17.978762859063">
        <ele>75.4</ele>
        <time>2018-02-11T13:54:25Z</time>
      </trkpt>
      <trkpt lat="62.636530708438" lon="17.978782472709">
        <ele>75.6</ele>
        <time>2018-02-11T13:54:26Z</time>
      </trkpt>
      <trkpt lat="62.636509837507" lon="17.97878406527">
        <ele>75.8</ele>
        <time>2018-02-11T13:54:27Z</time>
      </trkpt>
      <trkpt lat="62.636491397327" lon="17.978790351695">
        <ele>76</ele>
        <time>2018-02-11T13:54:28Z</time>
      </trkpt>
      <trkpt lat="62.636478740658" lon="17.978803930373">
        <ele>76</ele>
        <time>2018-02-11T13:54:29Z</time>
      </trkpt>
      <trkpt lat="62.636456528623" lon="17.978797560129">
        <ele>76</ele>
        <time>2018-02-11T13:54:30Z</time>
      </trkpt>
      <trkpt lat="62.636440267737" lon="17.978807115495">
        <ele>76.2</ele>
        <time>2018-02-11T13:54:31Z</time>
      </trkpt>
      <trkpt lat="62.636424342127" lon="17.978819353069">
        <ele>76.4</ele>
        <time>2018-02-11T13:54:32Z</time>
      </trkpt>
      <trkpt lat="62.636406656318" lon="17.978828824616">
        <ele>76.6</ele>
        <time>2018-02-11T13:54:33Z</time>
      </trkpt>
      <trkpt lat="62.636390395432" lon="17.978837625611">
        <ele>76.6</ele>
        <time>2018-02-11T13:54:34Z</time>
      </trkpt>
      <trkpt lat="62.636382432627" lon="17.978849527909">
        <ele>76.8</ele>
        <time>2018-02-11T13:54:35Z</time>
      </trkpt>
      <trkpt lat="62.636359214764" lon="17.978863022768">
        <ele>77</ele>
        <time>2018-02-11T13:54:36Z</time>
      </trkpt>
      <trkpt lat="62.636340355489" lon="17.978880960034">
        <ele>77.2</ele>
        <time>2018-02-11T13:54:37Z</time>
      </trkpt>
      <trkpt lat="62.636323843146" lon="17.978896969463">
        <ele>77.4</ele>
        <time>2018-02-11T13:54:38Z</time>
      </trkpt>
      <trkpt lat="62.63630590588" lon="17.978909290856">
        <ele>77.6</ele>
        <time>2018-02-11T13:54:39Z</time>
      </trkpt>
      <trkpt lat="62.636288471528" lon="17.978922869534">
        <ele>77.8</ele>
        <time>2018-02-11T13:54:40Z</time>
      </trkpt>
      <trkpt lat="62.63627824561" lon="17.978943153732">
        <ele>78.2</ele>
        <time>2018-02-11T13:54:41Z</time>
      </trkpt>
      <trkpt lat="62.636261733267" lon="17.978960252808">
        <ele>78.4</ele>
        <time>2018-02-11T13:54:42Z</time>
      </trkpt>
      <trkpt lat="62.636252094082" lon="17.978978776807">
        <ele>78.6</ele>
        <time>2018-02-11T13:54:43Z</time>
      </trkpt>
      <trkpt lat="62.636243125449" lon="17.978999228643">
        <ele>79</ele>
        <time>2018-02-11T13:54:44Z</time>
      </trkpt>
      <trkpt lat="62.636233318626" lon="17.979021189221">
        <ele>79.2</ele>
        <time>2018-02-11T13:54:45Z</time>
      </trkpt>
      <trkpt lat="62.636222254518" lon="17.97903971322">
        <ele>79.6</ele>
        <time>2018-02-11T13:54:46Z</time>
      </trkpt>
      <trkpt lat="62.636210603677" lon="17.979059243047">
        <ele>79.8</ele>
        <time>2018-02-11T13:54:47Z</time>
      </trkpt>
      <trkpt lat="62.636201048311" lon="17.979087238593">
        <ele>80.2</ele>
        <time>2018-02-11T13:54:48Z</time>
      </trkpt>
      <trkpt lat="62.636192666411" lon="17.979112468112">
        <ele>80.2</ele>
        <time>2018-02-11T13:54:49Z</time>
      </trkpt>
      <trkpt lat="62.636176992258" lon="17.979138032907">
        <ele>80.6</ele>
        <time>2018-02-11T13:54:50Z</time>
      </trkpt>
      <trkpt lat="62.636161988657" lon="17.979174745629">
        <ele>80.8</ele>
        <time>2018-02-11T13:54:51Z</time>
      </trkpt>
      <trkpt lat="62.636149583445" lon="17.979213721464">
        <ele>81.2</ele>
        <time>2018-02-11T13:54:52Z</time>
      </trkpt>
      <trkpt lat="62.636138016423" lon="17.979249931272">
        <ele>81.4</ele>
        <time>2018-02-11T13:54:53Z</time>
      </trkpt>
      <trkpt lat="62.636122174632" lon="17.979285805804">
        <ele>81.6</ele>
        <time>2018-02-11T13:54:54Z</time>
      </trkpt>
      <trkpt lat="62.636109685601" lon="17.979321093603">
        <ele>81.6</ele>
        <time>2018-02-11T13:54:55Z</time>
      </trkpt>
      <trkpt lat="62.636099794959" lon="17.979353699194">
        <ele>81.8</ele>
        <time>2018-02-11T13:54:56Z</time>
      </trkpt>
      <trkpt lat="62.636090323412" lon="17.979386220966">
        <ele>82</ele>
        <time>2018-02-11T13:54:57Z</time>
      </trkpt>
      <trkpt lat="62.636082025331" lon="17.979422682231">
        <ele>82.2</ele>
        <time>2018-02-11T13:54:58Z</time>
      </trkpt>
      <trkpt lat="62.636075152173" lon="17.979466100473">
        <ele>82.2</ele>
        <time>2018-02-11T13:54:59Z</time>
      </trkpt>
      <trkpt lat="62.636079007847" lon="17.979505076308">
        <ele>82.2</ele>
        <time>2018-02-11T13:55:00Z</time>
      </trkpt>
      <trkpt lat="62.6360695363" lon="17.979599205045">
        <ele>82.4</ele>
        <time>2018-02-11T13:55:01Z</time>
      </trkpt>
      <trkpt lat="62.636065764445" lon="17.979690400117">
        <ele>82.2</ele>
        <time>2018-02-11T13:55:02Z</time>
      </trkpt>
      <trkpt lat="62.636061824952" lon="17.979797688437">
        <ele>82</ele>
        <time>2018-02-11T13:55:03Z</time>
      </trkpt>
      <trkpt lat="62.636057717821" lon="17.979911179363">
        <ele>81.6</ele>
        <time>2018-02-11T13:55:04Z</time>
      </trkpt>
      <trkpt lat="62.636058053097" lon="17.980046966143">
        <ele>80.6</ele>
        <time>2018-02-11T13:55:05Z</time>
      </trkpt>
      <trkpt lat="62.63605947802" lon="17.980166827313">
        <ele>79.2</ele>
        <time>2018-02-11T13:55:06Z</time>
      </trkpt>
      <trkpt lat="62.636071128861" lon="17.980278893316">
        <ele>78.4</ele>
        <time>2018-02-11T13:55:07Z</time>
      </trkpt>
      <trkpt lat="62.636085964824" lon="17.980390624043">
        <ele>77.4</ele>
        <time>2018-02-11T13:55:08Z</time>
      </trkpt>
      <trkpt lat="62.636100716968" lon="17.980502019494">
        <ele>76.8</ele>
        <time>2018-02-11T13:55:09Z</time>
      </trkpt>
      <trkpt lat="62.636114295646" lon="17.980608301986">
        <ele>76.4</ele>
        <time>2018-02-11T13:55:10Z</time>
      </trkpt>
      <trkpt lat="62.636132987283" lon="17.980702011628">
        <ele>76.2</ele>
        <time>2018-02-11T13:55:11Z</time>
      </trkpt>
      <trkpt lat="62.636155366956" lon="17.980808461758">
        <ele>75.8</ele>
        <time>2018-02-11T13:55:12Z</time>
      </trkpt>
      <trkpt lat="62.636171460204" lon="17.980902506676">
        <ele>75.6</ele>
        <time>2018-02-11T13:55:13Z</time>
      </trkpt>
      <trkpt lat="62.636187469633" lon="17.981003927666">
        <ele>75.6</ele>
        <time>2018-02-11T13:55:14Z</time>
      </trkpt>
      <trkpt lat="62.636205993632" lon="17.981100403335">
        <ele>75.4</ele>
        <time>2018-02-11T13:55:15Z</time>
      </trkpt>
      <trkpt lat="62.63620951403" lon="17.981201740506">
        <ele>75.2</ele>
        <time>2018-02-11T13:55:16Z</time>
      </trkpt>
      <trkpt lat="62.636214962265" lon="17.981289498999">
        <ele>75.2</ele>
        <time>2018-02-11T13:55:17Z</time>
      </trkpt>
      <trkpt lat="62.636221164871" lon="17.981387315772">
        <ele>75</ele>
        <time>2018-02-11T13:55:18Z</time>
      </trkpt>
      <trkpt lat="62.63623130697" lon="17.981480271043">
        <ele>75</ele>
        <time>2018-02-11T13:55:19Z</time>
      </trkpt>
      <trkpt lat="62.636221081052" lon="17.981560234369">
        <ele>75</ele>
        <time>2018-02-11T13:55:20Z</time>
      </trkpt>
      <trkpt lat="62.636234324454" lon="17.981648747233">
        <ele>75</ele>
        <time>2018-02-11T13:55:21Z</time>
      </trkpt>
      <trkpt lat="62.636240610879" lon="17.981721334487">
        <ele>75.2</ele>
        <time>2018-02-11T13:55:22Z</time>
      </trkpt>
      <trkpt lat="62.636245807657" lon="17.981785456022">
        <ele>75.2</ele>
        <time>2018-02-11T13:55:23Z</time>
      </trkpt>
      <trkpt lat="62.636266091855" lon="17.981870029393">
        <ele>75.6</ele>
        <time>2018-02-11T13:55:24Z</time>
      </trkpt>
      <trkpt lat="62.63628495113" lon="17.981932474548">
        <ele>75.6</ele>
        <time>2018-02-11T13:55:25Z</time>
      </trkpt>
      <trkpt lat="62.636291991926" lon="17.982036913022">
        <ele>75.6</ele>
        <time>2018-02-11T13:55:26Z</time>
      </trkpt>
      <trkpt lat="62.636300960559" lon="17.982109919371">
        <ele>75.4</ele>
        <time>2018-02-11T13:55:27Z</time>
      </trkpt>
      <trkpt lat="62.63631009683" lon="17.982182171349">
        <ele>75.4</ele>
        <time>2018-02-11T13:55:28Z</time>
      </trkpt>
      <trkpt lat="62.636320909481" lon="17.982250735291">
        <ele>75.4</ele>
        <time>2018-02-11T13:55:29Z</time>
      </trkpt>
      <trkpt lat="62.636341612774" lon="17.982324412192">
        <ele>75.4</ele>
        <time>2018-02-11T13:55:30Z</time>
      </trkpt>
      <trkpt lat="62.636329710476" lon="17.982403956423">
        <ele>75.4</ele>
        <time>2018-02-11T13:55:31Z</time>
      </trkpt>
      <trkpt lat="62.63633021339" lon="17.982464138465">
        <ele>75.4</ele>
        <time>2018-02-11T13:55:32Z</time>
      </trkpt>
      <trkpt lat="62.63633356615" lon="17.982528846733">
        <ele>75.6</ele>
        <time>2018-02-11T13:55:33Z</time>
      </trkpt>
      <trkpt lat="62.636336751272" lon="17.982596237209">
        <ele>75.6</ele>
        <time>2018-02-11T13:55:34Z</time>
      </trkpt>
      <trkpt lat="62.636339684937" lon="17.982663879142">
        <ele>75.6</ele>
        <time>2018-02-11T13:55:35Z</time>
      </trkpt>
      <trkpt lat="62.636332979417" lon="17.982734370921">
        <ele>75.8</ele>
        <time>2018-02-11T13:55:36Z</time>
      </trkpt>
      <trkpt lat="62.63633188977" lon="17.98279731899">
        <ele>75.8</ele>
        <time>2018-02-11T13:55:37Z</time>
      </trkpt>
      <trkpt lat="62.636329542838" lon="17.98286269781">
        <ele>75.8</ele>
        <time>2018-02-11T13:55:38Z</time>
      </trkpt>
      <trkpt lat="62.636325100431" lon="17.982927154621">
        <ele>76</ele>
        <time>2018-02-11T13:55:39Z</time>
      </trkpt>
      <trkpt lat="62.63632183149" lon="17.982981888428">
        <ele>76</ele>
        <time>2018-02-11T13:55:40Z</time>
      </trkpt>
      <trkpt lat="62.636332895598" lon="17.983030671086">
        <ele>75.8</ele>
        <time>2018-02-11T13:55:41Z</time>
      </trkpt>
      <trkpt lat="62.636333398512" lon="17.983105856729">
        <ele>75.8</ele>
        <time>2018-02-11T13:55:42Z</time>
      </trkpt>
      <trkpt lat="62.636340774584" lon="17.983171487006">
        <ele>75.8</ele>
        <time>2018-02-11T13:55:43Z</time>
      </trkpt>
      <trkpt lat="62.63633524253" lon="17.983238877482">
        <ele>75.8</ele>
        <time>2018-02-11T13:55:44Z</time>
      </trkpt>
      <trkpt lat="62.636330883942" lon="17.983298724248">
        <ele>75.8</ele>
        <time>2018-02-11T13:55:45Z</time>
      </trkpt>
      <trkpt lat="62.636331219218" lon="17.98335974448">
        <ele>76</ele>
        <time>2018-02-11T13:55:46Z</time>
      </trkpt>
      <trkpt lat="62.636329207562" lon="17.983420429436">
        <ele>76</ele>
        <time>2018-02-11T13:55:47Z</time>
      </trkpt>
      <trkpt lat="62.636320658024" lon="17.983477677813">
        <ele>76.2</ele>
        <time>2018-02-11T13:55:48Z</time>
      </trkpt>
      <trkpt lat="62.636317724359" lon="17.983524616453">
        <ele>76.2</ele>
        <time>2018-02-11T13:55:49Z</time>
      </trkpt>
      <trkpt lat="62.636302804577" lon="17.983587899798">
        <ele>76.4</ele>
        <time>2018-02-11T13:55:50Z</time>
      </trkpt>
      <trkpt lat="62.636299954731" lon="17.983641879234">
        <ele>76.4</ele>
        <time>2018-02-11T13:55:51Z</time>
      </trkpt>
      <trkpt lat="62.636292243383" lon="17.98369585867">
        <ele>76.4</ele>
        <time>2018-02-11T13:55:52Z</time>
      </trkpt>
      <trkpt lat="62.636287549519" lon="17.98374028274">
        <ele>76.4</ele>
        <time>2018-02-11T13:55:53Z</time>
      </trkpt>
      <trkpt lat="62.636275228126" lon="17.983792753434">
        <ele>76.6</ele>
        <time>2018-02-11T13:55:54Z</time>
      </trkpt>
      <trkpt lat="62.63626651095" lon="17.983848241612">
        <ele>76.6</ele>
        <time>2018-02-11T13:55:55Z</time>
      </trkpt>
      <trkpt lat="62.636260308344" lon="17.983909094206">
        <ele>76.8</ele>
        <time>2018-02-11T13:55:56Z</time>
      </trkpt>
      <trkpt lat="62.63625309991" lon="17.983966761678">
        <ele>76.8</ele>
        <time>2018-02-11T13:55:57Z</time>
      </trkpt>
      <trkpt lat="62.636247735494" lon="17.984022836589">
        <ele>77</ele>
        <time>2018-02-11T13:55:58Z</time>
      </trkpt>
      <trkpt lat="62.636246981123" lon="17.984070361962">
        <ele>77.2</ele>
        <time>2018-02-11T13:55:59Z</time>
      </trkpt>
      <trkpt lat="62.6362455562" lon="17.984123419389">
        <ele>77.2</ele>
        <time>2018-02-11T13:56:00Z</time>
      </trkpt>
      <trkpt lat="62.636237090481" lon="17.984182679422">
        <ele>77.2</ele>
        <time>2018-02-11T13:56:01Z</time>
      </trkpt>
      <trkpt lat="62.636231558427" lon="17.984236742677">
        <ele>77.2</ele>
        <time>2018-02-11T13:56:02Z</time>
      </trkpt>
      <trkpt lat="62.63622627783" lon="17.984287369353">
        <ele>77.4</ele>
        <time>2018-02-11T13:56:03Z</time>
      </trkpt>
      <trkpt lat="62.636224685269" lon="17.984332463975">
        <ele>77.4</ele>
        <time>2018-02-11T13:56:04Z</time>
      </trkpt>
      <trkpt lat="62.636226864563" lon="17.98438485085">
        <ele>77.6</ele>
        <time>2018-02-11T13:56:05Z</time>
      </trkpt>
      <trkpt lat="62.636227199839" lon="17.984429442558">
        <ele>77.6</ele>
        <time>2018-02-11T13:56:06Z</time>
      </trkpt>
      <trkpt lat="62.636228624762" lon="17.984488954048">
        <ele>77.6</ele>
        <time>2018-02-11T13:56:07Z</time>
      </trkpt>
      <trkpt lat="62.636225272002" lon="17.984539832181">
        <ele>77.6</ele>
        <time>2018-02-11T13:56:08Z</time>
      </trkpt>
      <trkpt lat="62.636223344165" lon="17.984583669518">
        <ele>77.8</ele>
        <time>2018-02-11T13:56:09Z</time>
      </trkpt>
      <trkpt lat="62.636226613106" lon="17.984620801335">
        <ele>78</ele>
        <time>2018-02-11T13:56:10Z</time>
      </trkpt>
      <trkpt lat="62.636219656129" lon="17.984679809911">
        <ele>77.8</ele>
        <time>2018-02-11T13:56:11Z</time>
      </trkpt>
      <trkpt lat="62.636215884274" lon="17.984724569257">
        <ele>78</ele>
        <time>2018-02-11T13:56:12Z</time>
      </trkpt>
      <trkpt lat="62.636211944781" lon="17.984776956132">
        <ele>78</ele>
        <time>2018-02-11T13:56:13Z</time>
      </trkpt>
      <trkpt lat="62.636207167098" lon="17.984811824836">
        <ele>78.2</ele>
        <time>2018-02-11T13:56:14Z</time>
      </trkpt>
      <trkpt lat="62.636209094935" lon="17.984843256961">
        <ele>78.2</ele>
        <time>2018-02-11T13:56:15Z</time>
      </trkpt>
      <trkpt lat="62.6362120286" lon="17.984903019908">
        <ele>78.4</ele>
        <time>2018-02-11T13:56:16Z</time>
      </trkpt>
      <trkpt lat="62.636211358048" lon="17.984949371815">
        <ele>78.6</ele>
        <time>2018-02-11T13:56:17Z</time>
      </trkpt>
      <trkpt lat="62.636206412727" lon="17.985000333767">
        <ele>78.6</ele>
        <time>2018-02-11T13:56:18Z</time>
      </trkpt>
      <trkpt lat="62.63620616127" lon="17.98504283">
        <ele>78.8</ele>
        <time>2018-02-11T13:56:19Z</time>
      </trkpt>
      <trkpt lat="62.636204065795" lon="17.985087589346">
        <ele>78.8</ele>
        <time>2018-02-11T13:56:20Z</time>
      </trkpt>
      <trkpt lat="62.636201215949" lon="17.985139138031">
        <ele>79</ele>
        <time>2018-02-11T13:56:21Z</time>
      </trkpt>
      <trkpt lat="62.636198952836" lon="17.985190183802">
        <ele>79.2</ele>
        <time>2018-02-11T13:56:22Z</time>
      </trkpt>
      <trkpt lat="62.636199874845" lon="17.98524148103">
        <ele>79.2</ele>
        <time>2018-02-11T13:56:23Z</time>
      </trkpt>
      <trkpt lat="62.636189313651" lon="17.985289676955">
        <ele>79.4</ele>
        <time>2018-02-11T13:56:24Z</time>
      </trkpt>
      <trkpt lat="62.636189062194" lon="17.985338962527">
        <ele>79.4</ele>
        <time>2018-02-11T13:56:25Z</time>
      </trkpt>
      <trkpt lat="62.636174226231" lon="17.985401491501">
        <ele>79.6</ele>
        <time>2018-02-11T13:56:26Z</time>
      </trkpt>
      <trkpt lat="62.636169448548" lon="17.985453459281">
        <ele>79.6</ele>
        <time>2018-02-11T13:56:27Z</time>
      </trkpt>
      <trkpt lat="62.636163665037" lon="17.985504505052">
        <ele>79.8</ele>
        <time>2018-02-11T13:56:28Z</time>
      </trkpt>
      <trkpt lat="62.63615754625" lon="17.985549432036">
        <ele>79.8</ele>
        <time>2018-02-11T13:56:29Z</time>
      </trkpt>
      <trkpt lat="62.636161066648" lon="17.985592598821">
        <ele>79.8</ele>
        <time>2018-02-11T13:56:30Z</time>
      </trkpt>
      <trkpt lat="62.636144638124" lon="17.985644147506">
        <ele>79.8</ele>
        <time>2018-02-11T13:56:31Z</time>
      </trkpt>
      <trkpt lat="62.636135334215" lon="17.98569578001">
        <ele>80</ele>
        <time>2018-02-11T13:56:32Z</time>
      </trkpt>
      <trkpt lat="62.636124186288" lon="17.985741545184">
        <ele>80</ele>
        <time>2018-02-11T13:56:33Z</time>
      </trkpt>
      <trkpt lat="62.636109015049" lon="17.985778341725">
        <ele>80</ele>
        <time>2018-02-11T13:56:34Z</time>
      </trkpt>
      <trkpt lat="62.636093759991" lon="17.985810528221">
        <ele>80</ele>
        <time>2018-02-11T13:56:35Z</time>
      </trkpt>
      <trkpt lat="62.63608546191" lon="17.98586677077">
        <ele>80.4</ele>
        <time>2018-02-11T13:56:36Z</time>
      </trkpt>
      <trkpt lat="62.63606702173" lon="17.98590029837">
        <ele>80.6</ele>
        <time>2018-02-11T13:56:37Z</time>
      </trkpt>
      <trkpt lat="62.636049838835" lon="17.985935334712">
        <ele>80.6</ele>
        <time>2018-02-11T13:56:38Z</time>
      </trkpt>
      <trkpt lat="62.63603097956" lon="17.985964755181">
        <ele>80.8</ele>
        <time>2018-02-11T13:56:39Z</time>
      </trkpt>
      <trkpt lat="62.636013545208" lon="17.985983782094">
        <ele>81</ele>
        <time>2018-02-11T13:56:40Z</time>
      </trkpt>
      <trkpt lat="62.635993177191" lon="17.986024853404">
        <ele>80.8</ele>
        <time>2018-02-11T13:56:41Z</time>
      </trkpt>
      <trkpt lat="62.635970210785" lon="17.986041784842">
        <ele>81</ele>
        <time>2018-02-11T13:56:42Z</time>
      </trkpt>
      <trkpt lat="62.635954620451" lon="17.986062320497">
        <ele>81</ele>
        <time>2018-02-11T13:56:43Z</time>
      </trkpt>
      <trkpt lat="62.635934420072" lon="17.986072714053">
        <ele>81.2</ele>
        <time>2018-02-11T13:56:44Z</time>
      </trkpt>
      <trkpt lat="62.635914806426" lon="17.986073552243">
        <ele>81.2</ele>
        <time>2018-02-11T13:56:45Z</time>
      </trkpt>
      <trkpt lat="62.635898210264" lon="17.986128621326">
        <ele>81.2</ele>
        <time>2018-02-11T13:56:46Z</time>
      </trkpt>
      <trkpt lat="62.635877758428" lon="17.986149995171">
        <ele>81.4</ele>
        <time>2018-02-11T13:56:47Z</time>
      </trkpt>
      <trkpt lat="62.635863006284" lon="17.986191820852">
        <ele>81.4</ele>
        <time>2018-02-11T13:56:48Z</time>
      </trkpt>
      <trkpt lat="62.635845069018" lon="17.986213446154">
        <ele>81.6</ele>
        <time>2018-02-11T13:56:49Z</time>
      </trkpt>
      <trkpt lat="62.63583316672" lon="17.986237166931">
        <ele>81.6</ele>
        <time>2018-02-11T13:56:50Z</time>
      </trkpt>
      <trkpt lat="62.635814977997" lon="17.98627832206">
        <ele>81.6</ele>
        <time>2018-02-11T13:56:51Z</time>
      </trkpt>
      <trkpt lat="62.635800644948" lon="17.986307742529">
        <ele>81.8</ele>
        <time>2018-02-11T13:56:52Z</time>
      </trkpt>
      <trkpt lat="62.635791173401" lon="17.986337917369">
        <ele>81.8</ele>
        <time>2018-02-11T13:56:53Z</time>
      </trkpt>
      <trkpt lat="62.635767033529" lon="17.986364320354">
        <ele>82.2</ele>
        <time>2018-02-11T13:56:54Z</time>
      </trkpt>
      <trkpt lat="62.635749682996" lon="17.986392651176">
        <ele>82.4</ele>
        <time>2018-02-11T13:56:55Z</time>
      </trkpt>
      <trkpt lat="62.635735014671" lon="17.98643506359">
        <ele>82.6</ele>
        <time>2018-02-11T13:56:56Z</time>
      </trkpt>
      <trkpt lat="62.635715568663" lon="17.986473285054">
        <ele>82.8</ele>
        <time>2018-02-11T13:56:57Z</time>
      </trkpt>
      <trkpt lat="62.635705426564" lon="17.986511003604">
        <ele>83</ele>
        <time>2018-02-11T13:56:58Z</time>
      </trkpt>
      <trkpt lat="62.635701654709" lon="17.986547716326">
        <ele>83</ele>
        <time>2018-02-11T13:56:59Z</time>
      </trkpt>
      <trkpt lat="62.635688243669" lon="17.986584009953">
        <ele>82.8</ele>
        <time>2018-02-11T13:57:00Z</time>
      </trkpt>
      <trkpt lat="62.635667708014" lon="17.986626254729">
        <ele>82.8</ele>
        <time>2018-02-11T13:57:01Z</time>
      </trkpt>
      <trkpt lat="62.635653291146" lon="17.986667326039">
        <ele>82.8</ele>
        <time>2018-02-11T13:57:02Z</time>
      </trkpt>
      <trkpt lat="62.6356420594" lon="17.98670496077">
        <ele>82.8</ele>
        <time>2018-02-11T13:57:03Z</time>
      </trkpt>
      <trkpt lat="62.635629067455" lon="17.986744942433">
        <ele>82.8</ele>
        <time>2018-02-11T13:57:04Z</time>
      </trkpt>
      <trkpt lat="62.635616410786" lon="17.986783080078">
        <ele>83</ele>
        <time>2018-02-11T13:57:05Z</time>
      </trkpt>
      <trkpt lat="62.635606268687" lon="17.986824989578">
        <ele>83.2</ele>
        <time>2018-02-11T13:57:06Z</time>
      </trkpt>
      <trkpt lat="62.635593863475" lon="17.986863043404">
        <ele>83.2</ele>
        <time>2018-02-11T13:57:07Z</time>
      </trkpt>
      <trkpt lat="62.635575339476" lon="17.986901516325">
        <ele>83.4</ele>
        <time>2018-02-11T13:57:08Z</time>
      </trkpt>
      <trkpt lat="62.635559497685" lon="17.986939570151">
        <ele>83.4</ele>
        <time>2018-02-11T13:57:09Z</time>
      </trkpt>
      <trkpt lat="62.635552624527" lon="17.986982066384">
        <ele>83.6</ele>
        <time>2018-02-11T13:57:10Z</time>
      </trkpt>
      <trkpt lat="62.635529322845" lon="17.987004026962">
        <ele>83.8</ele>
        <time>2018-02-11T13:57:11Z</time>
      </trkpt>
      <trkpt lat="62.635517420547" lon="17.987055072733">
        <ele>83.8</ele>
        <time>2018-02-11T13:57:12Z</time>
      </trkpt>
      <trkpt lat="62.635503841869" lon="17.987085415211">
        <ele>83.8</ele>
        <time>2018-02-11T13:57:13Z</time>
      </trkpt>
      <trkpt lat="62.63549286158" lon="17.987131934756">
        <ele>83.8</ele>
        <time>2018-02-11T13:57:14Z</time>
      </trkpt>
      <trkpt lat="62.635485736965" lon="17.987167054917">
        <ele>84</ele>
        <time>2018-02-11T13:57:15Z</time>
      </trkpt>
      <trkpt lat="62.635461597093" lon="17.987199995784">
        <ele>84</ele>
        <time>2018-02-11T13:57:16Z</time>
      </trkpt>
      <trkpt lat="62.635452460822" lon="17.987237714334">
        <ele>84.2</ele>
        <time>2018-02-11T13:57:17Z</time>
      </trkpt>
      <trkpt lat="62.635432008986" lon="17.987270403744">
        <ele>84.4</ele>
        <time>2018-02-11T13:57:18Z</time>
      </trkpt>
      <trkpt lat="62.635414742272" lon="17.987300494765">
        <ele>84.4</ele>
        <time>2018-02-11T13:57:19Z</time>
      </trkpt>
      <trkpt lat="62.635396218273" lon="17.987324802275">
        <ele>84.6</ele>
        <time>2018-02-11T13:57:20Z</time>
      </trkpt>
      <trkpt lat="62.635377945731" lon="17.987370902725">
        <ele>84.6</ele>
        <time>2018-02-11T13:57:21Z</time>
      </trkpt>
      <trkpt lat="62.635361181931" lon="17.987403089221">
        <ele>84.8</ele>
        <time>2018-02-11T13:57:22Z</time>
      </trkpt>
      <trkpt lat="62.635348525262" lon="17.987438544658">
        <ele>84.8</ele>
        <time>2018-02-11T13:57:23Z</time>
      </trkpt>
      <trkpt lat="62.635327654331" lon="17.987466540204">
        <ele>84.8</ele>
        <time>2018-02-11T13:57:24Z</time>
      </trkpt>
      <trkpt lat="62.635313153644" lon="17.98749285937">
        <ele>84.8</ele>
        <time>2018-02-11T13:57:25Z</time>
      </trkpt>
      <trkpt lat="62.635302927726" lon="17.987528817721">
        <ele>84.8</ele>
        <time>2018-02-11T13:57:26Z</time>
      </trkpt>
      <trkpt lat="62.635280631872" lon="17.987578438569">
        <ele>85</ele>
        <time>2018-02-11T13:57:27Z</time>
      </trkpt>
      <trkpt lat="62.635269651583" lon="17.987622946458">
        <ele>85.2</ele>
        <time>2018-02-11T13:57:28Z</time>
      </trkpt>
      <trkpt lat="62.635260096217" lon="17.987665107415">
        <ele>85</ele>
        <time>2018-02-11T13:57:29Z</time>
      </trkpt>
      <trkpt lat="62.635252468688" lon="17.987691342762">
        <ele>85.2</ele>
        <time>2018-02-11T13:57:30Z</time>
      </trkpt>
      <trkpt lat="62.635255234715" lon="17.987738281402">
        <ele>85.4</ele>
        <time>2018-02-11T13:57:31Z</time>
      </trkpt>
      <trkpt lat="62.63525062467" lon="17.987779436531">
        <ele>85.6</ele>
        <time>2018-02-11T13:57:32Z</time>
      </trkpt>
      <trkpt lat="62.635245092616" lon="17.987818412366">
        <ele>86</ele>
        <time>2018-02-11T13:57:33Z</time>
      </trkpt>
      <trkpt lat="62.635239812019" lon="17.987854622174">
        <ele>86</ele>
        <time>2018-02-11T13:57:34Z</time>
      </trkpt>
      <trkpt lat="62.635235621069" lon="17.987894520018">
        <ele>86.4</ele>
        <time>2018-02-11T13:57:35Z</time>
      </trkpt>
      <trkpt lat="62.635233609413" lon="17.987933412034">
        <ele>86.4</ele>
        <time>2018-02-11T13:57:36Z</time>
      </trkpt>
      <trkpt lat="62.635229334644" lon="17.987973728973">
        <ele>86.6</ele>
        <time>2018-02-11T13:57:37Z</time>
      </trkpt>
      <trkpt lat="62.635221455658" lon="17.988015638473">
        <ele>86.6</ele>
        <time>2018-02-11T13:57:38Z</time>
      </trkpt>
      <trkpt lat="62.635209888636" lon="17.988058721439">
        <ele>86.8</ele>
        <time>2018-02-11T13:57:39Z</time>
      </trkpt>
      <trkpt lat="62.635202261107" lon="17.988100798577">
        <ele>86.6</ele>
        <time>2018-02-11T13:57:40Z</time>
      </trkpt>
      <trkpt lat="62.635191364637" lon="17.988141366973">
        <ele>86.8</ele>
        <time>2018-02-11T13:57:41Z</time>
      </trkpt>
      <trkpt lat="62.635178624149" lon="17.98819777716">
        <ele>86.8</ele>
        <time>2018-02-11T13:57:42Z</time>
      </trkpt>
      <trkpt lat="62.635166218937" lon="17.988243709972">
        <ele>87</ele>
        <time>2018-02-11T13:57:43Z</time>
      </trkpt>
      <trkpt lat="62.635147694938" lon="17.988284362187">
        <ele>87</ele>
        <time>2018-02-11T13:57:44Z</time>
      </trkpt>
      <trkpt lat="62.635130512043" lon="17.988323421841">
        <ele>87</ele>
        <time>2018-02-11T13:57:45Z</time>
      </trkpt>
      <trkpt lat="62.635115508442" lon="17.988348986636">
        <ele>87.2</ele>
        <time>2018-02-11T13:57:46Z</time>
      </trkpt>
      <trkpt lat="62.635091620027" lon="17.988367259178">
        <ele>87.2</ele>
        <time>2018-02-11T13:57:47Z</time>
      </trkpt>
      <trkpt lat="62.635082399937" lon="17.988395170905">
        <ele>87.4</ele>
        <time>2018-02-11T13:57:48Z</time>
      </trkpt>
      <trkpt lat="62.635061445187" lon="17.988408414307">
        <ele>87.4</ele>
        <time>2018-02-11T13:57:49Z</time>
      </trkpt>
      <trkpt lat="62.63503772441" lon="17.98842660303">
        <ele>87.6</ele>
        <time>2018-02-11T13:57:50Z</time>
      </trkpt>
      <trkpt lat="62.6350134169" lon="17.988444456477">
        <ele>87.6</ele>
        <time>2018-02-11T13:57:51Z</time>
      </trkpt>
      <trkpt lat="62.634990115218" lon="17.988467925797">
        <ele>87.8</ele>
        <time>2018-02-11T13:57:52Z</time>
      </trkpt>
      <trkpt lat="62.634969160468" lon="17.988479744276">
        <ele>88</ele>
        <time>2018-02-11T13:57:53Z</time>
      </trkpt>
      <trkpt lat="62.634954324505" lon="17.988507656003">
        <ele>88.2</ele>
        <time>2018-02-11T13:57:54Z</time>
      </trkpt>
      <trkpt lat="62.634939739999" lon="17.988523162518">
        <ele>88.2</ele>
        <time>2018-02-11T13:57:55Z</time>
      </trkpt>
      <trkpt lat="62.634916689774" lon="17.988543530535">
        <ele>88.4</ele>
        <time>2018-02-11T13:57:56Z</time>
      </trkpt>
      <trkpt lat="62.634897159947" lon="17.988552666806">
        <ele>88.4</ele>
        <time>2018-02-11T13:57:57Z</time>
      </trkpt>
      <trkpt lat="62.634879725595" lon="17.988560964887">
        <ele>88.4</ele>
        <time>2018-02-11T13:57:58Z</time>
      </trkpt>
      <trkpt lat="62.634856256275" lon="17.988568592416">
        <ele>88.4</ele>
        <time>2018-02-11T13:57:59Z</time>
      </trkpt>
      <trkpt lat="62.634829266557" lon="17.98857915361">
        <ele>88.6</ele>
        <time>2018-02-11T13:58:00Z</time>
      </trkpt>
      <trkpt lat="62.634808814721" lon="17.988597090876">
        <ele>88.6</ele>
        <time>2018-02-11T13:58:01Z</time>
      </trkpt>
      <trkpt lat="62.634788614342" lon="17.98860262293">
        <ele>88.8</ele>
        <time>2018-02-11T13:58:02Z</time>
      </trkpt>
      <trkpt lat="62.634779813347" lon="17.988614776685">
        <ele>88.8</ele>
        <time>2018-02-11T13:58:03Z</time>
      </trkpt>
      <trkpt lat="62.63475944533" lon="17.9886219013">
        <ele>88.8</ele>
        <time>2018-02-11T13:58:04Z</time>
      </trkpt>
      <trkpt lat="62.634739580227" lon="17.988636066711">
        <ele>89</ele>
        <time>2018-02-11T13:58:05Z</time>
      </trkpt>
      <trkpt lat="62.634718038744" lon="17.988663056429">
        <ele>89.2</ele>
        <time>2018-02-11T13:58:06Z</time>
      </trkpt>
      <trkpt lat="62.634694737062" lon="17.988677640935">
        <ele>89.4</ele>
        <time>2018-02-11T13:58:07Z</time>
      </trkpt>
      <trkpt lat="62.634673447036" lon="17.988688788862">
        <ele>89.4</ele>
        <time>2018-02-11T13:58:08Z</time>
      </trkpt>
      <trkpt lat="62.634654503942" lon="17.988709492155">
        <ele>89.8</ele>
        <time>2018-02-11T13:58:09Z</time>
      </trkpt>
      <trkpt lat="62.634630615527" lon="17.988729021982">
        <ele>89.8</ele>
        <time>2018-02-11T13:58:10Z</time>
      </trkpt>
      <trkpt lat="62.634606978569" lon="17.988758107175">
        <ele>90</ele>
        <time>2018-02-11T13:58:11Z</time>
      </trkpt>
      <trkpt lat="62.634580743222" lon="17.988796077182">
        <ele>90.2</ele>
        <time>2018-02-11T13:58:12Z</time>
      </trkpt>
      <trkpt lat="62.63455911792" lon="17.988832873723">
        <ele>90.2</ele>
        <time>2018-02-11T13:58:13Z</time>
      </trkpt>
      <trkpt lat="62.634546964165" lon="17.988869083531">
        <ele>90.4</ele>
        <time>2018-02-11T13:58:14Z</time>
      </trkpt>
      <trkpt lat="62.634528356347" lon="17.988894145412">
        <ele>90.4</ele>
        <time>2018-02-11T13:58:15Z</time>
      </trkpt>
      <trkpt lat="62.634512598375" lon="17.988926667184">
        <ele>90.6</ele>
        <time>2018-02-11T13:58:16Z</time>
      </trkpt>
      <trkpt lat="62.634496840403" lon="17.988958266947">
        <ele>90.8</ele>
        <time>2018-02-11T13:58:17Z</time>
      </trkpt>
      <trkpt lat="62.634478986956" lon="17.988995817859">
        <ele>90.8</ele>
        <time>2018-02-11T13:58:18Z</time>
      </trkpt>
      <trkpt lat="62.634462223156" lon="17.989025992699">
        <ele>90.8</ele>
        <time>2018-02-11T13:58:19Z</time>
      </trkpt>
      <trkpt lat="62.634444537347" lon="17.989056167539">
        <ele>91</ele>
        <time>2018-02-11T13:58:20Z</time>
      </trkpt>
      <trkpt lat="62.634425175158" lon="17.989090617148">
        <ele>91</ele>
        <time>2018-02-11T13:58:21Z</time>
      </trkpt>
      <trkpt lat="62.634403717494" lon="17.989121713997">
        <ele>91</ele>
        <time>2018-02-11T13:58:22Z</time>
      </trkpt>
      <trkpt lat="62.634386869875" lon="17.989130850268">
        <ele>91.2</ele>
        <time>2018-02-11T13:58:23Z</time>
      </trkpt>
      <trkpt lat="62.634359293424" lon="17.989153481398">
        <ele>91</ele>
        <time>2018-02-11T13:58:24Z</time>
      </trkpt>
      <trkpt lat="62.634340601787" lon="17.989182482772">
        <ele>91.2</ele>
        <time>2018-02-11T13:58:25Z</time>
      </trkpt>
      <trkpt lat="62.634324005625" lon="17.989217267657">
        <ele>91.2</ele>
        <time>2018-02-11T13:58:26Z</time>
      </trkpt>
      <trkpt lat="62.634299446658" lon="17.989255237664">
        <ele>91</ele>
        <time>2018-02-11T13:58:27Z</time>
      </trkpt>
      <trkpt lat="62.634275390605" lon="17.989290860739">
        <ele>91.2</ele>
        <time>2018-02-11T13:58:28Z</time>
      </trkpt>
      <trkpt lat="62.634252256561" lon="17.989310306747">
        <ele>91.2</ele>
        <time>2018-02-11T13:58:29Z</time>
      </trkpt>
      <trkpt lat="62.634229876888" lon="17.989323131054">
        <ele>91.2</ele>
        <time>2018-02-11T13:58:30Z</time>
      </trkpt>
      <trkpt lat="62.634211520527" lon="17.989352719161">
        <ele>91.4</ele>
        <time>2018-02-11T13:58:31Z</time>
      </trkpt>
      <trkpt lat="62.634187967388" lon="17.989384402743">
        <ele>91.6</ele>
        <time>2018-02-11T13:58:32Z</time>
      </trkpt>
      <trkpt lat="62.634171119769" lon="17.989408039701">
        <ele>91.6</ele>
        <time>2018-02-11T13:58:33Z</time>
      </trkpt>
      <trkpt lat="62.634148572458" lon="17.989424803501">
        <ele>91.8</ele>
        <time>2018-02-11T13:58:34Z</time>
      </trkpt>
      <trkpt lat="62.634130551373" lon="17.989442154034">
        <ele>91.8</ele>
        <time>2018-02-11T13:58:35Z</time>
      </trkpt>
      <trkpt lat="62.634108674614" lon="17.989461013309">
        <ele>91.8</ele>
        <time>2018-02-11T13:58:36Z</time>
      </trkpt>
      <trkpt lat="62.634089228606" lon="17.989478866756">
        <ele>92</ele>
        <time>2018-02-11T13:58:37Z</time>
      </trkpt>
      <trkpt lat="62.634074727919" lon="17.98948607519">
        <ele>92</ele>
        <time>2018-02-11T13:58:38Z</time>
      </trkpt>
      <trkpt lat="62.634052599703" lon="17.989502671352">
        <ele>92.2</ele>
        <time>2018-02-11T13:58:39Z</time>
      </trkpt>
      <trkpt lat="62.63403105822" lon="17.989515579478">
        <ele>92.4</ele>
        <time>2018-02-11T13:58:40Z</time>
      </trkpt>
      <trkpt lat="62.634011863669" lon="17.989530583079">
        <ele>92.4</ele>
        <time>2018-02-11T13:58:41Z</time>
      </trkpt>
      <trkpt lat="62.63398831053" lon="17.989554136218">
        <ele>92.4</ele>
        <time>2018-02-11T13:58:42Z</time>
      </trkpt>
      <trkpt lat="62.633966349952" lon="17.989575510063">
        <ele>92.4</ele>
        <time>2018-02-11T13:58:43Z</time>
      </trkpt>
      <trkpt lat="62.633954699111" lon="17.989608115654">
        <ele>92.6</ele>
        <time>2018-02-11T13:58:44Z</time>
      </trkpt>
      <trkpt lat="62.633933660542" lon="17.989637033209">
        <ele>92.6</ele>
        <time>2018-02-11T13:58:45Z</time>
      </trkpt>
      <trkpt lat="62.633915723276" lon="17.989680199994">
        <ele>92.6</ele>
        <time>2018-02-11T13:58:46Z</time>
      </trkpt>
      <trkpt lat="62.633896193449" lon="17.989708027902">
        <ele>92.6</ele>
        <time>2018-02-11T13:58:47Z</time>
      </trkpt>
      <trkpt lat="62.63388018402" lon="17.989735520534">
        <ele>92.8</ele>
        <time>2018-02-11T13:58:48Z</time>
      </trkpt>
      <trkpt lat="62.63386425841" lon="17.989774580188">
        <ele>92.8</ele>
        <time>2018-02-11T13:58:49Z</time>
      </trkpt>
      <trkpt lat="62.63384749461" lon="17.989812466376">
        <ele>93</ele>
        <time>2018-02-11T13:58:50Z</time>
      </trkpt>
      <trkpt lat="62.633832071914" lon="17.989855465523">
        <ele>93</ele>
        <time>2018-02-11T13:58:51Z</time>
      </trkpt>
      <trkpt lat="62.633810111336" lon="17.989901901249">
        <ele>93</ele>
        <time>2018-02-11T13:58:52Z</time>
      </trkpt>
      <trkpt lat="62.633794269545" lon="17.989930064433">
        <ele>92.8</ele>
        <time>2018-02-11T13:58:53Z</time>
      </trkpt>
      <trkpt lat="62.633780690867" lon="17.989963508214">
        <ele>92.8</ele>
        <time>2018-02-11T13:58:54Z</time>
      </trkpt>
      <trkpt lat="62.633769878216" lon="17.989996868176">
        <ele>92.8</ele>
        <time>2018-02-11T13:58:55Z</time>
      </trkpt>
      <trkpt lat="62.633762083049" lon="17.990030563414">
        <ele>92.8</ele>
        <time>2018-02-11T13:58:56Z</time>
      </trkpt>
      <trkpt lat="62.633744983973" lon="17.990075993312">
        <ele>92.8</ele>
        <time>2018-02-11T13:58:57Z</time>
      </trkpt>
      <trkpt lat="62.633727465802" lon="17.99011639407">
        <ele>93</ele>
        <time>2018-02-11T13:58:58Z</time>
      </trkpt>
      <trkpt lat="62.633710785821" lon="17.99014656891">
        <ele>93.2</ele>
        <time>2018-02-11T13:58:59Z</time>
      </trkpt>
      <trkpt lat="62.63369075308" lon="17.990175821741">
        <ele>93.4</ele>
        <time>2018-02-11T13:59:00Z</time>
      </trkpt>
      <trkpt lat="62.633670385063" lon="17.990204906934">
        <ele>93.4</ele>
        <time>2018-02-11T13:59:01Z</time>
      </trkpt>
      <trkpt lat="62.633655968195" lon="17.990231896652">
        <ele>93.4</ele>
        <time>2018-02-11T13:59:02Z</time>
      </trkpt>
      <trkpt lat="62.633643227707" lon="17.990256204162">
        <ele>93.6</ele>
        <time>2018-02-11T13:59:03Z</time>
      </trkpt>
      <trkpt lat="62.633623027328" lon="17.990276991274">
        <ele>93.6</ele>
        <time>2018-02-11T13:59:04Z</time>
      </trkpt>
      <trkpt lat="62.633604335691" lon="17.990291743418">
        <ele>93.6</ele>
        <time>2018-02-11T13:59:05Z</time>
      </trkpt>
      <trkpt lat="62.633578603258" lon="17.990308842494">
        <ele>93.6</ele>
        <time>2018-02-11T13:59:06Z</time>
      </trkpt>
      <trkpt lat="62.633553373739" lon="17.990321918258">
        <ele>93.8</ele>
        <time>2018-02-11T13:59:07Z</time>
      </trkpt>
      <trkpt lat="62.63353233517" lon="17.990336335126">
        <ele>93.8</ele>
        <time>2018-02-11T13:59:08Z</time>
      </trkpt>
      <trkpt lat="62.6335046749" lon="17.990349997623">
        <ele>94</ele>
        <time>2018-02-11T13:59:09Z</time>
      </trkpt>
      <trkpt lat="62.633488330195" lon="17.990371036192">
        <ele>94.2</ele>
        <time>2018-02-11T13:59:10Z</time>
      </trkpt>
      <trkpt lat="62.633459747916" lon="17.990387716173">
        <ele>94.4</ele>
        <time>2018-02-11T13:59:11Z</time>
      </trkpt>
      <trkpt lat="62.633431249456" lon="17.990431972605">
        <ele>94.4</ele>
        <time>2018-02-11T13:59:12Z</time>
      </trkpt>
      <trkpt lat="62.633406439032" lon="17.99045837559">
        <ele>94.4</ele>
        <time>2018-02-11T13:59:13Z</time>
      </trkpt>
      <trkpt lat="62.633374252536" lon="17.990478240693">
        <ele>94</ele>
        <time>2018-02-11T13:59:14Z</time>
      </trkpt>
      <trkpt lat="62.633355812356" lon="17.990502883479">
        <ele>94</ele>
        <time>2018-02-11T13:59:15Z</time>
      </trkpt>
      <trkpt lat="62.633328822638" lon="17.990536159622">
        <ele>93.8</ele>
        <time>2018-02-11T13:59:16Z</time>
      </trkpt>
      <trkpt lat="62.633306526784" lon="17.990576057466">
        <ele>93.8</ele>
        <time>2018-02-11T13:59:17Z</time>
      </trkpt>
      <trkpt lat="62.633277106315" lon="17.990618134604">
        <ele>93.8</ele>
        <time>2018-02-11T13:59:18Z</time>
      </trkpt>
      <trkpt lat="62.63325573247" lon="17.990659122095">
        <ele>93.8</ele>
        <time>2018-02-11T13:59:19Z</time>
      </trkpt>
      <trkpt lat="62.633234610082" lon="17.990695918636">
        <ele>94</ele>
        <time>2018-02-11T13:59:20Z</time>
      </trkpt>
      <trkpt lat="62.633215331712" lon="17.990751909728">
        <ele>93.8</ele>
        <time>2018-02-11T13:59:21Z</time>
      </trkpt>
      <trkpt lat="62.633202423586" lon="17.990803039318">
        <ele>94</ele>
        <time>2018-02-11T13:59:22Z</time>
      </trkpt>
      <trkpt lat="62.633186749433" lon="17.990841847515">
        <ele>94</ele>
        <time>2018-02-11T13:59:23Z</time>
      </trkpt>
      <trkpt lat="62.633174930954" lon="17.990884511386">
        <ele>94</ele>
        <time>2018-02-11T13:59:24Z</time>
      </trkpt>
      <trkpt lat="62.633151713091" lon="17.990934299872">
        <ele>93.8</ele>
        <time>2018-02-11T13:59:25Z</time>
      </trkpt>
      <trkpt lat="62.633132183264" lon="17.990990877697">
        <ele>93.8</ele>
        <time>2018-02-11T13:59:26Z</time>
      </trkpt>
      <trkpt lat="62.633118604586" lon="17.991045360047">
        <ele>93.8</ele>
        <time>2018-02-11T13:59:27Z</time>
      </trkpt>
      <trkpt lat="62.633098739483" lon="17.991071763032">
        <ele>93.8</ele>
        <time>2018-02-11T13:59:28Z</time>
      </trkpt>
      <trkpt lat="62.633085747538" lon="17.991112834342">
        <ele>93.8</ele>
        <time>2018-02-11T13:59:29Z</time>
      </trkpt>
      <trkpt lat="62.633075018706" lon="17.991157677507">
        <ele>93.8</ele>
        <time>2018-02-11T13:59:30Z</time>
      </trkpt>
      <trkpt lat="62.633063451684" lon="17.991198916455">
        <ele>93.8</ele>
        <time>2018-02-11T13:59:31Z</time>
      </trkpt>
      <trkpt lat="62.633043335124" lon="17.991244513991">
        <ele>94</ele>
        <time>2018-02-11T13:59:32Z</time>
      </trkpt>
      <trkpt lat="62.63302523022" lon="17.991289273337">
        <ele>94</ele>
        <time>2018-02-11T13:59:33Z</time>
      </trkpt>
      <trkpt lat="62.633010478076" lon="17.991332691579">
        <ele>94</ele>
        <time>2018-02-11T13:59:34Z</time>
      </trkpt>
      <trkpt lat="62.632995306837" lon="17.991373176156">
        <ele>94</ele>
        <time>2018-02-11T13:59:35Z</time>
      </trkpt>
      <trkpt lat="62.63297912977" lon="17.991405697928">
        <ele>94</ele>
        <time>2018-02-11T13:59:36Z</time>
      </trkpt>
      <trkpt lat="62.632957253011" lon="17.991455067319">
        <ele>94</ele>
        <time>2018-02-11T13:59:37Z</time>
      </trkpt>
      <trkpt lat="62.632937723184" lon="17.991516339008">
        <ele>93.8</ele>
        <time>2018-02-11T13:59:38Z</time>
      </trkpt>
      <trkpt lat="62.632919450642" lon="17.991561098354">
        <ele>93.8</ele>
        <time>2018-02-11T13:59:39Z</time>
      </trkpt>
      <trkpt lat="62.632900591367" lon="17.991594709773">
        <ele>93.8</ele>
        <time>2018-02-11T13:59:40Z</time>
      </trkpt>
      <trkpt lat="62.632889694897" lon="17.991638128015">
        <ele>93.8</ele>
        <time>2018-02-11T13:59:41Z</time>
      </trkpt>
      <trkpt lat="62.632873769287" lon="17.991704093568">
        <ele>93.8</ele>
        <time>2018-02-11T13:59:42Z</time>
      </trkpt>
      <trkpt lat="62.632862286084" lon="17.991762766868">
        <ele>93.8</ele>
        <time>2018-02-11T13:59:43Z</time>
      </trkpt>
      <trkpt lat="62.632850467605" lon="17.991820853435">
        <ele>93.8</ele>
        <time>2018-02-11T13:59:44Z</time>
      </trkpt>
      <trkpt lat="62.632848120673" lon="17.99187575488">
        <ele>94</ele>
        <time>2018-02-11T13:59:45Z</time>
      </trkpt>
      <trkpt lat="62.632856083478" lon="17.991921184778">
        <ele>94</ele>
        <time>2018-02-11T13:59:46Z</time>
      </trkpt>
      <trkpt lat="62.632878295513" lon="17.991952197808">
        <ele>94.2</ele>
        <time>2018-02-11T13:59:47Z</time>
      </trkpt>
      <trkpt lat="62.632903189756" lon="17.991971476178">
        <ele>94.2</ele>
        <time>2018-02-11T13:59:48Z</time>
      </trkpt>
      <trkpt lat="62.63292297104" lon="17.991978181698">
        <ele>94.2</ele>
        <time>2018-02-11T13:59:49Z</time>
      </trkpt>
      <trkpt lat="62.632941578858" lon="17.991987653245">
        <ele>94.2</ele>
        <time>2018-02-11T13:59:50Z</time>
      </trkpt>
      <trkpt lat="62.632960605771" lon="17.991994526403">
        <ele>94.4</ele>
        <time>2018-02-11T13:59:51Z</time>
      </trkpt>
      <trkpt lat="62.632977118114" lon="17.992006344882">
        <ele>94.2</ele>
        <time>2018-02-11T13:59:52Z</time>
      </trkpt>
      <trkpt lat="62.632998324321" lon="17.99200735071">
        <ele>94.2</ele>
        <time>2018-02-11T13:59:53Z</time>
      </trkpt>
      <trkpt lat="62.633015674854" lon="17.992021935216">
        <ele>94.2</ele>
        <time>2018-02-11T13:59:54Z</time>
      </trkpt>
      <trkpt lat="62.633036713423" lon="17.99203417279">
        <ele>94.2</ele>
        <time>2018-02-11T13:59:55Z</time>
      </trkpt>
      <trkpt lat="62.633064708969" lon="17.992046661821">
        <ele>94.2</ele>
        <time>2018-02-11T13:59:56Z</time>
      </trkpt>
      <trkpt lat="62.633097733655" lon="17.992059569947">
        <ele>94.2</ele>
        <time>2018-02-11T13:59:57Z</time>
      </trkpt>
      <trkpt lat="62.633130087789" lon="17.992073819177">
        <ele>94.2</ele>
        <time>2018-02-11T13:59:58Z</time>
      </trkpt>
      <trkpt lat="62.633157831878" lon="17.992095695936">
        <ele>94.2</ele>
        <time>2018-02-11T13:59:59Z</time>
      </trkpt>
      <trkpt lat="62.633189012546" lon="17.992113130288">
        <ele>94.2</ele>
        <time>2018-02-11T14:00:00Z</time>
      </trkpt>
      <trkpt lat="62.633219355024" lon="17.992137186341">
        <ele>94.2</ele>
        <time>2018-02-11T14:00:01Z</time>
      </trkpt>
      <trkpt lat="62.633251709158" lon="17.992143808042">
        <ele>94.2</ele>
        <time>2018-02-11T14:00:02Z</time>
      </trkpt>
      <trkpt lat="62.633281464903" lon="17.992151770847">
        <ele>94.2</ele>
        <time>2018-02-11T14:00:03Z</time>
      </trkpt>
      <trkpt lat="62.633312058838" lon="17.99216493043">
        <ele>94.2</ele>
        <time>2018-02-11T14:00:04Z</time>
      </trkpt>
      <trkpt lat="62.633335611977" lon="17.992174821072">
        <ele>94.2</ele>
        <time>2018-02-11T14:00:05Z</time>
      </trkpt>
      <trkpt lat="62.633372408518" lon="17.992185549904">
        <ele>94.2</ele>
        <time>2018-02-11T14:00:06Z</time>
      </trkpt>
      <trkpt lat="62.633399146779" lon="17.992184376438">
        <ele>94.2</ele>
        <time>2018-02-11T14:00:07Z</time>
      </trkpt>
      <trkpt lat="62.633431081818" lon="17.992193512709">
        <ele>94.2</ele>
        <time>2018-02-11T14:00:08Z</time>
      </trkpt>
      <trkpt lat="62.633463771228" lon="17.992212455803">
        <ele>94.2</ele>
        <time>2018-02-11T14:00:09Z</time>
      </trkpt>
      <trkpt lat="62.633493359335" lon="17.99223114744">
        <ele>94.2</ele>
        <time>2018-02-11T14:00:10Z</time>
      </trkpt>
      <trkpt lat="62.633521857795" lon="17.992253275656">
        <ele>94</ele>
        <time>2018-02-11T14:00:11Z</time>
      </trkpt>
      <trkpt lat="62.633562761467" lon="17.992289485464">
        <ele>93.4</ele>
        <time>2018-02-11T14:00:12Z</time>
      </trkpt>
      <trkpt lat="62.633590505556" lon="17.992323432159">
        <ele>93</ele>
        <time>2018-02-11T14:00:13Z</time>
      </trkpt>
      <trkpt lat="62.633621350948" lon="17.992360312519">
        <ele>92.6</ele>
        <time>2018-02-11T14:00:14Z</time>
      </trkpt>
      <trkpt lat="62.633649095037" lon="17.992386547866">
        <ele>92.4</ele>
        <time>2018-02-11T14:00:15Z</time>
      </trkpt>
      <trkpt lat="62.633682874094" lon="17.992441784587">
        <ele>92.2</ele>
        <time>2018-02-11T14:00:16Z</time>
      </trkpt>
      <trkpt lat="62.633705672862" lon="17.992504732656">
        <ele>92.4</ele>
        <time>2018-02-11T14:00:17Z</time>
      </trkpt>
      <trkpt lat="62.633730064191" lon="17.992565249974">
        <ele>92.2</ele>
        <time>2018-02-11T14:00:18Z</time>
      </trkpt>
      <trkpt lat="62.63375697009" lon="17.99261336208">
        <ele>92.4</ele>
        <time>2018-02-11T14:00:19Z</time>
      </trkpt>
      <trkpt lat="62.633783289256" lon="17.992658205245">
        <ele>92</ele>
        <time>2018-02-11T14:00:20Z</time>
      </trkpt>
      <trkpt lat="62.633814637562" lon="17.992721404771">
        <ele>91.8</ele>
        <time>2018-02-11T14:00:21Z</time>
      </trkpt>
      <trkpt lat="62.633846321144" lon="17.992788292333">
        <ele>91.4</ele>
        <time>2018-02-11T14:00:22Z</time>
      </trkpt>
      <trkpt lat="62.633875909251" lon="17.992844870158">
        <ele>91.2</ele>
        <time>2018-02-11T14:00:23Z</time>
      </trkpt>
      <trkpt lat="62.633909436851" lon="17.992909326969">
        <ele>90.8</ele>
        <time>2018-02-11T14:00:24Z</time>
      </trkpt>
      <trkpt lat="62.633938186768" lon="17.992960205102">
        <ele>90.4</ele>
        <time>2018-02-11T14:00:25Z</time>
      </trkpt>
      <trkpt lat="62.633971127635" lon="17.99301485509">
        <ele>90.2</ele>
        <time>2018-02-11T14:00:26Z</time>
      </trkpt>
      <trkpt lat="62.634006666891" lon="17.9930726902">
        <ele>89.6</ele>
        <time>2018-02-11T14:00:27Z</time>
      </trkpt>
      <trkpt lat="62.634042206147" lon="17.993127424007">
        <ele>89.2</ele>
        <time>2018-02-11T14:00:28Z</time>
      </trkpt>
      <trkpt lat="62.634075901385" lon="17.993177212493">
        <ele>89</ele>
        <time>2018-02-11T14:00:29Z</time>
      </trkpt>
      <trkpt lat="62.634113117021" lon="17.993232449214">
        <ele>88.8</ele>
        <time>2018-02-11T14:00:30Z</time>
      </trkpt>
      <trkpt lat="62.634158211643" lon="17.993294223817">
        <ele>88.4</ele>
        <time>2018-02-11T14:00:31Z</time>
      </trkpt>
      <trkpt lat="62.634199618229" lon="17.993343090294">
        <ele>88.2</ele>
        <time>2018-02-11T14:00:32Z</time>
      </trkpt>
      <trkpt lat="62.634245299584" lon="17.993385502708">
        <ele>87.8</ele>
        <time>2018-02-11T14:00:33Z</time>
      </trkpt>
      <trkpt lat="62.634290310387" lon="17.993410983684">
        <ele>87.8</ele>
        <time>2018-02-11T14:00:34Z</time>
      </trkpt>
      <trkpt lat="62.634328196575" lon="17.993439985058">
        <ele>87.4</ele>
        <time>2018-02-11T14:00:35Z</time>
      </trkpt>
      <trkpt lat="62.634381002545" lon="17.993482313653">
        <ele>87</ele>
        <time>2018-02-11T14:00:36Z</time>
      </trkpt>
      <trkpt lat="62.634432383592" lon="17.993515673615">
        <ele>86.4</ele>
        <time>2018-02-11T14:00:37Z</time>
      </trkpt>
      <trkpt lat="62.634485776295" lon="17.99354878212">
        <ele>85.8</ele>
        <time>2018-02-11T14:00:38Z</time>
      </trkpt>
      <trkpt lat="62.634543862862" lon="17.993577867313">
        <ele>85</ele>
        <time>2018-02-11T14:00:39Z</time>
      </trkpt>
      <trkpt lat="62.634599015764" lon="17.993604773212">
        <ele>84.4</ele>
        <time>2018-02-11T14:00:40Z</time>
      </trkpt>
      <trkpt lat="62.634650564449" lon="17.993634026043">
        <ele>84</ele>
        <time>2018-02-11T14:00:41Z</time>
      </trkpt>
      <trkpt lat="62.634718290201" lon="17.993660596666">
        <ele>83.4</ele>
        <time>2018-02-11T14:00:42Z</time>
      </trkpt>
      <trkpt lat="62.634773526922" lon="17.993671241679">
        <ele>82.8</ele>
        <time>2018-02-11T14:00:43Z</time>
      </trkpt>
      <trkpt lat="62.634826668168" lon="17.993681551416">
        <ele>82.2</ele>
        <time>2018-02-11T14:00:44Z</time>
      </trkpt>
      <trkpt lat="62.634876121378" lon="17.993692783162">
        <ele>81.8</ele>
        <time>2018-02-11T14:00:45Z</time>
      </trkpt>
      <trkpt lat="62.634924149665" lon="17.993710720428">
        <ele>81.2</ele>
        <time>2018-02-11T14:00:46Z</time>
      </trkpt>
      <trkpt lat="62.634964131328" lon="17.993726059305">
        <ele>80.8</ele>
        <time>2018-02-11T14:00:47Z</time>
      </trkpt>
      <trkpt lat="62.635003442439" lon="17.993743577476">
        <ele>80.4</ele>
        <time>2018-02-11T14:00:48Z</time>
      </trkpt>
      <trkpt lat="62.63504023898" lon="17.993762436751">
        <ele>80.2</ele>
        <time>2018-02-11T14:00:49Z</time>
      </trkpt>
      <trkpt lat="62.635076448788" lon="17.993783559139">
        <ele>80</ele>
        <time>2018-02-11T14:00:50Z</time>
      </trkpt>
      <trkpt lat="62.635115592261" lon="17.993809626848">
        <ele>79.8</ele>
        <time>2018-02-11T14:00:51Z</time>
      </trkpt>
      <trkpt lat="62.635150544784" lon="17.993834856367">
        <ele>79.6</ele>
        <time>2018-02-11T14:00:52Z</time>
      </trkpt>
      <trkpt lat="62.635183066556" lon="17.993847345398">
        <ele>79.4</ele>
        <time>2018-02-11T14:00:53Z</time>
      </trkpt>
      <trkpt lat="62.635239895838" lon="17.993854386194">
        <ele>79</ele>
        <time>2018-02-11T14:00:54Z</time>
      </trkpt>
      <trkpt lat="62.6352816377" lon="17.993855056746">
        <ele>78.6</ele>
        <time>2018-02-11T14:00:55Z</time>
      </trkpt>
      <trkpt lat="62.63532187082" lon="17.993855811117">
        <ele>78.2</ele>
        <time>2018-02-11T14:00:56Z</time>
      </trkpt>
      <trkpt lat="62.635368055089" lon="17.993857571316">
        <ele>78</ele>
        <time>2018-02-11T14:00:57Z</time>
      </trkpt>
      <trkpt lat="62.635405857458" lon="17.99386142699">
        <ele>77.8</ele>
        <time>2018-02-11T14:00:58Z</time>
      </trkpt>
      <trkpt lat="62.635454388659" lon="17.993866623768">
        <ele>77.6</ele>
        <time>2018-02-11T14:00:59Z</time>
      </trkpt>
      <trkpt lat="62.635519013108" lon="17.993863773922">
        <ele>77.6</ele>
        <time>2018-02-11T14:01:00Z</time>
      </trkpt>
      <trkpt lat="62.635574668924" lon="17.993867210501">
        <ele>77.6</ele>
        <time>2018-02-11T14:01:01Z</time>
      </trkpt>
      <trkpt lat="62.635633090767" lon="17.993870395623">
        <ele>77.4</ele>
        <time>2018-02-11T14:01:02Z</time>
      </trkpt>
      <trkpt lat="62.635691093515" lon="17.993888835803">
        <ele>77</ele>
        <time>2018-02-11T14:01:03Z</time>
      </trkpt>
      <trkpt lat="62.635737948336" lon="17.993902330662">
        <ele>77</ele>
        <time>2018-02-11T14:01:04Z</time>
      </trkpt>
      <trkpt lat="62.635773236135" lon="17.993909371458">
        <ele>76.8</ele>
        <time>2018-02-11T14:01:05Z</time>
      </trkpt>
      <trkpt lat="62.635821599698" lon="17.99391171839">
        <ele>76.6</ele>
        <time>2018-02-11T14:01:06Z</time>
      </trkpt>
      <trkpt lat="62.635872477831" lon="17.993902246843">
        <ele>76.6</ele>
        <time>2018-02-11T14:01:07Z</time>
      </trkpt>
      <trkpt lat="62.635914890245" lon="17.993887075604">
        <ele>76.2</ele>
        <time>2018-02-11T14:01:08Z</time>
      </trkpt>
      <trkpt lat="62.635975491382" lon="17.993859834429">
        <ele>76</ele>
        <time>2018-02-11T14:01:09Z</time>
      </trkpt>
      <trkpt lat="62.63602930318" lon="17.993833934358">
        <ele>75.8</ele>
        <time>2018-02-11T14:01:10Z</time>
      </trkpt>
      <trkpt lat="62.636079259304" lon="17.993808369563">
        <ele>75.6</ele>
        <time>2018-02-11T14:01:11Z</time>
      </trkpt>
      <trkpt lat="62.636127203772" lon="17.993769477547">
        <ele>75.2</ele>
        <time>2018-02-11T14:01:12Z</time>
      </trkpt>
      <trkpt lat="62.636168275082" lon="17.993726394581">
        <ele>74.8</ele>
        <time>2018-02-11T14:01:13Z</time>
      </trkpt>
      <trkpt lat="62.636208508202" lon="17.993682305787">
        <ele>74.6</ele>
        <time>2018-02-11T14:01:14Z</time>
      </trkpt>
      <trkpt lat="62.636251255892" lon="17.993637965536">
        <ele>74.2</ele>
        <time>2018-02-11T14:01:15Z</time>
      </trkpt>
      <trkpt lat="62.636290734641" lon="17.993583483186">
        <ele>74</ele>
        <time>2018-02-11T14:01:16Z</time>
      </trkpt>
      <trkpt lat="62.636312695219" lon="17.993532605053">
        <ele>73.4</ele>
        <time>2018-02-11T14:01:17Z</time>
      </trkpt>
      <trkpt lat="62.636338511471" lon="17.993493713037">
        <ele>73.2</ele>
        <time>2018-02-11T14:01:18Z</time>
      </trkpt>
      <trkpt lat="62.636373044899" lon="17.993449205148">
        <ele>73</ele>
        <time>2018-02-11T14:01:19Z</time>
      </trkpt>
      <trkpt lat="62.636412858924" lon="17.993400506309">
        <ele>72.4</ele>
        <time>2018-02-11T14:01:20Z</time>
      </trkpt>
      <trkpt lat="62.636457534451" lon="17.993351304556">
        <ele>71.8</ele>
        <time>2018-02-11T14:01:21Z</time>
      </trkpt>
      <trkpt lat="62.636505814195" lon="17.993301180794">
        <ele>71</ele>
        <time>2018-02-11T14:01:22Z</time>
      </trkpt>
      <trkpt lat="62.636550405903" lon="17.993243764779">
        <ele>70</ele>
        <time>2018-02-11T14:01:23Z</time>
      </trkpt>
      <trkpt lat="62.636600278208" lon="17.99316656748">
        <ele>69.2</ele>
        <time>2018-02-11T14:01:24Z</time>
      </trkpt>
      <trkpt lat="62.636641433337" lon="17.99310202685">
        <ele>68.4</ele>
        <time>2018-02-11T14:01:25Z</time>
      </trkpt>
      <trkpt lat="62.636681079724" lon="17.993052070726">
        <ele>68.2</ele>
        <time>2018-02-11T14:01:26Z</time>
      </trkpt>
      <trkpt lat="62.636710164917" lon="17.992983590603">
        <ele>68</ele>
        <time>2018-02-11T14:01:27Z</time>
      </trkpt>
      <trkpt lat="62.636728018364" lon="17.992905555114">
        <ele>68</ele>
        <time>2018-02-11T14:01:28Z</time>
      </trkpt>
      <trkpt lat="62.636748637838" lon="17.992841685036">
        <ele>68</ele>
        <time>2018-02-11T14:01:29Z</time>
      </trkpt>
      <trkpt lat="62.636761797421" lon="17.992776390035">
        <ele>68.2</ele>
        <time>2018-02-11T14:01:30Z</time>
      </trkpt>
      <trkpt lat="62.636770514597" lon="17.992715202165">
        <ele>68.4</ele>
        <time>2018-02-11T14:01:31Z</time>
      </trkpt>
      <trkpt lat="62.636768419122" lon="17.992660552177">
        <ele>68.6</ele>
        <time>2018-02-11T14:01:32Z</time>
      </trkpt>
      <trkpt lat="62.636769005855" lon="17.992590228036">
        <ele>68.8</ele>
        <time>2018-02-11T14:01:33Z</time>
      </trkpt>
      <trkpt lat="62.636768167665" lon="17.992522921379">
        <ele>69</ele>
        <time>2018-02-11T14:01:34Z</time>
      </trkpt>
      <trkpt lat="62.636775543737" lon="17.992470199228">
        <ele>69</ele>
        <time>2018-02-11T14:01:35Z</time>
      </trkpt>
      <trkpt lat="62.6367903797" lon="17.992384620029">
        <ele>69.2</ele>
        <time>2018-02-11T14:01:36Z</time>
      </trkpt>
      <trkpt lat="62.636779734687" lon="17.992317983924">
        <ele>69.2</ele>
        <time>2018-02-11T14:01:37Z</time>
      </trkpt>
      <trkpt lat="62.636780237601" lon="17.992266267601">
        <ele>69.2</ele>
        <time>2018-02-11T14:01:38Z</time>
      </trkpt>
      <trkpt lat="62.636789038596" lon="17.992203068075">
        <ele>69.2</ele>
        <time>2018-02-11T14:01:39Z</time>
      </trkpt>
      <trkpt lat="62.636790714976" lon="17.992147412259">
        <ele>69.4</ele>
        <time>2018-02-11T14:01:40Z</time>
      </trkpt>
      <trkpt lat="62.636803706921" lon="17.992100892714">
        <ele>69.4</ele>
        <time>2018-02-11T14:01:41Z</time>
      </trkpt>
      <trkpt lat="62.636817872332" lon="17.992049679305">
        <ele>69.4</ele>
        <time>2018-02-11T14:01:42Z</time>
      </trkpt>
      <trkpt lat="62.636836312512" lon="17.99200232157">
        <ele>69.8</ele>
        <time>2018-02-11T14:01:43Z</time>
      </trkpt>
      <trkpt lat="62.636857351081" lon="17.991943815908">
        <ele>69.8</ele>
        <time>2018-02-11T14:01:44Z</time>
      </trkpt>
      <trkpt lat="62.636875707442" lon="17.991877934174">
        <ele>69.8</ele>
        <time>2018-02-11T14:01:45Z</time>
      </trkpt>
      <trkpt lat="62.636899763495" lon="17.991819847607">
        <ele>69.8</ele>
        <time>2018-02-11T14:01:46Z</time>
      </trkpt>
      <trkpt lat="62.636920885883" lon="17.99177265751">
        <ele>70</ele>
        <time>2018-02-11T14:01:47Z</time>
      </trkpt>
      <trkpt lat="62.636940080434" lon="17.991722785205">
        <ele>69.8</ele>
        <time>2018-02-11T14:01:48Z</time>
      </trkpt>
      <trkpt lat="62.636961286641" lon="17.991673415814">
        <ele>70</ele>
        <time>2018-02-11T14:01:49Z</time>
      </trkpt>
      <trkpt lat="62.636975116776" lon="17.991631590133">
        <ele>70</ele>
        <time>2018-02-11T14:01:50Z</time>
      </trkpt>
      <trkpt lat="62.636996909716" lon="17.991584986769">
        <ele>70</ele>
        <time>2018-02-11T14:01:51Z</time>
      </trkpt>
      <trkpt lat="62.637015098439" lon="17.991530923514">
        <ele>70</ele>
        <time>2018-02-11T14:01:52Z</time>
      </trkpt>
      <trkpt lat="62.637031275506" lon="17.991488343462">
        <ele>70</ele>
        <time>2018-02-11T14:01:53Z</time>
      </trkpt>
      <trkpt lat="62.637055583016" lon="17.991428412877">
        <ele>69.8</ele>
        <time>2018-02-11T14:01:54Z</time>
      </trkpt>
      <trkpt lat="62.63707704068" lon="17.991368901387">
        <ele>69.8</ele>
        <time>2018-02-11T14:01:55Z</time>
      </trkpt>
      <trkpt lat="62.637100845276" lon="17.991309389897">
        <ele>70</ele>
        <time>2018-02-11T14:01:56Z</time>
      </trkpt>
      <trkpt lat="62.637118195809" lon="17.991247699113">
        <ele>70</ele>
        <time>2018-02-11T14:01:57Z</time>
      </trkpt>
      <trkpt lat="62.637133367048" lon="17.991183493759">
        <ele>70</ele>
        <time>2018-02-11T14:01:58Z</time>
      </trkpt>
      <trkpt lat="62.637146526631" lon="17.991110152134">
        <ele>70</ele>
        <time>2018-02-11T14:01:59Z</time>
      </trkpt>
      <trkpt lat="62.637157255463" lon="17.991051143558">
        <ele>70</ele>
        <time>2018-02-11T14:02:00Z</time>
      </trkpt>
      <trkpt lat="62.637175192729" lon="17.990989117498">
        <ele>70</ele>
        <time>2018-02-11T14:02:01Z</time>
      </trkpt>
      <trkpt lat="62.637185418647" lon="17.99092943837">
        <ele>69.8</ele>
        <time>2018-02-11T14:02:02Z</time>
      </trkpt>
      <trkpt lat="62.63720360737" lon="17.990876800038">
        <ele>69.6</ele>
        <time>2018-02-11T14:02:03Z</time>
      </trkpt>
      <trkpt lat="62.637217772781" lon="17.990809912476">
        <ele>69.6</ele>
        <time>2018-02-11T14:02:04Z</time>
      </trkpt>
      <trkpt lat="62.637232273468" lon="17.990753502289">
        <ele>69.6</ele>
        <time>2018-02-11T14:02:05Z</time>
      </trkpt>
      <trkpt lat="62.637250713648" lon="17.990671862583">
        <ele>69.8</ele>
        <time>2018-02-11T14:02:06Z</time>
      </trkpt>
      <trkpt lat="62.637266806896" lon="17.990596257845">
        <ele>69.8</ele>
        <time>2018-02-11T14:02:07Z</time>
      </trkpt>
      <trkpt lat="62.637280888488" lon="17.990536243441">
        <ele>69.6</ele>
        <time>2018-02-11T14:02:08Z</time>
      </trkpt>
      <trkpt lat="62.637282732506" lon="17.990463740006">
        <ele>69.6</ele>
        <time>2018-02-11T14:02:09Z</time>
      </trkpt>
      <trkpt lat="62.637287929284" lon="17.990392745313">
        <ele>69.6</ele>
        <time>2018-02-11T14:02:10Z</time>
      </trkpt>
      <trkpt lat="62.637299915401" lon="17.990316218566">
        <ele>69.6</ele>
        <time>2018-02-11T14:02:11Z</time>
      </trkpt>
      <trkpt lat="62.637315757192" lon="17.9902312261">
        <ele>69.4</ele>
        <time>2018-02-11T14:02:12Z</time>
      </trkpt>
      <trkpt lat="62.637334700286" lon="17.990179090682">
        <ele>69.4</ele>
        <time>2018-02-11T14:02:13Z</time>
      </trkpt>
      <trkpt lat="62.637352218457" lon="17.990123770142">
        <ele>69.2</ele>
        <time>2018-02-11T14:02:14Z</time>
      </trkpt>
      <trkpt lat="62.637363031108" lon="17.990077502054">
        <ele>69.2</ele>
        <time>2018-02-11T14:02:15Z</time>
      </trkpt>
      <trkpt lat="62.637385662238" lon="17.990019247849">
        <ele>69.2</ele>
        <time>2018-02-11T14:02:16Z</time>
      </trkpt>
      <trkpt lat="62.637403683323" lon="17.989977086892">
        <ele>69.2</ele>
        <time>2018-02-11T14:02:17Z</time>
      </trkpt>
      <trkpt lat="62.637422458779" lon="17.989943643111">
        <ele>69.2</ele>
        <time>2018-02-11T14:02:18Z</time>
      </trkpt>
      <trkpt lat="62.637439557855" lon="17.989896620652">
        <ele>69.2</ele>
        <time>2018-02-11T14:02:19Z</time>
      </trkpt>
      <trkpt lat="62.637457243664" lon="17.989832080022">
        <ele>69.4</ele>
        <time>2018-02-11T14:02:20Z</time>
      </trkpt>
      <trkpt lat="62.637480126251" lon="17.989758319302">
        <ele>69.4</ele>
        <time>2018-02-11T14:02:21Z</time>
      </trkpt>
      <trkpt lat="62.637504349942" lon="17.989687995161">
        <ele>69.4</ele>
        <time>2018-02-11T14:02:22Z</time>
      </trkpt>
      <trkpt lat="62.637519437362" lon="17.989642229987">
        <ele>69.6</ele>
        <time>2018-02-11T14:02:23Z</time>
      </trkpt>
      <trkpt lat="62.637547097632" lon="17.989569139819">
        <ele>69.6</ele>
        <time>2018-02-11T14:02:24Z</time>
      </trkpt>
      <trkpt lat="62.637576434282" lon="17.989498228945">
        <ele>69.4</ele>
        <time>2018-02-11T14:02:25Z</time>
      </trkpt>
      <trkpt lat="62.637606525303" lon="17.989424216768">
        <ele>69.2</ele>
        <time>2018-02-11T14:02:26Z</time>
      </trkpt>
      <trkpt lat="62.637644830586" lon="17.989378619232">
        <ele>69.2</ele>
        <time>2018-02-11T14:02:27Z</time>
      </trkpt>
      <trkpt lat="62.637678777281" lon="17.989313827145">
        <ele>69</ele>
        <time>2018-02-11T14:02:28Z</time>
      </trkpt>
      <trkpt lat="62.637707611017" lon="17.989247610135">
        <ele>69</ele>
        <time>2018-02-11T14:02:29Z</time>
      </trkpt>
      <trkpt lat="62.637731499432" lon="17.989165467515">
        <ele>68.6</ele>
        <time>2018-02-11T14:02:30Z</time>
      </trkpt>
      <trkpt lat="62.637752957096" lon="17.989075529728">
        <ele>68.2</ele>
        <time>2018-02-11T14:02:31Z</time>
      </trkpt>
      <trkpt lat="62.637776677873" lon="17.98899992499">
        <ele>67.4</ele>
        <time>2018-02-11T14:02:32Z</time>
      </trkpt>
      <trkpt lat="62.637795620967" lon="17.988926583365">
        <ele>67.2</ele>
        <time>2018-02-11T14:02:33Z</time>
      </trkpt>
      <trkpt lat="62.637809367283" lon="17.988851062446">
        <ele>66.8</ele>
        <time>2018-02-11T14:02:34Z</time>
      </trkpt>
      <trkpt lat="62.637818419735" lon="17.988803369435">
        <ele>66.8</ele>
        <time>2018-02-11T14:02:35Z</time>
      </trkpt>
      <trkpt lat="62.637833674793" lon="17.988722232643">
        <ele>66.8</ele>
        <time>2018-02-11T14:02:36Z</time>
      </trkpt>
      <trkpt lat="62.637850606231" lon="17.988651657045">
        <ele>67</ele>
        <time>2018-02-11T14:02:37Z</time>
      </trkpt>
      <trkpt lat="62.637865693651" lon="17.988571777538">
        <ele>67.4</ele>
        <time>2018-02-11T14:02:38Z</time>
      </trkpt>
      <trkpt lat="62.637881535442" lon="17.988482510303">
        <ele>67.2</ele>
        <time>2018-02-11T14:02:39Z</time>
      </trkpt>
      <trkpt lat="62.637891928998" lon="17.988417802035">
        <ele>67.2</ele>
        <time>2018-02-11T14:02:40Z</time>
      </trkpt>
      <trkpt lat="62.63790098145" lon="17.988336665243">
        <ele>67</ele>
        <time>2018-02-11T14:02:41Z</time>
      </trkpt>
      <trkpt lat="62.637909279531" lon="17.988234573701">
        <ele>66.8</ele>
        <time>2018-02-11T14:02:42Z</time>
      </trkpt>
      <trkpt lat="62.637929982824" lon="17.988158885144">
        <ele>66.6</ele>
        <time>2018-02-11T14:02:43Z</time>
      </trkpt>
      <trkpt lat="62.63795462561" lon="17.988074479411">
        <ele>66.4</ele>
        <time>2018-02-11T14:02:44Z</time>
      </trkpt>
      <trkpt lat="62.637982704975" lon="17.987972890783">
        <ele>66.4</ele>
        <time>2018-02-11T14:02:45Z</time>
      </trkpt>
      <trkpt lat="62.638012712177" lon="17.987851353233">
        <ele>65.8</ele>
        <time>2018-02-11T14:02:46Z</time>
      </trkpt>
      <trkpt lat="62.638032158185" lon="17.987762672731">
        <ele>65.4</ele>
        <time>2018-02-11T14:02:47Z</time>
      </trkpt>
      <trkpt lat="62.638051436555" lon="17.987661000284">
        <ele>64.6</ele>
        <time>2018-02-11T14:02:48Z</time>
      </trkpt>
      <trkpt lat="62.638066021061" lon="17.987581623691">
        <ele>63.8</ele>
        <time>2018-02-11T14:02:49Z</time>
      </trkpt>
      <trkpt lat="62.638080186472" lon="17.987508868799">
        <ele>63.6</ele>
        <time>2018-02-11T14:02:50Z</time>
      </trkpt>
      <trkpt lat="62.638105918905" lon="17.987428905473">
        <ele>63.2</ele>
        <time>2018-02-11T14:02:51Z</time>
      </trkpt>
      <trkpt lat="62.638133411537" lon="17.98734198517">
        <ele>63.4</ele>
        <time>2018-02-11T14:02:52Z</time>
      </trkpt>
      <trkpt lat="62.638151684079" lon="17.987265626061">
        <ele>63.6</ele>
        <time>2018-02-11T14:02:53Z</time>
      </trkpt>
      <trkpt lat="62.638171130087" lon="17.987173257523">
        <ele>63.8</ele>
        <time>2018-02-11T14:02:54Z</time>
      </trkpt>
      <trkpt lat="62.638184373489" lon="17.987076614216">
        <ele>64</ele>
        <time>2018-02-11T14:02:55Z</time>
      </trkpt>
      <trkpt lat="62.638192923027" lon="17.986979467995">
        <ele>64</ele>
        <time>2018-02-11T14:02:56Z</time>
      </trkpt>
      <trkpt lat="62.638203400402" lon="17.986873269322">
        <ele>63.8</ele>
        <time>2018-02-11T14:02:57Z</time>
      </trkpt>
      <trkpt lat="62.638212871949" lon="17.986786516657">
        <ele>63.6</ele>
        <time>2018-02-11T14:02:58Z</time>
      </trkpt>
      <trkpt lat="62.638218906917" lon="17.986708816444">
        <ele>63.4</ele>
        <time>2018-02-11T14:02:59Z</time>
      </trkpt>
      <trkpt lat="62.63822200822" lon="17.986625165082">
        <ele>63</ele>
        <time>2018-02-11T14:03:00Z</time>
      </trkpt>
      <trkpt lat="62.638227540274" lon="17.986553332199">
        <ele>62.8</ele>
        <time>2018-02-11T14:03:01Z</time>
      </trkpt>
      <trkpt lat="62.638234078156" lon="17.98647026757">
        <ele>62.6</ele>
        <time>2018-02-11T14:03:02Z</time>
      </trkpt>
      <trkpt lat="62.638246148092" lon="17.986391980624">
        <ele>62.6</ele>
        <time>2018-02-11T14:03:03Z</time>
      </trkpt>
      <trkpt lat="62.638250925775" lon="17.986321991759">
        <ele>62.2</ele>
        <time>2018-02-11T14:03:04Z</time>
      </trkpt>
      <trkpt lat="62.638250590499" lon="17.986260971527">
        <ele>62.2</ele>
        <time>2018-02-11T14:03:05Z</time>
      </trkpt>
      <trkpt lat="62.638264169177" lon="17.986189390101">
        <ele>62.2</ele>
        <time>2018-02-11T14:03:06Z</time>
      </trkpt>
      <trkpt lat="62.638268443946" lon="17.986116299933">
        <ele>62.2</ele>
        <time>2018-02-11T14:03:07Z</time>
      </trkpt>
      <trkpt lat="62.638281938805" lon="17.986048490362">
        <ele>62.4</ele>
        <time>2018-02-11T14:03:08Z</time>
      </trkpt>
      <trkpt lat="62.638291158895" lon="17.985981686619">
        <ele>62.4</ele>
        <time>2018-02-11T14:03:09Z</time>
      </trkpt>
      <trkpt lat="62.638299205519" lon="17.98592544407">
        <ele>62.4</ele>
        <time>2018-02-11T14:03:10Z</time>
      </trkpt>
      <trkpt lat="62.638309096161" lon="17.985873811566">
        <ele>62.6</ele>
        <time>2018-02-11T14:03:11Z</time>
      </trkpt>
      <trkpt lat="62.638323680667" lon="17.985805247624">
        <ele>62.6</ele>
        <time>2018-02-11T14:03:12Z</time>
      </trkpt>
      <trkpt lat="62.638336253517" lon="17.985759063355">
        <ele>62.6</ele>
        <time>2018-02-11T14:03:13Z</time>
      </trkpt>
      <trkpt lat="62.638349999833" lon="17.985709693964">
        <ele>62.8</ele>
        <time>2018-02-11T14:03:14Z</time>
      </trkpt>
      <trkpt lat="62.63836198595" lon="17.985662755324">
        <ele>62.8</ele>
        <time>2018-02-11T14:03:15Z</time>
      </trkpt>
      <trkpt lat="62.638376989551" lon="17.985601483635">
        <ele>63</ele>
        <time>2018-02-11T14:03:16Z</time>
      </trkpt>
      <trkpt lat="62.638384281804" lon="17.98555580228">
        <ele>62.8</ele>
        <time>2018-02-11T14:03:17Z</time>
      </trkpt>
      <trkpt lat="62.638400291233" lon="17.985499559731">
        <ele>63</ele>
        <time>2018-02-11T14:03:18Z</time>
      </trkpt>
      <trkpt lat="62.638417641766" lon="17.985454800385">
        <ele>62.8</ele>
        <time>2018-02-11T14:03:19Z</time>
      </trkpt>
      <trkpt lat="62.638432477729" lon="17.985422613889">
        <ele>62.8</ele>
        <time>2018-02-11T14:03:20Z</time>
      </trkpt>
      <trkpt lat="62.638451756099" lon="17.985383638054">
        <ele>62.8</ele>
        <time>2018-02-11T14:03:21Z</time>
      </trkpt>
      <trkpt lat="62.638471369745" lon="17.985338627251">
        <ele>62.6</ele>
        <time>2018-02-11T14:03:22Z</time>
      </trkpt>
      <trkpt lat="62.638487798269" lon="17.985300573425">
        <ele>62.6</ele>
        <time>2018-02-11T14:03:23Z</time>
      </trkpt>
      <trkpt lat="62.63851202196" lon="17.98524231922">
        <ele>62.2</ele>
        <time>2018-02-11T14:03:24Z</time>
      </trkpt>
      <trkpt lat="62.638528031389" lon="17.985197559874">
        <ele>62.2</ele>
        <time>2018-02-11T14:03:25Z</time>
      </trkpt>
      <trkpt lat="62.638549489053" lon="17.985134108891">
        <ele>62</ele>
        <time>2018-02-11T14:03:26Z</time>
      </trkpt>
      <trkpt lat="62.638589554535" lon="17.985052385366">
        <ele>61.8</ele>
        <time>2018-02-11T14:03:27Z</time>
      </trkpt>
      <trkpt lat="62.638626937809" lon="17.984988934383">
        <ele>61.6</ele>
        <time>2018-02-11T14:03:28Z</time>
      </trkpt>
      <trkpt lat="62.638646048541" lon="17.984936882784">
        <ele>61.4</ele>
        <time>2018-02-11T14:03:29Z</time>
      </trkpt>
      <trkpt lat="62.638665494549" lon="17.984871252507">
        <ele>61</ele>
        <time>2018-02-11T14:03:30Z</time>
      </trkpt>
      <trkpt lat="62.638686616937" lon="17.98483244431">
        <ele>60.8</ele>
        <time>2018-02-11T14:03:31Z</time>
      </trkpt>
      <trkpt lat="62.638717462329" lon="17.984780727987">
        <ele>60.4</ele>
        <time>2018-02-11T14:03:32Z</time>
      </trkpt>
      <trkpt lat="62.638750738472" lon="17.984712666959">
        <ele>60.2</ele>
        <time>2018-02-11T14:03:33Z</time>
      </trkpt>
      <trkpt lat="62.638779320751" lon="17.98464217518">
        <ele>60.2</ele>
        <time>2018-02-11T14:03:34Z</time>
      </trkpt>
      <trkpt lat="62.638801868062" lon="17.984579730025">
        <ele>60.2</ele>
        <time>2018-02-11T14:03:35Z</time>
      </trkpt>
      <trkpt lat="62.638832797273" lon="17.98447788994">
        <ele>60</ele>
        <time>2018-02-11T14:03:36Z</time>
      </trkpt>
      <trkpt lat="62.638854087299" lon="17.984389712352">
        <ele>59.8</ele>
        <time>2018-02-11T14:03:37Z</time>
      </trkpt>
      <trkpt lat="62.638865235226" lon="17.984291895579">
        <ele>59.4</ele>
        <time>2018-02-11T14:03:38Z</time>
      </trkpt>
      <trkpt lat="62.638870599642" lon="17.984206986932">
        <ele>58.8</ele>
        <time>2018-02-11T14:03:39Z</time>
      </trkpt>
      <trkpt lat="62.63887579642" lon="17.984126353054">
        <ele>58.4</ele>
        <time>2018-02-11T14:03:40Z</time>
      </trkpt>
      <trkpt lat="62.638882418121" lon="17.984053262886">
        <ele>58</ele>
        <time>2018-02-11T14:03:41Z</time>
      </trkpt>
      <trkpt lat="62.638884094501" lon="17.983958044502">
        <ele>57.6</ele>
        <time>2018-02-11T14:03:42Z</time>
      </trkpt>
      <trkpt lat="62.638884765053" lon="17.983873471131">
        <ele>57.4</ele>
        <time>2018-02-11T14:03:43Z</time>
      </trkpt>
      <trkpt lat="62.638882166664" lon="17.98379308871">
        <ele>57.6</ele>
        <time>2018-02-11T14:03:44Z</time>
      </trkpt>
      <trkpt lat="62.638878897723" lon="17.983734080134">
        <ele>57.6</ele>
        <time>2018-02-11T14:03:45Z</time>
      </trkpt>
      <trkpt lat="62.638879316818" lon="17.983661073785">
        <ele>57.8</ele>
        <time>2018-02-11T14:03:46Z</time>
      </trkpt>
      <trkpt lat="62.638875377325" lon="17.983596030241">
        <ele>57.8</ele>
        <time>2018-02-11T14:03:47Z</time>
      </trkpt>
      <trkpt lat="62.638873700945" lon="17.983521682788">
        <ele>57.8</ele>
        <time>2018-02-11T14:03:48Z</time>
      </trkpt>
      <trkpt lat="62.638870264366" lon="17.983465524058">
        <ele>57.8</ele>
        <time>2018-02-11T14:03:49Z</time>
      </trkpt>
      <trkpt lat="62.638871270194" lon="17.983409113871">
        <ele>57.8</ele>
        <time>2018-02-11T14:03:50Z</time>
      </trkpt>
      <trkpt lat="62.638869174719" lon="17.983344908517">
        <ele>57.8</ele>
        <time>2018-02-11T14:03:51Z</time>
      </trkpt>
      <trkpt lat="62.638868336529" lon="17.983275506385">
        <ele>58</ele>
        <time>2018-02-11T14:03:52Z</time>
      </trkpt>
      <trkpt lat="62.638871102556" lon="17.983211971583">
        <ele>58</ele>
        <time>2018-02-11T14:03:53Z</time>
      </trkpt>
      <trkpt lat="62.638876466972" lon="17.983149274971">
        <ele>58</ele>
        <time>2018-02-11T14:03:54Z</time>
      </trkpt>
      <trkpt lat="62.638878227171" lon="17.983089931119">
        <ele>58.2</ele>
        <time>2018-02-11T14:03:55Z</time>
      </trkpt>
      <trkpt lat="62.638876131696" lon="17.983028910887">
        <ele>58.2</ele>
        <time>2018-02-11T14:03:56Z</time>
      </trkpt>
      <trkpt lat="62.638878059533" lon="17.982958083832">
        <ele>58.2</ele>
        <time>2018-02-11T14:03:57Z</time>
      </trkpt>
      <trkpt lat="62.63888082556" lon="17.98289371084">
        <ele>58.2</ele>
        <time>2018-02-11T14:03:58Z</time>
      </trkpt>
      <trkpt lat="62.638883675406" lon="17.982826488002">
        <ele>58.4</ele>
        <time>2018-02-11T14:03:59Z</time>
      </trkpt>
      <trkpt lat="62.638889794193" lon="17.982764210485">
        <ele>58.4</ele>
        <time>2018-02-11T14:04:00Z</time>
      </trkpt>
      <trkpt lat="62.638898008455" lon="17.982702771158">
        <ele>58.2</ele>
        <time>2018-02-11T14:04:01Z</time>
      </trkpt>
      <trkpt lat="62.638906641812" lon="17.982635380682">
        <ele>58.4</ele>
        <time>2018-02-11T14:04:02Z</time>
      </trkpt>
      <trkpt lat="62.63891435316" lon="17.982569918043">
        <ele>58.4</ele>
        <time>2018-02-11T14:04:03Z</time>
      </trkpt>
      <trkpt lat="62.638920974861" lon="17.982498839531">
        <ele>58.4</ele>
        <time>2018-02-11T14:04:04Z</time>
      </trkpt>
      <trkpt lat="62.638913934065" lon="17.982446620294">
        <ele>58.4</ele>
        <time>2018-02-11T14:04:05Z</time>
      </trkpt>
      <trkpt lat="62.638913347332" lon="17.982378643085">
        <ele>58.4</ele>
        <time>2018-02-11T14:04:06Z</time>
      </trkpt>
      <trkpt lat="62.638910246029" lon="17.982309157134">
        <ele>58.6</ele>
        <time>2018-02-11T14:04:07Z</time>
      </trkpt>
      <trkpt lat="62.638909826934" lon="17.98224662816">
        <ele>58.6</ele>
        <time>2018-02-11T14:04:08Z</time>
      </trkpt>
      <trkpt lat="62.638921393956" lon="17.982184434462">
        <ele>58.6</ele>
        <time>2018-02-11T14:04:09Z</time>
      </trkpt>
      <trkpt lat="62.638931033141" lon="17.982132131406">
        <ele>58.6</ele>
        <time>2018-02-11T14:04:10Z</time>
      </trkpt>
      <trkpt lat="62.638949221864" lon="17.982075553581">
        <ele>58.6</ele>
        <time>2018-02-11T14:04:11Z</time>
      </trkpt>
      <trkpt lat="62.638968248777" lon="17.981995422617">
        <ele>58.2</ele>
        <time>2018-02-11T14:04:12Z</time>
      </trkpt>
      <trkpt lat="62.638979564342" lon="17.98193817424">
        <ele>58.2</ele>
        <time>2018-02-11T14:04:13Z</time>
      </trkpt>
      <trkpt lat="62.639003536576" lon="17.981872376325">
        <ele>58.2</ele>
        <time>2018-02-11T14:04:14Z</time>
      </trkpt>
      <trkpt lat="62.639022395851" lon="17.981811020817">
        <ele>58.2</ele>
        <time>2018-02-11T14:04:15Z</time>
      </trkpt>
      <trkpt lat="62.639049050293" lon="17.981729129654">
        <ele>58</ele>
        <time>2018-02-11T14:04:16Z</time>
      </trkpt>
      <trkpt lat="62.6390618746" lon="17.981680263177">
        <ele>58.2</ele>
        <time>2018-02-11T14:04:17Z</time>
      </trkpt>
      <trkpt lat="62.639086685024" lon="17.981565598785">
        <ele>57.8</ele>
        <time>2018-02-11T14:04:18Z</time>
      </trkpt>
      <trkpt lat="62.639092217078" lon="17.981509775331">
        <ele>57.8</ele>
        <time>2018-02-11T14:04:19Z</time>
      </trkpt>
      <trkpt lat="62.639116524588" lon="17.981440876113">
        <ele>57.8</ele>
        <time>2018-02-11T14:04:20Z</time>
      </trkpt>
      <trkpt lat="62.639147202342" lon="17.981384214469">
        <ele>57.8</ele>
        <time>2018-02-11T14:04:21Z</time>
      </trkpt>
      <trkpt lat="62.639155835699" lon="17.981309364102">
        <ele>57.6</ele>
        <time>2018-02-11T14:04:22Z</time>
      </trkpt>
      <trkpt lat="62.639183244512" lon="17.981252031906">
        <ele>57.4</ele>
        <time>2018-02-11T14:04:23Z</time>
      </trkpt>
      <trkpt lat="62.639201768511" lon="17.981172571494">
        <ele>57.2</ele>
        <time>2018-02-11T14:04:24Z</time>
      </trkpt>
      <trkpt lat="62.639227920039" lon="17.981118508239">
        <ele>57.2</ele>
        <time>2018-02-11T14:04:25Z</time>
      </trkpt>
      <trkpt lat="62.639257759603" lon="17.981059918758">
        <ele>57.2</ele>
        <time>2018-02-11T14:04:26Z</time>
      </trkpt>
      <trkpt lat="62.639286844796" lon="17.981005184951">
        <ele>57</ele>
        <time>2018-02-11T14:04:27Z</time>
      </trkpt>
      <trkpt lat="62.639313080143" lon="17.980950618782">
        <ele>56.8</ele>
        <time>2018-02-11T14:04:28Z</time>
      </trkpt>
      <trkpt lat="62.639329676305" lon="17.980879791727">
        <ele>56.6</ele>
        <time>2018-02-11T14:04:29Z</time>
      </trkpt>
      <trkpt lat="62.639359012955" lon="17.980831092888">
        <ele>56.4</ele>
        <time>2018-02-11T14:04:30Z</time>
      </trkpt>
      <trkpt lat="62.639381141171" lon="17.980761774575">
        <ele>56.2</ele>
        <time>2018-02-11T14:04:31Z</time>
      </trkpt>
      <trkpt lat="62.639404359034" lon="17.980700419067">
        <ele>56</ele>
        <time>2018-02-11T14:04:32Z</time>
      </trkpt>
      <trkpt lat="62.639424475594" lon="17.980623305587">
        <ele>55.8</ele>
        <time>2018-02-11T14:04:33Z</time>
      </trkpt>
      <trkpt lat="62.639442245222" lon="17.980551305066">
        <ele>55.6</ele>
        <time>2018-02-11T14:04:34Z</time>
      </trkpt>
      <trkpt lat="62.63945833847" lon="17.980492212671">
        <ele>55.6</ele>
        <time>2018-02-11T14:04:35Z</time>
      </trkpt>
      <trkpt lat="62.639466468913" lon="17.980420044512">
        <ele>55.4</ele>
        <time>2018-02-11T14:04:36Z</time>
      </trkpt>
      <trkpt lat="62.639484406179" lon="17.980344272136">
        <ele>55.2</ele>
        <time>2018-02-11T14:04:37Z</time>
      </trkpt>
      <trkpt lat="62.639493793907" lon="17.980262548611">
        <ele>55</ele>
        <time>2018-02-11T14:04:38Z</time>
      </trkpt>
      <trkpt lat="62.639502343445" lon="17.980187279149">
        <ele>54.8</ele>
        <time>2018-02-11T14:04:39Z</time>
      </trkpt>
      <trkpt lat="62.639514748657" lon="17.980119050483">
        <ele>54.6</ele>
        <time>2018-02-11T14:04:40Z</time>
      </trkpt>
      <trkpt lat="62.639517598503" lon="17.980056353871">
        <ele>54.6</ele>
        <time>2018-02-11T14:04:41Z</time>
      </trkpt>
      <trkpt lat="62.639528914068" lon="17.979970607034">
        <ele>54.4</ele>
        <time>2018-02-11T14:04:42Z</time>
      </trkpt>
      <trkpt lat="62.639523465833" lon="17.979919309806">
        <ele>54.2</ele>
        <time>2018-02-11T14:04:43Z</time>
      </trkpt>
      <trkpt lat="62.639535954864" lon="17.979858960126">
        <ele>54</ele>
        <time>2018-02-11T14:04:44Z</time>
      </trkpt>
      <trkpt lat="62.639546013144" lon="17.979796850247">
        <ele>54</ele>
        <time>2018-02-11T14:04:45Z</time>
      </trkpt>
      <trkpt lat="62.639560094736" lon="17.979738596042">
        <ele>54</ele>
        <time>2018-02-11T14:04:46Z</time>
      </trkpt>
      <trkpt lat="62.639580127477" lon="17.979674725964">
        <ele>54</ele>
        <time>2018-02-11T14:04:47Z</time>
      </trkpt>
      <trkpt lat="62.63961256543" lon="17.979587638023">
        <ele>53.8</ele>
        <time>2018-02-11T14:04:48Z</time>
      </trkpt>
      <trkpt lat="62.639635448017" lon="17.979517397701">
        <ele>53.8</ele>
        <time>2018-02-11T14:04:49Z</time>
      </trkpt>
      <trkpt lat="62.639664700848" lon="17.979441373868">
        <ele>53.8</ele>
        <time>2018-02-11T14:04:50Z</time>
      </trkpt>
      <trkpt lat="62.639703509045" lon="17.979364008931">
        <ele>54</ele>
        <time>2018-02-11T14:04:51Z</time>
      </trkpt>
      <trkpt lat="62.639743155432" lon="17.979305167993">
        <ele>53.8</ele>
        <time>2018-02-11T14:04:52Z</time>
      </trkpt>
      <trkpt lat="62.639761847069" lon="17.979268119995">
        <ele>53.6</ele>
        <time>2018-02-11T14:04:53Z</time>
      </trkpt>
      <trkpt lat="62.63980199637" lon="17.979180780597">
        <ele>53.6</ele>
        <time>2018-02-11T14:04:54Z</time>
      </trkpt>
      <trkpt lat="62.639822699663" lon="17.979118167804">
        <ele>53.8</ele>
        <time>2018-02-11T14:04:55Z</time>
      </trkpt>
      <trkpt lat="62.639854886159" lon="17.97907407901">
        <ele>53.6</ele>
        <time>2018-02-11T14:04:56Z</time>
      </trkpt>
      <trkpt lat="62.63989000632" lon="17.979018674651">
        <ele>53.4</ele>
        <time>2018-02-11T14:04:57Z</time>
      </trkpt>
      <trkpt lat="62.639913391821" lon="17.978984308861">
        <ele>53.2</ele>
        <time>2018-02-11T14:04:58Z</time>
      </trkpt>
      <trkpt lat="62.639943901937" lon="17.978926892846">
        <ele>52.8</ele>
        <time>2018-02-11T14:04:59Z</time>
      </trkpt>
      <trkpt lat="62.639983129229" lon="17.978861597845">
        <ele>52.6</ele>
        <time>2018-02-11T14:05:00Z</time>
      </trkpt>
      <trkpt lat="62.640024368177" lon="17.978794458826">
        <ele>52.4</ele>
        <time>2018-02-11T14:05:01Z</time>
      </trkpt>
      <trkpt lat="62.640058231053" lon="17.978739808838">
        <ele>52.4</ele>
        <time>2018-02-11T14:05:02Z</time>
      </trkpt>
      <trkpt lat="62.640108438634" lon="17.978689517438">
        <ele>52.2</ele>
        <time>2018-02-11T14:05:03Z</time>
      </trkpt>
      <trkpt lat="62.640143642614" lon="17.978623468066">
        <ele>52</ele>
        <time>2018-02-11T14:05:04Z</time>
      </trkpt>
      <trkpt lat="62.640161663699" lon="17.978587342077">
        <ele>51.8</ele>
        <time>2018-02-11T14:05:05Z</time>
      </trkpt>
      <trkpt lat="62.640197286774" lon="17.978539062333">
        <ele>51.8</ele>
        <time>2018-02-11T14:05:06Z</time>
      </trkpt>
      <trkpt lat="62.640229640908" lon="17.978497739566">
        <ele>51.4</ele>
        <time>2018-02-11T14:05:07Z</time>
      </trkpt>
      <trkpt lat="62.640269371114" lon="17.978441497017">
        <ele>51</ele>
        <time>2018-02-11T14:05:08Z</time>
      </trkpt>
      <trkpt lat="62.64028898476" lon="17.97841609986">
        <ele>50.6</ele>
        <time>2018-02-11T14:05:09Z</time>
      </trkpt>
      <trkpt lat="62.640315639202" lon="17.978372765437">
        <ele>50</ele>
        <time>2018-02-11T14:05:10Z</time>
      </trkpt>
      <trkpt lat="62.64035101082" lon="17.978324234236">
        <ele>49.8</ele>
        <time>2018-02-11T14:05:11Z</time>
      </trkpt>
      <trkpt lat="62.64038537661" lon="17.978263297823">
        <ele>49.6</ele>
        <time>2018-02-11T14:05:12Z</time>
      </trkpt>
      <trkpt lat="62.640425861187" lon="17.978209234568">
        <ele>49</ele>
        <time>2018-02-11T14:05:13Z</time>
      </trkpt>
      <trkpt lat="62.640467686868" lon="17.978150728906">
        <ele>49.2</ele>
        <time>2018-02-11T14:05:14Z</time>
      </trkpt>
      <trkpt lat="62.640504567228" lon="17.978094067262">
        <ele>49</ele>
        <time>2018-02-11T14:05:15Z</time>
      </trkpt>
      <trkpt lat="62.640546979642" lon="17.978034220496">
        <ele>49</ele>
        <time>2018-02-11T14:05:16Z</time>
      </trkpt>
      <trkpt lat="62.640585620201" lon="17.97797940287">
        <ele>48.6</ele>
        <time>2018-02-11T14:05:17Z</time>
      </trkpt>
      <trkpt lat="62.640624428398" lon="17.977911006566">
        <ele>48.2</ele>
        <time>2018-02-11T14:05:18Z</time>
      </trkpt>
      <trkpt lat="62.640651501935" lon="17.977834982733">
        <ele>47.4</ele>
        <time>2018-02-11T14:05:19Z</time>
      </trkpt>
      <trkpt lat="62.640685532449" lon="17.977766921705">
        <ele>47.4</ele>
        <time>2018-02-11T14:05:20Z</time>
      </trkpt>
      <trkpt lat="62.64072651994" lon="17.977663991973">
        <ele>46.8</ele>
        <time>2018-02-11T14:05:21Z</time>
      </trkpt>
      <trkpt lat="62.640757616789" lon="17.977592410547">
        <ele>46.8</ele>
        <time>2018-02-11T14:05:22Z</time>
      </trkpt>
      <trkpt lat="62.640796508805" lon="17.977526025899">
        <ele>46.6</ele>
        <time>2018-02-11T14:05:23Z</time>
      </trkpt>
      <trkpt lat="62.640853589544" lon="17.97745553412">
        <ele>46.6</ele>
        <time>2018-02-11T14:05:24Z</time>
      </trkpt>
      <trkpt lat="62.640895582863" lon="17.977402309055">
        <ele>46.4</ele>
        <time>2018-02-11T14:05:25Z</time>
      </trkpt>
      <trkpt lat="62.64094109658" lon="17.977337768425">
        <ele>46.2</ele>
        <time>2018-02-11T14:05:26Z</time>
      </trkpt>
      <trkpt lat="62.640983760451" lon="17.977262415144">
        <ele>45.8</ele>
        <time>2018-02-11T14:05:27Z</time>
      </trkpt>
      <trkpt lat="62.641010833988" lon="17.977172477357">
        <ele>45.6</ele>
        <time>2018-02-11T14:05:28Z</time>
      </trkpt>
      <trkpt lat="62.641043104303" lon="17.977108188184">
        <ele>45.2</ele>
        <time>2018-02-11T14:05:29Z</time>
      </trkpt>
      <trkpt lat="62.641085432898" lon="17.977030152695">
        <ele>44.8</ele>
        <time>2018-02-11T14:05:30Z</time>
      </trkpt>
      <trkpt lat="62.641138238868" lon="17.976968210454">
        <ele>44.2</ele>
        <time>2018-02-11T14:05:31Z</time>
      </trkpt>
      <trkpt lat="62.641189536096" lon="17.976930659542">
        <ele>43.8</ele>
        <time>2018-02-11T14:05:32Z</time>
      </trkpt>
      <trkpt lat="62.641243850808" lon="17.976896377571">
        <ele>43.4</ele>
        <time>2018-02-11T14:05:33Z</time>
      </trkpt>
      <trkpt lat="62.64130068009" lon="17.976857234098">
        <ele>43</ele>
        <time>2018-02-11T14:05:34Z</time>
      </trkpt>
      <trkpt lat="62.641352983146" lon="17.976828735638">
        <ele>42.4</ele>
        <time>2018-02-11T14:05:35Z</time>
      </trkpt>
      <trkpt lat="62.641415931215" lon="17.976799985721">
        <ele>42</ele>
        <time>2018-02-11T14:05:36Z</time>
      </trkpt>
      <trkpt lat="62.641471922307" lon="17.976762434809">
        <ele>41.4</ele>
        <time>2018-02-11T14:05:37Z</time>
      </trkpt>
      <trkpt lat="62.641531769073" lon="17.976718513653">
        <ele>40.8</ele>
        <time>2018-02-11T14:05:38Z</time>
      </trkpt>
      <trkpt lat="62.641584910319" lon="17.976659672715">
        <ele>40.4</ele>
        <time>2018-02-11T14:05:39Z</time>
      </trkpt>
      <trkpt lat="62.641634950262" lon="17.976607956392">
        <ele>40</ele>
        <time>2018-02-11T14:05:40Z</time>
      </trkpt>
      <trkpt lat="62.64168457111" lon="17.976540649735">
        <ele>39.6</ele>
        <time>2018-02-11T14:05:41Z</time>
      </trkpt>
      <trkpt lat="62.64173989165" lon="17.976471918155">
        <ele>39.2</ele>
        <time>2018-02-11T14:05:42Z</time>
      </trkpt>
      <trkpt lat="62.641796218018" lon="17.976411484656">
        <ele>38.6</ele>
        <time>2018-02-11T14:05:43Z</time>
      </trkpt>
      <trkpt lat="62.641845671228" lon="17.976344513275">
        <ele>38</ele>
        <time>2018-02-11T14:05:44Z</time>
      </trkpt>
      <trkpt lat="62.641894202429" lon="17.976287432536">
        <ele>37.6</ele>
        <time>2018-02-11T14:05:45Z</time>
      </trkpt>
      <trkpt lat="62.641950025883" lon="17.976209732323">
        <ele>37.2</ele>
        <time>2018-02-11T14:05:46Z</time>
      </trkpt>
      <trkpt lat="62.641994952867" lon="17.976138821449">
        <ele>36.8</ele>
        <time>2018-02-11T14:05:47Z</time>
      </trkpt>
      <trkpt lat="62.642045663362" lon="17.976066318014">
        <ele>36.4</ele>
        <time>2018-02-11T14:05:48Z</time>
      </trkpt>
      <trkpt lat="62.642090674165" lon="17.975988366344">
        <ele>36</ele>
        <time>2018-02-11T14:05:49Z</time>
      </trkpt>
      <trkpt lat="62.642131913113" lon="17.975918796574">
        <ele>35.6</ele>
        <time>2018-02-11T14:05:50Z</time>
      </trkpt>
      <trkpt lat="62.642181031047" lon="17.975849394442">
        <ele>35.2</ele>
        <time>2018-02-11T14:05:51Z</time>
      </trkpt>
      <trkpt lat="62.642236183949" lon="17.975785272907">
        <ele>34.6</ele>
        <time>2018-02-11T14:05:52Z</time>
      </trkpt>
      <trkpt lat="62.642284631331" lon="17.975721738105">
        <ele>34.2</ele>
        <time>2018-02-11T14:05:53Z</time>
      </trkpt>
      <trkpt lat="62.642338107853" lon="17.975653509439">
        <ele>33.6</ele>
        <time>2018-02-11T14:05:54Z</time>
      </trkpt>
      <trkpt lat="62.642385968502" lon="17.975573965208">
        <ele>33</ele>
        <time>2018-02-11T14:05:55Z</time>
      </trkpt>
      <trkpt lat="62.642433745332" lon="17.975475142607">
        <ele>32.4</ele>
        <time>2018-02-11T14:05:56Z</time>
      </trkpt>
      <trkpt lat="62.642473894633" lon="17.975373302522">
        <ele>31.8</ele>
        <time>2018-02-11T14:05:57Z</time>
      </trkpt>
      <trkpt lat="62.642512451373" lon="17.975284119106">
        <ele>31.2</ele>
        <time>2018-02-11T14:05:58Z</time>
      </trkpt>
      <trkpt lat="62.642547320077" lon="17.975220416666">
        <ele>30.6</ele>
        <time>2018-02-11T14:05:59Z</time>
      </trkpt>
      <trkpt lat="62.64257724346" lon="17.975147326498">
        <ele>30.2</ele>
        <time>2018-02-11T14:06:00Z</time>
      </trkpt>
      <trkpt lat="62.642612279802" lon="17.975039702902">
        <ele>30</ele>
        <time>2018-02-11T14:06:01Z</time>
      </trkpt>
      <trkpt lat="62.642639856253" lon="17.974949765115">
        <ele>30</ele>
        <time>2018-02-11T14:06:02Z</time>
      </trkpt>
      <trkpt lat="62.642668689989" lon="17.9748672034">
        <ele>29.8</ele>
        <time>2018-02-11T14:06:03Z</time>
      </trkpt>
      <trkpt lat="62.642695763526" lon="17.974778690536">
        <ele>29.8</ele>
        <time>2018-02-11T14:06:04Z</time>
      </trkpt>
      <trkpt lat="62.642720741588" lon="17.974720939245">
        <ele>30</ele>
        <time>2018-02-11T14:06:05Z</time>
      </trkpt>
      <trkpt lat="62.642761812898" lon="17.97458389518">
        <ele>29.6</ele>
        <time>2018-02-11T14:06:06Z</time>
      </trkpt>
      <trkpt lat="62.642799028534" lon="17.974469649883">
        <ele>29.4</ele>
        <time>2018-02-11T14:06:07Z</time>
      </trkpt>
      <trkpt lat="62.64282367132" lon="17.974398739009">
        <ele>29.2</ele>
        <time>2018-02-11T14:06:08Z</time>
      </trkpt>
      <trkpt lat="62.642839429292" lon="17.974309723231">
        <ele>28.8</ele>
        <time>2018-02-11T14:06:09Z</time>
      </trkpt>
      <trkpt lat="62.642855773997" lon="17.974237471253">
        <ele>28.8</ele>
        <time>2018-02-11T14:06:10Z</time>
      </trkpt>
      <trkpt lat="62.642875471462" lon="17.97415725647">
        <ele>28.6</ele>
        <time>2018-02-11T14:06:11Z</time>
      </trkpt>
      <trkpt lat="62.642895252746" lon="17.974072683099">
        <ele>28.4</ele>
        <time>2018-02-11T14:06:12Z</time>
      </trkpt>
      <trkpt lat="62.642909250519" lon="17.973987187719">
        <ele>28.4</ele>
        <time>2018-02-11T14:06:13Z</time>
      </trkpt>
      <trkpt lat="62.64290749032" lon="17.973892891344">
        <ele>28.2</ele>
        <time>2018-02-11T14:06:14Z</time>
      </trkpt>
      <trkpt lat="62.642914866392" lon="17.973800019892">
        <ele>27.8</ele>
        <time>2018-02-11T14:06:15Z</time>
      </trkpt>
      <trkpt lat="62.642927690699" lon="17.97370798663">
        <ele>27.8</ele>
        <time>2018-02-11T14:06:16Z</time>
      </trkpt>
      <trkpt lat="62.642939592997" lon="17.973615198997">
        <ele>27.6</ele>
        <time>2018-02-11T14:06:17Z</time>
      </trkpt>
      <trkpt lat="62.642962727041" lon="17.973521237898">
        <ele>27.2</ele>
        <time>2018-02-11T14:06:18Z</time>
      </trkpt>
      <trkpt lat="62.642965073973" lon="17.973439514373">
        <ele>27</ele>
        <time>2018-02-11T14:06:19Z</time>
      </trkpt>
      <trkpt lat="62.642962559403" lon="17.973379332331">
        <ele>26.8</ele>
        <time>2018-02-11T14:06:20Z</time>
      </trkpt>
      <trkpt lat="62.642965912163" lon="17.97331068457">
        <ele>26.6</ele>
        <time>2018-02-11T14:06:21Z</time>
      </trkpt>
      <trkpt lat="62.642966917991" lon="17.973229212502">
        <ele>26.6</ele>
        <time>2018-02-11T14:06:22Z</time>
      </trkpt>
      <trkpt lat="62.642952417304" lon="17.97315981037">
        <ele>26.6</ele>
        <time>2018-02-11T14:06:23Z</time>
      </trkpt>
      <trkpt lat="62.642942023748" lon="17.973090072962">
        <ele>26.6</ele>
        <time>2018-02-11T14:06:24Z</time>
      </trkpt>
      <trkpt lat="62.64293934154" lon="17.97303072911">
        <ele>26.6</ele>
        <time>2018-02-11T14:06:25Z</time>
      </trkpt>
      <trkpt lat="62.642942107567" lon="17.972968283955">
        <ele>26.6</ele>
        <time>2018-02-11T14:06:26Z</time>
      </trkpt>
      <trkpt lat="62.642936575513" lon="17.972923524609">
        <ele>26.6</ele>
        <time>2018-02-11T14:06:27Z</time>
      </trkpt>
      <trkpt lat="62.64291671041" lon="17.972860073626">
        <ele>26.8</ele>
        <time>2018-02-11T14:06:28Z</time>
      </trkpt>
      <trkpt lat="62.642905981578" lon="17.972807100018">
        <ele>26.6</ele>
        <time>2018-02-11T14:06:29Z</time>
      </trkpt>
      <trkpt lat="62.642902209723" lon="17.972753874953">
        <ele>26.8</ele>
        <time>2018-02-11T14:06:30Z</time>
      </trkpt>
      <trkpt lat="62.642888882502" lon="17.972702745363">
        <ele>27</ele>
        <time>2018-02-11T14:06:31Z</time>
      </trkpt>
      <trkpt lat="62.642874549453" lon="17.972646251357">
        <ele>27</ele>
        <time>2018-02-11T14:06:32Z</time>
      </trkpt>
      <trkpt lat="62.642866167553" lon="17.972610460644">
        <ele>27.2</ele>
        <time>2018-02-11T14:06:33Z</time>
      </trkpt>
      <trkpt lat="62.642844709889" lon="17.972555810656">
        <ele>27.6</ele>
        <time>2018-02-11T14:06:34Z</time>
      </trkpt>
      <trkpt lat="62.642831298849" lon="17.972508788197">
        <ele>27.6</ele>
        <time>2018-02-11T14:06:35Z</time>
      </trkpt>
      <trkpt lat="62.642819061275" lon="17.972457155693">
        <ele>27.8</ele>
        <time>2018-02-11T14:06:36Z</time>
      </trkpt>
      <trkpt lat="62.642793915575" lon="17.972396386918">
        <ele>27.8</ele>
        <time>2018-02-11T14:06:37Z</time>
      </trkpt>
      <trkpt lat="62.6427834382" lon="17.972334277039">
        <ele>27.8</ele>
        <time>2018-02-11T14:06:38Z</time>
      </trkpt>
      <trkpt lat="62.642776565042" lon="17.972284572372">
        <ele>27.8</ele>
        <time>2018-02-11T14:06:39Z</time>
      </trkpt>
      <trkpt lat="62.642766590581" lon="17.972218355362">
        <ele>27.8</ele>
        <time>2018-02-11T14:06:40Z</time>
      </trkpt>
      <trkpt lat="62.642760304156" lon="17.97216655522">
        <ele>28</ele>
        <time>2018-02-11T14:06:41Z</time>
      </trkpt>
      <trkpt lat="62.642756113206" lon="17.972110983223">
        <ele>28</ele>
        <time>2018-02-11T14:06:42Z</time>
      </trkpt>
      <trkpt lat="62.64273901413" lon="17.972029846431">
        <ele>28</ele>
        <time>2018-02-11T14:06:43Z</time>
      </trkpt>
      <trkpt lat="62.642735326094" lon="17.971956337168">
        <ele>28</ele>
        <time>2018-02-11T14:06:44Z</time>
      </trkpt>
      <trkpt lat="62.642724932538" lon="17.971909817623">
        <ele>28</ele>
        <time>2018-02-11T14:06:45Z</time>
      </trkpt>
      <trkpt lat="62.642713952249" lon="17.971838068559">
        <ele>28</ele>
        <time>2018-02-11T14:06:46Z</time>
      </trkpt>
      <trkpt lat="62.642710431851" lon="17.971784089123">
        <ele>28</ele>
        <time>2018-02-11T14:06:47Z</time>
      </trkpt>
      <trkpt lat="62.642718813751" lon="17.971737904854">
        <ele>28</ele>
        <time>2018-02-11T14:06:48Z</time>
      </trkpt>
      <trkpt lat="62.642750581152" lon="17.971731283153">
        <ele>28</ele>
        <time>2018-02-11T14:06:49Z</time>
      </trkpt>
      <trkpt lat="62.642768015504" lon="17.971753746645">
        <ele>28.2</ele>
        <time>2018-02-11T14:06:50Z</time>
      </trkpt>
      <trkpt lat="62.642789808444" lon="17.97181032447">
        <ele>28.2</ele>
        <time>2018-02-11T14:06:51Z</time>
      </trkpt>
      <trkpt lat="62.642803387122" lon="17.971868913951">
        <ele>28.2</ele>
        <time>2018-02-11T14:06:52Z</time>
      </trkpt>
      <trkpt lat="62.64282199494" lon="17.971924569767">
        <ele>28.4</ele>
        <time>2018-02-11T14:06:53Z</time>
      </trkpt>
      <trkpt lat="62.642836160351" lon="17.97198466799">
        <ele>28.4</ele>
        <time>2018-02-11T14:06:54Z</time>
      </trkpt>
      <trkpt lat="62.642851666866" lon="17.972037390141">
        <ele>28.4</ele>
        <time>2018-02-11T14:06:55Z</time>
      </trkpt>
      <trkpt lat="62.64286222806" lon="17.972083071496">
        <ele>28.2</ele>
        <time>2018-02-11T14:06:56Z</time>
      </trkpt>
      <trkpt lat="62.642878069851" lon="17.972151551619">
        <ele>28.2</ele>
        <time>2018-02-11T14:06:57Z</time>
      </trkpt>
      <trkpt lat="62.642893660185" lon="17.972214415869">
        <ele>27.8</ele>
        <time>2018-02-11T14:06:58Z</time>
      </trkpt>
      <trkpt lat="62.642903383189" lon="17.972267808572">
        <ele>27.6</ele>
        <time>2018-02-11T14:06:59Z</time>
      </trkpt>
      <trkpt lat="62.642917800057" lon="17.972337797437">
        <ele>27.6</ele>
        <time>2018-02-11T14:07:00Z</time>
      </trkpt>
      <trkpt lat="62.642934815314" lon="17.972372247046">
        <ele>27.4</ele>
        <time>2018-02-11T14:07:01Z</time>
      </trkpt>
      <trkpt lat="62.642940850282" lon="17.97245992172">
        <ele>27.2</ele>
        <time>2018-02-11T14:07:02Z</time>
      </trkpt>
      <trkpt lat="62.642950321829" lon="17.972527647472">
        <ele>27.2</ele>
        <time>2018-02-11T14:07:03Z</time>
      </trkpt>
      <trkpt lat="62.642962894679" lon="17.972583554745">
        <ele>27.2</ele>
        <time>2018-02-11T14:07:04Z</time>
      </trkpt>
      <trkpt lat="62.642965828344" lon="17.972658321293">
        <ele>27</ele>
        <time>2018-02-11T14:07:05Z</time>
      </trkpt>
      <trkpt lat="62.642978401194" lon="17.972760329016">
        <ele>26.8</ele>
        <time>2018-02-11T14:07:06Z</time>
      </trkpt>
      <trkpt lat="62.642987034551" lon="17.972839454152">
        <ele>26.6</ele>
        <time>2018-02-11T14:07:07Z</time>
      </trkpt>
      <trkpt lat="62.642995751727" lon="17.97293349907">
        <ele>26.4</ele>
        <time>2018-02-11T14:07:08Z</time>
      </trkpt>
      <trkpt lat="62.642998936849" lon="17.973014887319">
        <ele>26.4</ele>
        <time>2018-02-11T14:07:09Z</time>
      </trkpt>
      <trkpt lat="62.643004552722" lon="17.973096862301">
        <ele>26.2</ele>
        <time>2018-02-11T14:07:10Z</time>
      </trkpt>
      <trkpt lat="62.643003714532" lon="17.973186213355">
        <ele>26.4</ele>
        <time>2018-02-11T14:07:11Z</time>
      </trkpt>
      <trkpt lat="62.642997260469" lon="17.973282269929">
        <ele>26.2</ele>
        <time>2018-02-11T14:07:12Z</time>
      </trkpt>
      <trkpt lat="62.643001199962" lon="17.973370782793">
        <ele>26.2</ele>
        <time>2018-02-11T14:07:13Z</time>
      </trkpt>
      <trkpt lat="62.643012431708" lon="17.973443453866">
        <ele>26</ele>
        <time>2018-02-11T14:07:14Z</time>
      </trkpt>
      <trkpt lat="62.643013269898" lon="17.973514448559">
        <ele>26</ele>
        <time>2018-02-11T14:07:15Z</time>
      </trkpt>
      <trkpt lat="62.643017377029" lon="17.973605475993">
        <ele>25.8</ele>
        <time>2018-02-11T14:07:16Z</time>
      </trkpt>
      <trkpt lat="62.643021148884" lon="17.97366691532">
        <ele>26</ele>
        <time>2018-02-11T14:07:17Z</time>
      </trkpt>
      <trkpt lat="62.643028692594" lon="17.973746040456">
        <ele>25.6</ele>
        <time>2018-02-11T14:07:18Z</time>
      </trkpt>
      <trkpt lat="62.64303238063" lon="17.973831116741">
        <ele>25.6</ele>
        <time>2018-02-11T14:07:19Z</time>
      </trkpt>
      <trkpt lat="62.643027435309" lon="17.973901692339">
        <ele>25.6</ele>
        <time>2018-02-11T14:07:20Z</time>
      </trkpt>
      <trkpt lat="62.643029446965" lon="17.97398878028">
        <ele>25.6</ele>
        <time>2018-02-11T14:07:21Z</time>
      </trkpt>
      <trkpt lat="62.643035146657" lon="17.974046531571">
        <ele>25.4</ele>
        <time>2018-02-11T14:07:22Z</time>
      </trkpt>
      <trkpt lat="62.643031710078" lon="17.974131943132">
        <ele>25.4</ele>
        <time>2018-02-11T14:07:23Z</time>
      </trkpt>
      <trkpt lat="62.643031039526" lon="17.974222551471">
        <ele>25.4</ele>
        <time>2018-02-11T14:07:24Z</time>
      </trkpt>
      <trkpt lat="62.643027686766" lon="17.974282482056">
        <ele>25.6</ele>
        <time>2018-02-11T14:07:25Z</time>
      </trkpt>
      <trkpt lat="62.643027435309" lon="17.97436512759">
        <ele>25.4</ele>
        <time>2018-02-11T14:07:26Z</time>
      </trkpt>
      <trkpt lat="62.643027183852" lon="17.974430338772">
        <ele>25.4</ele>
        <time>2018-02-11T14:07:27Z</time>
      </trkpt>
      <trkpt lat="62.64302232235" lon="17.974494041212">
        <ele>25.4</ele>
        <time>2018-02-11T14:07:28Z</time>
      </trkpt>
      <trkpt lat="62.643023076721" lon="17.974569226855">
        <ele>25.2</ele>
        <time>2018-02-11T14:07:29Z</time>
      </trkpt>
      <trkpt lat="62.643023579635" lon="17.974636282055">
        <ele>25.4</ele>
        <time>2018-02-11T14:07:30Z</time>
      </trkpt>
      <trkpt lat="62.643019304866" lon="17.974716999752">
        <ele>25.2</ele>
        <time>2018-02-11T14:07:31Z</time>
      </trkpt>
      <trkpt lat="62.643034727562" lon="17.97478170802">
        <ele>25.2</ele>
        <time>2018-02-11T14:07:32Z</time>
      </trkpt>
      <trkpt lat="62.64303154244" lon="17.974860246423">
        <ele>25.4</ele>
        <time>2018-02-11T14:07:33Z</time>
      </trkpt>
      <trkpt lat="62.643032129173" lon="17.974935264428">
        <ele>25.4</ele>
        <time>2018-02-11T14:07:34Z</time>
      </trkpt>
      <trkpt lat="62.643030788069" lon="17.974995362651">
        <ele>25.4</ele>
        <time>2018-02-11T14:07:35Z</time>
      </trkpt>
      <trkpt lat="62.643036236304" lon="17.975072811407">
        <ele>25.6</ele>
        <time>2018-02-11T14:07:36Z</time>
      </trkpt>
      <trkpt lat="62.64303824796" lon="17.97513710058">
        <ele>25.6</ele>
        <time>2018-02-11T14:07:37Z</time>
      </trkpt>
      <trkpt lat="62.643026932395" lon="17.975219746114">
        <ele>25.6</ele>
        <time>2018-02-11T14:07:38Z</time>
      </trkpt>
      <trkpt lat="62.643018885771" lon="17.975289064427">
        <ele>25.6</ele>
        <time>2018-02-11T14:07:39Z</time>
      </trkpt>
      <trkpt lat="62.643016706477" lon="17.975345474614">
        <ele>25.6</ele>
        <time>2018-02-11T14:07:40Z</time>
      </trkpt>
      <trkpt lat="62.643001954333" lon="17.975399370231">
        <ele>25.6</ele>
        <time>2018-02-11T14:07:41Z</time>
      </trkpt>
      <trkpt lat="62.642989213845" lon="17.975470029648">
        <ele>25.6</ele>
        <time>2018-02-11T14:07:42Z</time>
      </trkpt>
      <trkpt lat="62.642977563004" lon="17.975535492287">
        <ele>25.4</ele>
        <time>2018-02-11T14:07:43Z</time>
      </trkpt>
      <trkpt lat="62.642967169448" lon="17.975580167814">
        <ele>25.2</ele>
        <time>2018-02-11T14:07:44Z</time>
      </trkpt>
      <trkpt lat="62.642952333485" lon="17.975645295177">
        <ele>25.2</ele>
        <time>2018-02-11T14:07:45Z</time>
      </trkpt>
      <trkpt lat="62.642946549974" lon="17.975678403682">
        <ele>25.4</ele>
        <time>2018-02-11T14:07:46Z</time>
      </trkpt>
      <trkpt lat="62.642945879422" lon="17.975729784729">
        <ele>25.6</ele>
        <time>2018-02-11T14:07:47Z</time>
      </trkpt>
      <trkpt lat="62.642934144762" lon="17.975801030879">
        <ele>25.8</ele>
        <time>2018-02-11T14:07:48Z</time>
      </trkpt>
      <trkpt lat="62.642933558029" lon="17.975849729718">
        <ele>25.8</ele>
        <time>2018-02-11T14:07:49Z</time>
      </trkpt>
      <trkpt lat="62.642922996835" lon="17.975912593968">
        <ele>26</ele>
        <time>2018-02-11T14:07:50Z</time>
      </trkpt>
      <trkpt lat="62.642922410102" lon="17.975981241729">
        <ele>26</ele>
        <time>2018-02-11T14:07:51Z</time>
      </trkpt>
      <trkpt lat="62.642920146989" lon="17.976055253906">
        <ele>26.2</ele>
        <time>2018-02-11T14:07:52Z</time>
      </trkpt>
      <trkpt lat="62.642916207496" lon="17.976102527822">
        <ele>26.2</ele>
        <time>2018-02-11T14:07:53Z</time>
      </trkpt>
      <trkpt lat="62.642926852509" lon="17.976172181411">
        <ele>26.2</ele>
        <time>2018-02-11T14:07:54Z</time>
      </trkpt>
      <trkpt lat="62.642921488093" lon="17.97622171844">
        <ele>26</ele>
        <time>2018-02-11T14:07:55Z</time>
      </trkpt>
      <trkpt lat="62.642920146989" lon="17.976287432536">
        <ele>26</ele>
        <time>2018-02-11T14:07:56Z</time>
      </trkpt>
      <trkpt lat="62.642925008491" lon="17.976345100008">
        <ele>25.8</ele>
        <time>2018-02-11T14:07:57Z</time>
      </trkpt>
      <trkpt lat="62.642922913016" lon="17.976403521851">
        <ele>25.8</ele>
        <time>2018-02-11T14:07:58Z</time>
      </trkpt>
      <trkpt lat="62.642922242464" lon="17.976469487404">
        <ele>25.8</ele>
        <time>2018-02-11T14:07:59Z</time>
      </trkpt>
      <trkpt lat="62.642916458953" lon="17.976528412161">
        <ele>25.8</ele>
        <time>2018-02-11T14:08:00Z</time>
      </trkpt>
      <trkpt lat="62.64291419584" lon="17.976598317207">
        <ele>25.8</ele>
        <time>2018-02-11T14:08:01Z</time>
      </trkpt>
      <trkpt lat="62.642917632419" lon="17.976674173402">
        <ele>25.8</ele>
        <time>2018-02-11T14:08:02Z</time>
      </trkpt>
      <trkpt lat="62.642914112021" lon="17.976743994629">
        <ele>26</ele>
        <time>2018-02-11T14:08:03Z</time>
      </trkpt>
      <trkpt lat="62.642905143388" lon="17.976816917159">
        <ele>26</ele>
        <time>2018-02-11T14:08:04Z</time>
      </trkpt>
      <trkpt lat="62.642903467008" lon="17.976862347057">
        <ele>26.2</ele>
        <time>2018-02-11T14:08:05Z</time>
      </trkpt>
      <trkpt lat="62.642889553054" lon="17.976935772501">
        <ele>26.2</ele>
        <time>2018-02-11T14:08:06Z</time>
      </trkpt>
      <trkpt lat="62.642879494774" lon="17.977000816045">
        <ele>26.2</ele>
        <time>2018-02-11T14:08:07Z</time>
      </trkpt>
      <trkpt lat="62.642865161725" lon="17.977059489345">
        <ele>26.2</ele>
        <time>2018-02-11T14:08:08Z</time>
      </trkpt>
      <trkpt lat="62.642858540024" lon="17.977098046085">
        <ele>26.2</ele>
        <time>2018-02-11T14:08:09Z</time>
      </trkpt>
      <trkpt lat="62.64285300797" lon="17.977140793775">
        <ele>26.4</ele>
        <time>2018-02-11T14:08:10Z</time>
      </trkpt>
      <trkpt lat="62.642856779825" lon="17.977183206189">
        <ele>26.4</ele>
        <time>2018-02-11T14:08:11Z</time>
      </trkpt>
      <trkpt lat="62.642849068477" lon="17.9772560449">
        <ele>26.6</ele>
        <time>2018-02-11T14:08:12Z</time>
      </trkpt>
      <trkpt lat="62.642839094016" lon="17.9773231001">
        <ele>26.6</ele>
        <time>2018-02-11T14:08:13Z</time>
      </trkpt>
      <trkpt lat="62.642848146468" lon="17.977366937437">
        <ele>26.8</ele>
        <time>2018-02-11T14:08:14Z</time>
      </trkpt>
      <trkpt lat="62.642834903066" lon="17.977428963497">
        <ele>26.8</ele>
        <time>2018-02-11T14:08:15Z</time>
      </trkpt>
      <trkpt lat="62.642822246397" lon="17.977487469159">
        <ele>27</ele>
        <time>2018-02-11T14:08:16Z</time>
      </trkpt>
      <trkpt lat="62.642820150922" lon="17.9775326476">
        <ele>27</ele>
        <time>2018-02-11T14:08:17Z</time>
      </trkpt>
      <trkpt lat="62.642810427918" lon="17.977574808557">
        <ele>27</ele>
        <time>2018-02-11T14:08:18Z</time>
      </trkpt>
      <trkpt lat="62.642803219484" lon="17.977603307017">
        <ele>27.2</ele>
        <time>2018-02-11T14:08:19Z</time>
      </trkpt>
      <trkpt lat="62.642791652462" lon="17.977631470201">
        <ele>27.2</ele>
        <time>2018-02-11T14:08:20Z</time>
      </trkpt>
      <trkpt lat="62.642776229766" lon="17.977660723032">
        <ele>27.2</ele>
        <time>2018-02-11T14:08:21Z</time>
      </trkpt>
      <trkpt lat="62.64276583621" lon="17.977690646415">
        <ele>27.4</ele>
        <time>2018-02-11T14:08:22Z</time>
      </trkpt>
      <trkpt lat="62.642751838437" lon="17.977711014432">
        <ele>27.4</ele>
        <time>2018-02-11T14:08:23Z</time>
      </trkpt>
      <trkpt lat="62.642735493732" lon="17.977723252006">
        <ele>27.6</ele>
        <time>2018-02-11T14:08:24Z</time>
      </trkpt>
      <trkpt lat="62.642726189823" lon="17.97775560614">
        <ele>27.6</ele>
        <time>2018-02-11T14:08:25Z</time>
      </trkpt>
      <trkpt lat="62.642706827634" lon="17.97777404632">
        <ele>27.6</ele>
        <time>2018-02-11T14:08:26Z</time>
      </trkpt>
      <trkpt lat="62.642690566748" lon="17.977793911423">
        <ele>27.8</ele>
        <time>2018-02-11T14:08:27Z</time>
      </trkpt>
      <trkpt lat="62.642682939219" lon="17.977816207277">
        <ele>28.2</ele>
        <time>2018-02-11T14:08:28Z</time>
      </trkpt>
      <trkpt lat="62.642670701645" lon="17.977844035185">
        <ele>28.6</ele>
        <time>2018-02-11T14:08:29Z</time>
      </trkpt>
      <trkpt lat="62.642652596741" lon="17.977877227509">
        <ele>28.8</ele>
        <time>2018-02-11T14:08:30Z</time>
      </trkpt>
      <trkpt lat="62.642640359167" lon="17.977906564159">
        <ele>29</ele>
        <time>2018-02-11T14:08:31Z</time>
      </trkpt>
      <trkpt lat="62.642614794372" lon="17.977925255796">
        <ele>29.2</ele>
        <time>2018-02-11T14:08:32Z</time>
      </trkpt>
      <trkpt lat="62.642600796599" lon="17.97796599183">
        <ele>29.2</ele>
        <time>2018-02-11T14:08:33Z</time>
      </trkpt>
      <trkpt lat="62.642585290084" lon="17.97798275563">
        <ele>29.4</ele>
        <time>2018-02-11T14:08:34Z</time>
      </trkpt>
      <trkpt lat="62.642570118845" lon="17.97801209228">
        <ele>29.4</ele>
        <time>2018-02-11T14:08:35Z</time>
      </trkpt>
      <trkpt lat="62.642557545995" lon="17.978042518577">
        <ele>29.4</ele>
        <time>2018-02-11T14:08:36Z</time>
      </trkpt>
      <trkpt lat="62.642549667009" lon="17.978087780837">
        <ele>29.6</ele>
        <time>2018-02-11T14:08:37Z</time>
      </trkpt>
      <trkpt lat="62.642531813562" lon="17.978122230446">
        <ele>29.8</ele>
        <time>2018-02-11T14:08:38Z</time>
      </trkpt>
      <trkpt lat="62.642511110269" lon="17.978170174914">
        <ele>29.8</ele>
        <time>2018-02-11T14:08:39Z</time>
      </trkpt>
      <trkpt lat="62.642504237111" lon="17.978206719998">
        <ele>30</ele>
        <time>2018-02-11T14:08:40Z</time>
      </trkpt>
      <trkpt lat="62.642486551302" lon="17.978235972829">
        <ele>30</ele>
        <time>2018-02-11T14:08:41Z</time>
      </trkpt>
      <trkpt lat="62.642470625692" lon="17.97827779851">
        <ele>30.2</ele>
        <time>2018-02-11T14:08:42Z</time>
      </trkpt>
      <trkpt lat="62.642461489421" lon="17.978319875648">
        <ele>30.4</ele>
        <time>2018-02-11T14:08:43Z</time>
      </trkpt>
      <trkpt lat="62.642446653458" lon="17.978354409076">
        <ele>30.4</ele>
        <time>2018-02-11T14:08:44Z</time>
      </trkpt>
      <trkpt lat="62.642441121404" lon="17.978393971644">
        <ele>30.6</ele>
        <time>2018-02-11T14:08:45Z</time>
      </trkpt>
      <trkpt lat="62.642425447251" lon="17.978430768185">
        <ele>30.6</ele>
        <time>2018-02-11T14:08:46Z</time>
      </trkpt>
      <trkpt lat="62.642407426166" lon="17.978485585811">
        <ele>30.8</ele>
        <time>2018-02-11T14:08:47Z</time>
      </trkpt>
      <trkpt lat="62.642401391198" lon="17.978523891094">
        <ele>31</ele>
        <time>2018-02-11T14:08:48Z</time>
      </trkpt>
      <trkpt lat="62.642391081461" lon="17.97856026854">
        <ele>31</ele>
        <time>2018-02-11T14:08:49Z</time>
      </trkpt>
      <trkpt lat="62.642391752013" lon="17.978583318765">
        <ele>31</ele>
        <time>2018-02-11T14:08:50Z</time>
      </trkpt>
      <trkpt lat="62.642375994041" lon="17.978589856647">
        <ele>31.2</ele>
        <time>2018-02-11T14:08:51Z</time>
      </trkpt>
      <trkpt lat="62.642367779779" lon="17.978606788085">
        <ele>31.4</ele>
        <time>2018-02-11T14:08:52Z</time>
      </trkpt>
      <trkpt lat="62.64236601958" lon="17.978630760319">
        <ele>31.6</ele>
        <time>2018-02-11T14:08:53Z</time>
      </trkpt>
      <trkpt lat="62.64233500655" lon="17.978651547431">
        <ele>31.8</ele>
        <time>2018-02-11T14:08:54Z</time>
      </trkpt>
      <trkpt lat="62.64232075732" lon="17.978674765294">
        <ele>32</ele>
        <time>2018-02-11T14:08:55Z</time>
      </trkpt>
      <trkpt lat="62.642303574425" lon="17.978699072804">
        <ele>32.2</ele>
        <time>2018-02-11T14:08:56Z</time>
      </trkpt>
      <trkpt lat="62.642272477576" lon="17.978711478016">
        <ele>32.2</ele>
        <time>2018-02-11T14:08:57Z</time>
      </trkpt>
      <trkpt lat="62.642259150355" lon="17.978737210449">
        <ele>32.4</ele>
        <time>2018-02-11T14:08:58Z</time>
      </trkpt>
      <trkpt lat="62.642239369071" lon="17.978755399172">
        <ele>32.4</ele>
        <time>2018-02-11T14:08:59Z</time>
      </trkpt>
      <trkpt lat="62.642219001054" lon="17.978755399172">
        <ele>32.6</ele>
        <time>2018-02-11T14:09:00Z</time>
      </trkpt>
      <trkpt lat="62.642199890322" lon="17.978757075552">
        <ele>33</ele>
        <time>2018-02-11T14:09:01Z</time>
      </trkpt>
      <trkpt lat="62.642177678287" lon="17.978761769416">
        <ele>33.2</ele>
        <time>2018-02-11T14:09:02Z</time>
      </trkpt>
      <trkpt lat="62.642164267247" lon="17.978779119949">
        <ele>33.4</ele>
        <time>2018-02-11T14:09:03Z</time>
      </trkpt>
      <trkpt lat="62.642153203139" lon="17.978770570411">
        <ele>33.6</ele>
        <time>2018-02-11T14:09:04Z</time>
      </trkpt>
      <trkpt lat="62.642160411573" lon="17.978789010591">
        <ele>33.8</ele>
        <time>2018-02-11T14:09:05Z</time>
      </trkpt>
      <trkpt lat="62.642132499846" lon="17.978796051387">
        <ele>34</ele>
        <time>2018-02-11T14:09:06Z</time>
      </trkpt>
      <trkpt lat="62.642107437965" lon="17.978795045559">
        <ele>34.2</ele>
        <time>2018-02-11T14:09:07Z</time>
      </trkpt>
      <trkpt lat="62.642088075776" lon="17.978809378608">
        <ele>34.2</ele>
        <time>2018-02-11T14:09:08Z</time>
      </trkpt>
      <trkpt lat="62.642061002239" lon="17.978825723313">
        <ele>34.4</ele>
        <time>2018-02-11T14:09:09Z</time>
      </trkpt>
      <trkpt lat="62.642042645878" lon="17.978834440489">
        <ele>34.4</ele>
        <time>2018-02-11T14:09:10Z</time>
      </trkpt>
      <trkpt lat="62.642025295345" lon="17.978856317248">
        <ele>34.4</ele>
        <time>2018-02-11T14:09:11Z</time>
      </trkpt>
      <trkpt lat="62.642005346423" lon="17.978875847075">
        <ele>34.8</ele>
        <time>2018-02-11T14:09:12Z</time>
      </trkpt>
      <trkpt lat="62.64198464313" lon="17.978881546767">
        <ele>34.8</ele>
        <time>2018-02-11T14:09:13Z</time>
      </trkpt>
      <trkpt lat="62.64195698286" lon="17.978892946151">
        <ele>35</ele>
        <time>2018-02-11T14:09:14Z</time>
      </trkpt>
      <trkpt lat="62.6419452482" lon="17.978900657499">
        <ele>35.4</ele>
        <time>2018-02-11T14:09:15Z</time>
      </trkpt>
      <trkpt lat="62.64192177888" lon="17.978899484033">
        <ele>35.6</ele>
        <time>2018-02-11T14:09:16Z</time>
      </trkpt>
      <trkpt lat="62.641912977885" lon="17.978918846222">
        <ele>35.8</ele>
        <time>2018-02-11T14:09:17Z</time>
      </trkpt>
      <trkpt lat="62.641883389778" lon="17.978920606421">
        <ele>36</ele>
        <time>2018-02-11T14:09:18Z</time>
      </trkpt>
      <trkpt lat="62.641868553815" lon="17.978931083796">
        <ele>36.2</ele>
        <time>2018-02-11T14:09:19Z</time>
      </trkpt>
      <trkpt lat="62.641856483879" lon="17.978945668302">
        <ele>36.2</ele>
        <time>2018-02-11T14:09:20Z</time>
      </trkpt>
      <trkpt lat="62.641833014559" lon="17.978945416845">
        <ele>36.4</ele>
        <time>2018-02-11T14:09:21Z</time>
      </trkpt>
      <trkpt lat="62.641810048153" lon="17.978940136248">
        <ele>36.6</ele>
        <time>2018-02-11T14:09:22Z</time>
      </trkpt>
      <trkpt lat="62.641803174995" lon="17.978962264464">
        <ele>37</ele>
        <time>2018-02-11T14:09:23Z</time>
      </trkpt>
      <trkpt lat="62.641777526381" lon="17.97895337965">
        <ele>37</ele>
        <time>2018-02-11T14:09:24Z</time>
      </trkpt>
      <trkpt lat="62.641761014038" lon="17.978955307487">
        <ele>37.2</ele>
        <time>2018-02-11T14:09:25Z</time>
      </trkpt>
      <trkpt lat="62.641740143107" lon="17.978956648591">
        <ele>37.4</ele>
        <time>2018-02-11T14:09:26Z</time>
      </trkpt>
      <trkpt lat="62.641726061515" lon="17.978950110709">
        <ele>37.6</ele>
        <time>2018-02-11T14:09:27Z</time>
      </trkpt>
      <trkpt lat="62.641708962439" lon="17.978946590311">
        <ele>37.8</ele>
        <time>2018-02-11T14:09:28Z</time>
      </trkpt>
      <trkpt lat="62.641696557227" lon="17.978947009406">
        <ele>38</ele>
        <time>2018-02-11T14:09:29Z</time>
      </trkpt>
      <trkpt lat="62.64166948369" lon="17.978924378276">
        <ele>38.2</ele>
        <time>2018-02-11T14:09:30Z</time>
      </trkpt>
      <trkpt lat="62.641642242515" lon="17.97891733748">
        <ele>38.6</ele>
        <time>2018-02-11T14:09:31Z</time>
      </trkpt>
      <trkpt lat="62.6416351179" lon="17.978915744919">
        <ele>38.8</ele>
        <time>2018-02-11T14:09:32Z</time>
      </trkpt>
      <trkpt lat="62.641610139838" lon="17.978909709951">
        <ele>39.2</ele>
        <time>2018-02-11T14:09:33Z</time>
      </trkpt>
      <trkpt lat="62.641586586699" lon="17.978906524829">
        <ele>39.4</ele>
        <time>2018-02-11T14:09:34Z</time>
      </trkpt>
      <trkpt lat="62.641572169831" lon="17.978907530657">
        <ele>39.6</ele>
        <time>2018-02-11T14:09:35Z</time>
      </trkpt>
      <trkpt lat="62.641547527045" lon="17.978890766857">
        <ele>39.8</ele>
        <time>2018-02-11T14:09:36Z</time>
      </trkpt>
      <trkpt lat="62.641515843463" lon="17.97888716264">
        <ele>40</ele>
        <time>2018-02-11T14:09:37Z</time>
      </trkpt>
      <trkpt lat="62.641504108803" lon="17.978887749373">
        <ele>40.2</ele>
        <time>2018-02-11T14:09:38Z</time>
      </trkpt>
      <trkpt lat="62.641486842089" lon="17.978869309193">
        <ele>40.4</ele>
        <time>2018-02-11T14:09:39Z</time>
      </trkpt>
      <trkpt lat="62.641474855972" lon="17.978863022768">
        <ele>40.6</ele>
        <time>2018-02-11T14:09:40Z</time>
      </trkpt>
      <trkpt lat="62.641457086344" lon="17.978866543166">
        <ele>40.8</ele>
        <time>2018-02-11T14:09:41Z</time>
      </trkpt>
      <trkpt lat="62.641433700843" lon="17.978855646696">
        <ele>41</ele>
        <time>2018-02-11T14:09:42Z</time>
      </trkpt>
      <trkpt lat="62.64142054126" lon="17.978872745772">
        <ele>41.2</ele>
        <time>2018-02-11T14:09:43Z</time>
      </trkpt>
      <trkpt lat="62.64138701366" lon="17.978869644469">
        <ele>41.4</ele>
        <time>2018-02-11T14:09:44Z</time>
      </trkpt>
      <trkpt lat="62.641364047254" lon="17.978877523455">
        <ele>41.4</ele>
        <time>2018-02-11T14:09:45Z</time>
      </trkpt>
      <trkpt lat="62.641342505771" lon="17.978884396613">
        <ele>41.6</ele>
        <time>2018-02-11T14:09:46Z</time>
      </trkpt>
      <trkpt lat="62.641327669808" lon="17.978878948378">
        <ele>41.6</ele>
        <time>2018-02-11T14:09:47Z</time>
      </trkpt>
      <trkpt lat="62.641301434461" lon="17.97888129531">
        <ele>41.8</ele>
        <time>2018-02-11T14:09:48Z</time>
      </trkpt>
      <trkpt lat="62.641295986226" lon="17.978892778513">
        <ele>41.8</ele>
        <time>2018-02-11T14:09:49Z</time>
      </trkpt>
      <trkpt lat="62.641273271277" lon="17.978888503744">
        <ele>41.8</ele>
        <time>2018-02-11T14:09:50Z</time>
      </trkpt>
      <trkpt lat="62.641258100038" lon="17.978898813481">
        <ele>42</ele>
        <time>2018-02-11T14:09:51Z</time>
      </trkpt>
      <trkpt lat="62.64123530127" lon="17.978902082422">
        <ele>42.2</ele>
        <time>2018-02-11T14:09:52Z</time>
      </trkpt>
      <trkpt lat="62.64121937566" lon="17.978891772685">
        <ele>42.4</ele>
        <time>2018-02-11T14:09:53Z</time>
      </trkpt>
      <trkpt lat="62.641204958792" lon="17.978908285028">
        <ele>42.6</ele>
        <time>2018-02-11T14:09:54Z</time>
      </trkpt>
      <trkpt lat="62.641172604658" lon="17.978912475978">
        <ele>43</ele>
        <time>2018-02-11T14:09:55Z</time>
      </trkpt>
      <trkpt lat="62.641158774523" lon="17.978928569226">
        <ele>43.2</ele>
        <time>2018-02-11T14:09:56Z</time>
      </trkpt>
      <trkpt lat="62.641143435646" lon="17.97895673241">
        <ele>43.2</ele>
        <time>2018-02-11T14:09:57Z</time>
      </trkpt>
      <trkpt lat="62.641128096769" lon="17.978982800119">
        <ele>43.6</ele>
        <time>2018-02-11T14:09:58Z</time>
      </trkpt>
      <trkpt lat="62.641110746236" lon="17.979005850344">
        <ele>43.8</ele>
        <time>2018-02-11T14:09:59Z</time>
      </trkpt>
      <trkpt lat="62.641101358508" lon="17.979040886686">
        <ele>43.8</ele>
        <time>2018-02-11T14:10:00Z</time>
      </trkpt>
      <trkpt lat="62.641089623848" lon="17.979068798413">
        <ele>44</ele>
        <time>2018-02-11T14:10:01Z</time>
      </trkpt>
      <trkpt lat="62.64107520698" lon="17.979115904691">
        <ele>44.2</ele>
        <time>2018-02-11T14:10:02Z</time>
      </trkpt>
      <trkpt lat="62.641068669098" lon="17.979165776996">
        <ele>44.4</ele>
        <time>2018-02-11T14:10:03Z</time>
      </trkpt>
      <trkpt lat="62.641061125388" lon="17.979219421156">
        <ele>44.6</ele>
        <time>2018-02-11T14:10:04Z</time>
      </trkpt>
      <trkpt lat="62.641049390728" lon="17.979263342312">
        <ele>44.6</ele>
        <time>2018-02-11T14:10:05Z</time>
      </trkpt>
      <trkpt lat="62.641045618873" lon="17.979314807178">
        <ele>44.8</ele>
        <time>2018-02-11T14:10:06Z</time>
      </trkpt>
      <trkpt lat="62.64103916481" lon="17.979359315067">
        <ele>44.8</ele>
        <time>2018-02-11T14:10:07Z</time>
      </trkpt>
      <trkpt lat="62.641034554765" lon="17.979402984766">
        <ele>44.8</ele>
        <time>2018-02-11T14:10:08Z</time>
      </trkpt>
      <trkpt lat="62.641027346331" lon="17.979434416891">
        <ele>44.8</ele>
        <time>2018-02-11T14:10:09Z</time>
      </trkpt>
      <trkpt lat="62.641020137897" lon="17.979492000544">
        <ele>44.8</ele>
        <time>2018-02-11T14:10:10Z</time>
      </trkpt>
      <trkpt lat="62.641015024938" lon="17.979555702984">
        <ele>44.6</ele>
        <time>2018-02-11T14:10:11Z</time>
      </trkpt>
      <trkpt lat="62.6410064754" lon="17.979608089859">
        <ele>44.6</ele>
        <time>2018-02-11T14:10:12Z</time>
      </trkpt>
      <trkpt lat="62.640995243654" lon="17.979662823666">
        <ele>44.6</ele>
        <time>2018-02-11T14:10:13Z</time>
      </trkpt>
      <trkpt lat="62.640987113211" lon="17.979696518904">
        <ele>44.6</ele>
        <time>2018-02-11T14:10:14Z</time>
      </trkpt>
      <trkpt lat="62.640980826786" lon="17.979747648494">
        <ele>44.8</ele>
        <time>2018-02-11T14:10:15Z</time>
      </trkpt>
      <trkpt lat="62.640980826786" lon="17.9797957606">
        <ele>44.6</ele>
        <time>2018-02-11T14:10:16Z</time>
      </trkpt>
      <trkpt lat="62.640974121266" lon="17.979841693412">
        <ele>44.8</ele>
        <time>2018-02-11T14:10:17Z</time>
      </trkpt>
      <trkpt lat="62.64096708047" lon="17.979899444703">
        <ele>44.8</ele>
        <time>2018-02-11T14:10:18Z</time>
      </trkpt>
      <trkpt lat="62.640971355239" lon="17.97994328204">
        <ele>44.8</ele>
        <time>2018-02-11T14:10:19Z</time>
      </trkpt>
      <trkpt lat="62.640963811529" lon="17.980002877349">
        <ele>44.8</ele>
        <time>2018-02-11T14:10:20Z</time>
      </trkpt>
      <trkpt lat="62.64095953676" lon="17.980071022196">
        <ele>45</ele>
        <time>2018-02-11T14:10:21Z</time>
      </trkpt>
      <trkpt lat="62.640957106009" lon="17.980139502319">
        <ele>45</ele>
        <time>2018-02-11T14:10:22Z</time>
      </trkpt>
      <trkpt lat="62.640954423801" lon="17.980205300234">
        <ele>45</ele>
        <time>2018-02-11T14:10:23Z</time>
      </trkpt>
      <trkpt lat="62.64095115486" lon="17.980273612719">
        <ele>45.2</ele>
        <time>2018-02-11T14:10:24Z</time>
      </trkpt>
      <trkpt lat="62.640960291131" lon="17.980326837784">
        <ele>45.2</ele>
        <time>2018-02-11T14:10:25Z</time>
      </trkpt>
      <trkpt lat="62.640956686914" lon="17.980404118902">
        <ele>45.2</ele>
        <time>2018-02-11T14:10:26Z</time>
      </trkpt>
      <trkpt lat="62.640953250335" lon="17.98048056183">
        <ele>45</ele>
        <time>2018-02-11T14:10:27Z</time>
      </trkpt>
      <trkpt lat="62.640956603095" lon="17.980561782441">
        <ele>45</ele>
        <time>2018-02-11T14:10:28Z</time>
      </trkpt>
      <trkpt lat="62.640963057158" lon="17.980633531505">
        <ele>45</ele>
        <time>2018-02-11T14:10:29Z</time>
      </trkpt>
      <trkpt lat="62.640976468198" lon="17.9807010058">
        <ele>44.8</ele>
        <time>2018-02-11T14:10:30Z</time>
      </trkpt>
      <trkpt lat="62.640997758224" lon="17.980773257778">
        <ele>44.8</ele>
        <time>2018-02-11T14:10:31Z</time>
      </trkpt>
      <trkpt lat="62.641007648866" lon="17.980811982156">
        <ele>44.6</ele>
        <time>2018-02-11T14:10:32Z</time>
      </trkpt>
      <trkpt lat="62.641025837589" lon="17.980879121175">
        <ele>44.4</ele>
        <time>2018-02-11T14:10:33Z</time>
      </trkpt>
      <trkpt lat="62.641043188122" lon="17.980961347614">
        <ele>44</ele>
        <time>2018-02-11T14:10:34Z</time>
      </trkpt>
      <trkpt lat="62.641058107904" lon="17.981024379502">
        <ele>43.6</ele>
        <time>2018-02-11T14:10:35Z</time>
      </trkpt>
      <trkpt lat="62.641079733206" lon="17.981101073887">
        <ele>43</ele>
        <time>2018-02-11T14:10:36Z</time>
      </trkpt>
      <trkpt lat="62.641101358508" lon="17.981172487675">
        <ele>42.4</ele>
        <time>2018-02-11T14:10:37Z</time>
      </trkpt>
      <trkpt lat="62.64110957277" lon="17.98124918206">
        <ele>42</ele>
        <time>2018-02-11T14:10:38Z</time>
      </trkpt>
      <trkpt lat="62.641116697385" lon="17.981344400444">
        <ele>41.6</ele>
        <time>2018-02-11T14:10:39Z</time>
      </trkpt>
      <trkpt lat="62.641111165331" lon="17.981427213616">
        <ele>41.2</ele>
        <time>2018-02-11T14:10:40Z</time>
      </trkpt>
      <trkpt lat="62.64111879286" lon="17.981498795042">
        <ele>41</ele>
        <time>2018-02-11T14:10:41Z</time>
      </trkpt>
      <trkpt lat="62.641117451756" lon="17.981566939889">
        <ele>40.6</ele>
        <time>2018-02-11T14:10:42Z</time>
      </trkpt>
      <trkpt lat="62.641115523919" lon="17.981633575994">
        <ele>40.6</ele>
        <time>2018-02-11T14:10:43Z</time>
      </trkpt>
      <trkpt lat="62.641114266634" lon="17.98170348104">
        <ele>40.8</ele>
        <time>2018-02-11T14:10:44Z</time>
      </trkpt>
      <trkpt lat="62.641112171159" lon="17.981769781869">
        <ele>41</ele>
        <time>2018-02-11T14:10:45Z</time>
      </trkpt>
      <trkpt lat="62.641108566942" lon="17.981848236453">
        <ele>41.2</ele>
        <time>2018-02-11T14:10:46Z</time>
      </trkpt>
      <trkpt lat="62.641106136191" lon="17.981919985517">
        <ele>41.2</ele>
        <time>2018-02-11T14:10:47Z</time>
      </trkpt>
      <trkpt lat="62.641109740408" lon="17.981990393477">
        <ele>41.6</ele>
        <time>2018-02-11T14:10:48Z</time>
      </trkpt>
      <trkpt lat="62.641119295774" lon="17.982043869999">
        <ele>41.6</ele>
        <time>2018-02-11T14:10:49Z</time>
      </trkpt>
      <trkpt lat="62.641124241095" lon="17.982121067298">
        <ele>41.4</ele>
        <time>2018-02-11T14:10:51Z</time>
      </trkpt>
      <trkpt lat="62.641127929131" lon="17.982217375329">
        <ele>41.4</ele>
        <time>2018-02-11T14:10:52Z</time>
      </trkpt>
      <trkpt lat="62.641132622995" lon="17.982287364194">
        <ele>41.2</ele>
        <time>2018-02-11T14:10:53Z</time>
      </trkpt>
      <trkpt lat="62.641141926904" lon="17.982352910652">
        <ele>41.4</ele>
        <time>2018-02-11T14:10:54Z</time>
      </trkpt>
      <trkpt lat="62.641161289093" lon="17.98240756064">
        <ele>41.2</ele>
        <time>2018-02-11T14:10:55Z</time>
      </trkpt>
      <trkpt lat="62.641171179735" lon="17.982480147894">
        <ele>41</ele>
        <time>2018-02-11T14:10:56Z</time>
      </trkpt>
      <trkpt lat="62.641189284639" lon="17.982551226406">
        <ele>41</ele>
        <time>2018-02-11T14:10:57Z</time>
      </trkpt>
      <trkpt lat="62.641203282412" lon="17.982623981298">
        <ele>41</ele>
        <time>2018-02-11T14:10:58Z</time>
      </trkpt>
      <trkpt lat="62.64120931738" lon="17.982705621004">
        <ele>41</ele>
        <time>2018-02-11T14:10:59Z</time>
      </trkpt>
      <trkpt lat="62.641217866918" lon="17.982788434176">
        <ele>41</ele>
        <time>2018-02-11T14:11:00Z</time>
      </trkpt>
      <trkpt lat="62.641221806411" lon="17.982884574569">
        <ele>40.8</ele>
        <time>2018-02-11T14:11:01Z</time>
      </trkpt>
      <trkpt lat="62.641230942682" lon="17.982959760212">
        <ele>40.8</ele>
        <time>2018-02-11T14:11:02Z</time>
      </trkpt>
      <trkpt lat="62.641240749505" lon="17.983031006362">
        <ele>40.6</ele>
        <time>2018-02-11T14:11:03Z</time>
      </trkpt>
      <trkpt lat="62.641247790301" lon="17.983113903353">
        <ele>40.6</ele>
        <time>2018-02-11T14:11:04Z</time>
      </trkpt>
      <trkpt lat="62.641258686771" lon="17.983188586082">
        <ele>40.4</ele>
        <time>2018-02-11T14:11:05Z</time>
      </trkpt>
      <trkpt lat="62.641262710083" lon="17.983274584376">
        <ele>40.4</ele>
        <time>2018-02-11T14:11:06Z</time>
      </trkpt>
      <trkpt lat="62.641272600725" lon="17.983362426688">
        <ele>40.4</ele>
        <time>2018-02-11T14:11:07Z</time>
      </trkpt>
      <trkpt lat="62.641277881322" lon="17.98346368004">
        <ele>40.4</ele>
        <time>2018-02-11T14:11:08Z</time>
      </trkpt>
      <trkpt lat="62.641278468055" lon="17.983574404939">
        <ele>40.2</ele>
        <time>2018-02-11T14:11:09Z</time>
      </trkpt>
      <trkpt lat="62.641280312073" lon="17.98367155116">
        <ele>40</ele>
        <time>2018-02-11T14:11:10Z</time>
      </trkpt>
      <trkpt lat="62.641287185231" lon="17.983761321309">
        <ele>39.8</ele>
        <time>2018-02-11T14:11:11Z</time>
      </trkpt>
      <trkpt lat="62.641272768363" lon="17.983905489989">
        <ele>39.2</ele>
        <time>2018-02-11T14:11:12Z</time>
      </trkpt>
      <trkpt lat="62.641270756707" lon="17.98400431259">
        <ele>38.8</ele>
        <time>2018-02-11T14:11:13Z</time>
      </trkpt>
      <trkpt lat="62.641270672888" lon="17.98410992453">
        <ele>38.6</ele>
        <time>2018-02-11T14:11:14Z</time>
      </trkpt>
      <trkpt lat="62.641274780019" lon="17.984221068524">
        <ele>38.2</ele>
        <time>2018-02-11T14:11:15Z</time>
      </trkpt>
      <trkpt lat="62.641278132779" lon="17.984333888898">
        <ele>38.2</ele>
        <time>2018-02-11T14:11:16Z</time>
      </trkpt>
      <trkpt lat="62.641274528562" lon="17.984432879137">
        <ele>37.8</ele>
        <time>2018-02-11T14:11:17Z</time>
      </trkpt>
      <trkpt lat="62.641279390064" lon="17.984522397829">
        <ele>38</ele>
        <time>2018-02-11T14:11:18Z</time>
      </trkpt>
      <trkpt lat="62.641281820815" lon="17.984613341444">
        <ele>37.6</ele>
        <time>2018-02-11T14:11:19Z</time>
      </trkpt>
      <trkpt lat="62.641281317901" lon="17.984711577312">
        <ele>37.4</ele>
        <time>2018-02-11T14:11:20Z</time>
      </trkpt>
      <trkpt lat="62.641281234082" lon="17.984811405741">
        <ele>37.2</ele>
        <time>2018-02-11T14:11:21Z</time>
      </trkpt>
      <trkpt lat="62.641275199114" lon="17.984917855871">
        <ele>36.6</ele>
        <time>2018-02-11T14:11:22Z</time>
      </trkpt>
      <trkpt lat="62.641269247965" lon="17.985008799486">
        <ele>36.2</ele>
        <time>2018-02-11T14:11:23Z</time>
      </trkpt>
      <trkpt lat="62.641263045359" lon="17.985097228531">
        <ele>36</ele>
        <time>2018-02-11T14:11:24Z</time>
      </trkpt>
      <trkpt lat="62.641260949884" lon="17.985172162717">
        <ele>35.6</ele>
        <time>2018-02-11T14:11:25Z</time>
      </trkpt>
      <trkpt lat="62.641260111694" lon="17.985260507943">
        <ele>35.6</ele>
        <time>2018-02-11T14:11:26Z</time>
      </trkpt>
      <trkpt lat="62.641258016219" lon="17.985351786834">
        <ele>35.8</ele>
        <time>2018-02-11T14:11:27Z</time>
      </trkpt>
      <trkpt lat="62.64125374145" lon="17.985439126232">
        <ele>35.8</ele>
        <time>2018-02-11T14:11:28Z</time>
      </trkpt>
      <trkpt lat="62.641246449197" lon="17.98551640735">
        <ele>36</ele>
        <time>2018-02-11T14:11:29Z</time>
      </trkpt>
      <trkpt lat="62.6412327867" lon="17.985589916613">
        <ele>35.8</ele>
        <time>2018-02-11T14:11:30Z</time>
      </trkpt>
      <trkpt lat="62.641224237162" lon="17.985667365369">
        <ele>35.8</ele>
        <time>2018-02-11T14:11:31Z</time>
      </trkpt>
      <trkpt lat="62.641216525814" lon="17.985739449709">
        <ele>35.6</ele>
        <time>2018-02-11T14:11:32Z</time>
      </trkpt>
      <trkpt lat="62.641204958792" lon="17.98580725928">
        <ele>35.6</ele>
        <time>2018-02-11T14:11:33Z</time>
      </trkpt>
      <trkpt lat="62.641189787553" lon="17.985878002516">
        <ele>35.6</ele>
        <time>2018-02-11T14:11:34Z</time>
      </trkpt>
      <trkpt lat="62.641179393997" lon="17.985944219526">
        <ele>35.4</ele>
        <time>2018-02-11T14:11:35Z</time>
      </trkpt>
      <trkpt lat="62.64116489331" lon="17.98598830832">
        <ele>35.2</ele>
        <time>2018-02-11T14:11:36Z</time>
      </trkpt>
      <trkpt lat="62.641154332116" lon="17.986052429855">
        <ele>35.2</ele>
        <time>2018-02-11T14:11:37Z</time>
      </trkpt>
      <trkpt lat="62.641145363483" lon="17.986108756223">
        <ele>35</ele>
        <time>2018-02-11T14:11:38Z</time>
      </trkpt>
      <trkpt lat="62.641136730126" lon="17.986170949921">
        <ele>35</ele>
        <time>2018-02-11T14:11:39Z</time>
      </trkpt>
      <trkpt lat="62.641121055973" lon="17.98623725075">
        <ele>35</ele>
        <time>2018-02-11T14:11:40Z</time>
      </trkpt>
      <trkpt lat="62.641110494779" lon="17.986305730873">
        <ele>35.2</ele>
        <time>2018-02-11T14:11:41Z</time>
      </trkpt>
      <trkpt lat="62.641105884734" lon="17.986386783846">
        <ele>35.2</ele>
        <time>2018-02-11T14:11:42Z</time>
      </trkpt>
      <trkpt lat="62.641092222237" lon="17.986465489887">
        <ele>35.2</ele>
        <time>2018-02-11T14:11:43Z</time>
      </trkpt>
      <trkpt lat="62.641085684355" lon="17.986536149304">
        <ele>35.2</ele>
        <time>2018-02-11T14:11:44Z</time>
      </trkpt>
      <trkpt lat="62.641077973007" lon="17.986598007726">
        <ele>35.2</ele>
        <time>2018-02-11T14:11:45Z</time>
      </trkpt>
      <trkpt lat="62.641066405985" lon="17.986669002419">
        <ele>35</ele>
        <time>2018-02-11T14:11:46Z</time>
      </trkpt>
      <trkpt lat="62.641055509515" lon="17.986737231085">
        <ele>35</ele>
        <time>2018-02-11T14:11:47Z</time>
      </trkpt>
      <trkpt lat="62.641049390728" lon="17.986806130303">
        <ele>35</ele>
        <time>2018-02-11T14:11:48Z</time>
      </trkpt>
      <trkpt lat="62.641045954149" lon="17.986867485811">
        <ele>35</ele>
        <time>2018-02-11T14:11:49Z</time>
      </trkpt>
      <trkpt lat="62.641040086819" lon="17.986929511871">
        <ele>35</ele>
        <time>2018-02-11T14:11:50Z</time>
      </trkpt>
      <trkpt lat="62.64103497386" lon="17.986998746365">
        <ele>35</ele>
        <time>2018-02-11T14:11:51Z</time>
      </trkpt>
      <trkpt lat="62.641026256684" lon="17.987071165981">
        <ele>35</ele>
        <time>2018-02-11T14:11:52Z</time>
      </trkpt>
      <trkpt lat="62.641019215888" lon="17.987138472638">
        <ele>35</ele>
        <time>2018-02-11T14:11:53Z</time>
      </trkpt>
      <trkpt lat="62.641015611671" lon="17.987206617485">
        <ele>35</ele>
        <time>2018-02-11T14:11:54Z</time>
      </trkpt>
      <trkpt lat="62.641010414893" lon="17.987264284957">
        <ele>34.8</ele>
        <time>2018-02-11T14:11:55Z</time>
      </trkpt>
      <trkpt lat="62.641002955002" lon="17.987324969913">
        <ele>35</ele>
        <time>2018-02-11T14:11:56Z</time>
      </trkpt>
      <trkpt lat="62.640991723256" lon="17.987393785312">
        <ele>35</ele>
        <time>2018-02-11T14:11:57Z</time>
      </trkpt>
      <trkpt lat="62.640977809302" lon="17.987461678702">
        <ele>35.2</ele>
        <time>2018-02-11T14:11:58Z</time>
      </trkpt>
      <trkpt lat="62.640972361067" lon="17.98752722516">
        <ele>35.2</ele>
        <time>2018-02-11T14:11:59Z</time>
      </trkpt>
      <trkpt lat="62.640965152633" lon="17.987602578441">
        <ele>35</ele>
        <time>2018-02-11T14:12:00Z</time>
      </trkpt>
      <trkpt lat="62.640956016362" lon="17.987677512627">
        <ele>35</ele>
        <time>2018-02-11T14:12:01Z</time>
      </trkpt>
      <trkpt lat="62.640944533159" lon="17.987744232551">
        <ele>34.8</ele>
        <time>2018-02-11T14:12:02Z</time>
      </trkpt>
      <trkpt lat="62.640932127947" lon="17.987801397109">
        <ele>34.8</ele>
        <time>2018-02-11T14:12:03Z</time>
      </trkpt>
      <trkpt lat="62.64092014183" lon="17.987857974934">
        <ele>34.6</ele>
        <time>2018-02-11T14:12:04Z</time>
      </trkpt>
      <trkpt lat="62.64091343631" lon="17.987905919402">
        <ele>34.6</ele>
        <time>2018-02-11T14:12:05Z</time>
      </trkpt>
      <trkpt lat="62.640886781868" lon="17.98799661156">
        <ele>34.8</ele>
        <time>2018-02-11T14:12:06Z</time>
      </trkpt>
      <trkpt lat="62.640872365" lon="17.98805360848">
        <ele>34.6</ele>
        <time>2018-02-11T14:12:07Z</time>
      </trkpt>
      <trkpt lat="62.64085895396" lon="17.988110689219">
        <ele>34.6</ele>
        <time>2018-02-11T14:12:08Z</time>
      </trkpt>
      <trkpt lat="62.640846884024" lon="17.988165590664">
        <ele>34.6</ele>
        <time>2018-02-11T14:12:09Z</time>
      </trkpt>
      <trkpt lat="62.640832718613" lon="17.988221581756">
        <ele>34.6</ele>
        <time>2018-02-11T14:12:10Z</time>
      </trkpt>
      <trkpt lat="62.640821738324" lon="17.988276483201">
        <ele>34.6</ele>
        <time>2018-02-11T14:12:11Z</time>
      </trkpt>
      <trkpt lat="62.640804220153" lon="17.988340520917">
        <ele>34.6</ele>
        <time>2018-02-11T14:12:12Z</time>
      </trkpt>
      <trkpt lat="62.640786618163" lon="17.988386789005">
        <ele>34.6</ele>
        <time>2018-02-11T14:12:13Z</time>
      </trkpt>
      <trkpt lat="62.640766920698" lon="17.988429285238">
        <ele>34.6</ele>
        <time>2018-02-11T14:12:14Z</time>
      </trkpt>
      <trkpt lat="62.640757030056" lon="17.988468847806">
        <ele>34.4</ele>
        <time>2018-02-11T14:12:15Z</time>
      </trkpt>
      <trkpt lat="62.640744205749" lon="17.988514696799">
        <ele>34.6</ele>
        <time>2018-02-11T14:12:16Z</time>
      </trkpt>
      <trkpt lat="62.640732554908" lon="17.988561132525">
        <ele>34.6</ele>
        <time>2018-02-11T14:12:17Z</time>
      </trkpt>
      <trkpt lat="62.640716210203" lon="17.988606394785">
        <ele>34.6</ele>
        <time>2018-02-11T14:12:18Z</time>
      </trkpt>
      <trkpt lat="62.640695590729" lon="17.988642939869">
        <ele>34.8</ele>
        <time>2018-02-11T14:12:19Z</time>
      </trkpt>
      <trkpt lat="62.640676647635" lon="17.988676551288">
        <ele>35</ele>
        <time>2018-02-11T14:12:20Z</time>
      </trkpt>
      <trkpt lat="62.640659632378" lon="17.988708486327">
        <ele>35.2</ele>
        <time>2018-02-11T14:12:21Z</time>
      </trkpt>
      <trkpt lat="62.640639599637" lon="17.988736984787">
        <ele>35.2</ele>
        <time>2018-02-11T14:12:22Z</time>
      </trkpt>
      <trkpt lat="62.640623087294" lon="17.988758861546">
        <ele>35.4</ele>
        <time>2018-02-11T14:12:23Z</time>
      </trkpt>
      <trkpt lat="62.640612190824" lon="17.988794652259">
        <ele>35.8</ele>
        <time>2018-02-11T14:12:24Z</time>
      </trkpt>
      <trkpt lat="62.640600037069" lon="17.98883228699">
        <ele>35.8</ele>
        <time>2018-02-11T14:12:25Z</time>
      </trkpt>
      <trkpt lat="62.640590230246" lon="17.988877800707">
        <ele>36.2</ele>
        <time>2018-02-11T14:12:26Z</time>
      </trkpt>
      <trkpt lat="62.640576819206" lon="17.988928092107">
        <ele>36.2</ele>
        <time>2018-02-11T14:12:27Z</time>
      </trkpt>
      <trkpt lat="62.64056726384" lon="17.98897813205">
        <ele>36.4</ele>
        <time>2018-02-11T14:12:28Z</time>
      </trkpt>
      <trkpt lat="62.640556199732" lon="17.989018029894">
        <ele>36.4</ele>
        <time>2018-02-11T14:12:29Z</time>
      </trkpt>
      <trkpt lat="62.640540106484" lon="17.989058765928">
        <ele>36.4</ele>
        <time>2018-02-11T14:12:30Z</time>
      </trkpt>
      <trkpt lat="62.640522588313" lon="17.989102770903">
        <ele>36.4</ele>
        <time>2018-02-11T14:12:31Z</time>
      </trkpt>
      <trkpt lat="62.64051026692" lon="17.98914493186">
        <ele>36.4</ele>
        <time>2018-02-11T14:12:32Z</time>
      </trkpt>
      <trkpt lat="62.640498448441" lon="17.989188014826">
        <ele>36.4</ele>
        <time>2018-02-11T14:12:33Z</time>
      </trkpt>
      <trkpt lat="62.640480175899" lon="17.989224308453">
        <ele>36.4</ele>
        <time>2018-02-11T14:12:34Z</time>
      </trkpt>
      <trkpt lat="62.640461316624" lon="17.989253645103">
        <ele>36.4</ele>
        <time>2018-02-11T14:12:35Z</time>
      </trkpt>
      <trkpt lat="62.640446229204" lon="17.989291279834">
        <ele>36.4</ele>
        <time>2018-02-11T14:12:36Z</time>
      </trkpt>
      <trkpt lat="62.640428794852" lon="17.989322041407">
        <ele>36.6</ele>
        <time>2018-02-11T14:12:37Z</time>
      </trkpt>
      <trkpt lat="62.640416473459" lon="17.989368896228">
        <ele>36.8</ele>
        <time>2018-02-11T14:12:38Z</time>
      </trkpt>
      <trkpt lat="62.640399039107" lon="17.98941482904">
        <ele>36.8</ele>
        <time>2018-02-11T14:12:39Z</time>
      </trkpt>
      <trkpt lat="62.640386801533" lon="17.989448859554">
        <ele>37</ele>
        <time>2018-02-11T14:12:40Z</time>
      </trkpt>
      <trkpt lat="62.640381101841" lon="17.989483309163">
        <ele>37</ele>
        <time>2018-02-11T14:12:41Z</time>
      </trkpt>
      <trkpt lat="62.640368361353" lon="17.989524548111">
        <ele>37</ele>
        <time>2018-02-11T14:12:42Z</time>
      </trkpt>
      <trkpt lat="62.640356207598" lon="17.989570145647">
        <ele>37</ele>
        <time>2018-02-11T14:12:43Z</time>
      </trkpt>
      <trkpt lat="62.640344808214" lon="17.989611887509">
        <ele>37.2</ele>
        <time>2018-02-11T14:12:44Z</time>
      </trkpt>
      <trkpt lat="62.640331816269" lon="17.989655305751">
        <ele>37.2</ele>
        <time>2018-02-11T14:12:45Z</time>
      </trkpt>
      <trkpt lat="62.640316225935" lon="17.989706016246">
        <ele>37.4</ele>
        <time>2018-02-11T14:12:46Z</time>
      </trkpt>
      <trkpt lat="62.640301892886" lon="17.989745494995">
        <ele>37.8</ele>
        <time>2018-02-11T14:12:47Z</time>
      </trkpt>
      <trkpt lat="62.640286302552" lon="17.989794445291">
        <ele>37.8</ele>
        <time>2018-02-11T14:12:48Z</time>
      </trkpt>
      <trkpt lat="62.640275154625" lon="17.989838198809">
        <ele>38.2</ele>
        <time>2018-02-11T14:12:49Z</time>
      </trkpt>
      <trkpt lat="62.640264006698" lon="17.989880778861">
        <ele>38.2</ele>
        <time>2018-02-11T14:12:50Z</time>
      </trkpt>
      <trkpt lat="62.640254786608" lon="17.989929142424">
        <ele>38.4</ele>
        <time>2018-02-11T14:12:51Z</time>
      </trkpt>
      <trkpt lat="62.640246991441" lon="17.989978260358">
        <ele>38.4</ele>
        <time>2018-02-11T14:12:52Z</time>
      </trkpt>
      <trkpt lat="62.640233161306" lon="17.990026204826">
        <ele>38.4</ele>
        <time>2018-02-11T14:12:53Z</time>
      </trkpt>
      <trkpt lat="62.640220169361" lon="17.990075490398">
        <ele>38.6</ele>
        <time>2018-02-11T14:12:54Z</time>
      </trkpt>
      <trkpt lat="62.640208686158" lon="17.990114214776">
        <ele>38.6</ele>
        <time>2018-02-11T14:12:55Z</time>
      </trkpt>
      <trkpt lat="62.640196280946" lon="17.990156208095">
        <ele>38.6</ele>
        <time>2018-02-11T14:12:56Z</time>
      </trkpt>
      <trkpt lat="62.640181528802" lon="17.990201218898">
        <ele>38.6</ele>
        <time>2018-02-11T14:12:57Z</time>
      </trkpt>
      <trkpt lat="62.640162501889" lon="17.990239691819">
        <ele>38.8</ele>
        <time>2018-02-11T14:12:58Z</time>
      </trkpt>
      <trkpt lat="62.640148923211" lon="17.990282942423">
        <ele>38.8</ele>
        <time>2018-02-11T14:12:59Z</time>
      </trkpt>
      <trkpt lat="62.640132159411" lon="17.990326360665">
        <ele>39</ele>
        <time>2018-02-11T14:13:00Z</time>
      </trkpt>
      <trkpt lat="62.640115227973" lon="17.990381010653">
        <ele>39.2</ele>
        <time>2018-02-11T14:13:01Z</time>
      </trkpt>
      <trkpt lat="62.640096703974" lon="17.990425350904">
        <ele>39.2</ele>
        <time>2018-02-11T14:13:02Z</time>
      </trkpt>
      <trkpt lat="62.64008279002" lon="17.990471199897">
        <ele>39.4</ele>
        <time>2018-02-11T14:13:03Z</time>
      </trkpt>
      <trkpt lat="62.640068624609" lon="17.990506655334">
        <ele>39.6</ele>
        <time>2018-02-11T14:13:04Z</time>
      </trkpt>
      <trkpt lat="62.640059404519" lon="17.990532052491">
        <ele>39.6</ele>
        <time>2018-02-11T14:13:05Z</time>
      </trkpt>
      <trkpt lat="62.640039371778" lon="17.990565412453">
        <ele>39.6</ele>
        <time>2018-02-11T14:13:06Z</time>
      </trkpt>
      <trkpt lat="62.640019003761" lon="17.990599694424">
        <ele>39.6</ele>
        <time>2018-02-11T14:13:07Z</time>
      </trkpt>
      <trkpt lat="62.640002239961" lon="17.990640011363">
        <ele>39.6</ele>
        <time>2018-02-11T14:13:08Z</time>
      </trkpt>
      <trkpt lat="62.639983967419" lon="17.990684100157">
        <ele>39.6</ele>
        <time>2018-02-11T14:13:09Z</time>
      </trkpt>
      <trkpt lat="62.639964689049" lon="17.990725171467">
        <ele>39.8</ele>
        <time>2018-02-11T14:13:10Z</time>
      </trkpt>
      <trkpt lat="62.639950188362" lon="17.9907676677">
        <ele>39.8</ele>
        <time>2018-02-11T14:13:11Z</time>
      </trkpt>
      <trkpt lat="62.63992856306" lon="17.99080873901">
        <ele>40</ele>
        <time>2018-02-11T14:13:12Z</time>
      </trkpt>
      <trkpt lat="62.639911631622" lon="17.990843356257">
        <ele>40</ele>
        <time>2018-02-11T14:13:13Z</time>
      </trkpt>
      <trkpt lat="62.639896795659" lon="17.990878811694">
        <ele>40</ele>
        <time>2018-02-11T14:13:14Z</time>
      </trkpt>
      <trkpt lat="62.639879026031" lon="17.990919128633">
        <ele>40</ele>
        <time>2018-02-11T14:13:15Z</time>
      </trkpt>
      <trkpt lat="62.639860921127" lon="17.990964139436">
        <ele>40.2</ele>
        <time>2018-02-11T14:13:16Z</time>
      </trkpt>
      <trkpt lat="62.63984474406" lon="17.991005210746">
        <ele>40.6</ele>
        <time>2018-02-11T14:13:17Z</time>
      </trkpt>
      <trkpt lat="62.639829489002" lon="17.991060279829">
        <ele>40.8</ele>
        <time>2018-02-11T14:13:18Z</time>
      </trkpt>
      <trkpt lat="62.639817586704" lon="17.991105793546">
        <ele>41</ele>
        <time>2018-02-11T14:13:19Z</time>
      </trkpt>
      <trkpt lat="62.639808450433" lon="17.991159772982">
        <ele>41.4</ele>
        <time>2018-02-11T14:13:20Z</time>
      </trkpt>
      <trkpt lat="62.639803086017" lon="17.99121442297">
        <ele>41.4</ele>
        <time>2018-02-11T14:13:21Z</time>
      </trkpt>
      <trkpt lat="62.63979612904" lon="17.991257925031">
        <ele>41.4</ele>
        <time>2018-02-11T14:13:22Z</time>
      </trkpt>
      <trkpt lat="62.639793111556" lon="17.991295475943">
        <ele>41.2</ele>
        <time>2018-02-11T14:13:23Z</time>
      </trkpt>
      <trkpt lat="62.639790680805" lon="17.991341744031">
        <ele>41.4</ele>
        <time>2018-02-11T14:13:24Z</time>
      </trkpt>
      <trkpt lat="62.639787411864" lon="17.991389185585">
        <ele>41.6</ele>
        <time>2018-02-11T14:13:25Z</time>
      </trkpt>
      <trkpt lat="62.639784562018" lon="17.991438806433">
        <ele>41.6</ele>
        <time>2018-02-11T14:13:26Z</time>
      </trkpt>
      <trkpt lat="62.63977768886" lon="17.991490438937">
        <ele>41.8</ele>
        <time>2018-02-11T14:13:27Z</time>
      </trkpt>
      <trkpt lat="62.639769139322" lon="17.991543161088">
        <ele>41.8</ele>
        <time>2018-02-11T14:13:28Z</time>
      </trkpt>
      <trkpt lat="62.639762852897" lon="17.991586830787">
        <ele>42</ele>
        <time>2018-02-11T14:13:29Z</time>
      </trkpt>
      <trkpt lat="62.639752291703" lon="17.991629159382">
        <ele>42</ele>
        <time>2018-02-11T14:13:30Z</time>
      </trkpt>
      <trkpt lat="62.639744580355" lon="17.991678361135">
        <ele>42.2</ele>
        <time>2018-02-11T14:13:31Z</time>
      </trkpt>
      <trkpt lat="62.63973410298" lon="17.991729742182">
        <ele>42.2</ele>
        <time>2018-02-11T14:13:32Z</time>
      </trkpt>
      <trkpt lat="62.639730163487" lon="17.991782967247">
        <ele>42.2</ele>
        <time>2018-02-11T14:13:33Z</time>
      </trkpt>
      <trkpt lat="62.639724631433" lon="17.991824122376">
        <ele>42.2</ele>
        <time>2018-02-11T14:13:34Z</time>
      </trkpt>
      <trkpt lat="62.639722787415" lon="17.991863852582">
        <ele>42.4</ele>
        <time>2018-02-11T14:13:35Z</time>
      </trkpt>
      <trkpt lat="62.639716668628" lon="17.991909953032">
        <ele>42.6</ele>
        <time>2018-02-11T14:13:36Z</time>
      </trkpt>
      <trkpt lat="62.639704263416" lon="17.9919578975">
        <ele>42.6</ele>
        <time>2018-02-11T14:13:37Z</time>
      </trkpt>
      <trkpt lat="62.639694205136" lon="17.992005422873">
        <ele>42.6</ele>
        <time>2018-02-11T14:13:38Z</time>
      </trkpt>
      <trkpt lat="62.639685990874" lon="17.992055798092">
        <ele>42.6</ele>
        <time>2018-02-11T14:13:39Z</time>
      </trkpt>
      <trkpt lat="62.63967626787" lon="17.992103574922">
        <ele>42.6</ele>
        <time>2018-02-11T14:13:40Z</time>
      </trkpt>
      <trkpt lat="62.639665455219" lon="17.992150178286">
        <ele>42.4</ele>
        <time>2018-02-11T14:13:41Z</time>
      </trkpt>
      <trkpt lat="62.639652630912" lon="17.992208767767">
        <ele>42.6</ele>
        <time>2018-02-11T14:13:42Z</time>
      </trkpt>
      <trkpt lat="62.639637124397" lon="17.99225880771">
        <ele>42.6</ele>
        <time>2018-02-11T14:13:43Z</time>
      </trkpt>
      <trkpt lat="62.639629161592" lon="17.99230742273">
        <ele>42.8</ele>
        <time>2018-02-11T14:13:44Z</time>
      </trkpt>
      <trkpt lat="62.639623713357" lon="17.992353104085">
        <ele>42.8</ele>
        <time>2018-02-11T14:13:45Z</time>
      </trkpt>
      <trkpt lat="62.639616504923" lon="17.992409933367">
        <ele>43</ele>
        <time>2018-02-11T14:13:46Z</time>
      </trkpt>
      <trkpt lat="62.639610553774" lon="17.992460140948">
        <ele>43</ele>
        <time>2018-02-11T14:13:47Z</time>
      </trkpt>
      <trkpt lat="62.639609883222" lon="17.992519149524">
        <ele>43.2</ele>
        <time>2018-02-11T14:13:48Z</time>
      </trkpt>
      <trkpt lat="62.639607117195" lon="17.99256726163">
        <ele>43.2</ele>
        <time>2018-02-11T14:13:49Z</time>
      </trkpt>
      <trkpt lat="62.639605273177" lon="17.99261839122">
        <ele>43</ele>
        <time>2018-02-11T14:13:50Z</time>
      </trkpt>
      <trkpt lat="62.639613068344" lon="17.992675974873">
        <ele>43.2</ele>
        <time>2018-02-11T14:13:51Z</time>
      </trkpt>
      <trkpt lat="62.639624467728" lon="17.99273070868">
        <ele>43</ele>
        <time>2018-02-11T14:13:52Z</time>
      </trkpt>
      <trkpt lat="62.639633855456" lon="17.992784520478">
        <ele>43.2</ele>
        <time>2018-02-11T14:13:53Z</time>
      </trkpt>
      <trkpt lat="62.639638297863" lon="17.992844367244">
        <ele>43</ele>
        <time>2018-02-11T14:13:54Z</time>
      </trkpt>
      <trkpt lat="62.639644165193" lon="17.992898765775">
        <ele>43.2</ele>
        <time>2018-02-11T14:13:55Z</time>
      </trkpt>
      <trkpt lat="62.639631592343" lon="17.992964228414">
        <ele>43.2</ele>
        <time>2018-02-11T14:13:56Z</time>
      </trkpt>
      <trkpt lat="62.639625892651" lon="17.993023823723">
        <ele>43.4</ele>
        <time>2018-02-11T14:13:57Z</time>
      </trkpt>
      <trkpt lat="62.639618348941" lon="17.993079311901">
        <ele>43.4</ele>
        <time>2018-02-11T14:13:58Z</time>
      </trkpt>
      <trkpt lat="62.639614912362" lon="17.993129938577">
        <ele>43.4</ele>
        <time>2018-02-11T14:13:59Z</time>
      </trkpt>
      <trkpt lat="62.639609547946" lon="17.993188779515">
        <ele>43.4</ele>
        <time>2018-02-11T14:14:00Z</time>
      </trkpt>
      <trkpt lat="62.639598483838" lon="17.993254158335">
        <ele>43.6</ele>
        <time>2018-02-11T14:14:01Z</time>
      </trkpt>
      <trkpt lat="62.639592029775" lon="17.993310400884">
        <ele>43.8</ele>
        <time>2018-02-11T14:14:02Z</time>
      </trkpt>
      <trkpt lat="62.639585072798" lon="17.993372343125">
        <ele>43.8</ele>
        <time>2018-02-11T14:14:03Z</time>
      </trkpt>
      <trkpt lat="62.639582306771" lon="17.993427998941">
        <ele>44</ele>
        <time>2018-02-11T14:14:04Z</time>
      </trkpt>
      <trkpt lat="62.639585827169" lon="17.993481224006">
        <ele>44</ele>
        <time>2018-02-11T14:14:05Z</time>
      </trkpt>
      <trkpt lat="62.639555149415" lon="17.993540064944">
        <ele>44</ele>
        <time>2018-02-11T14:14:06Z</time>
      </trkpt>
      <trkpt lat="62.63954467204" lon="17.993596978045">
        <ele>44</ele>
        <time>2018-02-11T14:14:07Z</time>
      </trkpt>
      <trkpt lat="62.639530674267" lon="17.993645760703">
        <ele>44</ele>
        <time>2018-02-11T14:14:08Z</time>
      </trkpt>
      <trkpt lat="62.639519191064" lon="17.993689933316">
        <ele>44</ele>
        <time>2018-02-11T14:14:09Z</time>
      </trkpt>
      <trkpt lat="62.639496727572" lon="17.993732513368">
        <ele>44</ele>
        <time>2018-02-11T14:14:10Z</time>
      </trkpt>
      <trkpt lat="62.639468648207" lon="17.993779200551">
        <ele>44</ele>
        <time>2018-02-11T14:14:11Z</time>
      </trkpt>
      <trkpt lat="62.639449537475" lon="17.993821696784">
        <ele>44</ele>
        <time>2018-02-11T14:14:12Z</time>
      </trkpt>
      <trkpt lat="62.639429337096" lon="17.993851955443">
        <ele>44.2</ele>
        <time>2018-02-11T14:14:13Z</time>
      </trkpt>
      <trkpt lat="62.639409471993" lon="17.993899816092">
        <ele>44.2</ele>
        <time>2018-02-11T14:14:14Z</time>
      </trkpt>
      <trkpt lat="62.639391870003" lon="17.99394608418">
        <ele>44.4</ele>
        <time>2018-02-11T14:14:15Z</time>
      </trkpt>
      <trkpt lat="62.639370831434" lon="17.9939863173">
        <ele>44.4</ele>
        <time>2018-02-11T14:14:16Z</time>
      </trkpt>
      <trkpt lat="62.639356498385" lon="17.99401397757">
        <ele>44.8</ele>
        <time>2018-02-11T14:14:17Z</time>
      </trkpt>
      <trkpt lat="62.639348032666" lon="17.994047002256">
        <ele>44.6</ele>
        <time>2018-02-11T14:14:18Z</time>
      </trkpt>
      <trkpt lat="62.639334789264" lon="17.994084972263">
        <ele>44.8</ele>
        <time>2018-02-11T14:14:19Z</time>
      </trkpt>
      <trkpt lat="62.639320707672" lon="17.99412713322">
        <ele>45</ele>
        <time>2018-02-11T14:14:20Z</time>
      </trkpt>
      <trkpt lat="62.639306290804" lon="17.994172982213">
        <ele>45.2</ele>
        <time>2018-02-11T14:14:21Z</time>
      </trkpt>
      <trkpt lat="62.639293717954" lon="17.994215394627">
        <ele>45.2</ele>
        <time>2018-02-11T14:14:22Z</time>
      </trkpt>
      <trkpt lat="62.63928399495" lon="17.994261075982">
        <ele>45.4</ele>
        <time>2018-02-11T14:14:23Z</time>
      </trkpt>
      <trkpt lat="62.639270835367" lon="17.994313965771">
        <ele>45.6</ele>
        <time>2018-02-11T14:14:24Z</time>
      </trkpt>
      <trkpt lat="62.639254239205" lon="17.994356881099">
        <ele>45.8</ele>
        <time>2018-02-11T14:14:25Z</time>
      </trkpt>
      <trkpt lat="62.639239989975" lon="17.994399712608">
        <ele>45.8</ele>
        <time>2018-02-11T14:14:26Z</time>
      </trkpt>
      <trkpt lat="62.639225405469" lon="17.994440281004">
        <ele>46</ele>
        <time>2018-02-11T14:14:27Z</time>
      </trkpt>
      <trkpt lat="62.639214592818" lon="17.994475987898">
        <ele>46</ele>
        <time>2018-02-11T14:14:28Z</time>
      </trkpt>
      <trkpt lat="62.639204450719" lon="17.994507420023">
        <ele>46.2</ele>
        <time>2018-02-11T14:14:29Z</time>
      </trkpt>
      <trkpt lat="62.63919011767" lon="17.994541869632">
        <ele>46.2</ele>
        <time>2018-02-11T14:14:30Z</time>
      </trkpt>
      <trkpt lat="62.639178299191" lon="17.994583862951">
        <ele>46.4</ele>
        <time>2018-02-11T14:14:31Z</time>
      </trkpt>
      <trkpt lat="62.639162038305" lon="17.994624347528">
        <ele>46.4</ele>
        <time>2018-02-11T14:14:32Z</time>
      </trkpt>
      <trkpt lat="62.639146112695" lon="17.994670867073">
        <ele>46.6</ele>
        <time>2018-02-11T14:14:33Z</time>
      </trkpt>
      <trkpt lat="62.639129684171" lon="17.994707831252">
        <ele>46.6</ele>
        <time>2018-02-11T14:14:34Z</time>
      </trkpt>
      <trkpt lat="62.63911384238" lon="17.994742616137">
        <ele>46.6</ele>
        <time>2018-02-11T14:14:35Z</time>
      </trkpt>
      <trkpt lat="62.639096408028" lon="17.994784693275">
        <ele>46.6</ele>
        <time>2018-02-11T14:14:36Z</time>
      </trkpt>
      <trkpt lat="62.63907947659" lon="17.994817466504">
        <ele>46.8</ele>
        <time>2018-02-11T14:14:37Z</time>
      </trkpt>
      <trkpt lat="62.639065143541" lon="17.994847892801">
        <ele>46.6</ele>
        <time>2018-02-11T14:14:38Z</time>
      </trkpt>
      <trkpt lat="62.639050475216" lon="17.994876055985">
        <ele>46.8</ele>
        <time>2018-02-11T14:14:39Z</time>
      </trkpt>
      <trkpt lat="62.639035471615" lon="17.994907823386">
        <ele>46.8</ele>
        <time>2018-02-11T14:14:40Z</time>
      </trkpt>
      <trkpt lat="62.639028933733" lon="17.99492760467">
        <ele>47</ele>
        <time>2018-02-11T14:14:41Z</time>
      </trkpt>
      <trkpt lat="62.639021725299" lon="17.994943697918">
        <ele>47</ele>
        <time>2018-02-11T14:14:42Z</time>
      </trkpt>
      <trkpt lat="62.639022144394" lon="17.994957863329">
        <ele>47</ele>
        <time>2018-02-11T14:14:43Z</time>
      </trkpt>
      <trkpt lat="62.639021725299" lon="17.994973369844">
        <ele>47</ele>
        <time>2018-02-11T14:14:44Z</time>
      </trkpt>
      <trkpt lat="62.639015355055" lon="17.994996503888">
        <ele>47.2</ele>
        <time>2018-02-11T14:14:45Z</time>
      </trkpt>
      <trkpt lat="62.639000267635" lon="17.995023912701">
        <ele>47.2</ele>
        <time>2018-02-11T14:14:46Z</time>
      </trkpt>
      <trkpt lat="62.638982581826" lon="17.995056769749">
        <ele>47.4</ele>
        <time>2018-02-11T14:14:47Z</time>
      </trkpt>
      <trkpt lat="62.638963135818" lon="17.995101780552">
        <ele>47.6</ele>
        <time>2018-02-11T14:14:48Z</time>
      </trkpt>
      <trkpt lat="62.638939331222" lon="17.995138577093">
        <ele>47.8</ele>
        <time>2018-02-11T14:14:49Z</time>
      </trkpt>
      <trkpt lat="62.638919969033" lon="17.995184006991">
        <ele>47.8</ele>
        <time>2018-02-11T14:14:50Z</time>
      </trkpt>
      <trkpt lat="62.638898595188" lon="17.995225916491">
        <ele>48</ele>
        <time>2018-02-11T14:14:51Z</time>
      </trkpt>
      <trkpt lat="62.638877891895" lon="17.995259024996">
        <ele>48</ele>
        <time>2018-02-11T14:14:52Z</time>
      </trkpt>
      <trkpt lat="62.638857020964" lon="17.995290373302">
        <ele>48</ele>
        <time>2018-02-11T14:14:53Z</time>
      </trkpt>
      <trkpt lat="62.638832881092" lon="17.995324403816">
        <ele>48</ele>
        <time>2018-02-11T14:14:54Z</time>
      </trkpt>
      <trkpt lat="62.638816620206" lon="17.99535591976">
        <ele>48</ele>
        <time>2018-02-11T14:14:55Z</time>
      </trkpt>
      <trkpt lat="62.63879533018" lon="17.995393889767">
        <ele>48</ele>
        <time>2018-02-11T14:14:56Z</time>
      </trkpt>
      <trkpt lat="62.63877353724" lon="17.995435380172">
        <ele>48.2</ele>
        <time>2018-02-11T14:14:57Z</time>
      </trkpt>
      <trkpt lat="62.638754929422" lon="17.995473014903">
        <ele>48.2</ele>
        <time>2018-02-11T14:14:58Z</time>
      </trkpt>
      <trkpt lat="62.638735567233" lon="17.995508973254">
        <ele>48.4</ele>
        <time>2018-02-11T14:14:59Z</time>
      </trkpt>
      <trkpt lat="62.638719222528" lon="17.995555911894">
        <ele>48.4</ele>
        <time>2018-02-11T14:15:00Z</time>
      </trkpt>
      <trkpt lat="62.638700447072" lon="17.995603940181">
        <ele>48.6</ele>
        <time>2018-02-11T14:15:01Z</time>
      </trkpt>
      <trkpt lat="62.638681168702" lon="17.995645262948">
        <ele>48.6</ele>
        <time>2018-02-11T14:15:02Z</time>
      </trkpt>
      <trkpt lat="62.638660716866" lon="17.99569371033">
        <ele>49</ele>
        <time>2018-02-11T14:15:03Z</time>
      </trkpt>
      <trkpt lat="62.638642947238" lon="17.995742492988">
        <ele>49</ele>
        <time>2018-02-11T14:15:04Z</time>
      </trkpt>
      <trkpt lat="62.638629284741" lon="17.995788593438">
        <ele>49</ele>
        <time>2018-02-11T14:15:05Z</time>
      </trkpt>
      <trkpt lat="62.638608078534" lon="17.995843913978">
        <ele>49.2</ele>
        <time>2018-02-11T14:15:06Z</time>
      </trkpt>
      <trkpt lat="62.638585950318" lon="17.995881548709">
        <ele>49.4</ele>
        <time>2018-02-11T14:15:07Z</time>
      </trkpt>
      <trkpt lat="62.63857153345" lon="17.995918512888">
        <ele>49.4</ele>
        <time>2018-02-11T14:15:08Z</time>
      </trkpt>
      <trkpt lat="62.638552590356" lon="17.995957237266">
        <ele>49.4</ele>
        <time>2018-02-11T14:15:09Z</time>
      </trkpt>
      <trkpt lat="62.638533731081" lon="17.995987328287">
        <ele>49.6</ele>
        <time>2018-02-11T14:15:10Z</time>
      </trkpt>
      <trkpt lat="62.638516632005" lon="17.996024208647">
        <ele>49.8</ele>
        <time>2018-02-11T14:15:11Z</time>
      </trkpt>
      <trkpt lat="62.638499113834" lon="17.996066872518">
        <ele>50</ele>
        <time>2018-02-11T14:15:12Z</time>
      </trkpt>
      <trkpt lat="62.638483942595" lon="17.996101825041">
        <ele>50.2</ele>
        <time>2018-02-11T14:15:13Z</time>
      </trkpt>
      <trkpt lat="62.638469441908" lon="17.996135939374">
        <ele>50.2</ele>
        <time>2018-02-11T14:15:14Z</time>
      </trkpt>
      <trkpt lat="62.638451923737" lon="17.996168209689">
        <ele>50.2</ele>
        <time>2018-02-11T14:15:15Z</time>
      </trkpt>
      <trkpt lat="62.638433064462" lon="17.996208023714">
        <ele>50.4</ele>
        <time>2018-02-11T14:15:16Z</time>
      </trkpt>
      <trkpt lat="62.638413283178" lon="17.996238450011">
        <ele>50.4</ele>
        <time>2018-02-11T14:15:17Z</time>
      </trkpt>
      <trkpt lat="62.638399201586" lon="17.996273318715">
        <ele>50.4</ele>
        <time>2018-02-11T14:15:18Z</time>
      </trkpt>
      <trkpt lat="62.638399955957" lon="17.996285975384">
        <ele>50.4</ele>
        <time>2018-02-11T14:15:19Z</time>
      </trkpt>
      <trkpt lat="62.638385958184" lon="17.996307600686">
        <ele>50.6</ele>
        <time>2018-02-11T14:15:20Z</time>
      </trkpt>
      <trkpt lat="62.638371373678" lon="17.996341966476">
        <ele>50.6</ele>
        <time>2018-02-11T14:15:21Z</time>
      </trkpt>
      <trkpt lat="62.638350754204" lon="17.996378595379">
        <ele>50.6</ele>
        <time>2018-02-11T14:15:22Z</time>
      </trkpt>
      <trkpt lat="62.638336337336" lon="17.996416900662">
        <ele>50.8</ele>
        <time>2018-02-11T14:15:23Z</time>
      </trkpt>
      <trkpt lat="62.638317058966" lon="17.996456630868">
        <ele>51</ele>
        <time>2018-02-11T14:15:24Z</time>
      </trkpt>
      <trkpt lat="62.638297948234" lon="17.996487979174">
        <ele>51</ele>
        <time>2018-02-11T14:15:25Z</time>
      </trkpt>
      <trkpt lat="62.638278418407" lon="17.996524608077">
        <ele>51</ele>
        <time>2018-02-11T14:15:26Z</time>
      </trkpt>
      <trkpt lat="62.63825553582" lon="17.996562242808">
        <ele>51</ele>
        <time>2018-02-11T14:15:27Z</time>
      </trkpt>
      <trkpt lat="62.638232317957" lon="17.996598620254">
        <ele>51</ele>
        <time>2018-02-11T14:15:28Z</time>
      </trkpt>
      <trkpt lat="62.638215973252" lon="17.996626448162">
        <ele>51</ele>
        <time>2018-02-11T14:15:29Z</time>
      </trkpt>
      <trkpt lat="62.638199209452" lon="17.996655030441">
        <ele>51.2</ele>
        <time>2018-02-11T14:15:30Z</time>
      </trkpt>
      <trkpt lat="62.638181020729" lon="17.996688055127">
        <ele>51.4</ele>
        <time>2018-02-11T14:15:31Z</time>
      </trkpt>
      <trkpt lat="62.638164089291" lon="17.996711524447">
        <ele>51.6</ele>
        <time>2018-02-11T14:15:32Z</time>
      </trkpt>
      <trkpt lat="62.638148079862" lon="17.996736251052">
        <ele>51.6</ele>
        <time>2018-02-11T14:15:33Z</time>
      </trkpt>
      <trkpt lat="62.63812896913" lon="17.996764246598">
        <ele>51.8</ele>
        <time>2018-02-11T14:15:34Z</time>
      </trkpt>
      <trkpt lat="62.638113211158" lon="17.996788554108">
        <ele>51.8</ele>
        <time>2018-02-11T14:15:35Z</time>
      </trkpt>
      <trkpt lat="62.638090915304" lon="17.996819818595">
        <ele>52.2</ele>
        <time>2018-02-11T14:15:36Z</time>
      </trkpt>
      <trkpt lat="62.638073732409" lon="17.996840018974">
        <ele>52.2</ele>
        <time>2018-02-11T14:15:37Z</time>
      </trkpt>
      <trkpt lat="62.638059986093" lon="17.996880335913">
        <ele>52.4</ele>
        <time>2018-02-11T14:15:38Z</time>
      </trkpt>
      <trkpt lat="62.638043976664" lon="17.996924005612">
        <ele>52.4</ele>
        <time>2018-02-11T14:15:39Z</time>
      </trkpt>
      <trkpt lat="62.638025620303" lon="17.996958958135">
        <ele>52.6</ele>
        <time>2018-02-11T14:15:40Z</time>
      </trkpt>
      <trkpt lat="62.63800826977" lon="17.997003046929">
        <ele>52.6</ele>
        <time>2018-02-11T14:15:41Z</time>
      </trkpt>
      <trkpt lat="62.637989326676" lon="17.997051913406">
        <ele>52.6</ele>
        <time>2018-02-11T14:15:42Z</time>
      </trkpt>
      <trkpt lat="62.637973652523" lon="17.997092565621">
        <ele>52.6</ele>
        <time>2018-02-11T14:15:43Z</time>
      </trkpt>
      <trkpt lat="62.637951356669" lon="17.997138666071">
        <ele>52.8</ele>
        <time>2018-02-11T14:15:44Z</time>
      </trkpt>
      <trkpt lat="62.637934676688" lon="17.997175965526">
        <ele>53</ele>
        <time>2018-02-11T14:15:45Z</time>
      </trkpt>
      <trkpt lat="62.637917326155" lon="17.997216366284">
        <ele>53</ele>
        <time>2018-02-11T14:15:46Z</time>
      </trkpt>
      <trkpt lat="62.637897293414" lon="17.997253414282">
        <ele>53.2</ele>
        <time>2018-02-11T14:15:47Z</time>
      </trkpt>
      <trkpt lat="62.63787918851" lon="17.997299850008">
        <ele>53.2</ele>
        <time>2018-02-11T14:15:48Z</time>
      </trkpt>
      <trkpt lat="62.637858401398" lon="17.997347207743">
        <ele>53.2</ele>
        <time>2018-02-11T14:15:49Z</time>
      </trkpt>
      <trkpt lat="62.637837446648" lon="17.99739272146">
        <ele>53.4</ele>
        <time>2018-02-11T14:15:50Z</time>
      </trkpt>
      <trkpt lat="62.637818671192" lon="17.997446197982">
        <ele>53.2</ele>
        <time>2018-02-11T14:15:51Z</time>
      </trkpt>
      <trkpt lat="62.63780626598" lon="17.997492633708">
        <ele>53.2</ele>
        <time>2018-02-11T14:15:52Z</time>
      </trkpt>
      <trkpt lat="62.63779285494" lon="17.997528340602">
        <ele>53.2</ele>
        <time>2018-02-11T14:15:53Z</time>
      </trkpt>
      <trkpt lat="62.637776510235" lon="17.997574524871">
        <ele>53.2</ele>
        <time>2018-02-11T14:15:54Z</time>
      </trkpt>
      <trkpt lat="62.637768882706" lon="17.997623810443">
        <ele>53.4</ele>
        <time>2018-02-11T14:15:55Z</time>
      </trkpt>
      <trkpt lat="62.63775848915" lon="17.997675862042">
        <ele>53.2</ele>
        <time>2018-02-11T14:15:56Z</time>
      </trkpt>
      <trkpt lat="62.637746251576" lon="17.997731936953">
        <ele>53.4</ele>
        <time>2018-02-11T14:15:57Z</time>
      </trkpt>
      <trkpt lat="62.637725715921" lon="17.997784323828">
        <ele>53.4</ele>
        <time>2018-02-11T14:15:58Z</time>
      </trkpt>
      <trkpt lat="62.637704090619" lon="17.997831262468">
        <ele>53.4</ele>
        <time>2018-02-11T14:15:59Z</time>
      </trkpt>
      <trkpt lat="62.637680621299" lon="17.997882392058">
        <ele>53.4</ele>
        <time>2018-02-11T14:16:00Z</time>
      </trkpt>
      <trkpt lat="62.637659079816" lon="17.997935114209">
        <ele>53.4</ele>
        <time>2018-02-11T14:16:01Z</time>
      </trkpt>
      <trkpt lat="62.637641310188" lon="17.997997307907">
        <ele>53.4</ele>
        <time>2018-02-11T14:16:02Z</time>
      </trkpt>
      <trkpt lat="62.637613398461" lon="17.998055897388">
        <ele>53.4</ele>
        <time>2018-02-11T14:16:03Z</time>
      </trkpt>
      <trkpt lat="62.637595796471" lon="17.998098645078">
        <ele>53.6</ele>
        <time>2018-02-11T14:16:04Z</time>
      </trkpt>
      <trkpt lat="62.637585235277" lon="17.998140554578">
        <ele>53.4</ele>
        <time>2018-02-11T14:16:05Z</time>
      </trkpt>
      <trkpt lat="62.637562771785" lon="17.998142733872">
        <ele>53.4</ele>
        <time>2018-02-11T14:16:06Z</time>
      </trkpt>
      <trkpt lat="62.637504769037" lon="17.998211130176">
        <ele>53.4</ele>
        <time>2018-02-11T14:16:07Z</time>
      </trkpt>
      <trkpt lat="62.637476186758" lon="17.998244741595">
        <ele>53.6</ele>
        <time>2018-02-11T14:16:08Z</time>
      </trkpt>
      <trkpt lat="62.637450454325" lon="17.998276508996">
        <ele>53.8</ele>
        <time>2018-02-11T14:16:09Z</time>
      </trkpt>
      <trkpt lat="62.637422123503" lon="17.998314898098">
        <ele>54.2</ele>
        <time>2018-02-11T14:16:10Z</time>
      </trkpt>
      <trkpt lat="62.637403180409" lon="17.998357729607">
        <ele>54.4</ele>
        <time>2018-02-11T14:16:11Z</time>
      </trkpt>
      <trkpt lat="62.637371496827" lon="17.998404584428">
        <ele>54.6</ele>
        <time>2018-02-11T14:16:12Z</time>
      </trkpt>
      <trkpt lat="62.637349284792" lon="17.998459150597">
        <ele>54.8</ele>
        <time>2018-02-11T14:16:13Z</time>
      </trkpt>
      <trkpt lat="62.637327072757" lon="17.998509693454">
        <ele>55</ele>
        <time>2018-02-11T14:16:14Z</time>
      </trkpt>
      <trkpt lat="62.637307040016" lon="17.998555123352">
        <ele>55</ele>
        <time>2018-02-11T14:16:15Z</time>
      </trkpt>
      <trkpt lat="62.637282564868" lon="17.998603235458">
        <ele>55</ele>
        <time>2018-02-11T14:16:16Z</time>
      </trkpt>
      <trkpt lat="62.637256161883" lon="17.998651012288">
        <ele>54.8</ele>
        <time>2018-02-11T14:16:17Z</time>
      </trkpt>
      <trkpt lat="62.637231854373" lon="17.998706332828">
        <ele>54.6</ele>
        <time>2018-02-11T14:16:18Z</time>
      </trkpt>
      <trkpt lat="62.637207882139" lon="17.998754109658">
        <ele>54.6</ele>
        <time>2018-02-11T14:16:19Z</time>
      </trkpt>
      <trkpt lat="62.637186759751" lon="17.998787301982">
        <ele>54.8</ele>
        <time>2018-02-11T14:16:20Z</time>
      </trkpt>
      <trkpt lat="62.637164128621" lon="17.998821081039">
        <ele>54.8</ele>
        <time>2018-02-11T14:16:21Z</time>
      </trkpt>
      <trkpt lat="62.63713906674" lon="17.998855446829">
        <ele>54.6</ele>
        <time>2018-02-11T14:16:22Z</time>
      </trkpt>
      <trkpt lat="62.637117525257" lon="17.998896685777">
        <ele>54.8</ele>
        <time>2018-02-11T14:16:23Z</time>
      </trkpt>
      <trkpt lat="62.63709128991" lon="17.998937924725">
        <ele>54.8</ele>
        <time>2018-02-11T14:16:24Z</time>
      </trkpt>
      <trkpt lat="62.637069161694" lon="17.998968937755">
        <ele>55</ele>
        <time>2018-02-11T14:16:25Z</time>
      </trkpt>
      <trkpt lat="62.637048793677" lon="17.998997352396">
        <ele>54.8</ele>
        <time>2018-02-11T14:16:26Z</time>
      </trkpt>
      <trkpt lat="62.637027838927" lon="17.999024761209">
        <ele>54.8</ele>
        <time>2018-02-11T14:16:27Z</time>
      </trkpt>
      <trkpt lat="62.63700327996" lon="17.99905988137">
        <ele>55</ele>
        <time>2018-02-11T14:16:28Z</time>
      </trkpt>
      <trkpt lat="62.636986851436" lon="17.999092654599">
        <ele>55.2</ele>
        <time>2018-02-11T14:16:29Z</time>
      </trkpt>
      <trkpt lat="62.636972602206" lon="17.999119728136">
        <ele>55.4</ele>
        <time>2018-02-11T14:16:30Z</time>
      </trkpt>
      <trkpt lat="62.636955838406" lon="17.999144119465">
        <ele>55.6</ele>
        <time>2018-02-11T14:16:31Z</time>
      </trkpt>
      <trkpt lat="62.63693706295" lon="17.999179910178">
        <ele>55.8</ele>
        <time>2018-02-11T14:16:32Z</time>
      </trkpt>
      <trkpt lat="62.636912671621" lon="17.999212934864">
        <ele>56</ele>
        <time>2018-02-11T14:16:33Z</time>
      </trkpt>
      <trkpt lat="62.636889537577" lon="17.999238164383">
        <ele>56.2</ele>
        <time>2018-02-11T14:16:34Z</time>
      </trkpt>
      <trkpt lat="62.636869253379" lon="17.999266495205">
        <ele>56.2</ele>
        <time>2018-02-11T14:16:35Z</time>
      </trkpt>
      <trkpt lat="62.636845364964" lon="17.999297843511">
        <ele>56.6</ele>
        <time>2018-02-11T14:16:36Z</time>
      </trkpt>
      <trkpt lat="62.636822398558" lon="17.999323575944">
        <ele>56.8</ele>
        <time>2018-02-11T14:16:37Z</time>
      </trkpt>
      <trkpt lat="62.636799264514" lon="17.999360121028">
        <ele>56.8</ele>
        <time>2018-02-11T14:16:38Z</time>
      </trkpt>
      <trkpt lat="62.636777723031" lon="17.999396330836">
        <ele>57</ele>
        <time>2018-02-11T14:16:39Z</time>
      </trkpt>
      <trkpt lat="62.636757941747" lon="17.999432121549">
        <ele>57</ele>
        <time>2018-02-11T14:16:40Z</time>
      </trkpt>
      <trkpt lat="62.636737741368" lon="17.999474450144">
        <ele>56.8</ele>
        <time>2018-02-11T14:16:41Z</time>
      </trkpt>
      <trkpt lat="62.636724078871" lon="17.999515940549">
        <ele>57</ele>
        <time>2018-02-11T14:16:42Z</time>
      </trkpt>
      <trkpt lat="62.636702118293" lon="17.999561789542">
        <ele>57</ele>
        <time>2018-02-11T14:16:43Z</time>
      </trkpt>
      <trkpt lat="62.636683678113" lon="17.999613422046">
        <ele>57.2</ele>
        <time>2018-02-11T14:16:44Z</time>
      </trkpt>
      <trkpt lat="62.636663645372" lon="17.999659438677">
        <ele>57</ele>
        <time>2018-02-11T14:16:45Z</time>
      </trkpt>
      <trkpt lat="62.636636655654" lon="17.99971450776">
        <ele>57.2</ele>
        <time>2018-02-11T14:16:46Z</time>
      </trkpt>
      <trkpt lat="62.636617461103" lon="17.999758764192">
        <ele>57.4</ele>
        <time>2018-02-11T14:16:47Z</time>
      </trkpt>
      <trkpt lat="62.636604469158" lon="17.999805451375">
        <ele>57.4</ele>
        <time>2018-02-11T14:16:48Z</time>
      </trkpt>
      <trkpt lat="62.636589465557" lon="17.999852390015">
        <ele>57.4</ele>
        <time>2018-02-11T14:16:49Z</time>
      </trkpt>
      <trkpt lat="62.636582257123" lon="17.999893461325">
        <ele>57.4</ele>
        <time>2018-02-11T14:16:50Z</time>
      </trkpt>
      <trkpt lat="62.6365724503" lon="17.999942579259">
        <ele>57.4</ele>
        <time>2018-02-11T14:16:51Z</time>
      </trkpt>
      <trkpt lat="62.63656155383" lon="17.999993960306">
        <ele>57.2</ele>
        <time>2018-02-11T14:16:52Z</time>
      </trkpt>
      <trkpt lat="62.636551914645" lon="18.000043832611">
        <ele>57.4</ele>
        <time>2018-02-11T14:16:53Z</time>
      </trkpt>
      <trkpt lat="62.636540682899" lon="18.000099907522">
        <ele>57.4</ele>
        <time>2018-02-11T14:16:54Z</time>
      </trkpt>
      <trkpt lat="62.636528780601" lon="18.00014114647">
        <ele>57.4</ele>
        <time>2018-02-11T14:16:55Z</time>
      </trkpt>
      <trkpt lat="62.636514782828" lon="18.000189929128">
        <ele>57.2</ele>
        <time>2018-02-11T14:16:56Z</time>
      </trkpt>
      <trkpt lat="62.636500282141" lon="18.000251703731">
        <ele>57.2</ele>
        <time>2018-02-11T14:16:57Z</time>
      </trkpt>
      <trkpt lat="62.636488966576" lon="18.000305515529">
        <ele>57.2</ele>
        <time>2018-02-11T14:16:58Z</time>
      </trkpt>
      <trkpt lat="62.636473460061" lon="18.000351280703">
        <ele>57.2</ele>
        <time>2018-02-11T14:16:59Z</time>
      </trkpt>
      <trkpt lat="62.63645761827" lon="18.000391262366">
        <ele>57.2</ele>
        <time>2018-02-11T14:17:00Z</time>
      </trkpt>
      <trkpt lat="62.636443788135" lon="18.000465777457">
        <ele>57.2</ele>
        <time>2018-02-11T14:17:01Z</time>
      </trkpt>
      <trkpt lat="62.636428449258" lon="18.000517326142">
        <ele>57.2</ele>
        <time>2018-02-11T14:17:02Z</time>
      </trkpt>
      <trkpt lat="62.636414367666" lon="18.000557391624">
        <ele>57.4</ele>
        <time>2018-02-11T14:17:03Z</time>
      </trkpt>
      <trkpt lat="62.636396598038" lon="18.00060131278">
        <ele>57.4</ele>
        <time>2018-02-11T14:17:04Z</time>
      </trkpt>
      <trkpt lat="62.636378157858" lon="18.00064657504">
        <ele>57.4</ele>
        <time>2018-02-11T14:17:05Z</time>
      </trkpt>
      <trkpt lat="62.636349324122" lon="18.00071027748">
        <ele>57.4</ele>
        <time>2018-02-11T14:17:06Z</time>
      </trkpt>
      <trkpt lat="62.636326106259" lon="18.000759060138">
        <ele>57.4</ele>
        <time>2018-02-11T14:17:07Z</time>
      </trkpt>
      <trkpt lat="62.636316299436" lon="18.000809435357">
        <ele>57.6</ele>
        <time>2018-02-11T14:17:08Z</time>
      </trkpt>
      <trkpt lat="62.636312695219" lon="18.000864755897">
        <ele>57.6</ele>
        <time>2018-02-11T14:17:09Z</time>
      </trkpt>
      <trkpt lat="62.636299787093" lon="18.000914628202">
        <ele>57.6</ele>
        <time>2018-02-11T14:17:10Z</time>
      </trkpt>
      <trkpt lat="62.636287717157" lon="18.000965003421">
        <ele>57.6</ele>
        <time>2018-02-11T14:17:11Z</time>
      </trkpt>
      <trkpt lat="62.63626734914" lon="18.001014288993">
        <ele>57.6</ele>
        <time>2018-02-11T14:17:12Z</time>
      </trkpt>
      <trkpt lat="62.636250920616" lon="18.001059299796">
        <ele>57.6</ele>
        <time>2018-02-11T14:17:13Z</time>
      </trkpt>
      <trkpt lat="62.636233318626" lon="18.001105986979">
        <ele>57.4</ele>
        <time>2018-02-11T14:17:14Z</time>
      </trkpt>
      <trkpt lat="62.636217644473" lon="18.001151500696">
        <ele>57.6</ele>
        <time>2018-02-11T14:17:15Z</time>
      </trkpt>
      <trkpt lat="62.636201383587" lon="18.001205312494">
        <ele>57.6</ele>
        <time>2018-02-11T14:17:16Z</time>
      </trkpt>
      <trkpt lat="62.636183278683" lon="18.001251496763">
        <ele>57.6</ele>
        <time>2018-02-11T14:17:17Z</time>
      </trkpt>
      <trkpt lat="62.636166514883" lon="18.001295585557">
        <ele>57.6</ele>
        <time>2018-02-11T14:17:18Z</time>
      </trkpt>
      <trkpt lat="62.636149499626" lon="18.001335483401">
        <ele>57.6</ele>
        <time>2018-02-11T14:17:19Z</time>
      </trkpt>
      <trkpt lat="62.636130053618" lon="18.001382170584">
        <ele>57.4</ele>
        <time>2018-02-11T14:17:20Z</time>
      </trkpt>
      <trkpt lat="62.636107841583" lon="18.001435647106">
        <ele>57.4</ele>
        <time>2018-02-11T14:17:21Z</time>
      </trkpt>
      <trkpt lat="62.636085545729" lon="18.001480406452">
        <ele>57.4</ele>
        <time>2018-02-11T14:17:22Z</time>
      </trkpt>
      <trkpt lat="62.63606618354" lon="18.001531116947">
        <ele>57.4</ele>
        <time>2018-02-11T14:17:23Z</time>
      </trkpt>
      <trkpt lat="62.636047994817" lon="18.001580151062">
        <ele>57.4</ele>
        <time>2018-02-11T14:17:24Z</time>
      </trkpt>
      <trkpt lat="62.63603181775" lon="18.001622647295">
        <ele>57.4</ele>
        <time>2018-02-11T14:17:25Z</time>
      </trkpt>
      <trkpt lat="62.636002648738" lon="18.00170437082">
        <ele>57.4</ele>
        <time>2018-02-11T14:17:26Z</time>
      </trkpt>
      <trkpt lat="62.635979682332" lon="18.001737479325">
        <ele>57.4</ele>
        <time>2018-02-11T14:17:27Z</time>
      </trkpt>
      <trkpt lat="62.635953530804" lon="18.001806378543">
        <ele>57.4</ele>
        <time>2018-02-11T14:17:28Z</time>
      </trkpt>
      <trkpt lat="62.635938862479" lon="18.001851556984">
        <ele>57.4</ele>
        <time>2018-02-11T14:17:29Z</time>
      </trkpt>
      <trkpt lat="62.635915057883" lon="18.001894304674">
        <ele>57.4</ele>
        <time>2018-02-11T14:17:30Z</time>
      </trkpt>
      <trkpt lat="62.635889996002" lon="18.00193906402">
        <ele>57.4</ele>
        <time>2018-02-11T14:17:31Z</time>
      </trkpt>
      <trkpt lat="62.63586753251" lon="18.001981644072">
        <ele>57.6</ele>
        <time>2018-02-11T14:17:32Z</time>
      </trkpt>
      <trkpt lat="62.635849511425" lon="18.002011735093">
        <ele>57.6</ele>
        <time>2018-02-11T14:17:33Z</time>
      </trkpt>
      <trkpt lat="62.635832496168" lon="18.002044340684">
        <ele>57.8</ele>
        <time>2018-02-11T14:17:34Z</time>
      </trkpt>
      <trkpt lat="62.635813301617" lon="18.002084154709">
        <ele>57.8</ele>
        <time>2018-02-11T14:17:35Z</time>
      </trkpt>
      <trkpt lat="62.635799722939" lon="18.002137044498">
        <ele>57.8</ele>
        <time>2018-02-11T14:17:36Z</time>
      </trkpt>
      <trkpt lat="62.635784132605" lon="18.002212984512">
        <ele>57.6</ele>
        <time>2018-02-11T14:17:37Z</time>
      </trkpt>
      <trkpt lat="62.635763345493" lon="18.00229026563">
        <ele>57.6</ele>
        <time>2018-02-11T14:17:38Z</time>
      </trkpt>
      <trkpt lat="62.635754628317" lon="18.002357739925">
        <ele>57.4</ele>
        <time>2018-02-11T14:17:39Z</time>
      </trkpt>
      <trkpt lat="62.635740462906" lon="18.002435356319">
        <ele>57.4</ele>
        <time>2018-02-11T14:17:40Z</time>
      </trkpt>
      <trkpt lat="62.635737696879" lon="18.002510961057">
        <ele>57.4</ele>
        <time>2018-02-11T14:17:41Z</time>
      </trkpt>
      <trkpt lat="62.635732667739" lon="18.002600898844">
        <ele>57.2</ele>
        <time>2018-02-11T14:17:42Z</time>
      </trkpt>
      <trkpt lat="62.635722106545" lon="18.002681784179">
        <ele>57</ele>
        <time>2018-02-11T14:17:43Z</time>
      </trkpt>
      <trkpt lat="62.635700984157" lon="18.00276635755">
        <ele>57</ele>
        <time>2018-02-11T14:17:44Z</time>
      </trkpt>
      <trkpt lat="62.635682376339" lon="18.002831904008">
        <ele>56.6</ele>
        <time>2018-02-11T14:17:45Z</time>
      </trkpt>
      <trkpt lat="62.635655302802" lon="18.00290298252">
        <ele>56</ele>
        <time>2018-02-11T14:17:46Z</time>
      </trkpt>
      <trkpt lat="62.635630743835" lon="18.002964002752">
        <ele>55.8</ele>
        <time>2018-02-11T14:17:47Z</time>
      </trkpt>
      <trkpt lat="62.635604173212" lon="18.00304044568">
        <ele>55.2</ele>
        <time>2018-02-11T14:17:48Z</time>
      </trkpt>
      <trkpt lat="62.635577434951" lon="18.003098364609">
        <ele>55</ele>
        <time>2018-02-11T14:17:49Z</time>
      </trkpt>
      <trkpt lat="62.635548768853" lon="18.003168604931">
        <ele>54.8</ele>
        <time>2018-02-11T14:17:50Z</time>
      </trkpt>
      <trkpt lat="62.635537872383" lon="18.003248065343">
        <ele>54.8</ele>
        <time>2018-02-11T14:17:51Z</time>
      </trkpt>
      <trkpt lat="62.63551465452" lon="18.003321574606">
        <ele>54.8</ele>
        <time>2018-02-11T14:17:52Z</time>
      </trkpt>
      <trkpt lat="62.635496884892" lon="18.003405561244">
        <ele>54.8</ele>
        <time>2018-02-11T14:17:53Z</time>
      </trkpt>
      <trkpt lat="62.635487161888" lon="18.003496840135">
        <ele>55</ele>
        <time>2018-02-11T14:17:54Z</time>
      </trkpt>
      <trkpt lat="62.635466793871" lon="18.003578731298">
        <ele>54.8</ele>
        <time>2018-02-11T14:17:55Z</time>
      </trkpt>
      <trkpt lat="62.635457322324" lon="18.003683085953">
        <ele>54.4</ele>
        <time>2018-02-11T14:17:56Z</time>
      </trkpt>
      <trkpt lat="62.635437960135" lon="18.003765647668">
        <ele>54.4</ele>
        <time>2018-02-11T14:17:57Z</time>
      </trkpt>
      <trkpt lat="62.635419436136" lon="18.00384259351">
        <ele>54.2</ele>
        <time>2018-02-11T14:17:58Z</time>
      </trkpt>
      <trkpt lat="62.635404432535" lon="18.003910822176">
        <ele>54</ele>
        <time>2018-02-11T14:17:59Z</time>
      </trkpt>
      <trkpt lat="62.635386662907" lon="18.003978799385">
        <ele>53.8</ele>
        <time>2018-02-11T14:18:00Z</time>
      </trkpt>
      <trkpt lat="62.63535958937" lon="18.004064462403">
        <ele>53.8</ele>
        <time>2018-02-11T14:18:01Z</time>
      </trkpt>
      <trkpt lat="62.635340813914" lon="18.004136043829">
        <ele>53.8</ele>
        <time>2018-02-11T14:18:02Z</time>
      </trkpt>
      <trkpt lat="62.63532103263" lon="18.004207038522">
        <ele>53.8</ele>
        <time>2018-02-11T14:18:03Z</time>
      </trkpt>
      <trkpt lat="62.635299407328" lon="18.00427007041">
        <ele>53.8</ele>
        <time>2018-02-11T14:18:04Z</time>
      </trkpt>
      <trkpt lat="62.635276440922" lon="18.004330923004">
        <ele>53.8</ele>
        <time>2018-02-11T14:18:05Z</time>
      </trkpt>
      <trkpt lat="62.63524559553" lon="18.004415244918">
        <ele>53.6</ele>
        <time>2018-02-11T14:18:06Z</time>
      </trkpt>
      <trkpt lat="62.635225646608" lon="18.004473582942">
        <ele>53.8</ele>
        <time>2018-02-11T14:18:07Z</time>
      </trkpt>
      <trkpt lat="62.635194298302" lon="18.004525802179">
        <ele>53.8</ele>
        <time>2018-02-11T14:18:08Z</time>
      </trkpt>
      <trkpt lat="62.63516764386" lon="18.004575087751">
        <ele>53.8</ele>
        <time>2018-02-11T14:18:09Z</time>
      </trkpt>
      <trkpt lat="62.635143001074" lon="18.004619176545">
        <ele>53.6</ele>
        <time>2018-02-11T14:18:10Z</time>
      </trkpt>
      <trkpt lat="62.635116765727" lon="18.004664774081">
        <ele>53.6</ele>
        <time>2018-02-11T14:18:11Z</time>
      </trkpt>
      <trkpt lat="62.635094805149" lon="18.004707689409">
        <ele>53.8</ele>
        <time>2018-02-11T14:18:12Z</time>
      </trkpt>
      <trkpt lat="62.635070246182" lon="18.00475202966">
        <ele>53.6</ele>
        <time>2018-02-11T14:18:13Z</time>
      </trkpt>
      <trkpt lat="62.63504526812" lon="18.004794861169">
        <ele>53.6</ele>
        <time>2018-02-11T14:18:14Z</time>
      </trkpt>
      <trkpt lat="62.635025905931" lon="18.00482076124">
        <ele>53.8</ele>
        <time>2018-02-11T14:18:15Z</time>
      </trkpt>
      <trkpt lat="62.634998497118" lon="18.004869208622">
        <ele>53.8</ele>
        <time>2018-02-11T14:18:16Z</time>
      </trkpt>
      <trkpt lat="62.634980140757" lon="18.004911034303">
        <ele>53.6</ele>
        <time>2018-02-11T14:18:17Z</time>
      </trkpt>
      <trkpt lat="62.634953151039" lon="18.004958727314">
        <ele>53.6</ele>
        <time>2018-02-11T14:18:18Z</time>
      </trkpt>
      <trkpt lat="62.634932699203" lon="18.005009940723">
        <ele>53.6</ele>
        <time>2018-02-11T14:18:19Z</time>
      </trkpt>
      <trkpt lat="62.634915851584" lon="18.005038523002">
        <ele>53.6</ele>
        <time>2018-02-11T14:18:20Z</time>
      </trkpt>
      <trkpt lat="62.634888945685" lon="18.005088060031">
        <ele>53.6</ele>
        <time>2018-02-11T14:18:21Z</time>
      </trkpt>
      <trkpt lat="62.634868074754" lon="18.005129131341">
        <ele>53.8</ele>
        <time>2018-02-11T14:18:22Z</time>
      </trkpt>
      <trkpt lat="62.634852316782" lon="18.005166598434">
        <ele>53.6</ele>
        <time>2018-02-11T14:18:23Z</time>
      </trkpt>
      <trkpt lat="62.634827003444" lon="18.005220913146">
        <ele>53.8</ele>
        <time>2018-02-11T14:18:24Z</time>
      </trkpt>
      <trkpt lat="62.634810658739" lon="18.00525494366">
        <ele>53.8</ele>
        <time>2018-02-11T14:18:25Z</time>
      </trkpt>
      <trkpt lat="62.634778556062" lon="18.005304229232">
        <ele>53.6</ele>
        <time>2018-02-11T14:18:26Z</time>
      </trkpt>
      <trkpt lat="62.63475106343" lon="18.005337253918">
        <ele>53.8</ele>
        <time>2018-02-11T14:18:27Z</time>
      </trkpt>
      <trkpt lat="62.63473346144" lon="18.005355442641">
        <ele>53.8</ele>
        <time>2018-02-11T14:18:28Z</time>
      </trkpt>
      <trkpt lat="62.634710159758" lon="18.005373631364">
        <ele>53.8</ele>
        <time>2018-02-11T14:18:29Z</time>
      </trkpt>
      <trkpt lat="62.634687863904" lon="18.005402968014">
        <ele>54</ele>
        <time>2018-02-11T14:18:30Z</time>
      </trkpt>
      <trkpt lat="62.634664226946" lon="18.005424928592">
        <ele>54</ele>
        <time>2018-02-11T14:18:31Z</time>
      </trkpt>
      <trkpt lat="62.634639919436" lon="18.005446218618">
        <ele>54</ele>
        <time>2018-02-11T14:18:32Z</time>
      </trkpt>
      <trkpt lat="62.634619383781" lon="18.005473040698">
        <ele>54.2</ele>
        <time>2018-02-11T14:18:33Z</time>
      </trkpt>
      <trkpt lat="62.634604966913" lon="18.005498521674">
        <ele>54.4</ele>
        <time>2018-02-11T14:18:34Z</time>
      </trkpt>
      <trkpt lat="62.634588538389" lon="18.005522577727">
        <ele>54.4</ele>
        <time>2018-02-11T14:18:35Z</time>
      </trkpt>
      <trkpt lat="62.634566745449" lon="18.005556775879">
        <ele>54.6</ele>
        <time>2018-02-11T14:18:36Z</time>
      </trkpt>
      <trkpt lat="62.634551155115" lon="18.005587202176">
        <ele>54.6</ele>
        <time>2018-02-11T14:18:37Z</time>
      </trkpt>
      <trkpt lat="62.634532882573" lon="18.005622406156">
        <ele>54.6</ele>
        <time>2018-02-11T14:18:38Z</time>
      </trkpt>
      <trkpt lat="62.634514190936" lon="18.005669344796">
        <ele>54.8</ele>
        <time>2018-02-11T14:18:39Z</time>
      </trkpt>
      <trkpt lat="62.634501031353" lon="18.005694574315">
        <ele>54.8</ele>
        <time>2018-02-11T14:18:40Z</time>
      </trkpt>
      <trkpt lat="62.634475131282" lon="18.005735394168">
        <ele>55</ele>
        <time>2018-02-11T14:18:41Z</time>
      </trkpt>
      <trkpt lat="62.634457277835" lon="18.005777471306">
        <ele>55.2</ele>
        <time>2018-02-11T14:18:42Z</time>
      </trkpt>
      <trkpt lat="62.634435484895" lon="18.005824829041">
        <ele>55.2</ele>
        <time>2018-02-11T14:18:43Z</time>
      </trkpt>
      <trkpt lat="62.634414446326" lon="18.005873276423">
        <ele>55.2</ele>
        <time>2018-02-11T14:18:44Z</time>
      </trkpt>
      <trkpt lat="62.634396844336" lon="18.005906971661">
        <ele>55.2</ele>
        <time>2018-02-11T14:18:45Z</time>
      </trkpt>
      <trkpt lat="62.634369938437" lon="18.005970925558">
        <ele>55</ele>
        <time>2018-02-11T14:18:46Z</time>
      </trkpt>
      <trkpt lat="62.634353845189" lon="18.006015852542">
        <ele>55</ele>
        <time>2018-02-11T14:18:47Z</time>
      </trkpt>
      <trkpt lat="62.634328950946" lon="18.006070418711">
        <ele>55</ele>
        <time>2018-02-11T14:18:48Z</time>
      </trkpt>
      <trkpt lat="62.634306571273" lon="18.006121967396">
        <ele>55</ele>
        <time>2018-02-11T14:18:49Z</time>
      </trkpt>
      <trkpt lat="62.634289807473" lon="18.006146442544">
        <ele>55</ele>
        <time>2018-02-11T14:18:50Z</time>
      </trkpt>
      <trkpt lat="62.634258459167" lon="18.006183239085">
        <ele>55</ele>
        <time>2018-02-11T14:18:51Z</time>
      </trkpt>
      <trkpt lat="62.634240857177" lon="18.006211486088">
        <ele>55</ele>
        <time>2018-02-11T14:18:52Z</time>
      </trkpt>
      <trkpt lat="62.634222416997" lon="18.006253730864">
        <ele>55</ele>
        <time>2018-02-11T14:18:53Z</time>
      </trkpt>
      <trkpt lat="62.634204144455" lon="18.006313326173">
        <ele>55.2</ele>
        <time>2018-02-11T14:18:54Z</time>
      </trkpt>
      <trkpt lat="62.634191236329" lon="18.006350206533">
        <ele>55.2</ele>
        <time>2018-02-11T14:18:55Z</time>
      </trkpt>
      <trkpt lat="62.634170030122" lon="18.006403347779">
        <ele>55.2</ele>
        <time>2018-02-11T14:18:56Z</time>
      </trkpt>
      <trkpt lat="62.634154858883" lon="18.0064502026">
        <ele>55</ele>
        <time>2018-02-11T14:18:57Z</time>
      </trkpt>
      <trkpt lat="62.634133233581" lon="18.006492279738">
        <ele>55.2</ele>
        <time>2018-02-11T14:18:58Z</time>
      </trkpt>
      <trkpt lat="62.634115547772" lon="18.006531423211">
        <ele>55.2</ele>
        <time>2018-02-11T14:18:59Z</time>
      </trkpt>
      <trkpt lat="62.63410146618" lon="18.006567633019">
        <ele>55.2</ele>
        <time>2018-02-11T14:19:00Z</time>
      </trkpt>
      <trkpt lat="62.634076236661" lon="18.006616750953">
        <ele>55.2</ele>
        <time>2018-02-11T14:19:01Z</time>
      </trkpt>
      <trkpt lat="62.634054024626" lon="18.006660085376">
        <ele>55.2</ele>
        <time>2018-02-11T14:19:02Z</time>
      </trkpt>
      <trkpt lat="62.634039272482" lon="18.006712807527">
        <ele>55.2</ele>
        <time>2018-02-11T14:19:03Z</time>
      </trkpt>
      <trkpt lat="62.634024939433" lon="18.006772654293">
        <ele>55.2</ele>
        <time>2018-02-11T14:19:04Z</time>
      </trkpt>
      <trkpt lat="62.634011025479" lon="18.006807522997">
        <ele>55.2</ele>
        <time>2018-02-11T14:19:05Z</time>
      </trkpt>
      <trkpt lat="62.633996105697" lon="18.006854880732">
        <ele>55</ele>
        <time>2018-02-11T14:19:06Z</time>
      </trkpt>
      <trkpt lat="62.63397657587" lon="18.006911458557">
        <ele>55</ele>
        <time>2018-02-11T14:19:07Z</time>
      </trkpt>
      <trkpt lat="62.633958722423" lon="18.006969796581">
        <ele>55</ele>
        <time>2018-02-11T14:19:08Z</time>
      </trkpt>
      <trkpt lat="62.633941623347" lon="18.00702100999">
        <ele>55</ele>
        <time>2018-02-11T14:19:09Z</time>
      </trkpt>
      <trkpt lat="62.633925278642" lon="18.007062332757">
        <ele>55</ele>
        <time>2018-02-11T14:19:10Z</time>
      </trkpt>
      <trkpt lat="62.633912789611" lon="18.007116479831">
        <ele>55</ele>
        <time>2018-02-11T14:19:11Z</time>
      </trkpt>
      <trkpt lat="62.633896864001" lon="18.007168950525">
        <ele>55.2</ele>
        <time>2018-02-11T14:19:12Z</time>
      </trkpt>
      <trkpt lat="62.63387766945" lon="18.007221085943">
        <ele>55.2</ele>
        <time>2018-02-11T14:19:13Z</time>
      </trkpt>
      <trkpt lat="62.633851434103" lon="18.007270287696">
        <ele>55.2</ele>
        <time>2018-02-11T14:19:14Z</time>
      </trkpt>
      <trkpt lat="62.633830646991" lon="18.007315969051">
        <ele>55.2</ele>
        <time>2018-02-11T14:19:15Z</time>
      </trkpt>
      <trkpt lat="62.633809021689" lon="18.007366428089">
        <ele>55</ele>
        <time>2018-02-11T14:19:16Z</time>
      </trkpt>
      <trkpt lat="62.633789575681" lon="18.007383191889">
        <ele>55.2</ele>
        <time>2018-02-11T14:19:17Z</time>
      </trkpt>
      <trkpt lat="62.633760658126" lon="18.007400793879">
        <ele>55.2</ele>
        <time>2018-02-11T14:19:18Z</time>
      </trkpt>
      <trkpt lat="62.633736350616" lon="18.007407331761">
        <ele>55.2</ele>
        <time>2018-02-11T14:19:19Z</time>
      </trkpt>
      <trkpt lat="62.633708690346" lon="18.007406661209">
        <ele>55</ele>
        <time>2018-02-11T14:19:20Z</time>
      </trkpt>
      <trkpt lat="62.633681113895" lon="18.007386544649">
        <ele>55</ele>
        <time>2018-02-11T14:19:21Z</time>
      </trkpt>
      <trkpt lat="62.633656554928" lon="18.007368272107">
        <ele>55</ele>
        <time>2018-02-11T14:19:22Z</time>
      </trkpt>
      <trkpt lat="62.633636689825" lon="18.007346562986">
        <ele>55</ele>
        <time>2018-02-11T14:19:23Z</time>
      </trkpt>
      <trkpt lat="62.633615818894" lon="18.007335163602">
        <ele>55</ele>
        <time>2018-02-11T14:19:24Z</time>
      </trkpt>
      <trkpt lat="62.633597881628" lon="18.007315130861">
        <ele>55</ele>
        <time>2018-02-11T14:19:25Z</time>
      </trkpt>
      <trkpt lat="62.633577681249" lon="18.007288057324">
        <ele>55.2</ele>
        <time>2018-02-11T14:19:26Z</time>
      </trkpt>
      <trkpt lat="62.633560246897" lon="18.007275149198">
        <ele>55.4</ele>
        <time>2018-02-11T14:19:27Z</time>
      </trkpt>
      <trkpt lat="62.633542561088" lon="18.007257044294">
        <ele>55.8</ele>
        <time>2018-02-11T14:19:28Z</time>
      </trkpt>
      <trkpt lat="62.63352730603" lon="18.007236341001">
        <ele>55.8</ele>
        <time>2018-02-11T14:19:29Z</time>
      </trkpt>
      <trkpt lat="62.633510709868" lon="18.007229467843">
        <ele>56</ele>
        <time>2018-02-11T14:19:30Z</time>
      </trkpt>
      <trkpt lat="62.633486067082" lon="18.007203483953">
        <ele>56.2</ele>
        <time>2018-02-11T14:19:31Z</time>
      </trkpt>
      <trkpt lat="62.633463771228" lon="18.007177583882">
        <ele>56.6</ele>
        <time>2018-02-11T14:19:32Z</time>
      </trkpt>
      <trkpt lat="62.63344181065" lon="18.007164256661">
        <ele>56.6</ele>
        <time>2018-02-11T14:19:33Z</time>
      </trkpt>
      <trkpt lat="62.633420772081" lon="18.007133830364">
        <ele>56.6</ele>
        <time>2018-02-11T14:19:34Z</time>
      </trkpt>
      <trkpt lat="62.633407947774" lon="18.007126705749">
        <ele>56.6</ele>
        <time>2018-02-11T14:19:35Z</time>
      </trkpt>
      <trkpt lat="62.633380455142" lon="18.007096363271">
        <ele>56.8</ele>
        <time>2018-02-11T14:19:36Z</time>
      </trkpt>
      <trkpt lat="62.633362936971" lon="18.007061746024">
        <ele>56.8</ele>
        <time>2018-02-11T14:19:37Z</time>
      </trkpt>
      <trkpt lat="62.633344832067" lon="18.007038025247">
        <ele>56.8</ele>
        <time>2018-02-11T14:19:38Z</time>
      </trkpt>
      <trkpt lat="62.633323961136" lon="18.006985554553">
        <ele>57</ele>
        <time>2018-02-11T14:19:39Z</time>
      </trkpt>
      <trkpt lat="62.633315663055" lon="18.006943477415">
        <ele>56.8</ele>
        <time>2018-02-11T14:19:40Z</time>
      </trkpt>
      <trkpt lat="62.633303676938" lon="18.006898298974">
        <ele>57</ele>
        <time>2018-02-11T14:19:41Z</time>
      </trkpt>
      <trkpt lat="62.633294959762" lon="18.006847420841">
        <ele>57</ele>
        <time>2018-02-11T14:19:42Z</time>
      </trkpt>
      <trkpt lat="62.633286242586" lon="18.006806014255">
        <ele>57</ele>
        <time>2018-02-11T14:19:43Z</time>
      </trkpt>
      <trkpt lat="62.633280961989" lon="18.006762596013">
        <ele>57</ele>
        <time>2018-02-11T14:19:44Z</time>
      </trkpt>
      <trkpt lat="62.633279117971" lon="18.006718004305">
        <ele>57.2</ele>
        <time>2018-02-11T14:19:45Z</time>
      </trkpt>
      <trkpt lat="62.633272663908" lon="18.006669892199">
        <ele>57.4</ele>
        <time>2018-02-11T14:19:46Z</time>
      </trkpt>
      <trkpt lat="62.633273418279" lon="18.006623288835">
        <ele>57.6</ele>
        <time>2018-02-11T14:19:47Z</time>
      </trkpt>
      <trkpt lat="62.633271909537" lon="18.006571069598">
        <ele>57.6</ele>
        <time>2018-02-11T14:19:48Z</time>
      </trkpt>
      <trkpt lat="62.633265539293" lon="18.006533853962">
        <ele>57.6</ele>
        <time>2018-02-11T14:19:49Z</time>
      </trkpt>
      <trkpt lat="62.633263779094" lon="18.006489765168">
        <ele>57.8</ele>
        <time>2018-02-11T14:19:50Z</time>
      </trkpt>
      <trkpt lat="62.633263192361" lon="18.006441904519">
        <ele>58</ele>
        <time>2018-02-11T14:19:51Z</time>
      </trkpt>
      <trkpt lat="62.633256654479" lon="18.006397899544">
        <ele>58.2</ele>
        <time>2018-02-11T14:19:52Z</time>
      </trkpt>
      <trkpt lat="62.633254978099" lon="18.006351799094">
        <ele>58.2</ele>
        <time>2018-02-11T14:19:53Z</time>
      </trkpt>
      <trkpt lat="62.633253888452" lon="18.006293712527">
        <ele>58.4</ele>
        <time>2018-02-11T14:19:54Z</time>
      </trkpt>
      <trkpt lat="62.633247685846" lon="18.006250545742">
        <ele>58.6</ele>
        <time>2018-02-11T14:19:55Z</time>
      </trkpt>
      <trkpt lat="62.633249110769" lon="18.006195476659">
        <ele>58.8</ele>
        <time>2018-02-11T14:19:56Z</time>
      </trkpt>
      <trkpt lat="62.633247602027" lon="18.006153064245">
        <ele>58.8</ele>
        <time>2018-02-11T14:19:57Z</time>
      </trkpt>
      <trkpt lat="62.633246680018" lon="18.006123057043">
        <ele>59</ele>
        <time>2018-02-11T14:19:58Z</time>
      </trkpt>
      <trkpt lat="62.633243243439" lon="18.006084919398">
        <ele>59.2</ele>
        <time>2018-02-11T14:19:59Z</time>
      </trkpt>
      <trkpt lat="62.633244500724" lon="18.006050888884">
        <ele>59.4</ele>
        <time>2018-02-11T14:20:00Z</time>
      </trkpt>
      <trkpt lat="62.633245422733" lon="18.006006967728">
        <ele>59.4</ele>
        <time>2018-02-11T14:20:01Z</time>
      </trkpt>
      <trkpt lat="62.633240058317" lon="18.005966231694">
        <ele>59.8</ele>
        <time>2018-02-11T14:20:02Z</time>
      </trkpt>
      <trkpt lat="62.633242572887" lon="18.005923903099">
        <ele>59.8</ele>
        <time>2018-02-11T14:20:03Z</time>
      </trkpt>
      <trkpt lat="62.633243075801" lon="18.005888112386">
        <ele>60</ele>
        <time>2018-02-11T14:20:04Z</time>
      </trkpt>
      <trkpt lat="62.633241315602" lon="18.005870845672">
        <ele>60.2</ele>
        <time>2018-02-11T14:20:05Z</time>
      </trkpt>
      <trkpt lat="62.633240309774" lon="18.005850310017">
        <ele>60.6</ele>
        <time>2018-02-11T14:20:06Z</time>
      </trkpt>
      <trkpt lat="62.633234190987" lon="18.005830025819">
        <ele>60.8</ele>
        <time>2018-02-11T14:20:07Z</time>
      </trkpt>
      <trkpt lat="62.633234861539" lon="18.005815608951">
        <ele>61</ele>
        <time>2018-02-11T14:20:08Z</time>
      </trkpt>
      <trkpt lat="62.633240896507" lon="18.005806137404">
        <ele>61.2</ele>
        <time>2018-02-11T14:20:09Z</time>
      </trkpt>
      <trkpt lat="62.633243411077" lon="18.005798593694">
        <ele>61.2</ele>
        <time>2018-02-11T14:20:10Z</time>
      </trkpt>
      <trkpt lat="62.633244584543" lon="18.005782584265">
        <ele>61.4</ele>
        <time>2018-02-11T14:20:11Z</time>
      </trkpt>
      <trkpt lat="62.63324148324" lon="18.005755678366">
        <ele>61.6</ele>
        <time>2018-02-11T14:20:12Z</time>
      </trkpt>
      <trkpt lat="62.633242656706" lon="18.005738244014">
        <ele>61.8</ele>
        <time>2018-02-11T14:20:13Z</time>
      </trkpt>
      <trkpt lat="62.633242069973" lon="18.00573103558">
        <ele>62</ele>
        <time>2018-02-11T14:20:14Z</time>
      </trkpt>
      <trkpt lat="62.633242991982" lon="18.005715696703">
        <ele>62.2</ele>
        <time>2018-02-11T14:20:15Z</time>
      </trkpt>
      <trkpt lat="62.633243243439" lon="18.005689209899">
        <ele>62.4</ele>
        <time>2018-02-11T14:20:16Z</time>
      </trkpt>
      <trkpt lat="62.633241567059" lon="18.005675212126">
        <ele>62.8</ele>
        <time>2018-02-11T14:20:17Z</time>
      </trkpt>
      <trkpt lat="62.633241231783" lon="18.005661214353">
        <ele>63.2</ele>
        <time>2018-02-11T14:20:18Z</time>
      </trkpt>
      <trkpt lat="62.633239136308" lon="18.005646210752">
        <ele>63.6</ele>
        <time>2018-02-11T14:20:19Z</time>
      </trkpt>
      <trkpt lat="62.633238801032" lon="18.005634559911">
        <ele>64</ele>
        <time>2018-02-11T14:20:20Z</time>
      </trkpt>
      <trkpt lat="62.633237711385" lon="18.005614024256">
        <ele>64.2</ele>
        <time>2018-02-11T14:20:21Z</time>
      </trkpt>
      <trkpt lat="62.633242405249" lon="18.005586615443">
        <ele>64.2</ele>
        <time>2018-02-11T14:20:22Z</time>
      </trkpt>
      <trkpt lat="62.633240225955" lon="18.00555669206">
        <ele>64.6</ele>
        <time>2018-02-11T14:20:23Z</time>
      </trkpt>
      <trkpt lat="62.633236537919" lon="18.005537078414">
        <ele>64.8</ele>
        <time>2018-02-11T14:20:24Z</time>
      </trkpt>
      <trkpt lat="62.633235867367" lon="18.00552986998">
        <ele>65</ele>
        <time>2018-02-11T14:20:25Z</time>
      </trkpt>
      <trkpt lat="62.633235783548" lon="18.005500198054">
        <ele>65.2</ele>
        <time>2018-02-11T14:20:26Z</time>
      </trkpt>
      <trkpt lat="62.633234526263" lon="18.005484523901">
        <ele>65.4</ele>
        <time>2018-02-11T14:20:27Z</time>
      </trkpt>
      <trkpt lat="62.633233017521" lon="18.00546784392">
        <ele>65.6</ele>
        <time>2018-02-11T14:20:28Z</time>
      </trkpt>
      <trkpt lat="62.633231005865" lon="18.005455857803">
        <ele>65.8</ele>
        <time>2018-02-11T14:20:29Z</time>
      </trkpt>
      <trkpt lat="62.63322891039" lon="18.005447475903">
        <ele>66</ele>
        <time>2018-02-11T14:20:30Z</time>
      </trkpt>
      <trkpt lat="62.633230502951" lon="18.005431634112">
        <ele>66.2</ele>
        <time>2018-02-11T14:20:31Z</time>
      </trkpt>
      <trkpt lat="62.633229497123" lon="18.005403890023">
        <ele>66.4</ele>
        <time>2018-02-11T14:20:32Z</time>
      </trkpt>
      <trkpt lat="62.63322974858" lon="18.005384946929">
        <ele>66.6</ele>
        <time>2018-02-11T14:20:33Z</time>
      </trkpt>
      <trkpt lat="62.633225725268" lon="18.005364327455">
        <ele>66.6</ele>
        <time>2018-02-11T14:20:34Z</time>
      </trkpt>
      <trkpt lat="62.633225473811" lon="18.005353430985">
        <ele>66.8</ele>
        <time>2018-02-11T14:20:35Z</time>
      </trkpt>
      <trkpt lat="62.633221869594" lon="18.005327195638">
        <ele>67</ele>
        <time>2018-02-11T14:20:36Z</time>
      </trkpt>
      <trkpt lat="62.633223294517" lon="18.005305905612">
        <ele>67</ele>
        <time>2018-02-11T14:20:37Z</time>
      </trkpt>
      <trkpt lat="62.633228323657" lon="18.005278329161">
        <ele>67.2</ele>
        <time>2018-02-11T14:20:38Z</time>
      </trkpt>
      <trkpt lat="62.633225892906" lon="18.005259469886">
        <ele>67.4</ele>
        <time>2018-02-11T14:20:39Z</time>
      </trkpt>
      <trkpt lat="62.633225809087" lon="18.005245975027">
        <ele>67.6</ele>
        <time>2018-02-11T14:20:40Z</time>
      </trkpt>
      <trkpt lat="62.633228994209" lon="18.005231977254">
        <ele>67.8</ele>
        <time>2018-02-11T14:20:41Z</time>
      </trkpt>
      <trkpt lat="62.633228407476" lon="18.005211860694">
        <ele>68.2</ele>
        <time>2018-02-11T14:20:42Z</time>
      </trkpt>
      <trkpt lat="62.633224970897" lon="18.00518621208">
        <ele>68.4</ele>
        <time>2018-02-11T14:20:43Z</time>
      </trkpt>
      <trkpt lat="62.633216756635" lon="18.00516274276">
        <ele>68.8</ele>
        <time>2018-02-11T14:20:44Z</time>
      </trkpt>
      <trkpt lat="62.633216505178" lon="18.005143632028">
        <ele>69</ele>
        <time>2018-02-11T14:20:45Z</time>
      </trkpt>
      <trkpt lat="62.633213990608" lon="18.005119659794">
        <ele>69.2</ele>
        <time>2018-02-11T14:20:46Z</time>
      </trkpt>
      <trkpt lat="62.633212817142" lon="18.005109852971">
        <ele>69.4</ele>
        <time>2018-02-11T14:20:47Z</time>
      </trkpt>
      <trkpt lat="62.633214744979" lon="18.005095855198">
        <ele>69.6</ele>
        <time>2018-02-11T14:20:48Z</time>
      </trkpt>
      <trkpt lat="62.633213571513" lon="18.005070709498">
        <ele>69.6</ele>
        <time>2018-02-11T14:20:49Z</time>
      </trkpt>
      <trkpt lat="62.633211727495" lon="18.005050844395">
        <ele>69.6</ele>
        <time>2018-02-11T14:20:50Z</time>
      </trkpt>
      <trkpt lat="62.633211224581" lon="18.005027542713">
        <ele>69.8</ele>
        <time>2018-02-11T14:20:51Z</time>
      </trkpt>
      <trkpt lat="62.633209967296" lon="18.005010527456">
        <ele>70.2</ele>
        <time>2018-02-11T14:20:52Z</time>
      </trkpt>
      <trkpt lat="62.63321047021" lon="18.005007426153">
        <ele>70.2</ele>
        <time>2018-02-11T14:20:53Z</time>
      </trkpt>
      <trkpt lat="62.633206446898" lon="18.004978508598">
        <ele>70.4</ele>
        <time>2018-02-11T14:20:54Z</time>
      </trkpt>
      <trkpt lat="62.633200914844" lon="18.004959397866">
        <ele>70.6</ele>
        <time>2018-02-11T14:20:55Z</time>
      </trkpt>
      <trkpt lat="62.633192281487" lon="18.004934587442">
        <ele>70.8</ele>
        <time>2018-02-11T14:20:56Z</time>
      </trkpt>
      <trkpt lat="62.633182726121" lon="18.004920841126">
        <ele>71</ele>
        <time>2018-02-11T14:20:57Z</time>
      </trkpt>
      <trkpt lat="62.633178451352" lon="18.004904664059">
        <ele>71</ele>
        <time>2018-02-11T14:20:58Z</time>
      </trkpt>
      <trkpt lat="62.633176691153" lon="18.004896449797">
        <ele>71.2</ele>
        <time>2018-02-11T14:20:59Z</time>
      </trkpt>
      <trkpt lat="62.633169817995" lon="18.004877925798">
        <ele>71.4</ele>
        <time>2018-02-11T14:21:00Z</time>
      </trkpt>
      <trkpt lat="62.633161436095" lon="18.004862922197">
        <ele>71.8</ele>
        <time>2018-02-11T14:21:01Z</time>
      </trkpt>
      <trkpt lat="62.633154814394" lon="18.004848840605">
        <ele>72</ele>
        <time>2018-02-11T14:21:02Z</time>
      </trkpt>
      <trkpt lat="62.633149198521" lon="18.004837357402">
        <ele>72.4</ele>
        <time>2018-02-11T14:21:03Z</time>
      </trkpt>
      <trkpt lat="62.633139810793" lon="18.00482998133">
        <ele>72.6</ele>
        <time>2018-02-11T14:21:04Z</time>
      </trkpt>
      <trkpt lat="62.633132853816" lon="18.004826293294">
        <ele>72.8</ele>
        <time>2018-02-11T14:21:05Z</time>
      </trkpt>
      <trkpt lat="62.633121873527" lon="18.004823359629">
        <ele>72.8</ele>
        <time>2018-02-11T14:21:06Z</time>
      </trkpt>
      <trkpt lat="62.633110055048" lon="18.004803494526">
        <ele>73</ele>
        <time>2018-02-11T14:21:07Z</time>
      </trkpt>
      <trkpt lat="62.633092201601" lon="18.004818079032">
        <ele>73</ele>
        <time>2018-02-11T14:21:08Z</time>
      </trkpt>
      <trkpt lat="62.63307552162" lon="18.004827131484">
        <ele>73.4</ele>
        <time>2018-02-11T14:21:09Z</time>
      </trkpt>
      <trkpt lat="62.633055321241" lon="18.004836267755">
        <ele>73.4</ele>
        <time>2018-02-11T14:21:10Z</time>
      </trkpt>
      <trkpt lat="62.633035456138" lon="18.004869962993">
        <ele>73.6</ele>
        <time>2018-02-11T14:21:11Z</time>
      </trkpt>
      <trkpt lat="62.633011316266" lon="18.004900305471">
        <ele>73.8</ele>
        <time>2018-02-11T14:21:12Z</time>
      </trkpt>
      <trkpt lat="62.632992959905" lon="18.004929306845">
        <ele>74</ele>
        <time>2018-02-11T14:21:13Z</time>
      </trkpt>
      <trkpt lat="62.63297745339" lon="18.004962247712">
        <ele>74.4</ele>
        <time>2018-02-11T14:21:14Z</time>
      </trkpt>
      <trkpt lat="62.632966724558" lon="18.004993763656">
        <ele>74.4</ele>
        <time>2018-02-11T14:21:15Z</time>
      </trkpt>
      <trkpt lat="62.632947110912" lon="18.005031398387">
        <ele>74.8</ele>
        <time>2018-02-11T14:21:16Z</time>
      </trkpt>
      <trkpt lat="62.632928922189" lon="18.005070960955">
        <ele>75</ele>
        <time>2018-02-11T14:21:17Z</time>
      </trkpt>
      <trkpt lat="62.63291542733" lon="18.005125946219">
        <ele>75</ele>
        <time>2018-02-11T14:21:18Z</time>
      </trkpt>
      <trkpt lat="62.632892963838" lon="18.005173220135">
        <ele>75.2</ele>
        <time>2018-02-11T14:21:19Z</time>
      </trkpt>
      <trkpt lat="62.63286848869" lon="18.005210771047">
        <ele>75.2</ele>
        <time>2018-02-11T14:21:20Z</time>
      </trkpt>
      <trkpt lat="62.632840493144" lon="18.005253770194">
        <ele>75.2</ele>
        <time>2018-02-11T14:21:21Z</time>
      </trkpt>
      <trkpt lat="62.632814593073" lon="18.005292410753">
        <ele>75.2</ele>
        <time>2018-02-11T14:21:22Z</time>
      </trkpt>
      <trkpt lat="62.632789866468" lon="18.005316299168">
        <ele>75</ele>
        <time>2018-02-11T14:21:23Z</time>
      </trkpt>
      <trkpt lat="62.632756841782" lon="18.005340019945">
        <ele>75</ele>
        <time>2018-02-11T14:21:24Z</time>
      </trkpt>
      <trkpt lat="62.632745358579" lon="18.005344713809">
        <ele>75</ele>
        <time>2018-02-11T14:21:25Z</time>
      </trkpt>
      <trkpt lat="62.632727588951" lon="18.005343456524">
        <ele>74.8</ele>
        <time>2018-02-11T14:21:26Z</time>
      </trkpt>
      <trkpt lat="62.632716021929" lon="18.005356951383">
        <ele>75</ele>
        <time>2018-02-11T14:21:27Z</time>
      </trkpt>
      <trkpt lat="62.632696408283" lon="18.005366506749">
        <ele>75.2</ele>
        <time>2018-02-11T14:21:28Z</time>
      </trkpt>
      <trkpt lat="62.632679141569" lon="18.005363489265">
        <ele>75.2</ele>
        <time>2018-02-11T14:21:29Z</time>
      </trkpt>
      <trkpt lat="62.63265726481" lon="18.005361226152">
        <ele>75.4</ele>
        <time>2018-02-11T14:21:30Z</time>
      </trkpt>
      <trkpt lat="62.632635639508" lon="18.005368686043">
        <ele>75.6</ele>
        <time>2018-02-11T14:21:31Z</time>
      </trkpt>
      <trkpt lat="62.632613259835" lon="18.005358208668">
        <ele>75.8</ele>
        <time>2018-02-11T14:21:32Z</time>
      </trkpt>
      <trkpt lat="62.632592472723" lon="18.005359549772">
        <ele>75.8</ele>
        <time>2018-02-11T14:21:33Z</time>
      </trkpt>
      <trkpt lat="62.632569590136" lon="18.005362651075">
        <ele>76.2</ele>
        <time>2018-02-11T14:21:34Z</time>
      </trkpt>
      <trkpt lat="62.63255249106" lon="18.005357705754">
        <ele>76.2</ele>
        <time>2018-02-11T14:21:35Z</time>
      </trkpt>
      <trkpt lat="62.632525920437" lon="18.005356783745">
        <ele>76.4</ele>
        <time>2018-02-11T14:21:36Z</time>
      </trkpt>
      <trkpt lat="62.632496919063" lon="18.00534714456">
        <ele>76.6</ele>
        <time>2018-02-11T14:21:37Z</time>
      </trkpt>
      <trkpt lat="62.632479149435" lon="18.005343624162">
        <ele>76.4</ele>
        <time>2018-02-11T14:21:38Z</time>
      </trkpt>
      <trkpt lat="62.632458949056" lon="18.005339852307">
        <ele>76.4</ele>
        <time>2018-02-11T14:21:39Z</time>
      </trkpt>
      <trkpt lat="62.632439586867" lon="18.005364075998">
        <ele>76.4</ele>
        <time>2018-02-11T14:21:40Z</time>
      </trkpt>
      <trkpt lat="62.632414944081" lon="18.00537145207">
        <ele>76.4</ele>
        <time>2018-02-11T14:21:41Z</time>
      </trkpt>
      <trkpt lat="62.632393570236" lon="18.005394753752">
        <ele>76.4</ele>
        <time>2018-02-11T14:21:42Z</time>
      </trkpt>
      <trkpt lat="62.632369095088" lon="18.0053940832">
        <ele>76.4</ele>
        <time>2018-02-11T14:21:43Z</time>
      </trkpt>
      <trkpt lat="62.632353672392" lon="18.005411852828">
        <ele>76.6</ele>
        <time>2018-02-11T14:21:44Z</time>
      </trkpt>
      <trkpt lat="62.632334310203" lon="18.005407745697">
        <ele>76.8</ele>
        <time>2018-02-11T14:21:45Z</time>
      </trkpt>
      <trkpt lat="62.632313020177" lon="18.005420821461">
        <ele>76.8</ele>
        <time>2018-02-11T14:21:46Z</time>
      </trkpt>
      <trkpt lat="62.632294831454" lon="18.005429454818">
        <ele>77</ele>
        <time>2018-02-11T14:21:47Z</time>
      </trkpt>
      <trkpt lat="62.632271026858" lon="18.005439848374">
        <ele>77.2</ele>
        <time>2018-02-11T14:21:48Z</time>
      </trkpt>
      <trkpt lat="62.632250323565" lon="18.005457282726">
        <ele>77.2</ele>
        <time>2018-02-11T14:21:49Z</time>
      </trkpt>
      <trkpt lat="62.632228362987" lon="18.005457953278">
        <ele>77.2</ele>
        <time>2018-02-11T14:21:50Z</time>
      </trkpt>
      <trkpt lat="62.632204726029" lon="18.005468263015">
        <ele>77.2</ele>
        <time>2018-02-11T14:21:51Z</time>
      </trkpt>
      <trkpt lat="62.632185028564" lon="18.005478237476">
        <ele>77.2</ele>
        <time>2018-02-11T14:21:52Z</time>
      </trkpt>
      <trkpt lat="62.632163403262" lon="18.005479997675">
        <ele>77.2</ele>
        <time>2018-02-11T14:21:53Z</time>
      </trkpt>
      <trkpt lat="62.632140017761" lon="18.005506903574">
        <ele>77.4</ele>
        <time>2018-02-11T14:21:54Z</time>
      </trkpt>
      <trkpt lat="62.632115039699" lon="18.005509166687">
        <ele>77.6</ele>
        <time>2018-02-11T14:21:55Z</time>
      </trkpt>
      <trkpt lat="62.632085786868" lon="18.005518302958">
        <ele>77.8</ele>
        <time>2018-02-11T14:21:56Z</time>
      </trkpt>
      <trkpt lat="62.632065335032" lon="18.005533725654">
        <ele>77.8</ele>
        <time>2018-02-11T14:21:57Z</time>
      </trkpt>
      <trkpt lat="62.632036836572" lon="18.005533306559">
        <ele>78</ele>
        <time>2018-02-11T14:21:58Z</time>
      </trkpt>
      <trkpt lat="62.632014959813" lon="18.005549651264">
        <ele>78</ele>
        <time>2018-02-11T14:21:59Z</time>
      </trkpt>
      <trkpt lat="62.631987634819" lon="18.005545544133">
        <ele>78</ele>
        <time>2018-02-11T14:22:00Z</time>
      </trkpt>
      <trkpt lat="62.631963494947" lon="18.005558955173">
        <ele>77.8</ele>
        <time>2018-02-11T14:22:01Z</time>
      </trkpt>
      <trkpt lat="62.631936253772" lon="18.005548980712">
        <ele>77.8</ele>
        <time>2018-02-11T14:22:02Z</time>
      </trkpt>
      <trkpt lat="62.631914879927" lon="18.005547807246">
        <ele>77.8</ele>
        <time>2018-02-11T14:22:03Z</time>
      </trkpt>
      <trkpt lat="62.631891745883" lon="18.005541856097">
        <ele>77.6</ele>
        <time>2018-02-11T14:22:04Z</time>
      </trkpt>
      <trkpt lat="62.631868444201" lon="18.005526684858">
        <ele>77.6</ele>
        <time>2018-02-11T14:22:05Z</time>
      </trkpt>
      <trkpt lat="62.631844555786" lon="18.005524673202">
        <ele>77.8</ele>
        <time>2018-02-11T14:22:06Z</time>
      </trkpt>
      <trkpt lat="62.631819661543" lon="18.005505813927">
        <ele>78</ele>
        <time>2018-02-11T14:22:07Z</time>
      </trkpt>
      <trkpt lat="62.631800131716" lon="18.005483350435">
        <ele>77.8</ele>
        <time>2018-02-11T14:22:08Z</time>
      </trkpt>
      <trkpt lat="62.631780853346" lon="18.005466921911">
        <ele>78.2</ele>
        <time>2018-02-11T14:22:09Z</time>
      </trkpt>
      <trkpt lat="62.631759982415" lon="18.005434819234">
        <ele>78.2</ele>
        <time>2018-02-11T14:22:10Z</time>
      </trkpt>
      <trkpt lat="62.631735004353" lon="18.005395508123">
        <ele>78.2</ele>
        <time>2018-02-11T14:22:11Z</time>
      </trkpt>
      <trkpt lat="62.631713043775" lon="18.00536307017">
        <ele>78.2</ele>
        <time>2018-02-11T14:22:12Z</time>
      </trkpt>
      <trkpt lat="62.631690496464" lon="18.005311270028">
        <ele>78.2</ele>
        <time>2018-02-11T14:22:13Z</time>
      </trkpt>
      <trkpt lat="62.631666356592" lon="18.005286627242">
        <ele>78.2</ele>
        <time>2018-02-11T14:22:14Z</time>
      </trkpt>
      <trkpt lat="62.631652526457" lon="18.005244633923">
        <ele>78.2</ele>
        <time>2018-02-11T14:22:15Z</time>
      </trkpt>
      <trkpt lat="62.631632661354" lon="18.005190905944">
        <ele>78.2</ele>
        <time>2018-02-11T14:22:16Z</time>
      </trkpt>
      <trkpt lat="62.631617238658" lon="18.005143212933">
        <ele>78.2</ele>
        <time>2018-02-11T14:22:17Z</time>
      </trkpt>
      <trkpt lat="62.631604581989" lon="18.005079091398">
        <ele>78.4</ele>
        <time>2018-02-11T14:22:18Z</time>
      </trkpt>
      <trkpt lat="62.631581364126" lon="18.005028548541">
        <ele>78.4</ele>
        <time>2018-02-11T14:22:19Z</time>
      </trkpt>
      <trkpt lat="62.631568456" lon="18.005004911583">
        <ele>78.6</ele>
        <time>2018-02-11T14:22:20Z</time>
      </trkpt>
      <trkpt lat="62.631550183458" lon="18.004960655151">
        <ele>78.6</ele>
        <time>2018-02-11T14:22:21Z</time>
      </trkpt>
      <trkpt lat="62.631528139061" lon="18.004936766736">
        <ele>79</ele>
        <time>2018-02-11T14:22:22Z</time>
      </trkpt>
      <trkpt lat="62.631514560383" lon="18.004922014592">
        <ele>79.2</ele>
        <time>2018-02-11T14:22:23Z</time>
      </trkpt>
      <trkpt lat="62.631493773271" lon="18.004887564983">
        <ele>79.2</ele>
        <time>2018-02-11T14:22:24Z</time>
      </trkpt>
      <trkpt lat="62.631470303951" lon="18.004875997961">
        <ele>79.4</ele>
        <time>2018-02-11T14:22:25Z</time>
      </trkpt>
      <trkpt lat="62.631452450504" lon="18.004835345746">
        <ele>79.4</ele>
        <time>2018-02-11T14:22:26Z</time>
      </trkpt>
      <trkpt lat="62.631436357256" lon="18.004806679648">
        <ele>79.6</ele>
        <time>2018-02-11T14:22:27Z</time>
      </trkpt>
      <trkpt lat="62.631411882108" lon="18.004795112626">
        <ele>79.6</ele>
        <time>2018-02-11T14:22:28Z</time>
      </trkpt>
      <trkpt lat="62.631392184643" lon="18.004769044917">
        <ele>79.8</ele>
        <time>2018-02-11T14:22:29Z</time>
      </trkpt>
      <trkpt lat="62.631370056427" lon="18.004748509262">
        <ele>80.2</ele>
        <time>2018-02-11T14:22:30Z</time>
      </trkpt>
      <trkpt lat="62.631347676754" lon="18.004727973607">
        <ele>80.2</ele>
        <time>2018-02-11T14:22:31Z</time>
      </trkpt>
      <trkpt lat="62.631322950149" lon="18.004702157355">
        <ele>80.4</ele>
        <time>2018-02-11T14:22:32Z</time>
      </trkpt>
      <trkpt lat="62.631299983743" lon="18.004703833735">
        <ele>80.4</ele>
        <time>2018-02-11T14:22:33Z</time>
      </trkpt>
      <trkpt lat="62.631275592414" lon="18.004684471546">
        <ele>80.6</ele>
        <time>2018-02-11T14:22:34Z</time>
      </trkpt>
      <trkpt lat="62.63125497294" lon="18.004662762425">
        <ele>80.4</ele>
        <time>2018-02-11T14:22:35Z</time>
      </trkpt>
      <trkpt lat="62.63123066543" lon="18.004654967258">
        <ele>80.6</ele>
        <time>2018-02-11T14:22:36Z</time>
      </trkpt>
      <trkpt lat="62.631208704852" lon="18.00462462478">
        <ele>80.6</ele>
        <time>2018-02-11T14:22:37Z</time>
      </trkpt>
      <trkpt lat="62.631184481161" lon="18.00462211021">
        <ele>80.8</ele>
        <time>2018-02-11T14:22:38Z</time>
      </trkpt>
      <trkpt lat="62.631165873343" lon="18.004600736365">
        <ele>81</ele>
        <time>2018-02-11T14:22:39Z</time>
      </trkpt>
      <trkpt lat="62.631145672964" lon="18.004584559298">
        <ele>81</ele>
        <time>2018-02-11T14:22:40Z</time>
      </trkpt>
      <trkpt lat="62.631130501725" lon="18.004573579009">
        <ele>81</ele>
        <time>2018-02-11T14:22:41Z</time>
      </trkpt>
      <trkpt lat="62.631110133708" lon="18.004547008386">
        <ele>81</ele>
        <time>2018-02-11T14:22:42Z</time>
      </trkpt>
      <trkpt lat="62.631094794831" lon="18.004540554323">
        <ele>81.2</ele>
        <time>2018-02-11T14:22:43Z</time>
      </trkpt>
      <trkpt lat="62.631072834253" lon="18.004521443591">
        <ele>81.2</ele>
        <time>2018-02-11T14:22:44Z</time>
      </trkpt>
      <trkpt lat="62.631055902815" lon="18.004494872968">
        <ele>81.4</ele>
        <time>2018-02-11T14:22:45Z</time>
      </trkpt>
      <trkpt lat="62.631033104047" lon="18.004480204643">
        <ele>81.4</ele>
        <time>2018-02-11T14:22:46Z</time>
      </trkpt>
      <trkpt lat="62.631017848989" lon="18.004455226581">
        <ele>81.6</ele>
        <time>2018-02-11T14:22:47Z</time>
      </trkpt>
      <trkpt lat="62.630995469316" lon="18.004439217152">
        <ele>82</ele>
        <time>2018-02-11T14:22:48Z</time>
      </trkpt>
      <trkpt lat="62.630975771851" lon="18.004408455579">
        <ele>82.2</ele>
        <time>2018-02-11T14:22:49Z</time>
      </trkpt>
      <trkpt lat="62.630956074386" lon="18.0043882552">
        <ele>82.4</ele>
        <time>2018-02-11T14:22:50Z</time>
      </trkpt>
      <trkpt lat="62.630936796016" lon="18.004363277138">
        <ele>82.4</ele>
        <time>2018-02-11T14:22:51Z</time>
      </trkpt>
      <trkpt lat="62.630915925085" lon="18.004330755366">
        <ele>82.6</ele>
        <time>2018-02-11T14:22:52Z</time>
      </trkpt>
      <trkpt lat="62.630897820181" lon="18.004317595783">
        <ele>82.8</ele>
        <time>2018-02-11T14:22:53Z</time>
      </trkpt>
      <trkpt lat="62.630882397485" lon="18.00426671765">
        <ele>82.6</ele>
        <time>2018-02-11T14:22:54Z</time>
      </trkpt>
      <trkpt lat="62.630863454391" lon="18.004238973561">
        <ele>82.8</ele>
        <time>2018-02-11T14:22:55Z</time>
      </trkpt>
      <trkpt lat="62.630851552093" lon="18.004196980242">
        <ele>82.8</ele>
        <time>2018-02-11T14:22:56Z</time>
      </trkpt>
      <trkpt lat="62.630844427478" lon="18.00416613485">
        <ele>82.8</ele>
        <time>2018-02-11T14:22:57Z</time>
      </trkpt>
      <trkpt lat="62.630835794121" lon="18.004144677186">
        <ele>83</ele>
        <time>2018-02-11T14:22:58Z</time>
      </trkpt>
      <trkpt lat="62.630825903479" lon="18.004118944753">
        <ele>83</ele>
        <time>2018-02-11T14:22:59Z</time>
      </trkpt>
      <trkpt lat="62.630813330629" lon="18.004073431036">
        <ele>83.2</ele>
        <time>2018-02-11T14:23:00Z</time>
      </trkpt>
      <trkpt lat="62.630799668132" lon="18.004028001138">
        <ele>83.4</ele>
        <time>2018-02-11T14:23:01Z</time>
      </trkpt>
      <trkpt lat="62.630794890449" lon="18.004000424687">
        <ele>83.4</ele>
        <time>2018-02-11T14:23:02Z</time>
      </trkpt>
      <trkpt lat="62.630790783318" lon="18.003963628146">
        <ele>83.6</ele>
        <time>2018-02-11T14:23:03Z</time>
      </trkpt>
      <trkpt lat="62.630790196585" lon="18.00392641251">
        <ele>83.6</ele>
        <time>2018-02-11T14:23:04Z</time>
      </trkpt>
      <trkpt lat="62.630787430558" lon="18.003884419191">
        <ele>83.6</ele>
        <time>2018-02-11T14:23:05Z</time>
      </trkpt>
      <trkpt lat="62.630780808857" lon="18.003823650416">
        <ele>83.8</ele>
        <time>2018-02-11T14:23:06Z</time>
      </trkpt>
      <trkpt lat="62.630774773889" lon="18.003758439234">
        <ele>84</ele>
        <time>2018-02-11T14:23:07Z</time>
      </trkpt>
      <trkpt lat="62.630775109165" lon="18.003707728739">
        <ele>84.2</ele>
        <time>2018-02-11T14:23:08Z</time>
      </trkpt>
      <trkpt lat="62.630777875192" lon="18.003653749303">
        <ele>84.4</ele>
        <time>2018-02-11T14:23:09Z</time>
      </trkpt>
      <trkpt lat="62.630766559627" lon="18.003615695477">
        <ele>84.4</ele>
        <time>2018-02-11T14:23:10Z</time>
      </trkpt>
      <trkpt lat="62.63076798455" lon="18.003560374937">
        <ele>84.4</ele>
        <time>2018-02-11T14:23:11Z</time>
      </trkpt>
      <trkpt lat="62.630770918215" lon="18.003507736605">
        <ele>84.6</ele>
        <time>2018-02-11T14:23:12Z</time>
      </trkpt>
      <trkpt lat="62.630766559627" lon="18.003457696662">
        <ele>84.6</ele>
        <time>2018-02-11T14:23:13Z</time>
      </trkpt>
      <trkpt lat="62.63076630817" lon="18.003409500737">
        <ele>84.8</ele>
        <time>2018-02-11T14:23:14Z</time>
      </trkpt>
      <trkpt lat="62.630768068369" lon="18.003368513246">
        <ele>84.8</ele>
        <time>2018-02-11T14:23:15Z</time>
      </trkpt>
      <trkpt lat="62.630772259319" lon="18.003318054208">
        <ele>85</ele>
        <time>2018-02-11T14:23:16Z</time>
      </trkpt>
      <trkpt lat="62.630774270975" lon="18.003288466101">
        <ele>85</ele>
        <time>2018-02-11T14:23:17Z</time>
      </trkpt>
      <trkpt lat="62.63077133731" lon="18.003230211896">
        <ele>85</ele>
        <time>2018-02-11T14:23:18Z</time>
      </trkpt>
      <trkpt lat="62.630769912387" lon="18.003175142813">
        <ele>85.2</ele>
        <time>2018-02-11T14:23:19Z</time>
      </trkpt>
      <trkpt lat="62.630763039229" lon="18.0031309702">
        <ele>85.2</ele>
        <time>2018-02-11T14:23:20Z</time>
      </trkpt>
      <trkpt lat="62.63076798455" lon="18.003079505334">
        <ele>85.4</ele>
        <time>2018-02-11T14:23:21Z</time>
      </trkpt>
      <trkpt lat="62.630771840224" lon="18.003034745988">
        <ele>85.4</ele>
        <time>2018-02-11T14:23:22Z</time>
      </trkpt>
      <trkpt lat="62.630758932098" lon="18.002992501212">
        <ele>85.6</ele>
        <time>2018-02-11T14:23:23Z</time>
      </trkpt>
      <trkpt lat="62.630758093908" lon="18.002936929215">
        <ele>85.6</ele>
        <time>2018-02-11T14:23:24Z</time>
      </trkpt>
      <trkpt lat="62.630754489691" lon="18.002897366647">
        <ele>85.6</ele>
        <time>2018-02-11T14:23:25Z</time>
      </trkpt>
      <trkpt lat="62.630743090307" lon="18.002854618957">
        <ele>85.8</ele>
        <time>2018-02-11T14:23:26Z</time>
      </trkpt>
      <trkpt lat="62.630741916841" lon="18.002803824643">
        <ele>86</ele>
        <time>2018-02-11T14:23:27Z</time>
      </trkpt>
      <trkpt lat="62.630726410326" lon="18.002762837152">
        <ele>86.2</ele>
        <time>2018-02-11T14:23:28Z</time>
      </trkpt>
      <trkpt lat="62.630720710634" lon="18.002722687851">
        <ele>86.4</ele>
        <time>2018-02-11T14:23:29Z</time>
      </trkpt>
      <trkpt lat="62.630717944607" lon="18.0026699657">
        <ele>86.6</ele>
        <time>2018-02-11T14:23:30Z</time>
      </trkpt>
      <trkpt lat="62.630711909639" lon="18.002612801142">
        <ele>86.6</ele>
        <time>2018-02-11T14:23:31Z</time>
      </trkpt>
      <trkpt lat="62.630708975974" lon="18.002557480602">
        <ele>86.8</ele>
        <time>2018-02-11T14:23:32Z</time>
      </trkpt>
      <trkpt lat="62.63070763487" lon="18.002508865582">
        <ele>86.6</ele>
        <time>2018-02-11T14:23:33Z</time>
      </trkpt>
      <trkpt lat="62.630696151667" lon="18.002457568354">
        <ele>86.8</ele>
        <time>2018-02-11T14:23:34Z</time>
      </trkpt>
      <trkpt lat="62.630695481115" lon="18.002411970818">
        <ele>86.8</ele>
        <time>2018-02-11T14:23:35Z</time>
      </trkpt>
      <trkpt lat="62.630690116699" lon="18.002349860939">
        <ele>86.8</ele>
        <time>2018-02-11T14:23:36Z</time>
      </trkpt>
      <trkpt lat="62.630685758111" lon="18.002305772145">
        <ele>87</ele>
        <time>2018-02-11T14:23:37Z</time>
      </trkpt>
      <trkpt lat="62.630690284337" lon="18.00225506165">
        <ele>87.2</ele>
        <time>2018-02-11T14:23:38Z</time>
      </trkpt>
      <trkpt lat="62.630682908265" lon="18.002223042792">
        <ele>87.4</ele>
        <time>2018-02-11T14:23:39Z</time>
      </trkpt>
      <trkpt lat="62.630683494998" lon="18.002172164659">
        <ele>87.6</ele>
        <time>2018-02-11T14:23:40Z</time>
      </trkpt>
      <trkpt lat="62.630675280736" lon="18.002139978163">
        <ele>87.8</ele>
        <time>2018-02-11T14:23:41Z</time>
      </trkpt>
      <trkpt lat="62.630676873297" lon="18.002074096429">
        <ele>87.8</ele>
        <time>2018-02-11T14:23:42Z</time>
      </trkpt>
      <trkpt lat="62.630674023451" lon="18.002025900504">
        <ele>87.8</ele>
        <time>2018-02-11T14:23:43Z</time>
      </trkpt>
      <trkpt lat="62.630677208573" lon="18.001981560253">
        <ele>87.8</ele>
        <time>2018-02-11T14:23:44Z</time>
      </trkpt>
      <trkpt lat="62.630673855813" lon="18.001930346844">
        <ele>88</ele>
        <time>2018-02-11T14:23:45Z</time>
      </trkpt>
      <trkpt lat="62.630668575216" lon="18.001865470938">
        <ele>87.8</ele>
        <time>2018-02-11T14:23:46Z</time>
      </trkpt>
      <trkpt lat="62.630665138637" lon="18.001822890886">
        <ele>88</ele>
        <time>2018-02-11T14:23:47Z</time>
      </trkpt>
      <trkpt lat="62.630663797533" lon="18.001775365513">
        <ele>87.8</ele>
        <time>2018-02-11T14:23:48Z</time>
      </trkpt>
      <trkpt lat="62.630652481968" lon="18.001724655018">
        <ele>87.8</ele>
        <time>2018-02-11T14:23:49Z</time>
      </trkpt>
      <trkpt lat="62.630648542475" lon="18.001668747745">
        <ele>87.8</ele>
        <time>2018-02-11T14:23:50Z</time>
      </trkpt>
      <trkpt lat="62.630642423688" lon="18.001608565703">
        <ele>87.8</ele>
        <time>2018-02-11T14:23:51Z</time>
      </trkpt>
      <trkpt lat="62.630639154747" lon="18.001563219624">
        <ele>87.8</ele>
        <time>2018-02-11T14:23:52Z</time>
      </trkpt>
      <trkpt lat="62.630633790331" lon="18.001496080605">
        <ele>88</ele>
        <time>2018-02-11T14:23:53Z</time>
      </trkpt>
      <trkpt lat="62.630625240793" lon="18.001447381766">
        <ele>88</ele>
        <time>2018-02-11T14:23:54Z</time>
      </trkpt>
      <trkpt lat="62.630628677372" lon="18.001392647959">
        <ele>88.2</ele>
        <time>2018-02-11T14:23:55Z</time>
      </trkpt>
      <trkpt lat="62.630625827526" lon="18.001358701264">
        <ele>88.2</ele>
        <time>2018-02-11T14:23:56Z</time>
      </trkpt>
      <trkpt lat="62.630624318784" lon="18.001304470371">
        <ele>88.4</ele>
        <time>2018-02-11T14:23:57Z</time>
      </trkpt>
      <trkpt lat="62.630621720395" lon="18.001252670229">
        <ele>88.4</ele>
        <time>2018-02-11T14:23:58Z</time>
      </trkpt>
      <trkpt lat="62.630619038187" lon="18.00122576433">
        <ele>88.4</ele>
        <time>2018-02-11T14:23:59Z</time>
      </trkpt>
      <trkpt lat="62.63061375759" lon="18.001177652224">
        <ele>88.4</ele>
        <time>2018-02-11T14:24:00Z</time>
      </trkpt>
      <trkpt lat="62.630602106749" lon="18.001137000009">
        <ele>88.6</ele>
        <time>2018-02-11T14:24:01Z</time>
      </trkpt>
      <trkpt lat="62.630599173084" lon="18.00109249212">
        <ele>88.6</ele>
        <time>2018-02-11T14:24:02Z</time>
      </trkpt>
      <trkpt lat="62.630584756216" lon="18.001044631471">
        <ele>88.8</ele>
        <time>2018-02-11T14:24:03Z</time>
      </trkpt>
      <trkpt lat="62.630576541954" lon="18.000998782478">
        <ele>88.8</ele>
        <time>2018-02-11T14:24:04Z</time>
      </trkpt>
      <trkpt lat="62.630572099547" lon="18.000954945141">
        <ele>89</ele>
        <time>2018-02-11T14:24:05Z</time>
      </trkpt>
      <trkpt lat="62.630563130914" lon="18.000897277669">
        <ele>89</ele>
        <time>2018-02-11T14:24:06Z</time>
      </trkpt>
      <trkpt lat="62.630553910824" lon="18.000857547463">
        <ele>89.2</ele>
        <time>2018-02-11T14:24:07Z</time>
      </trkpt>
      <trkpt lat="62.630550390426" lon="18.000807591339">
        <ele>89.4</ele>
        <time>2018-02-11T14:24:08Z</time>
      </trkpt>
      <trkpt lat="62.630544355458" lon="18.000761155613">
        <ele>89.4</ele>
        <time>2018-02-11T14:24:09Z</time>
      </trkpt>
      <trkpt lat="62.630536225015" lon="18.000726286909">
        <ele>89.6</ele>
        <time>2018-02-11T14:24:10Z</time>
      </trkpt>
      <trkpt lat="62.630531195875" lon="18.00067926445">
        <ele>89.6</ele>
        <time>2018-02-11T14:24:11Z</time>
      </trkpt>
      <trkpt lat="62.630521137595" lon="18.00062562029">
        <ele>89.8</ele>
        <time>2018-02-11T14:24:12Z</time>
      </trkpt>
      <trkpt lat="62.630512168962" lon="18.000578262555">
        <ele>89.6</ele>
        <time>2018-02-11T14:24:13Z</time>
      </trkpt>
      <trkpt lat="62.63050730746" lon="18.000525205128">
        <ele>89.8</ele>
        <time>2018-02-11T14:24:14Z</time>
      </trkpt>
      <trkpt lat="62.630499931388" lon="18.000475835737">
        <ele>89.6</ele>
        <time>2018-02-11T14:24:15Z</time>
      </trkpt>
      <trkpt lat="62.630486771805" lon="18.000428897097">
        <ele>89.6</ele>
        <time>2018-02-11T14:24:16Z</time>
      </trkpt>
      <trkpt lat="62.630476378249" lon="18.000372906005">
        <ele>90</ele>
        <time>2018-02-11T14:24:17Z</time>
      </trkpt>
      <trkpt lat="62.630461961381" lon="18.000321524958">
        <ele>90</ele>
        <time>2018-02-11T14:24:18Z</time>
      </trkpt>
      <trkpt lat="62.630452992748" lon="18.000264863314">
        <ele>90.2</ele>
        <time>2018-02-11T14:24:19Z</time>
      </trkpt>
      <trkpt lat="62.63044192864" lon="18.000217840855">
        <ele>90</ele>
        <time>2018-02-11T14:24:20Z</time>
      </trkpt>
      <trkpt lat="62.630430026342" lon="18.000171153672">
        <ele>90.4</ele>
        <time>2018-02-11T14:24:21Z</time>
      </trkpt>
      <trkpt lat="62.630420387157" lon="18.000111726001">
        <ele>90.4</ele>
        <time>2018-02-11T14:24:22Z</time>
      </trkpt>
      <trkpt lat="62.630408736316" lon="18.000062859524">
        <ele>90.4</ele>
        <time>2018-02-11T14:24:23Z</time>
      </trkpt>
      <trkpt lat="62.630400773511" lon="18.000004102405">
        <ele>90.6</ele>
        <time>2018-02-11T14:24:24Z</time>
      </trkpt>
      <trkpt lat="62.630393732715" lon="17.999951380254">
        <ele>90.6</ele>
        <time>2018-02-11T14:24:25Z</time>
      </trkpt>
      <trkpt lat="62.630383758254" lon="17.999911901505">
        <ele>90.6</ele>
        <time>2018-02-11T14:24:26Z</time>
      </trkpt>
      <trkpt lat="62.630372777965" lon="17.99985783825">
        <ele>90.8</ele>
        <time>2018-02-11T14:24:27Z</time>
      </trkpt>
      <trkpt lat="62.630360372753" lon="17.999812659809">
        <ele>91</ele>
        <time>2018-02-11T14:24:28Z</time>
      </trkpt>
      <trkpt lat="62.630351487939" lon="17.999776114725">
        <ele>91</ele>
        <time>2018-02-11T14:24:29Z</time>
      </trkpt>
      <trkpt lat="62.630341764935" lon="17.999718028158">
        <ele>91.2</ele>
        <time>2018-02-11T14:24:30Z</time>
      </trkpt>
      <trkpt lat="62.630323911488" lon="17.999662791437">
        <ele>91.2</ele>
        <time>2018-02-11T14:24:31Z</time>
      </trkpt>
      <trkpt lat="62.630309159344" lon="17.999625994896">
        <ele>91.4</ele>
        <time>2018-02-11T14:24:32Z</time>
      </trkpt>
      <trkpt lat="62.63029775996" lon="17.99956782451">
        <ele>91.4</ele>
        <time>2018-02-11T14:24:33Z</time>
      </trkpt>
      <trkpt lat="62.630283007816" lon="17.999510408495">
        <ele>91.4</ele>
        <time>2018-02-11T14:24:34Z</time>
      </trkpt>
      <trkpt lat="62.630271608432" lon="17.999470845927">
        <ele>91.6</ele>
        <time>2018-02-11T14:24:35Z</time>
      </trkpt>
      <trkpt lat="62.63025752684" lon="17.999395576465">
        <ele>91.8</ele>
        <time>2018-02-11T14:24:36Z</time>
      </trkpt>
      <trkpt lat="62.63024243942" lon="17.999352577318">
        <ele>92</ele>
        <time>2018-02-11T14:24:37Z</time>
      </trkpt>
      <trkpt lat="62.630238667565" lon="17.999285689756">
        <ele>92</ele>
        <time>2018-02-11T14:24:38Z</time>
      </trkpt>
      <trkpt lat="62.630224166878" lon="17.999238248202">
        <ele>92</ele>
        <time>2018-02-11T14:24:39Z</time>
      </trkpt>
      <trkpt lat="62.630222071403" lon="17.999179826359">
        <ele>92.2</ele>
        <time>2018-02-11T14:24:40Z</time>
      </trkpt>
      <trkpt lat="62.630211677847" lon="17.999118638489">
        <ele>92.2</ele>
        <time>2018-02-11T14:24:41Z</time>
      </trkpt>
      <trkpt lat="62.630200865196" lon="17.999066922166">
        <ele>92.6</ele>
        <time>2018-02-11T14:24:42Z</time>
      </trkpt>
      <trkpt lat="62.630200362282" lon="17.998999866966">
        <ele>92.6</ele>
        <time>2018-02-11T14:24:43Z</time>
      </trkpt>
      <trkpt lat="62.630185191043" lon="17.998952341593">
        <ele>92.8</ele>
        <time>2018-02-11T14:24:44Z</time>
      </trkpt>
      <trkpt lat="62.630185777776" lon="17.998889225886">
        <ele>93</ele>
        <time>2018-02-11T14:24:45Z</time>
      </trkpt>
      <trkpt lat="62.630177144419" lon="17.998827367464">
        <ele>93.2</ele>
        <time>2018-02-11T14:24:46Z</time>
      </trkpt>
      <trkpt lat="62.630173624021" lon="17.998769616173">
        <ele>93</ele>
        <time>2018-02-11T14:24:47Z</time>
      </trkpt>
      <trkpt lat="62.630166918501" lon="17.998703902077">
        <ele>93.2</ele>
        <time>2018-02-11T14:24:48Z</time>
      </trkpt>
      <trkpt lat="62.630161637904" lon="17.998647156614">
        <ele>93.2</ele>
        <time>2018-02-11T14:24:49Z</time>
      </trkpt>
      <trkpt lat="62.630159793886" lon="17.998587393667">
        <ele>93.2</ele>
        <time>2018-02-11T14:24:50Z</time>
      </trkpt>
      <trkpt lat="62.630150154701" lon="17.998542969597">
        <ele>93</ele>
        <time>2018-02-11T14:24:51Z</time>
      </trkpt>
      <trkpt lat="62.630156273488" lon="17.998474740931">
        <ele>93.2</ele>
        <time>2018-02-11T14:24:52Z</time>
      </trkpt>
      <trkpt lat="62.630158117506" lon="17.998412882509">
        <ele>93.2</ele>
        <time>2018-02-11T14:24:53Z</time>
      </trkpt>
      <trkpt lat="62.630153256004" lon="17.998355298856">
        <ele>93.2</ele>
        <time>2018-02-11T14:24:54Z</time>
      </trkpt>
      <trkpt lat="62.630162224637" lon="17.998280113213">
        <ele>93.2</ele>
        <time>2018-02-11T14:24:55Z</time>
      </trkpt>
      <trkpt lat="62.630162140818" lon="17.998219512076">
        <ele>93.2</ele>
        <time>2018-02-11T14:24:56Z</time>
      </trkpt>
      <trkpt lat="62.630165828854" lon="17.998146170451">
        <ele>93.4</ele>
        <time>2018-02-11T14:24:57Z</time>
      </trkpt>
      <trkpt lat="62.630172199098" lon="17.998078947613">
        <ele>93.4</ele>
        <time>2018-02-11T14:24:58Z</time>
      </trkpt>
      <trkpt lat="62.630171360908" lon="17.998020777227">
        <ele>93.2</ele>
        <time>2018-02-11T14:24:59Z</time>
      </trkpt>
      <trkpt lat="62.630180497179" lon="17.997962020108">
        <ele>93.2</ele>
        <time>2018-02-11T14:25:00Z</time>
      </trkpt>
      <trkpt lat="62.630188543803" lon="17.997892617976">
        <ele>93.2</ele>
        <time>2018-02-11T14:25:01Z</time>
      </trkpt>
      <trkpt lat="62.630196758065" lon="17.997840817834">
        <ele>93.4</ele>
        <time>2018-02-11T14:25:02Z</time>
      </trkpt>
      <trkpt lat="62.63020723544" lon="17.997775690471">
        <ele>93.6</ele>
        <time>2018-02-11T14:25:03Z</time>
      </trkpt>
      <trkpt lat="62.630219473014" lon="17.997708383814">
        <ele>93.8</ele>
        <time>2018-02-11T14:25:04Z</time>
      </trkpt>
      <trkpt lat="62.630235901538" lon="17.997653063274">
        <ele>93.8</ele>
        <time>2018-02-11T14:25:05Z</time>
      </trkpt>
      <trkpt lat="62.63025501227" lon="17.997580392201">
        <ele>93.8</ele>
        <time>2018-02-11T14:25:06Z</time>
      </trkpt>
      <trkpt lat="62.630276721391" lon="17.997527418593">
        <ele>94</ele>
        <time>2018-02-11T14:25:07Z</time>
      </trkpt>
      <trkpt lat="62.630297927598" lon="17.997459944298">
        <ele>94</ele>
        <time>2018-02-11T14:25:08Z</time>
      </trkpt>
      <trkpt lat="62.630306309498" lon="17.997405797224">
        <ele>94</ele>
        <time>2018-02-11T14:25:09Z</time>
      </trkpt>
      <trkpt lat="62.630324917316" lon="17.99734662101">
        <ele>94</ele>
        <time>2018-02-11T14:25:10Z</time>
      </trkpt>
      <trkpt lat="62.630342519306" lon="17.99728375676">
        <ele>94</ele>
        <time>2018-02-11T14:25:11Z</time>
      </trkpt>
      <trkpt lat="62.63035894783" lon="17.997213851714">
        <ele>94.2</ele>
        <time>2018-02-11T14:25:12Z</time>
      </trkpt>
      <trkpt lat="62.630375627811" lon="17.997150233093">
        <ele>94</ele>
        <time>2018-02-11T14:25:13Z</time>
      </trkpt>
      <trkpt lat="62.630397420751" lon="17.997089380499">
        <ele>94</ele>
        <time>2018-02-11T14:25:14Z</time>
      </trkpt>
      <trkpt lat="62.630424578107" lon="17.99702810881">
        <ele>93.8</ele>
        <time>2018-02-11T14:25:15Z</time>
      </trkpt>
      <trkpt lat="62.630450981092" lon="17.996964993103">
        <ele>93.8</ele>
        <time>2018-02-11T14:25:16Z</time>
      </trkpt>
      <trkpt lat="62.630468163987" lon="17.996915372255">
        <ele>94</ele>
        <time>2018-02-11T14:25:17Z</time>
      </trkpt>
      <trkpt lat="62.630482077941" lon="17.996871618737">
        <ele>94</ele>
        <time>2018-02-11T14:25:18Z</time>
      </trkpt>
      <trkpt lat="62.630489454013" lon="17.996815962921">
        <ele>94</ele>
        <time>2018-02-11T14:25:19Z</time>
      </trkpt>
      <trkpt lat="62.630505211985" lon="17.996757708716">
        <ele>94.2</ele>
        <time>2018-02-11T14:25:20Z</time>
      </trkpt>
      <trkpt lat="62.630530190047" lon="17.996704902746">
        <ele>94</ele>
        <time>2018-02-11T14:25:21Z</time>
      </trkpt>
      <trkpt lat="62.630548714046" lon="17.996658215563">
        <ele>94.2</ele>
        <time>2018-02-11T14:25:22Z</time>
      </trkpt>
      <trkpt lat="62.63056430438" lon="17.996617228072">
        <ele>94.2</ele>
        <time>2018-02-11T14:25:23Z</time>
      </trkpt>
      <trkpt lat="62.630579475619" lon="17.996571043803">
        <ele>94.2</ele>
        <time>2018-02-11T14:25:24Z</time>
      </trkpt>
      <trkpt lat="62.630593892487" lon="17.996522847878">
        <ele>94.2</ele>
        <time>2018-02-11T14:25:25Z</time>
      </trkpt>
      <trkpt lat="62.630607471165" lon="17.996473059392">
        <ele>94.4</ele>
        <time>2018-02-11T14:25:26Z</time>
      </trkpt>
      <trkpt lat="62.630614931056" lon="17.996428383865">
        <ele>94.4</ele>
        <time>2018-02-11T14:25:27Z</time>
      </trkpt>
      <trkpt lat="62.630628593553" lon="17.99637432061">
        <ele>94.4</ele>
        <time>2018-02-11T14:25:28Z</time>
      </trkpt>
      <trkpt lat="62.630644183887" lon="17.99631480912">
        <ele>94.6</ele>
        <time>2018-02-11T14:25:29Z</time>
      </trkpt>
      <trkpt lat="62.630659522764" lon="17.996248340653">
        <ele>94.6</ele>
        <time>2018-02-11T14:25:30Z</time>
      </trkpt>
      <trkpt lat="62.630675448374" lon="17.996179692892">
        <ele>94.8</ele>
        <time>2018-02-11T14:25:31Z</time>
      </trkpt>
      <trkpt lat="62.630692295993" lon="17.996111715683">
        <ele>94.8</ele>
        <time>2018-02-11T14:25:32Z</time>
      </trkpt>
      <trkpt lat="62.63071098763" lon="17.996061591921">
        <ele>94.8</ele>
        <time>2018-02-11T14:25:33Z</time>
      </trkpt>
      <trkpt lat="62.630728338163" lon="17.996028064321">
        <ele>94.8</ele>
        <time>2018-02-11T14:25:34Z</time>
      </trkpt>
      <trkpt lat="62.630746023972" lon="17.99599629692">
        <ele>94.6</ele>
        <time>2018-02-11T14:25:35Z</time>
      </trkpt>
      <trkpt lat="62.630774019518" lon="17.995957991637">
        <ele>94.6</ele>
        <time>2018-02-11T14:25:36Z</time>
      </trkpt>
      <trkpt lat="62.630801763607" lon="17.995929912272">
        <ele>94.4</ele>
        <time>2018-02-11T14:25:37Z</time>
      </trkpt>
      <trkpt lat="62.630832273723" lon="17.995895462663">
        <ele>94.4</ele>
        <time>2018-02-11T14:25:38Z</time>
      </trkpt>
      <trkpt lat="62.630864292581" lon="17.995857744113">
        <ele>94.4</ele>
        <time>2018-02-11T14:25:39Z</time>
      </trkpt>
      <trkpt lat="62.630888097177" lon="17.995846344729">
        <ele>94.6</ele>
        <time>2018-02-11T14:25:40Z</time>
      </trkpt>
      <trkpt lat="62.630906118262" lon="17.995827653092">
        <ele>94.4</ele>
        <time>2018-02-11T14:25:41Z</time>
      </trkpt>
      <trkpt lat="62.630926234822" lon="17.995791527103">
        <ele>94.4</ele>
        <time>2018-02-11T14:25:42Z</time>
      </trkpt>
      <trkpt lat="62.630945010278" lon="17.995766046127">
        <ele>94.4</ele>
        <time>2018-02-11T14:25:43Z</time>
      </trkpt>
      <trkpt lat="62.630963618096" lon="17.995747186852">
        <ele>94.4</ele>
        <time>2018-02-11T14:25:44Z</time>
      </trkpt>
      <trkpt lat="62.630991278366" lon="17.995701505497">
        <ele>94.4</ele>
        <time>2018-02-11T14:25:45Z</time>
      </trkpt>
      <trkpt lat="62.631014999143" lon="17.995668732268">
        <ele>94.6</ele>
        <time>2018-02-11T14:25:46Z</time>
      </trkpt>
      <trkpt lat="62.631036540626" lon="17.995637048686">
        <ele>94.4</ele>
        <time>2018-02-11T14:25:47Z</time>
      </trkpt>
      <trkpt lat="62.631061267231" lon="17.995602934353">
        <ele>94.6</ele>
        <time>2018-02-11T14:25:48Z</time>
      </trkpt>
      <trkpt lat="62.631089765691" lon="17.995573178608">
        <ele>94.6</ele>
        <time>2018-02-11T14:25:49Z</time>
      </trkpt>
      <trkpt lat="62.631116336314" lon="17.995551888582">
        <ele>94.6</ele>
        <time>2018-02-11T14:25:50Z</time>
      </trkpt>
      <trkpt lat="62.631140811462" lon="17.995524563588">
        <ele>94.6</ele>
        <time>2018-02-11T14:25:51Z</time>
      </trkpt>
      <trkpt lat="62.631164867515" lon="17.995497825327">
        <ele>94.6</ele>
        <time>2018-02-11T14:25:52Z</time>
      </trkpt>
      <trkpt lat="62.631181715134" lon="17.995480726251">
        <ele>94.6</ele>
        <time>2018-02-11T14:25:53Z</time>
      </trkpt>
      <trkpt lat="62.631208285757" lon="17.995453904171">
        <ele>94.6</ele>
        <time>2018-02-11T14:25:54Z</time>
      </trkpt>
      <trkpt lat="62.631229072869" lon="17.99541710763">
        <ele>94.6</ele>
        <time>2018-02-11T14:25:55Z</time>
      </trkpt>
      <trkpt lat="62.631254721483" lon="17.995380311089">
        <ele>94.8</ele>
        <time>2018-02-11T14:25:56Z</time>
      </trkpt>
      <trkpt lat="62.631265198858" lon="17.99533412682">
        <ele>95</ele>
        <time>2018-02-11T14:25:57Z</time>
      </trkpt>
      <trkpt lat="62.631288249083" lon="17.995292887872">
        <ele>95</ele>
        <time>2018-02-11T14:25:58Z</time>
      </trkpt>
      <trkpt lat="62.631306521625" lon="17.995248799078">
        <ele>95</ele>
        <time>2018-02-11T14:25:59Z</time>
      </trkpt>
      <trkpt lat="62.631325045624" lon="17.995204458827">
        <ele>95</ele>
        <time>2018-02-11T14:26:00Z</time>
      </trkpt>
      <trkpt lat="62.631338540483" lon="17.99514218131">
        <ele>95</ele>
        <time>2018-02-11T14:26:01Z</time>
      </trkpt>
      <trkpt lat="62.6313421447" lon="17.995092309005">
        <ele>95</ele>
        <time>2018-02-11T14:26:02Z</time>
      </trkpt>
      <trkpt lat="62.631354801369" lon="17.995045705641">
        <ele>95.2</ele>
        <time>2018-02-11T14:26:03Z</time>
      </trkpt>
      <trkpt lat="62.631371146074" lon="17.995007400358">
        <ele>95.2</ele>
        <time>2018-02-11T14:26:04Z</time>
      </trkpt>
      <trkpt lat="62.631381288173" lon="17.994982422296">
        <ele>95.4</ele>
        <time>2018-02-11T14:26:05Z</time>
      </trkpt>
      <trkpt lat="62.631396962326" lon="17.994931376525">
        <ele>95.4</ele>
        <time>2018-02-11T14:26:06Z</time>
      </trkpt>
      <trkpt lat="62.631410541004" lon="17.994895585812">
        <ele>95.4</ele>
        <time>2018-02-11T14:26:07Z</time>
      </trkpt>
      <trkpt lat="62.631425879881" lon="17.994842612204">
        <ele>95.4</ele>
        <time>2018-02-11T14:26:08Z</time>
      </trkpt>
      <trkpt lat="62.631437782179" lon="17.994775389366">
        <ele>95.4</ele>
        <time>2018-02-11T14:26:09Z</time>
      </trkpt>
      <trkpt lat="62.631446247898" lon="17.994700119904">
        <ele>95.4</ele>
        <time>2018-02-11T14:26:10Z</time>
      </trkpt>
      <trkpt lat="62.631452618142" lon="17.994626275365">
        <ele>95.4</ele>
        <time>2018-02-11T14:26:11Z</time>
      </trkpt>
      <trkpt lat="62.631461335318" lon="17.994549329523">
        <ele>95</ele>
        <time>2018-02-11T14:26:12Z</time>
      </trkpt>
      <trkpt lat="62.631456809092" lon="17.994491326775">
        <ele>95</ele>
        <time>2018-02-11T14:26:13Z</time>
      </trkpt>
      <trkpt lat="62.631458736929" lon="17.994413458924">
        <ele>94.8</ele>
        <time>2018-02-11T14:26:14Z</time>
      </trkpt>
      <trkpt lat="62.631449768296" lon="17.994350175579">
        <ele>94.8</ele>
        <time>2018-02-11T14:26:15Z</time>
      </trkpt>
      <trkpt lat="62.631440799663" lon="17.994270798986">
        <ele>94.8</ele>
        <time>2018-02-11T14:26:16Z</time>
      </trkpt>
      <trkpt lat="62.631426634252" lon="17.99419921756">
        <ele>94.8</ele>
        <time>2018-02-11T14:26:17Z</time>
      </trkpt>
      <trkpt lat="62.63142009637" lon="17.994143729382">
        <ele>94.6</ele>
        <time>2018-02-11T14:26:18Z</time>
      </trkpt>
      <trkpt lat="62.631408613167" lon="17.994065274798">
        <ele>94.6</ele>
        <time>2018-02-11T14:26:19Z</time>
      </trkpt>
      <trkpt lat="62.63140836171" lon="17.994001153263">
        <ele>94.4</ele>
        <time>2018-02-11T14:26:20Z</time>
      </trkpt>
      <trkpt lat="62.63139914162" lon="17.993937450823">
        <ele>94.4</ele>
        <time>2018-02-11T14:26:21Z</time>
      </trkpt>
      <trkpt lat="62.631392771376" lon="17.993859582972">
        <ele>94.2</ele>
        <time>2018-02-11T14:26:22Z</time>
      </trkpt>
      <trkpt lat="62.631387490779" lon="17.993801664043">
        <ele>94</ele>
        <time>2018-02-11T14:26:23Z</time>
      </trkpt>
      <trkpt lat="62.631385814399" lon="17.993741146725">
        <ele>93.8</ele>
        <time>2018-02-11T14:26:24Z</time>
      </trkpt>
      <trkpt lat="62.631375839938" lon="17.993672498964">
        <ele>93.8</ele>
        <time>2018-02-11T14:26:25Z</time>
      </trkpt>
      <trkpt lat="62.631374331196" lon="17.993599576434">
        <ele>93.8</ele>
        <time>2018-02-11T14:26:26Z</time>
      </trkpt>
      <trkpt lat="62.631376426671" lon="17.993532102139">
        <ele>94</ele>
        <time>2018-02-11T14:26:27Z</time>
      </trkpt>
      <trkpt lat="62.63137986325" lon="17.993472758287">
        <ele>94.2</ele>
        <time>2018-02-11T14:26:28Z</time>
      </trkpt>
      <trkpt lat="62.631378270689" lon="17.993406708915">
        <ele>94.2</ele>
        <time>2018-02-11T14:26:29Z</time>
      </trkpt>
      <trkpt lat="62.631384389476" lon="17.993302186622">
        <ele>94.2</ele>
        <time>2018-02-11T14:26:30Z</time>
      </trkpt>
      <trkpt lat="62.631387155503" lon="17.993204788944">
        <ele>94</ele>
        <time>2018-02-11T14:26:31Z</time>
      </trkpt>
      <trkpt lat="62.631399812172" lon="17.993133458975">
        <ele>94</ele>
        <time>2018-02-11T14:26:32Z</time>
      </trkpt>
      <trkpt lat="62.631407691158" lon="17.993066319956">
        <ele>93.8</ele>
        <time>2018-02-11T14:26:33Z</time>
      </trkpt>
      <trkpt lat="62.631409032262" lon="17.993005215905">
        <ele>93.8</ele>
        <time>2018-02-11T14:26:34Z</time>
      </trkpt>
      <trkpt lat="62.631425209329" lon="17.992937573972">
        <ele>93.6</ele>
        <time>2018-02-11T14:26:35Z</time>
      </trkpt>
      <trkpt lat="62.631426298976" lon="17.992851240402">
        <ele>93.6</ele>
        <time>2018-02-11T14:26:36Z</time>
      </trkpt>
      <trkpt lat="62.63143937474" lon="17.992797512423">
        <ele>93.4</ele>
        <time>2018-02-11T14:26:37Z</time>
      </trkpt>
      <trkpt lat="62.631455384169" lon="17.992750070869">
        <ele>93.2</ele>
        <time>2018-02-11T14:26:38Z</time>
      </trkpt>
      <trkpt lat="62.63146452044" lon="17.992704976247">
        <ele>93.2</ele>
        <time>2018-02-11T14:26:39Z</time>
      </trkpt>
      <trkpt lat="62.631473153797" lon="17.992664240213">
        <ele>93</ele>
        <time>2018-02-11T14:26:40Z</time>
      </trkpt>
      <trkpt lat="62.631483714991" lon="17.992632891907">
        <ele>93</ele>
        <time>2018-02-11T14:26:41Z</time>
      </trkpt>
      <trkpt lat="62.631502322809" lon="17.992547731803">
        <ele>93</ele>
        <time>2018-02-11T14:26:42Z</time>
      </trkpt>
      <trkpt lat="62.631520427713" lon="17.992499954973">
        <ele>93</ele>
        <time>2018-02-11T14:26:43Z</time>
      </trkpt>
      <trkpt lat="62.631542807386" lon="17.992449412116">
        <ele>93.2</ele>
        <time>2018-02-11T14:26:44Z</time>
      </trkpt>
      <trkpt lat="62.631571138208" lon="17.992417979991">
        <ele>93.4</ele>
        <time>2018-02-11T14:26:45Z</time>
      </trkpt>
      <trkpt lat="62.631603827618" lon="17.992400378001">
        <ele>93.4</ele>
        <time>2018-02-11T14:26:46Z</time>
      </trkpt>
      <trkpt lat="62.631629811508" lon="17.992372466274">
        <ele>93.2</ele>
        <time>2018-02-11T14:26:47Z</time>
      </trkpt>
      <trkpt lat="62.631663590565" lon="17.992354529008">
        <ele>93.2</ele>
        <time>2018-02-11T14:26:48Z</time>
      </trkpt>
      <trkpt lat="62.631694771233" lon="17.992344722185">
        <ele>93</ele>
        <time>2018-02-11T14:26:49Z</time>
      </trkpt>
      <trkpt lat="62.631724107883" lon="17.992333490439">
        <ele>93</ele>
        <time>2018-02-11T14:26:50Z</time>
      </trkpt>
      <trkpt lat="62.631749337402" lon="17.992325527634">
        <ele>93</ele>
        <time>2018-02-11T14:26:51Z</time>
      </trkpt>
      <trkpt lat="62.631771968532" lon="17.9923267011">
        <ele>93</ele>
        <time>2018-02-11T14:26:52Z</time>
      </trkpt>
      <trkpt lat="62.631789235246" lon="17.992306500721">
        <ele>93</ele>
        <time>2018-02-11T14:26:53Z</time>
      </trkpt>
      <trkpt lat="62.631805077037" lon="17.992292000034">
        <ele>93.2</ele>
        <time>2018-02-11T14:26:54Z</time>
      </trkpt>
      <trkpt lat="62.631821337923" lon="17.992292922043">
        <ele>93.2</ele>
        <time>2018-02-11T14:26:55Z</time>
      </trkpt>
      <trkpt lat="62.631845477795" lon="17.992275152415">
        <ele>93.4</ele>
        <time>2018-02-11T14:26:56Z</time>
      </trkpt>
      <trkpt lat="62.631863750337" lon="17.992251766914">
        <ele>93.6</ele>
        <time>2018-02-11T14:26:57Z</time>
      </trkpt>
      <trkpt lat="62.631886297648" lon="17.992243804109">
        <ele>93.6</ele>
        <time>2018-02-11T14:26:58Z</time>
      </trkpt>
      <trkpt lat="62.631911527167" lon="17.992230979802">
        <ele>94</ele>
        <time>2018-02-11T14:26:59Z</time>
      </trkpt>
      <trkpt lat="62.631931643727" lon="17.99220851631">
        <ele>94.2</ele>
        <time>2018-02-11T14:27:00Z</time>
      </trkpt>
      <trkpt lat="62.631955029228" lon="17.992200469686">
        <ele>94.4</ele>
        <time>2018-02-11T14:27:01Z</time>
      </trkpt>
      <trkpt lat="62.631972966494" lon="17.992167947914">
        <ele>94.4</ele>
        <time>2018-02-11T14:27:02Z</time>
      </trkpt>
      <trkpt lat="62.631993753606" lon="17.992160488023">
        <ele>94.6</ele>
        <time>2018-02-11T14:27:03Z</time>
      </trkpt>
      <trkpt lat="62.632023257894" lon="17.992136515789">
        <ele>94.6</ele>
        <time>2018-02-11T14:27:04Z</time>
      </trkpt>
      <trkpt lat="62.632043961187" lon="17.992113130288">
        <ele>94.8</ele>
        <time>2018-02-11T14:27:05Z</time>
      </trkpt>
      <trkpt lat="62.632070950905" lon="17.992094354832">
        <ele>94.8</ele>
        <time>2018-02-11T14:27:06Z</time>
      </trkpt>
      <trkpt lat="62.632098778813" lon="17.992071472245">
        <ele>94.8</ele>
        <time>2018-02-11T14:27:07Z</time>
      </trkpt>
      <trkpt lat="62.632125349436" lon="17.992057725929">
        <ele>95</ele>
        <time>2018-02-11T14:27:08Z</time>
      </trkpt>
      <trkpt lat="62.632153261163" lon="17.992045655993">
        <ele>95</ele>
        <time>2018-02-11T14:27:09Z</time>
      </trkpt>
      <trkpt lat="62.632179328872" lon="17.992031909677">
        <ele>95</ele>
        <time>2018-02-11T14:27:10Z</time>
      </trkpt>
      <trkpt lat="62.632215371042" lon="17.992024617424">
        <ele>95.2</ele>
        <time>2018-02-11T14:27:11Z</time>
      </trkpt>
      <trkpt lat="62.632256693809" lon="17.992003830312">
        <ele>95.2</ele>
        <time>2018-02-11T14:27:12Z</time>
      </trkpt>
      <trkpt lat="62.632279827853" lon="17.99199645424">
        <ele>95.2</ele>
        <time>2018-02-11T14:27:13Z</time>
      </trkpt>
      <trkpt lat="62.632313774548" lon="17.991980696268">
        <ele>95.2</ele>
        <time>2018-02-11T14:27:14Z</time>
      </trkpt>
      <trkpt lat="62.632339171705" lon="17.991960244432">
        <ele>95.2</ele>
        <time>2018-02-11T14:27:15Z</time>
      </trkpt>
      <trkpt lat="62.63237479478" lon="17.991944737917">
        <ele>95</ele>
        <time>2018-02-11T14:27:16Z</time>
      </trkpt>
      <trkpt lat="62.632406394543" lon="17.991925543366">
        <ele>95</ele>
        <time>2018-02-11T14:27:17Z</time>
      </trkpt>
      <trkpt lat="62.632437491392" lon="17.991920933321">
        <ele>95</ele>
        <time>2018-02-11T14:27:18Z</time>
      </trkpt>
      <trkpt lat="62.6324653193" lon="17.991900732942">
        <ele>94.8</ele>
        <time>2018-02-11T14:27:19Z</time>
      </trkpt>
      <trkpt lat="62.632494488312" lon="17.99190257696">
        <ele>94.8</ele>
        <time>2018-02-11T14:27:20Z</time>
      </trkpt>
      <trkpt lat="62.632520891297" lon="17.991891596671">
        <ele>94.6</ele>
        <time>2018-02-11T14:27:21Z</time>
      </trkpt>
      <trkpt lat="62.632543690065" lon="17.991880616382">
        <ele>94.8</ele>
        <time>2018-02-11T14:27:22Z</time>
      </trkpt>
      <trkpt lat="62.632565147729" lon="17.991861170374">
        <ele>94.6</ele>
        <time>2018-02-11T14:27:23Z</time>
      </trkpt>
      <trkpt lat="62.632581324796" lon="17.991835437941">
        <ele>94.6</ele>
        <time>2018-02-11T14:27:24Z</time>
      </trkpt>
      <trkpt lat="62.632589874334" lon="17.991798222305">
        <ele>94.6</ele>
        <time>2018-02-11T14:27:25Z</time>
      </trkpt>
      <trkpt lat="62.632596998949" lon="17.99173242439">
        <ele>94.6</ele>
        <time>2018-02-11T14:27:26Z</time>
      </trkpt>
      <trkpt lat="62.632611583455" lon="17.991681127162">
        <ele>94.8</ele>
        <time>2018-02-11T14:27:27Z</time>
      </trkpt>
      <trkpt lat="62.632634214585" lon="17.991629410839">
        <ele>94.6</ele>
        <time>2018-02-11T14:27:28Z</time>
      </trkpt>
      <trkpt lat="62.632658186819" lon="17.99157903562">
        <ele>94.6</ele>
        <time>2018-02-11T14:27:29Z</time>
      </trkpt>
      <trkpt lat="62.632676040266" lon="17.991534779188">
        <ele>94.6</ele>
        <time>2018-02-11T14:27:30Z</time>
      </trkpt>
      <trkpt lat="62.632697078835" lon="17.991485912711">
        <ele>94.4</ele>
        <time>2018-02-11T14:27:31Z</time>
      </trkpt>
      <trkpt lat="62.632711160427" lon="17.991444673763">
        <ele>94.4</ele>
        <time>2018-02-11T14:27:32Z</time>
      </trkpt>
      <trkpt lat="62.63273186372" lon="17.99139882477">
        <ele>94.4</ele>
        <time>2018-02-11T14:27:33Z</time>
      </trkpt>
      <trkpt lat="62.632747873149" lon="17.991356496175">
        <ele>94.4</ele>
        <time>2018-02-11T14:27:34Z</time>
      </trkpt>
      <trkpt lat="62.632766564786" lon="17.991308803164">
        <ele>94.6</ele>
        <time>2018-02-11T14:27:35Z</time>
      </trkpt>
      <trkpt lat="62.632793722142" lon="17.99125297971">
        <ele>94.6</ele>
        <time>2018-02-11T14:27:36Z</time>
      </trkpt>
      <trkpt lat="62.632816017996" lon="17.991210902572">
        <ele>94.6</ele>
        <time>2018-02-11T14:27:37Z</time>
      </trkpt>
      <trkpt lat="62.632836553651" lon="17.991152732186">
        <ele>94.6</ele>
        <time>2018-02-11T14:27:38Z</time>
      </trkpt>
      <trkpt lat="62.632848623587" lon="17.991115768007">
        <ele>94.6</ele>
        <time>2018-02-11T14:27:39Z</time>
      </trkpt>
      <trkpt lat="62.632867566681" lon="17.991070505747">
        <ele>94.6</ele>
        <time>2018-02-11T14:27:40Z</time>
      </trkpt>
      <trkpt lat="62.632879636617" lon="17.991025914039">
        <ele>94.6</ele>
        <time>2018-02-11T14:27:41Z</time>
      </trkpt>
      <trkpt lat="62.63290201629" lon="17.990970006766">
        <ele>94.4</ele>
        <time>2018-02-11T14:27:42Z</time>
      </trkpt>
      <trkpt lat="62.632905620507" lon="17.990915356778">
        <ele>94.4</ele>
        <time>2018-02-11T14:27:43Z</time>
      </trkpt>
      <trkpt lat="62.632930263293" lon="17.990873028183">
        <ele>94.4</ele>
        <time>2018-02-11T14:27:44Z</time>
      </trkpt>
      <trkpt lat="62.632943003781" lon="17.990827933561">
        <ele>94.6</ele>
        <time>2018-02-11T14:27:45Z</time>
      </trkpt>
      <trkpt lat="62.632960605771" lon="17.990780492007">
        <ele>94.6</ele>
        <time>2018-02-11T14:27:46Z</time>
      </trkpt>
      <trkpt lat="62.632977537209" lon="17.990734894471">
        <ele>94.6</ele>
        <time>2018-02-11T14:27:47Z</time>
      </trkpt>
      <trkpt lat="62.632986505842" lon="17.990697678835">
        <ele>94.6</ele>
        <time>2018-02-11T14:27:48Z</time>
      </trkpt>
      <trkpt lat="62.633007544411" lon="17.990645627236">
        <ele>94.6</ele>
        <time>2018-02-11T14:27:49Z</time>
      </trkpt>
      <trkpt lat="62.633023889116" lon="17.990587875945">
        <ele>94.6</ele>
        <time>2018-02-11T14:27:50Z</time>
      </trkpt>
      <trkpt lat="62.633051884662" lon="17.990538422735">
        <ele>94.6</ele>
        <time>2018-02-11T14:27:51Z</time>
      </trkpt>
      <trkpt lat="62.633077868552" lon="17.99047849215">
        <ele>94.6</ele>
        <time>2018-02-11T14:27:52Z</time>
      </trkpt>
      <trkpt lat="62.633100499682" lon="17.990446557111">
        <ele>94.6</ele>
        <time>2018-02-11T14:27:53Z</time>
      </trkpt>
      <trkpt lat="62.633131847988" lon="17.990410095846">
        <ele>94.6</ele>
        <time>2018-02-11T14:27:54Z</time>
      </trkpt>
      <trkpt lat="62.633162777199" lon="17.990376065332">
        <ele>94.8</ele>
        <time>2018-02-11T14:27:55Z</time>
      </trkpt>
      <trkpt lat="62.633191275659" lon="17.990349913804">
        <ele>95</ele>
        <time>2018-02-11T14:27:56Z</time>
      </trkpt>
      <trkpt lat="62.633226647277" lon="17.990330886891">
        <ele>94.8</ele>
        <time>2018-02-11T14:27:57Z</time>
      </trkpt>
      <trkpt lat="62.633257660307" lon="17.990298365119">
        <ele>95</ele>
        <time>2018-02-11T14:27:58Z</time>
      </trkpt>
      <trkpt lat="62.633280710532" lon="17.990286630459">
        <ele>95</ele>
        <time>2018-02-11T14:27:59Z</time>
      </trkpt>
      <trkpt lat="62.633307532612" lon="17.990271626858">
        <ele>94.8</ele>
        <time>2018-02-11T14:28:00Z</time>
      </trkpt>
      <trkpt lat="62.633335528158" lon="17.990226616055">
        <ele>95</ele>
        <time>2018-02-11T14:28:01Z</time>
      </trkpt>
      <trkpt lat="62.633369139577" lon="17.990215468128">
        <ele>95.2</ele>
        <time>2018-02-11T14:28:02Z</time>
      </trkpt>
      <trkpt lat="62.633397051304" lon="17.990186215297">
        <ele>95</ele>
        <time>2018-02-11T14:28:03Z</time>
      </trkpt>
      <trkpt lat="62.633427477601" lon="17.990160063769">
        <ele>95</ele>
        <time>2018-02-11T14:28:04Z</time>
      </trkpt>
      <trkpt lat="62.633447929437" lon="17.990125949436">
        <ele>95</ele>
        <time>2018-02-11T14:28:05Z</time>
      </trkpt>
      <trkpt lat="62.633479445381" lon="17.990081776823">
        <ele>95</ele>
        <time>2018-02-11T14:28:06Z</time>
      </trkpt>
      <trkpt lat="62.633514230266" lon="17.990033497079">
        <ele>95.2</ele>
        <time>2018-02-11T14:28:07Z</time>
      </trkpt>
      <trkpt lat="62.633533340998" lon="17.989989156828">
        <ele>95.2</ele>
        <time>2018-02-11T14:28:08Z</time>
      </trkpt>
      <trkpt lat="62.633556558861" lon="17.989926292578">
        <ele>95</ele>
        <time>2018-02-11T14:28:09Z</time>
      </trkpt>
      <trkpt lat="62.63357424467" lon="17.989887735838">
        <ele>95</ele>
        <time>2018-02-11T14:28:10Z</time>
      </trkpt>
      <trkpt lat="62.633601821121" lon="17.989813304566">
        <ele>94.8</ele>
        <time>2018-02-11T14:28:11Z</time>
      </trkpt>
      <trkpt lat="62.633629481391" lon="17.989763935175">
        <ele>94.4</ele>
        <time>2018-02-11T14:28:12Z</time>
      </trkpt>
      <trkpt lat="62.633640294042" lon="17.989707944083">
        <ele>94.4</ele>
        <time>2018-02-11T14:28:13Z</time>
      </trkpt>
      <trkpt lat="62.633659320955" lon="17.989648516412">
        <ele>94</ele>
        <time>2018-02-11T14:28:14Z</time>
      </trkpt>
      <trkpt lat="62.633680191886" lon="17.98960342179">
        <ele>94</ele>
        <time>2018-02-11T14:28:15Z</time>
      </trkpt>
      <trkpt lat="62.633705086129" lon="17.989560255005">
        <ele>93.8</ele>
        <time>2018-02-11T14:28:16Z</time>
      </trkpt>
      <trkpt lat="62.633729226001" lon="17.989523961378">
        <ele>93.8</ele>
        <time>2018-02-11T14:28:17Z</time>
      </trkpt>
      <trkpt lat="62.633747666181" lon="17.989502084619">
        <ele>93.6</ele>
        <time>2018-02-11T14:28:18Z</time>
      </trkpt>
      <trkpt lat="62.633778846849" lon="17.989458331101">
        <ele>93.8</ele>
        <time>2018-02-11T14:28:19Z</time>
      </trkpt>
      <trkpt lat="62.633806758576" lon="17.989429245908">
        <ele>93.8</ele>
        <time>2018-02-11T14:28:20Z</time>
      </trkpt>
      <trkpt lat="62.633829641163" lon="17.989402842923">
        <ele>93.8</ele>
        <time>2018-02-11T14:28:21Z</time>
      </trkpt>
      <trkpt lat="62.633858055804" lon="17.989370488789">
        <ele>93.8</ele>
        <time>2018-02-11T14:28:22Z</time>
      </trkpt>
      <trkpt lat="62.633886721902" lon="17.98933771556">
        <ele>93.8</ele>
        <time>2018-02-11T14:28:23Z</time>
      </trkpt>
      <trkpt lat="62.633911364688" lon="17.98930586434">
        <ele>93.8</ele>
        <time>2018-02-11T14:28:24Z</time>
      </trkpt>
      <trkpt lat="62.633945898116" lon="17.989269067799">
        <ele>94</ele>
        <time>2018-02-11T14:28:25Z</time>
      </trkpt>
      <trkpt lat="62.633983449028" lon="17.989235121104">
        <ele>93.8</ele>
        <time>2018-02-11T14:28:26Z</time>
      </trkpt>
      <trkpt lat="62.634018820646" lon="17.98919354688">
        <ele>93.6</ele>
        <time>2018-02-11T14:28:27Z</time>
      </trkpt>
      <trkpt lat="62.634043044337" lon="17.989154319588">
        <ele>93.2</ele>
        <time>2018-02-11T14:28:28Z</time>
      </trkpt>
      <trkpt lat="62.634080008516" lon="17.989107883862">
        <ele>93</ele>
        <time>2018-02-11T14:28:29Z</time>
      </trkpt>
      <trkpt lat="62.634117224152" lon="17.989065974362">
        <ele>92.8</ele>
        <time>2018-02-11T14:28:30Z</time>
      </trkpt>
      <trkpt lat="62.6341500812" lon="17.989012665478">
        <ele>92.6</ele>
        <time>2018-02-11T14:28:31Z</time>
      </trkpt>
      <trkpt lat="62.634167096457" lon="17.988955081825">
        <ele>92.4</ele>
        <time>2018-02-11T14:28:32Z</time>
      </trkpt>
      <trkpt lat="62.634183860257" lon="17.988907221176">
        <ele>92.4</ele>
        <time>2018-02-11T14:28:33Z</time>
      </trkpt>
      <trkpt lat="62.63421378364" lon="17.988855253396">
        <ele>92.2</ele>
        <time>2018-02-11T14:28:34Z</time>
      </trkpt>
      <trkpt lat="62.634238845521" lon="17.988801860693">
        <ele>92</ele>
        <time>2018-02-11T14:28:35Z</time>
      </trkpt>
      <trkpt lat="62.634253849122" lon="17.988759532098">
        <ele>92</ele>
        <time>2018-02-11T14:28:36Z</time>
      </trkpt>
      <trkpt lat="62.634277737537" lon="17.988697506038">
        <ele>92</ele>
        <time>2018-02-11T14:28:37Z</time>
      </trkpt>
      <trkpt lat="62.634297770278" lon="17.988651070312">
        <ele>91.8</ele>
        <time>2018-02-11T14:28:38Z</time>
      </trkpt>
      <trkpt lat="62.634335572647" lon="17.988600024541">
        <ele>91.8</ele>
        <time>2018-02-11T14:28:39Z</time>
      </trkpt>
      <trkpt lat="62.63437303974" lon="17.988562641267">
        <ele>91.6</ele>
        <time>2018-02-11T14:28:40Z</time>
      </trkpt>
      <trkpt lat="62.634396844336" lon="17.988535483911">
        <ele>91.6</ele>
        <time>2018-02-11T14:28:41Z</time>
      </trkpt>
      <trkpt lat="62.634448644478" lon="17.988483767588">
        <ele>91.6</ele>
        <time>2018-02-11T14:28:42Z</time>
      </trkpt>
      <trkpt lat="62.634489129055" lon="17.988489132004">
        <ele>91.4</ele>
        <time>2018-02-11T14:28:43Z</time>
      </trkpt>
      <trkpt lat="62.634529362175" lon="17.988492065669">
        <ele>91.4</ele>
        <time>2018-02-11T14:28:44Z</time>
      </trkpt>
      <trkpt lat="62.634569930571" lon="17.988483851407">
        <ele>91.2</ele>
        <time>2018-02-11T14:28:45Z</time>
      </trkpt>
      <trkpt lat="62.634610079872" lon="17.988465327408">
        <ele>90.8</ele>
        <time>2018-02-11T14:28:46Z</time>
      </trkpt>
      <trkpt lat="62.6346446133" lon="17.988448731246">
        <ele>90.2</ele>
        <time>2018-02-11T14:28:47Z</time>
      </trkpt>
      <trkpt lat="62.634681158384" lon="17.988439511156">
        <ele>89.8</ele>
        <time>2018-02-11T14:28:48Z</time>
      </trkpt>
      <trkpt lat="62.634720553314" lon="17.988417131483">
        <ele>89.2</ele>
        <time>2018-02-11T14:28:49Z</time>
      </trkpt>
      <trkpt lat="62.634752404534" lon="17.988395003267">
        <ele>88.8</ele>
        <time>2018-02-11T14:28:50Z</time>
      </trkpt>
      <trkpt lat="62.634784255754" lon="17.988356446527">
        <ele>88.8</ele>
        <time>2018-02-11T14:28:51Z</time>
      </trkpt>
      <trkpt lat="62.634818537725" lon="17.988312776828">
        <ele>89</ele>
        <time>2018-02-11T14:28:52Z</time>
      </trkpt>
      <trkpt lat="62.634850975678" lon="17.988268017482">
        <ele>89.2</ele>
        <time>2018-02-11T14:28:53Z</time>
      </trkpt>
      <trkpt lat="62.634881066699" lon="17.988224096326">
        <ele>89.4</ele>
        <time>2018-02-11T14:28:54Z</time>
      </trkpt>
      <trkpt lat="62.634905038933" lon="17.988181767731">
        <ele>89.4</ele>
        <time>2018-02-11T14:28:55Z</time>
      </trkpt>
      <trkpt lat="62.63492373057" lon="17.988126195734">
        <ele>89.4</ele>
        <time>2018-02-11T14:28:56Z</time>
      </trkpt>
      <trkpt lat="62.634943763311" lon="17.988066684244">
        <ele>89.2</ele>
        <time>2018-02-11T14:28:57Z</time>
      </trkpt>
      <trkpt lat="62.634962203491" lon="17.987994599904">
        <ele>89</ele>
        <time>2018-02-11T14:28:58Z</time>
      </trkpt>
      <trkpt lat="62.634973519056" lon="17.987941877753">
        <ele>88.8</ele>
        <time>2018-02-11T14:28:59Z</time>
      </trkpt>
      <trkpt lat="62.6349966531" lon="17.987881108978">
        <ele>88.6</ele>
        <time>2018-02-11T14:29:00Z</time>
      </trkpt>
      <trkpt lat="62.63501257871" lon="17.987811120113">
        <ele>88.4</ele>
        <time>2018-02-11T14:29:01Z</time>
      </trkpt>
      <trkpt lat="62.635019870963" lon="17.987750351338">
        <ele>88</ele>
        <time>2018-02-11T14:29:02Z</time>
      </trkpt>
      <trkpt lat="62.635023307542" lon="17.987698970291">
        <ele>88</ele>
        <time>2018-02-11T14:29:03Z</time>
      </trkpt>
      <trkpt lat="62.6350217988" lon="17.987643063018">
        <ele>87.8</ele>
        <time>2018-02-11T14:29:04Z</time>
      </trkpt>
      <trkpt lat="62.635012746348" lon="17.987609619237">
        <ele>87.8</ele>
        <time>2018-02-11T14:29:05Z</time>
      </trkpt>
      <trkpt lat="62.634993970892" lon="17.987605931201">
        <ele>87.6</ele>
        <time>2018-02-11T14:29:06Z</time>
      </trkpt>
      <trkpt lat="62.634983661155" lon="17.98763954262">
        <ele>87.8</ele>
        <time>2018-02-11T14:29:07Z</time>
      </trkpt>
      <trkpt lat="62.63497486016" lon="17.987675333333">
        <ele>87.6</ele>
        <time>2018-02-11T14:29:08Z</time>
      </trkpt>
      <trkpt lat="62.634967484088" lon="17.987706262544">
        <ele>87.6</ele>
        <time>2018-02-11T14:29:09Z</time>
      </trkpt>
      <trkpt lat="62.63495222903" lon="17.987732833167">
        <ele>87.4</ele>
        <time>2018-02-11T14:29:10Z</time>
      </trkpt>
      <trkpt lat="62.634943930949" lon="17.987767869509">
        <ele>87.6</ele>
        <time>2018-02-11T14:29:11Z</time>
      </trkpt>
      <trkpt lat="62.634932028651" lon="17.987799133996">
        <ele>87.6</ele>
        <time>2018-02-11T14:29:12Z</time>
      </trkpt>
      <trkpt lat="62.634916941231" lon="17.98782897356">
        <ele>87.6</ele>
        <time>2018-02-11T14:29:13Z</time>
      </trkpt>
      <trkpt lat="62.634911492996" lon="17.987855208907">
        <ele>87.6</ele>
        <time>2018-02-11T14:29:14Z</time>
      </trkpt>
      <trkpt lat="62.634896657033" lon="17.987871469793">
        <ele>87.6</ele>
        <time>2018-02-11T14:29:15Z</time>
      </trkpt>
      <trkpt lat="62.634879390319" lon="17.987909188343">
        <ele>87.8</ele>
        <time>2018-02-11T14:29:16Z</time>
      </trkpt>
      <trkpt lat="62.634864805813" lon="17.987934669319">
        <ele>88</ele>
        <time>2018-02-11T14:29:17Z</time>
      </trkpt>
      <trkpt lat="62.634845108348" lon="17.987960150295">
        <ele>88</ele>
        <time>2018-02-11T14:29:18Z</time>
      </trkpt>
      <trkpt lat="62.634830188566" lon="17.987993845533">
        <ele>88.2</ele>
        <time>2018-02-11T14:29:19Z</time>
      </trkpt>
      <trkpt lat="62.634808479445" lon="17.988012788627">
        <ele>88.2</ele>
        <time>2018-02-11T14:29:20Z</time>
      </trkpt>
      <trkpt lat="62.63479381112" lon="17.988048076426">
        <ele>88.4</ele>
        <time>2018-02-11T14:29:21Z</time>
      </trkpt>
      <trkpt lat="62.634775538578" lon="17.988059140534">
        <ele>88.6</ele>
        <time>2018-02-11T14:29:22Z</time>
      </trkpt>
      <trkpt lat="62.634756260208" lon="17.988057212697">
        <ele>88.6</ele>
        <time>2018-02-11T14:29:23Z</time>
      </trkpt>
      <trkpt lat="62.63473765239" lon="17.988077161619">
        <ele>88.8</ele>
        <time>2018-02-11T14:29:24Z</time>
      </trkpt>
      <trkpt lat="62.634710495034" lon="17.988084537691">
        <ele>89</ele>
        <time>2018-02-11T14:29:25Z</time>
      </trkpt>
      <trkpt lat="62.634672608846" lon="17.98809467979">
        <ele>89</ele>
        <time>2018-02-11T14:29:26Z</time>
      </trkpt>
      <trkpt lat="62.634657605245" lon="17.988103983699">
        <ele>89.2</ele>
        <time>2018-02-11T14:29:27Z</time>
      </trkpt>
      <trkpt lat="62.634626005482" lon="17.988109180477">
        <ele>89.4</ele>
        <time>2018-02-11T14:29:28Z</time>
      </trkpt>
      <trkpt lat="62.634605134551" lon="17.98811731092">
        <ele>89.6</ele>
        <time>2018-02-11T14:29:29Z</time>
      </trkpt>
      <trkpt lat="62.634576468453" lon="17.988117059463">
        <ele>89.6</ele>
        <time>2018-02-11T14:29:30Z</time>
      </trkpt>
      <trkpt lat="62.634540761559" lon="17.988128794123">
        <ele>89.8</ele>
        <time>2018-02-11T14:29:31Z</time>
      </trkpt>
      <trkpt lat="62.634522908112" lon="17.988139774412">
        <ele>89.8</ele>
        <time>2018-02-11T14:29:32Z</time>
      </trkpt>
      <trkpt lat="62.634504551751" lon="17.988143210991">
        <ele>90</ele>
        <time>2018-02-11T14:29:33Z</time>
      </trkpt>
      <trkpt lat="62.63449038634" lon="17.988162405542">
        <ele>90</ele>
        <time>2018-02-11T14:29:34Z</time>
      </trkpt>
      <trkpt lat="62.634470437418" lon="17.988158298411">
        <ele>90</ele>
        <time>2018-02-11T14:29:35Z</time>
      </trkpt>
      <trkpt lat="62.634447890107" lon="17.988185288129">
        <ele>90</ele>
        <time>2018-02-11T14:29:36Z</time>
      </trkpt>
      <trkpt lat="62.634418050543" lon="17.988179169342">
        <ele>90.2</ele>
        <time>2018-02-11T14:29:37Z</time>
      </trkpt>
      <trkpt lat="62.634391982834" lon="17.988179672256">
        <ele>90.2</ele>
        <time>2018-02-11T14:29:38Z</time>
      </trkpt>
      <trkpt lat="62.634367926781" lon="17.988181180998">
        <ele>90.2</ele>
        <time>2018-02-11T14:29:39Z</time>
      </trkpt>
      <trkpt lat="62.634332555163" lon="17.988182605921">
        <ele>90.2</ele>
        <time>2018-02-11T14:29:40Z</time>
      </trkpt>
      <trkpt lat="62.634310678404" lon="17.988199956454">
        <ele>90.2</ele>
        <time>2018-02-11T14:29:41Z</time>
      </trkpt>
      <trkpt lat="62.63428335341" lon="17.988192412744">
        <ele>90.2</ele>
        <time>2018-02-11T14:29:42Z</time>
      </trkpt>
      <trkpt lat="62.634255860778" lon="17.98820196811">
        <ele>90.4</ele>
        <time>2018-02-11T14:29:43Z</time>
      </trkpt>
      <trkpt lat="62.634227278499" lon="17.988205907603">
        <ele>90.4</ele>
        <time>2018-02-11T14:29:44Z</time>
      </trkpt>
      <trkpt lat="62.63419869622" lon="17.988211355838">
        <ele>90.6</ele>
        <time>2018-02-11T14:29:45Z</time>
      </trkpt>
      <trkpt lat="62.634174975443" lon="17.988204315042">
        <ele>90.6</ele>
        <time>2018-02-11T14:29:46Z</time>
      </trkpt>
      <trkpt lat="62.63414840482" lon="17.988190484907">
        <ele>90.8</ele>
        <time>2018-02-11T14:29:47Z</time>
      </trkpt>
      <trkpt lat="62.634118313799" lon="17.988190987821">
        <ele>90.8</ele>
        <time>2018-02-11T14:29:48Z</time>
      </trkpt>
      <trkpt lat="62.634082774543" lon="17.988188892346">
        <ele>91</ele>
        <time>2018-02-11T14:29:49Z</time>
      </trkpt>
      <trkpt lat="62.63405955668" lon="17.988176570953">
        <ele>90.8</ele>
        <time>2018-02-11T14:29:50Z</time>
      </trkpt>
      <trkpt lat="62.634027956917" lon="17.988178163514">
        <ele>91</ele>
        <time>2018-02-11T14:29:51Z</time>
      </trkpt>
      <trkpt lat="62.633994513136" lon="17.988160812981">
        <ele>91</ele>
        <time>2018-02-11T14:29:52Z</time>
      </trkpt>
      <trkpt lat="62.633958051871" lon="17.988161483533">
        <ele>91</ele>
        <time>2018-02-11T14:29:53Z</time>
      </trkpt>
      <trkpt lat="62.633937432397" lon="17.988145474104">
        <ele>91.2</ele>
        <time>2018-02-11T14:29:54Z</time>
      </trkpt>
      <trkpt lat="62.633913041068" lon="17.988125441363">
        <ele>91.2</ele>
        <time>2018-02-11T14:29:55Z</time>
      </trkpt>
      <trkpt lat="62.633889320291" lon="17.988122423879">
        <ele>91.2</ele>
        <time>2018-02-11T14:29:56Z</time>
      </trkpt>
      <trkpt lat="62.633867275894" lon="17.98810138531">
        <ele>91.2</ele>
        <time>2018-02-11T14:29:57Z</time>
      </trkpt>
      <trkpt lat="62.633840872909" lon="17.988072216298">
        <ele>91.2</ele>
        <time>2018-02-11T14:29:58Z</time>
      </trkpt>
      <trkpt lat="62.633824695842" lon="17.988055201041">
        <ele>91.6</ele>
        <time>2018-02-11T14:29:59Z</time>
      </trkpt>
      <trkpt lat="62.633800975065" lon="17.988026954038">
        <ele>91.8</ele>
        <time>2018-02-11T14:30:00Z</time>
      </trkpt>
      <trkpt lat="62.633777757202" lon="17.988018153043">
        <ele>91.8</ele>
        <time>2018-02-11T14:30:01Z</time>
      </trkpt>
      <trkpt lat="62.633750432208" lon="17.987987726746">
        <ele>91.8</ele>
        <time>2018-02-11T14:30:02Z</time>
      </trkpt>
      <trkpt lat="62.633728974544" lon="17.987971214403">
        <ele>92</ele>
        <time>2018-02-11T14:30:03Z</time>
      </trkpt>
      <trkpt lat="62.633708522708" lon="17.987948415635">
        <ele>92</ele>
        <time>2018-02-11T14:30:04Z</time>
      </trkpt>
      <trkpt lat="62.633684801931" lon="17.987911367637">
        <ele>92</ele>
        <time>2018-02-11T14:30:05Z</time>
      </trkpt>
      <trkpt lat="62.633645071725" lon="17.987881528073">
        <ele>92.2</ele>
        <time>2018-02-11T14:30:06Z</time>
      </trkpt>
      <trkpt lat="62.633620177482" lon="17.987860992418">
        <ele>92.4</ele>
        <time>2018-02-11T14:30:07Z</time>
      </trkpt>
      <trkpt lat="62.633595869972" lon="17.987827716275">
        <ele>92.4</ele>
        <time>2018-02-11T14:30:08Z</time>
      </trkpt>
      <trkpt lat="62.63357843562" lon="17.987815646339">
        <ele>92.4</ele>
        <time>2018-02-11T14:30:09Z</time>
      </trkpt>
      <trkpt lat="62.633561252725" lon="17.987799804548">
        <ele>92.6</ele>
        <time>2018-02-11T14:30:10Z</time>
      </trkpt>
      <trkpt lat="62.633536107025" lon="17.987765019663">
        <ele>92.6</ele>
        <time>2018-02-11T14:30:11Z</time>
      </trkpt>
      <trkpt lat="62.633513811171" lon="17.987734677185">
        <ele>92.6</ele>
        <time>2018-02-11T14:30:12Z</time>
      </trkpt>
      <trkpt lat="62.633492772602" lon="17.987715985548">
        <ele>93</ele>
        <time>2018-02-11T14:30:13Z</time>
      </trkpt>
      <trkpt lat="62.633469973834" lon="17.987674830419">
        <ele>93.2</ele>
        <time>2018-02-11T14:30:14Z</time>
      </trkpt>
      <trkpt lat="62.633449521998" lon="17.987647002511">
        <ele>93.4</ele>
        <time>2018-02-11T14:30:15Z</time>
      </trkpt>
      <trkpt lat="62.633426471773" lon="17.98760936778">
        <ele>93.4</ele>
        <time>2018-02-11T14:30:16Z</time>
      </trkpt>
      <trkpt lat="62.633403673005" lon="17.987576426913">
        <ele>93.6</ele>
        <time>2018-02-11T14:30:17Z</time>
      </trkpt>
      <trkpt lat="62.633383807902" lon="17.987550443023">
        <ele>93.8</ele>
        <time>2018-02-11T14:30:18Z</time>
      </trkpt>
      <trkpt lat="62.63336804993" lon="17.987523537124">
        <ele>93.8</ele>
        <time>2018-02-11T14:30:19Z</time>
      </trkpt>
      <trkpt lat="62.633356818184" lon="17.987499397252">
        <ele>94</ele>
        <time>2018-02-11T14:30:20Z</time>
      </trkpt>
      <trkpt lat="62.633339300013" lon="17.98745346444">
        <ele>94.2</ele>
        <time>2018-02-11T14:30:21Z</time>
      </trkpt>
      <trkpt lat="62.633321027471" lon="17.987410968207">
        <ele>94.4</ele>
        <time>2018-02-11T14:30:22Z</time>
      </trkpt>
      <trkpt lat="62.633300910911" lon="17.987376183322">
        <ele>94.6</ele>
        <time>2018-02-11T14:30:23Z</time>
      </trkpt>
      <trkpt lat="62.633278782695" lon="17.98732522137">
        <ele>94.8</ele>
        <time>2018-02-11T14:30:24Z</time>
      </trkpt>
      <trkpt lat="62.633250870968" lon="17.987283982422">
        <ele>95</ele>
        <time>2018-02-11T14:30:25Z</time>
      </trkpt>
      <trkpt lat="62.633230000037" lon="17.98719614011">
        <ele>94.8</ele>
        <time>2018-02-11T14:30:26Z</time>
      </trkpt>
      <trkpt lat="62.633206614536" lon="17.987096814595">
        <ele>94.4</ele>
        <time>2018-02-11T14:30:27Z</time>
      </trkpt>
      <trkpt lat="62.633184821596" lon="17.986998075813">
        <ele>93.8</ele>
        <time>2018-02-11T14:30:28Z</time>
      </trkpt>
      <trkpt lat="62.633165124131" lon="17.986908221845">
        <ele>93.2</ele>
        <time>2018-02-11T14:30:29Z</time>
      </trkpt>
      <trkpt lat="62.633149533797" lon="17.986814679841">
        <ele>92.4</ele>
        <time>2018-02-11T14:30:30Z</time>
      </trkpt>
      <trkpt lat="62.63313670949" lon="17.986709822272">
        <ele>92</ele>
        <time>2018-02-11T14:30:31Z</time>
      </trkpt>
      <trkpt lat="62.633126567391" lon="17.98661443625">
        <ele>91.6</ele>
        <time>2018-02-11T14:30:32Z</time>
      </trkpt>
      <trkpt lat="62.633118939862" lon="17.986528437956">
        <ele>91.6</ele>
        <time>2018-02-11T14:30:33Z</time>
      </trkpt>
      <trkpt lat="62.633110390324" lon="17.986431627011">
        <ele>91.4</ele>
        <time>2018-02-11T14:30:34Z</time>
      </trkpt>
      <trkpt lat="62.633103936261" lon="17.986357614834">
        <ele>91.4</ele>
        <time>2018-02-11T14:30:35Z</time>
      </trkpt>
      <trkpt lat="62.633106115555" lon="17.986257199672">
        <ele>91.6</ele>
        <time>2018-02-11T14:30:36Z</time>
      </trkpt>
      <trkpt lat="62.633106786107" lon="17.986158712347">
        <ele>91.4</ele>
        <time>2018-02-11T14:30:37Z</time>
      </trkpt>
      <trkpt lat="62.633117263482" lon="17.986056285529">
        <ele>91.2</ele>
        <time>2018-02-11T14:30:38Z</time>
      </trkpt>
      <trkpt lat="62.633121286794" lon="17.985953607254">
        <ele>90.8</ele>
        <time>2018-02-11T14:30:39Z</time>
      </trkpt>
      <trkpt lat="62.633119275138" lon="17.985851264255">
        <ele>90.4</ele>
        <time>2018-02-11T14:30:40Z</time>
      </trkpt>
      <trkpt lat="62.63311659293" lon="17.985744981763">
        <ele>89.8</ele>
        <time>2018-02-11T14:30:41Z</time>
      </trkpt>
      <trkpt lat="62.63311491655" lon="17.985647919361">
        <ele>89.6</ele>
        <time>2018-02-11T14:30:42Z</time>
      </trkpt>
      <trkpt lat="62.63312162207" lon="17.985540966317">
        <ele>89.4</ele>
        <time>2018-02-11T14:30:43Z</time>
      </trkpt>
      <trkpt lat="62.633116844387" lon="17.985449687426">
        <ele>89.4</ele>
        <time>2018-02-11T14:30:44Z</time>
      </trkpt>
      <trkpt lat="62.633115084188" lon="17.985371568118">
        <ele>89.6</ele>
        <time>2018-02-11T14:30:45Z</time>
      </trkpt>
      <trkpt lat="62.633129081961" lon="17.985284899272">
        <ele>89.6</ele>
        <time>2018-02-11T14:30:46Z</time>
      </trkpt>
      <trkpt lat="62.633135200748" lon="17.985176186029">
        <ele>89.6</ele>
        <time>2018-02-11T14:30:47Z</time>
      </trkpt>
      <trkpt lat="62.633145175209" lon="17.985061437818">
        <ele>89.2</ele>
        <time>2018-02-11T14:30:48Z</time>
      </trkpt>
      <trkpt lat="62.633163615389" lon="17.984945683779">
        <ele>88.6</ele>
        <time>2018-02-11T14:30:49Z</time>
      </trkpt>
      <trkpt lat="62.633177361705" lon="17.984851638861">
        <ele>88</ele>
        <time>2018-02-11T14:30:50Z</time>
      </trkpt>
      <trkpt lat="62.633193790229" lon="17.98475533083">
        <ele>87.2</ele>
        <time>2018-02-11T14:30:51Z</time>
      </trkpt>
      <trkpt lat="62.633212649504" lon="17.984671763287">
        <ele>86.6</ele>
        <time>2018-02-11T14:30:52Z</time>
      </trkpt>
      <trkpt lat="62.633233771892" lon="17.984585262079">
        <ele>86.2</ele>
        <time>2018-02-11T14:30:53Z</time>
      </trkpt>
      <trkpt lat="62.633253888452" lon="17.984502868002">
        <ele>86</ele>
        <time>2018-02-11T14:30:54Z</time>
      </trkpt>
      <trkpt lat="62.633263192361" lon="17.984434555517">
        <ele>86.2</ele>
        <time>2018-02-11T14:30:55Z</time>
      </trkpt>
      <trkpt lat="62.633269562605" lon="17.984355095105">
        <ele>86.2</ele>
        <time>2018-02-11T14:30:56Z</time>
      </trkpt>
      <trkpt lat="62.633287164595" lon="17.984293152864">
        <ele>86.2</ele>
        <time>2018-02-11T14:30:57Z</time>
      </trkpt>
      <trkpt lat="62.633292277554" lon="17.984265492594">
        <ele>86.4</ele>
        <time>2018-02-11T14:30:58Z</time>
      </trkpt>
      <trkpt lat="62.633315663055" lon="17.984247806785">
        <ele>86.8</ele>
        <time>2018-02-11T14:30:59Z</time>
      </trkpt>
      <trkpt lat="62.633326559525" lon="17.984172956418">
        <ele>86.8</ele>
        <time>2018-02-11T14:31:00Z</time>
      </trkpt>
      <trkpt lat="62.633325134602" lon="17.984111936186">
        <ele>86.8</ele>
        <time>2018-02-11T14:31:01Z</time>
      </trkpt>
      <trkpt lat="62.633330582837" lon="17.984051921782">
        <ele>86.6</ele>
        <time>2018-02-11T14:31:02Z</time>
      </trkpt>
      <trkpt lat="62.633336450167" lon="17.983982771107">
        <ele>86.6</ele>
        <time>2018-02-11T14:31:03Z</time>
      </trkpt>
      <trkpt lat="62.633339467651" lon="17.983903394514">
        <ele>86.4</ele>
        <time>2018-02-11T14:31:04Z</time>
      </trkpt>
      <trkpt lat="62.633347598094" lon="17.983857126426">
        <ele>86.4</ele>
        <time>2018-02-11T14:31:05Z</time>
      </trkpt>
      <trkpt lat="62.633342988049" lon="17.983796944384">
        <ele>86.6</ele>
        <time>2018-02-11T14:31:06Z</time>
      </trkpt>
      <trkpt lat="62.633353549243" lon="17.983763584422">
        <ele>86.6</ele>
        <time>2018-02-11T14:31:07Z</time>
      </trkpt>
      <trkpt lat="62.633363775161" lon="17.983703150923">
        <ele>86.6</ele>
        <time>2018-02-11T14:31:08Z</time>
      </trkpt>
      <trkpt lat="62.63337391726" lon="17.98364975822">
        <ele>86.6</ele>
        <time>2018-02-11T14:31:09Z</time>
      </trkpt>
      <trkpt lat="62.633395961657" lon="17.983582786839">
        <ele>86.8</ele>
        <time>2018-02-11T14:31:10Z</time>
      </trkpt>
      <trkpt lat="62.633404762652" lon="17.983516905105">
        <ele>86.6</ele>
        <time>2018-02-11T14:31:11Z</time>
      </trkpt>
      <trkpt lat="62.633420604443" lon="17.983446161869">
        <ele>86.8</ele>
        <time>2018-02-11T14:31:12Z</time>
      </trkpt>
      <trkpt lat="62.633442816478" lon="17.983385309275">
        <ele>86.8</ele>
        <time>2018-02-11T14:31:13Z</time>
      </trkpt>
      <trkpt lat="62.633458658269" lon="17.983309704537">
        <ele>87</ele>
        <time>2018-02-11T14:31:14Z</time>
      </trkpt>
      <trkpt lat="62.633471901671" lon="17.983268633227">
        <ele>87</ele>
        <time>2018-02-11T14:31:15Z</time>
      </trkpt>
      <trkpt lat="62.633491012403" lon="17.983200907475">
        <ele>87.2</ele>
        <time>2018-02-11T14:31:16Z</time>
      </trkpt>
      <trkpt lat="62.633496628276" lon="17.983159752346">
        <ele>87.2</ele>
        <time>2018-02-11T14:31:17Z</time>
      </trkpt>
      <trkpt lat="62.63350718947" lon="17.983106108186">
        <ele>87.2</ele>
        <time>2018-02-11T14:31:18Z</time>
      </trkpt>
      <trkpt lat="62.633514230266" lon="17.983041902832">
        <ele>87.4</ele>
        <time>2018-02-11T14:31:19Z</time>
      </trkpt>
      <trkpt lat="62.633531161704" lon="17.982988174853">
        <ele>87.2</ele>
        <time>2018-02-11T14:31:20Z</time>
      </trkpt>
      <trkpt lat="62.633553625196" lon="17.982914162676">
        <ele>87.4</ele>
        <time>2018-02-11T14:31:21Z</time>
      </trkpt>
      <trkpt lat="62.633557564689" lon="17.982853812996">
        <ele>87.2</ele>
        <time>2018-02-11T14:31:22Z</time>
      </trkpt>
      <trkpt lat="62.633573238842" lon="17.982791116384">
        <ele>87</ele>
        <time>2018-02-11T14:31:23Z</time>
      </trkpt>
      <trkpt lat="62.633579692905" lon="17.982718612949">
        <ele>87.2</ele>
        <time>2018-02-11T14:31:24Z</time>
      </trkpt>
      <trkpt lat="62.633587068977" lon="17.982652479758">
        <ele>87.2</ele>
        <time>2018-02-11T14:31:25Z</time>
      </trkpt>
      <trkpt lat="62.633607101718" lon="17.982576372106">
        <ele>87.2</ele>
        <time>2018-02-11T14:31:26Z</time>
      </trkpt>
      <trkpt lat="62.633615986532" lon="17.982513340218">
        <ele>87.2</ele>
        <time>2018-02-11T14:31:27Z</time>
      </trkpt>
      <trkpt lat="62.633619423111" lon="17.982445614466">
        <ele>87.4</ele>
        <time>2018-02-11T14:31:28Z</time>
      </trkpt>
      <trkpt lat="62.633628978477" lon="17.982375960877">
        <ele>87.4</ele>
        <time>2018-02-11T14:31:29Z</time>
      </trkpt>
      <trkpt lat="62.633628140287" lon="17.982298428302">
        <ele>87.4</ele>
        <time>2018-02-11T14:31:30Z</time>
      </trkpt>
      <trkpt lat="62.633644987906" lon="17.982224416125">
        <ele>87.4</ele>
        <time>2018-02-11T14:31:31Z</time>
      </trkpt>
      <trkpt lat="62.633670049787" lon="17.98214604536">
        <ele>87.4</ele>
        <time>2018-02-11T14:31:32Z</time>
      </trkpt>
      <trkpt lat="62.633677174402" lon="17.982093909942">
        <ele>87.4</ele>
        <time>2018-02-11T14:31:33Z</time>
      </trkpt>
      <trkpt lat="62.63369075308" lon="17.982020400679">
        <ele>87.6</ele>
        <time>2018-02-11T14:31:34Z</time>
      </trkpt>
      <trkpt lat="62.633693938202" lon="17.981955524773">
        <ele>87.6</ele>
        <time>2018-02-11T14:31:35Z</time>
      </trkpt>
      <trkpt lat="62.633699721713" lon="17.981893163437">
        <ele>87.6</ele>
        <time>2018-02-11T14:31:36Z</time>
      </trkpt>
      <trkpt lat="62.633698799704" lon="17.981833316671">
        <ele>87.6</ele>
        <time>2018-02-11T14:31:37Z</time>
      </trkpt>
      <trkpt lat="62.633691423632" lon="17.981770452421">
        <ele>87.8</ele>
        <time>2018-02-11T14:31:38Z</time>
      </trkpt>
      <trkpt lat="62.63371170783" lon="17.981675234037">
        <ele>87.8</ele>
        <time>2018-02-11T14:31:39Z</time>
      </trkpt>
      <trkpt lat="62.633716401694" lon="17.981600718946">
        <ele>87.8</ele>
        <time>2018-02-11T14:31:40Z</time>
      </trkpt>
      <trkpt lat="62.633713216572" lon="17.981540285447">
        <ele>88</ele>
        <time>2018-02-11T14:31:41Z</time>
      </trkpt>
      <trkpt lat="62.633723693947" lon="17.981458310465">
        <ele>88</ele>
        <time>2018-02-11T14:31:42Z</time>
      </trkpt>
      <trkpt lat="62.633737524082" lon="17.981395110939">
        <ele>88</ele>
        <time>2018-02-11T14:31:43Z</time>
      </trkpt>
      <trkpt lat="62.63375277914" lon="17.981328558653">
        <ele>87.8</ele>
        <time>2018-02-11T14:31:44Z</time>
      </trkpt>
      <trkpt lat="62.633765938723" lon="17.981259575616">
        <ele>87.8</ele>
        <time>2018-02-11T14:31:45Z</time>
      </trkpt>
      <trkpt lat="62.633778092478" lon="17.981205344723">
        <ele>87.8</ele>
        <time>2018-02-11T14:31:46Z</time>
      </trkpt>
      <trkpt lat="62.633784965636" lon="17.981164021956">
        <ele>87.8</ele>
        <time>2018-02-11T14:31:47Z</time>
      </trkpt>
      <trkpt lat="62.63380474692" lon="17.981113060004">
        <ele>87.8</ele>
        <time>2018-02-11T14:31:48Z</time>
      </trkpt>
      <trkpt lat="62.633823270919" lon="17.981065115536">
        <ele>88</ele>
        <time>2018-02-11T14:31:49Z</time>
      </trkpt>
      <trkpt lat="62.633842549289" lon="17.981028570452">
        <ele>88.2</ele>
        <time>2018-02-11T14:31:50Z</time>
      </trkpt>
      <trkpt lat="62.633865767152" lon="17.980971824989">
        <ele>88.4</ele>
        <time>2018-02-11T14:31:51Z</time>
      </trkpt>
      <trkpt lat="62.633885967531" lon="17.980923461426">
        <ele>88.6</ele>
        <time>2018-02-11T14:31:52Z</time>
      </trkpt>
      <trkpt lat="62.633908011928" lon="17.980883228306">
        <ele>88.8</ele>
        <time>2018-02-11T14:31:53Z</time>
      </trkpt>
      <trkpt lat="62.633930894515" lon="17.980832098716">
        <ele>88.6</ele>
        <time>2018-02-11T14:31:54Z</time>
      </trkpt>
      <trkpt lat="62.633944808469" lon="17.98078650118">
        <ele>88.8</ele>
        <time>2018-02-11T14:31:55Z</time>
      </trkpt>
      <trkpt lat="62.633964422115" lon="17.980721625274">
        <ele>88.8</ele>
        <time>2018-02-11T14:31:56Z</time>
      </trkpt>
      <trkpt lat="62.633982527019" lon="17.980630011107">
        <ele>88.8</ele>
        <time>2018-02-11T14:31:58Z</time>
      </trkpt>
      <trkpt lat="62.634009181461" lon="17.980577875689">
        <ele>89</ele>
        <time>2018-02-11T14:31:59Z</time>
      </trkpt>
      <trkpt lat="62.634033321333" lon="17.98051911857">
        <ele>89</ele>
        <time>2018-02-11T14:32:00Z</time>
      </trkpt>
      <trkpt lat="62.634055784825" lon="17.980463881849">
        <ele>89.2</ele>
        <time>2018-02-11T14:32:01Z</time>
      </trkpt>
      <trkpt lat="62.63407380591" lon="17.980414847734">
        <ele>89.2</ele>
        <time>2018-02-11T14:32:02Z</time>
      </trkpt>
      <trkpt lat="62.634094341565" lon="17.980370004569">
        <ele>89</ele>
        <time>2018-02-11T14:32:03Z</time>
      </trkpt>
      <trkpt lat="62.634117559428" lon="17.980320718997">
        <ele>89.2</ele>
        <time>2018-02-11T14:32:04Z</time>
      </trkpt>
      <trkpt lat="62.634136837798" lon="17.980275792013">
        <ele>89.2</ele>
        <time>2018-02-11T14:32:05Z</time>
      </trkpt>
      <trkpt lat="62.634171706502" lon="17.98021988474">
        <ele>89.2</ele>
        <time>2018-02-11T14:32:06Z</time>
      </trkpt>
      <trkpt lat="62.634195594917" lon="17.9801729461">
        <ele>89.2</ele>
        <time>2018-02-11T14:32:07Z</time>
      </trkpt>
      <trkpt lat="62.634217890771" lon="17.980121481234">
        <ele>89.2</ele>
        <time>2018-02-11T14:32:08Z</time>
      </trkpt>
      <trkpt lat="62.634230966535" lon="17.980065741599">
        <ele>89.4</ele>
        <time>2018-02-11T14:32:09Z</time>
      </trkpt>
      <trkpt lat="62.634246389231" lon="17.980013857638">
        <ele>89</ele>
        <time>2018-02-11T14:32:10Z</time>
      </trkpt>
      <trkpt lat="62.634262817755" lon="17.979953172682">
        <ele>89.2</ele>
        <time>2018-02-11T14:32:11Z</time>
      </trkpt>
      <trkpt lat="62.634283688686" lon="17.979890140794">
        <ele>89</ele>
        <time>2018-02-11T14:32:12Z</time>
      </trkpt>
      <trkpt lat="62.6343009554" lon="17.979831048399">
        <ele>89</ele>
        <time>2018-02-11T14:32:13Z</time>
      </trkpt>
      <trkpt lat="62.634319060304" lon="17.979772794194">
        <ele>88.8</ele>
        <time>2018-02-11T14:32:14Z</time>
      </trkpt>
      <trkpt lat="62.634335991742" lon="17.979714204713">
        <ele>89</ele>
        <time>2018-02-11T14:32:15Z</time>
      </trkpt>
      <trkpt lat="62.634356108302" lon="17.979637594147">
        <ele>89</ele>
        <time>2018-02-11T14:32:16Z</time>
      </trkpt>
      <trkpt lat="62.634368178238" lon="17.979578250295">
        <ele>89.2</ele>
        <time>2018-02-11T14:32:17Z</time>
      </trkpt>
      <trkpt lat="62.634381254002" lon="17.979522007746">
        <ele>89.2</ele>
        <time>2018-02-11T14:32:18Z</time>
      </trkpt>
      <trkpt lat="62.634393743033" lon="17.979465932835">
        <ele>89</ele>
        <time>2018-02-11T14:32:19Z</time>
      </trkpt>
      <trkpt lat="62.634405393874" lon="17.979415976711">
        <ele>89</ele>
        <time>2018-02-11T14:32:20Z</time>
      </trkpt>
      <trkpt lat="62.634417044715" lon="17.979356297583">
        <ele>89</ele>
        <time>2018-02-11T14:32:21Z</time>
      </trkpt>
      <trkpt lat="62.634424588425" lon="17.979303240156">
        <ele>89</ele>
        <time>2018-02-11T14:32:22Z</time>
      </trkpt>
      <trkpt lat="62.634432299773" lon="17.979252529661">
        <ele>88.8</ele>
        <time>2018-02-11T14:32:23Z</time>
      </trkpt>
      <trkpt lat="62.634439005293" lon="17.979184887728">
        <ele>88.8</ele>
        <time>2018-02-11T14:32:24Z</time>
      </trkpt>
      <trkpt lat="62.63444847684" lon="17.9791252086">
        <ele>88.8</ele>
        <time>2018-02-11T14:32:25Z</time>
      </trkpt>
      <trkpt lat="62.634460295319" lon="17.979055471192">
        <ele>88.8</ele>
        <time>2018-02-11T14:32:26Z</time>
      </trkpt>
      <trkpt lat="62.63446943159" lon="17.978990176191">
        <ele>88.8</ele>
        <time>2018-02-11T14:32:27Z</time>
      </trkpt>
      <trkpt lat="62.634477142938" lon="17.978932676357">
        <ele>88.8</ele>
        <time>2018-02-11T14:32:28Z</time>
      </trkpt>
      <trkpt lat="62.634484854286" lon="17.978872578134">
        <ele>88.8</ele>
        <time>2018-02-11T14:32:29Z</time>
      </trkpt>
      <trkpt lat="62.634487536494" lon="17.978805690572">
        <ele>89</ele>
        <time>2018-02-11T14:32:30Z</time>
      </trkpt>
      <trkpt lat="62.634491056892" lon="17.978740814666">
        <ele>88.8</ele>
        <time>2018-02-11T14:32:31Z</time>
      </trkpt>
      <trkpt lat="62.634499690249" lon="17.978678034235">
        <ele>88.8</ele>
        <time>2018-02-11T14:32:32Z</time>
      </trkpt>
      <trkpt lat="62.634505306122" lon="17.97861642727">
        <ele>88.8</ele>
        <time>2018-02-11T14:32:33Z</time>
      </trkpt>
      <trkpt lat="62.634516705506" lon="17.978543756197">
        <ele>88.8</ele>
        <time>2018-02-11T14:32:34Z</time>
      </trkpt>
      <trkpt lat="62.634524416854" lon="17.97848064049">
        <ele>88.8</ele>
        <time>2018-02-11T14:32:35Z</time>
      </trkpt>
      <trkpt lat="62.634531373831" lon="17.978407131227">
        <ele>88.6</ele>
        <time>2018-02-11T14:32:36Z</time>
      </trkpt>
      <trkpt lat="62.634540845378" lon="17.97833228086">
        <ele>88.4</ele>
        <time>2018-02-11T14:32:37Z</time>
      </trkpt>
      <trkpt lat="62.634548053812" lon="17.978259274511">
        <ele>88.4</ele>
        <time>2018-02-11T14:32:38Z</time>
      </trkpt>
      <trkpt lat="62.634558028273" lon="17.978190794388">
        <ele>88.4</ele>
        <time>2018-02-11T14:32:39Z</time>
      </trkpt>
      <trkpt lat="62.634569511476" lon="17.978118793867">
        <ele>88.2</ele>
        <time>2018-02-11T14:32:40Z</time>
      </trkpt>
      <trkpt lat="62.634571774589" lon="17.978054504694">
        <ele>88</ele>
        <time>2018-02-11T14:32:41Z</time>
      </trkpt>
      <trkpt lat="62.634568086553" lon="17.978002536914">
        <ele>88</ele>
        <time>2018-02-11T14:32:42Z</time>
      </trkpt>
      <trkpt lat="62.634595579185" lon="17.977908827272">
        <ele>87.6</ele>
        <time>2018-02-11T14:32:43Z</time>
      </trkpt>
      <trkpt lat="62.634596585013" lon="17.977853842008">
        <ele>87.4</ele>
        <time>2018-02-11T14:32:44Z</time>
      </trkpt>
      <trkpt lat="62.634604799275" lon="17.977795923079">
        <ele>87.4</ele>
        <time>2018-02-11T14:32:45Z</time>
      </trkpt>
      <trkpt lat="62.634614773736" lon="17.977724006377">
        <ele>87.4</ele>
        <time>2018-02-11T14:32:46Z</time>
      </trkpt>
      <trkpt lat="62.634628771509" lon="17.977658962833">
        <ele>87.2</ele>
        <time>2018-02-11T14:32:47Z</time>
      </trkpt>
      <trkpt lat="62.634636650495" lon="17.977585285932">
        <ele>87</ele>
        <time>2018-02-11T14:32:48Z</time>
      </trkpt>
      <trkpt lat="62.634644529481" lon="17.977513453049">
        <ele>87</ele>
        <time>2018-02-11T14:32:49Z</time>
      </trkpt>
      <trkpt lat="62.634656012684" lon="17.977455115025">
        <ele>87</ele>
        <time>2018-02-11T14:32:50Z</time>
      </trkpt>
      <trkpt lat="62.634669759" lon="17.977386048169">
        <ele>87</ele>
        <time>2018-02-11T14:32:51Z</time>
      </trkpt>
      <trkpt lat="62.634683756773" lon="17.977326704317">
        <ele>86.8</ele>
        <time>2018-02-11T14:32:52Z</time>
      </trkpt>
      <trkpt lat="62.63469741927" lon="17.977284878636">
        <ele>86.8</ele>
        <time>2018-02-11T14:32:53Z</time>
      </trkpt>
      <trkpt lat="62.634716027088" lon="17.977221343834">
        <ele>87</ele>
        <time>2018-02-11T14:32:54Z</time>
      </trkpt>
      <trkpt lat="62.63472927049" lon="17.977151774064">
        <ele>87</ele>
        <time>2018-02-11T14:32:55Z</time>
      </trkpt>
      <trkpt lat="62.63474435791" lon="17.977079270629">
        <ele>86.8</ele>
        <time>2018-02-11T14:32:56Z</time>
      </trkpt>
      <trkpt lat="62.634760870253" lon="17.977008275936">
        <ele>87</ele>
        <time>2018-02-11T14:32:57Z</time>
      </trkpt>
      <trkpt lat="62.634775035664" lon="17.976941807469">
        <ele>86.8</ele>
        <time>2018-02-11T14:32:58Z</time>
      </trkpt>
      <trkpt lat="62.634787440876" lon="17.976873662622">
        <ele>86.6</ele>
        <time>2018-02-11T14:32:59Z</time>
      </trkpt>
      <trkpt lat="62.634796744785" lon="17.976791268545">
        <ele>86.6</ele>
        <time>2018-02-11T14:33:00Z</time>
      </trkpt>
      <trkpt lat="62.634806719246" lon="17.976713987427">
        <ele>86.4</ele>
        <time>2018-02-11T14:33:01Z</time>
      </trkpt>
      <trkpt lat="62.634814933508" lon="17.97664081344">
        <ele>86.4</ele>
        <time>2018-02-11T14:33:02Z</time>
      </trkpt>
      <trkpt lat="62.634823063951" lon="17.976569651109">
        <ele>86.6</ele>
        <time>2018-02-11T14:33:03Z</time>
      </trkpt>
      <trkpt lat="62.634839324837" lon="17.976489687783">
        <ele>86.4</ele>
        <time>2018-02-11T14:33:04Z</time>
      </trkpt>
      <trkpt lat="62.634848377289" lon="17.976412993398">
        <ele>86.4</ele>
        <time>2018-02-11T14:33:05Z</time>
      </trkpt>
      <trkpt lat="62.634863799985" lon="17.976335796099">
        <ele>86.2</ele>
        <time>2018-02-11T14:33:06Z</time>
      </trkpt>
      <trkpt lat="62.634882323984" lon="17.976255832773">
        <ele>86.2</ele>
        <time>2018-02-11T14:33:07Z</time>
      </trkpt>
      <trkpt lat="62.634897579042" lon="17.976191292143">
        <ele>86.4</ele>
        <time>2018-02-11T14:33:08Z</time>
      </trkpt>
      <trkpt lat="62.634918785249" lon="17.97612113564">
        <ele>86.2</ele>
        <time>2018-02-11T14:33:09Z</time>
      </trkpt>
      <trkpt lat="62.634936638696" lon="17.976049470395">
        <ele>86</ele>
        <time>2018-02-11T14:33:10Z</time>
      </trkpt>
      <trkpt lat="62.634950720288" lon="17.975998340805">
        <ele>85.8</ele>
        <time>2018-02-11T14:33:11Z</time>
      </trkpt>
      <trkpt lat="62.634969244287" lon="17.975918126022">
        <ele>85.6</ele>
        <time>2018-02-11T14:33:12Z</time>
      </trkpt>
      <trkpt lat="62.634983325879" lon="17.975845035854">
        <ele>85.4</ele>
        <time>2018-02-11T14:33:13Z</time>
      </trkpt>
      <trkpt lat="62.634998413299" lon="17.97576825765">
        <ele>85.2</ele>
        <time>2018-02-11T14:33:14Z</time>
      </trkpt>
      <trkpt lat="62.635010399416" lon="17.975689803066">
        <ele>85.2</ele>
        <time>2018-02-11T14:33:15Z</time>
      </trkpt>
      <trkpt lat="62.635019703325" lon="17.975612438129">
        <ele>85.2</ele>
        <time>2018-02-11T14:33:16Z</time>
      </trkpt>
      <trkpt lat="62.635038981695" lon="17.975543538911">
        <ele>85</ele>
        <time>2018-02-11T14:33:17Z</time>
      </trkpt>
      <trkpt lat="62.635050464898" lon="17.975465335784">
        <ele>84.8</ele>
        <time>2018-02-11T14:33:18Z</time>
      </trkpt>
      <trkpt lat="62.635060523178" lon="17.975385121001">
        <ele>84.8</ele>
        <time>2018-02-11T14:33:19Z</time>
      </trkpt>
      <trkpt lat="62.635064462671" lon="17.975305995865">
        <ele>84.8</ele>
        <time>2018-02-11T14:33:20Z</time>
      </trkpt>
      <trkpt lat="62.635069156535" lon="17.975216980087">
        <ele>84.6</ele>
        <time>2018-02-11T14:33:21Z</time>
      </trkpt>
      <trkpt lat="62.635068402164" lon="17.975130143603">
        <ele>84.8</ele>
        <time>2018-02-11T14:33:22Z</time>
      </trkpt>
      <trkpt lat="62.635055996952" lon="17.975047162793">
        <ele>84.6</ele>
        <time>2018-02-11T14:33:23Z</time>
      </trkpt>
      <trkpt lat="62.635039819885" lon="17.974958649929">
        <ele>84.2</ele>
        <time>2018-02-11T14:33:24Z</time>
      </trkpt>
      <trkpt lat="62.635018865135" lon="17.974884470114">
        <ele>84.2</ele>
        <time>2018-02-11T14:33:25Z</time>
      </trkpt>
      <trkpt lat="62.634992378331" lon="17.974790006101">
        <ele>83.8</ele>
        <time>2018-02-11T14:33:26Z</time>
      </trkpt>
      <trkpt lat="62.634973267599" lon="17.974701660875">
        <ele>83.6</ele>
        <time>2018-02-11T14:33:27Z</time>
      </trkpt>
      <trkpt lat="62.634953821591" lon="17.97461407002">
        <ele>83.4</ele>
        <time>2018-02-11T14:33:28Z</time>
      </trkpt>
      <trkpt lat="62.634930100814" lon="17.974537291816">
        <ele>83</ele>
        <time>2018-02-11T14:33:29Z</time>
      </trkpt>
      <trkpt lat="62.634906044761" lon="17.974466129485">
        <ele>82.8</ele>
        <time>2018-02-11T14:33:30Z</time>
      </trkpt>
      <trkpt lat="62.634883245993" lon="17.974381639933">
        <ele>82.4</ele>
        <time>2018-02-11T14:33:31Z</time>
      </trkpt>
      <trkpt lat="62.634861955967" lon="17.9742972342">
        <ele>82.4</ele>
        <time>2018-02-11T14:33:32Z</time>
      </trkpt>
      <trkpt lat="62.634846030357" lon="17.974241159289">
        <ele>82.2</ele>
        <time>2018-02-11T14:33:33Z</time>
      </trkpt>
      <trkpt lat="62.634833960421" lon="17.974177037754">
        <ele>82</ele>
        <time>2018-02-11T14:33:34Z</time>
      </trkpt>
      <trkpt lat="62.634822058123" lon="17.974114257323">
        <ele>82.2</ele>
        <time>2018-02-11T14:33:35Z</time>
      </trkpt>
      <trkpt lat="62.634795571319" lon="17.974030941237">
        <ele>81.8</ele>
        <time>2018-02-11T14:33:36Z</time>
      </trkpt>
      <trkpt lat="62.634776879682" lon="17.973933711197">
        <ele>82</ele>
        <time>2018-02-11T14:33:37Z</time>
      </trkpt>
      <trkpt lat="62.634763552461" lon="17.973864476703">
        <ele>81.6</ele>
        <time>2018-02-11T14:33:38Z</time>
      </trkpt>
      <trkpt lat="62.634747459213" lon="17.973801780091">
        <ele>81.6</ele>
        <time>2018-02-11T14:33:39Z</time>
      </trkpt>
      <trkpt lat="62.634730443956" lon="17.973725923896">
        <ele>81.2</ele>
        <time>2018-02-11T14:33:40Z</time>
      </trkpt>
      <trkpt lat="62.634717200554" lon="17.973665322759">
        <ele>81.4</ele>
        <time>2018-02-11T14:33:41Z</time>
      </trkpt>
      <trkpt lat="62.634704040971" lon="17.973596758817">
        <ele>81.4</ele>
        <time>2018-02-11T14:33:42Z</time>
      </trkpt>
      <trkpt lat="62.6346949047" lon="17.973518052776">
        <ele>81.4</ele>
        <time>2018-02-11T14:33:43Z</time>
      </trkpt>
      <trkpt lat="62.634685936067" lon="17.973457200182">
        <ele>81.4</ele>
        <time>2018-02-11T14:33:44Z</time>
      </trkpt>
      <trkpt lat="62.634686774257" lon="17.97338444529">
        <ele>81.2</ele>
        <time>2018-02-11T14:33:45Z</time>
      </trkpt>
      <trkpt lat="62.634681577479" lon="17.973289310725">
        <ele>81</ele>
        <time>2018-02-11T14:33:46Z</time>
      </trkpt>
      <trkpt lat="62.634675374873" lon="17.97322267462">
        <ele>81</ele>
        <time>2018-02-11T14:33:47Z</time>
      </trkpt>
      <trkpt lat="62.634680823108" lon="17.973124690209">
        <ele>81</ele>
        <time>2018-02-11T14:33:48Z</time>
      </trkpt>
      <trkpt lat="62.634696413442" lon="17.973042799046">
        <ele>80.8</ele>
        <time>2018-02-11T14:33:49Z</time>
      </trkpt>
      <trkpt lat="62.634716949097" lon="17.972958141856">
        <ele>80.8</ele>
        <time>2018-02-11T14:33:50Z</time>
      </trkpt>
      <trkpt lat="62.634731198327" lon="17.972885554602">
        <ele>80.8</ele>
        <time>2018-02-11T14:33:51Z</time>
      </trkpt>
      <trkpt lat="62.634757852769" lon="17.972807854389">
        <ele>80.6</ele>
        <time>2018-02-11T14:33:52Z</time>
      </trkpt>
      <trkpt lat="62.634782579374" lon="17.972729315986">
        <ele>80.4</ele>
        <time>2018-02-11T14:33:53Z</time>
      </trkpt>
      <trkpt lat="62.634802947391" lon="17.97266611646">
        <ele>80.2</ele>
        <time>2018-02-11T14:33:54Z</time>
      </trkpt>
      <trkpt lat="62.634829098919" lon="17.972604677133">
        <ele>80</ele>
        <time>2018-02-11T14:33:55Z</time>
      </trkpt>
      <trkpt lat="62.634850640402" lon="17.972536448467">
        <ele>80</ele>
        <time>2018-02-11T14:33:56Z</time>
      </trkpt>
      <trkpt lat="62.634882994536" lon="17.972458580616">
        <ele>79.8</ele>
        <time>2018-02-11T14:33:57Z</time>
      </trkpt>
      <trkpt lat="62.634893639549" lon="17.972384903715">
        <ele>79.8</ele>
        <time>2018-02-11T14:33:58Z</time>
      </trkpt>
      <trkpt lat="62.634923562932" lon="17.972318016153">
        <ele>79.6</ele>
        <time>2018-02-11T14:33:59Z</time>
      </trkpt>
      <trkpt lat="62.634946194062" lon="17.972233778058">
        <ele>79.6</ele>
        <time>2018-02-11T14:34:00Z</time>
      </trkpt>
      <trkpt lat="62.634969747201" lon="17.972153898551">
        <ele>79.4</ele>
        <time>2018-02-11T14:34:01Z</time>
      </trkpt>
      <trkpt lat="62.634994306168" lon="17.972083322953">
        <ele>79.4</ele>
        <time>2018-02-11T14:34:02Z</time>
      </trkpt>
      <trkpt lat="62.635015847651" lon="17.97201316645">
        <ele>79.2</ele>
        <time>2018-02-11T14:34:03Z</time>
      </trkpt>
      <trkpt lat="62.635038981695" lon="17.971908057424">
        <ele>79.2</ele>
        <time>2018-02-11T14:34:04Z</time>
      </trkpt>
      <trkpt lat="62.635055410219" lon="17.971821975311">
        <ele>79</ele>
        <time>2018-02-11T14:34:05Z</time>
      </trkpt>
      <trkpt lat="62.635072425476" lon="17.971709993127">
        <ele>78.6</ele>
        <time>2018-02-11T14:34:06Z</time>
      </trkpt>
      <trkpt lat="62.635081813204" lon="17.971610499974">
        <ele>78.2</ele>
        <time>2018-02-11T14:34:07Z</time>
      </trkpt>
      <trkpt lat="62.63509053038" lon="17.971525591327">
        <ele>77.8</ele>
        <time>2018-02-11T14:34:08Z</time>
      </trkpt>
      <trkpt lat="62.635102767954" lon="17.971428026011">
        <ele>77.2</ele>
        <time>2018-02-11T14:34:09Z</time>
      </trkpt>
      <trkpt lat="62.635110563121" lon="17.971345883391">
        <ele>76.6</ele>
        <time>2018-02-11T14:34:10Z</time>
      </trkpt>
      <trkpt lat="62.635119699392" lon="17.971254353043">
        <ele>76.4</ele>
        <time>2018-02-11T14:34:11Z</time>
      </trkpt>
      <trkpt lat="62.635132356061" lon="17.971161481591">
        <ele>76.2</ele>
        <time>2018-02-11T14:34:12Z</time>
      </trkpt>
      <trkpt lat="62.635142414341" lon="17.971068023406">
        <ele>76</ele>
        <time>2018-02-11T14:34:13Z</time>
      </trkpt>
      <trkpt lat="62.635131685509" lon="17.970966183321">
        <ele>75.8</ele>
        <time>2018-02-11T14:34:14Z</time>
      </trkpt>
      <trkpt lat="62.635144342178" lon="17.970874233878">
        <ele>75.8</ele>
        <time>2018-02-11T14:34:15Z</time>
      </trkpt>
      <trkpt lat="62.635155490105" lon="17.970780105141">
        <ele>75.4</ele>
        <time>2018-02-11T14:34:16Z</time>
      </trkpt>
      <trkpt lat="62.63515842377" lon="17.970692430467">
        <ele>75</ele>
        <time>2018-02-11T14:34:17Z</time>
      </trkpt>
      <trkpt lat="62.63516932024" lon="17.970608108553">
        <ele>74.6</ele>
        <time>2018-02-11T14:34:18Z</time>
      </trkpt>
      <trkpt lat="62.635184659117" lon="17.970513728359">
        <ele>74.2</ele>
        <time>2018-02-11T14:34:19Z</time>
      </trkpt>
      <trkpt lat="62.635195136492" lon="17.970423455296">
        <ele>74</ele>
        <time>2018-02-11T14:34:20Z</time>
      </trkpt>
      <trkpt lat="62.63519949508" lon="17.970331673491">
        <ele>73.6</ele>
        <time>2018-02-11T14:34:21Z</time>
      </trkpt>
      <trkpt lat="62.635220282192" lon="17.970234108175">
        <ele>73.2</ele>
        <time>2018-02-11T14:34:22Z</time>
      </trkpt>
      <trkpt lat="62.635228999368" lon="17.970172165934">
        <ele>73</ele>
        <time>2018-02-11T14:34:23Z</time>
      </trkpt>
      <trkpt lat="62.635247020453" lon="17.970055322248">
        <ele>72.4</ele>
        <time>2018-02-11T14:34:24Z</time>
      </trkpt>
      <trkpt lat="62.635262443149" lon="17.969967731393">
        <ele>72</ele>
        <time>2018-02-11T14:34:25Z</time>
      </trkpt>
      <trkpt lat="62.635296641301" lon="17.969861448901">
        <ele>71.8</ele>
        <time>2018-02-11T14:34:26Z</time>
      </trkpt>
      <trkpt lat="62.635323128105" lon="17.969768242173">
        <ele>71.2</ele>
        <time>2018-02-11T14:34:27Z</time>
      </trkpt>
      <trkpt lat="62.635349279633" lon="17.969676711825">
        <ele>70.6</ele>
        <time>2018-02-11T14:34:28Z</time>
      </trkpt>
      <trkpt lat="62.635372665134" lon="17.969589623884">
        <ele>70</ele>
        <time>2018-02-11T14:34:29Z</time>
      </trkpt>
      <trkpt lat="62.635400912137" lon="17.969502368305">
        <ele>69.4</ele>
        <time>2018-02-11T14:34:30Z</time>
      </trkpt>
      <trkpt lat="62.635430248787" lon="17.969397678374">
        <ele>68.6</ele>
        <time>2018-02-11T14:34:31Z</time>
      </trkpt>
      <trkpt lat="62.635455478306" lon="17.969288797493">
        <ele>68.2</ele>
        <time>2018-02-11T14:34:32Z</time>
      </trkpt>
      <trkpt lat="62.635480707825" lon="17.969188969064">
        <ele>68</ele>
        <time>2018-02-11T14:34:33Z</time>
      </trkpt>
      <trkpt lat="62.635510882665" lon="17.969084279133">
        <ele>67.6</ele>
        <time>2018-02-11T14:34:34Z</time>
      </trkpt>
      <trkpt lat="62.635533597614" lon="17.968988054921">
        <ele>67.2</ele>
        <time>2018-02-11T14:34:35Z</time>
      </trkpt>
      <trkpt lat="62.635568466318" lon="17.968876156556">
        <ele>66.8</ele>
        <time>2018-02-11T14:34:36Z</time>
      </trkpt>
      <trkpt lat="62.635602245375" lon="17.96878529676">
        <ele>66.2</ele>
        <time>2018-02-11T14:34:37Z</time>
      </trkpt>
      <trkpt lat="62.635634264233" lon="17.968695694249">
        <ele>66</ele>
        <time>2018-02-11T14:34:38Z</time>
      </trkpt>
      <trkpt lat="62.635679191217" lon="17.96861849695">
        <ele>65.4</ele>
        <time>2018-02-11T14:34:39Z</time>
      </trkpt>
      <trkpt lat="62.635726548952" lon="17.968569211378">
        <ele>65</ele>
        <time>2018-02-11T14:34:40Z</time>
      </trkpt>
      <trkpt lat="62.635781366578" lon="17.968526547507">
        <ele>64.6</ele>
        <time>2018-02-11T14:34:41Z</time>
      </trkpt>
      <trkpt lat="62.635836016566" lon="17.96850366492">
        <ele>64.2</ele>
        <time>2018-02-11T14:34:42Z</time>
      </trkpt>
      <trkpt lat="62.635882117016" lon="17.968489499509">
        <ele>64</ele>
        <time>2018-02-11T14:34:43Z</time>
      </trkpt>
      <trkpt lat="62.635923942697" lon="17.968482291075">
        <ele>64</ele>
        <time>2018-02-11T14:34:44Z</time>
      </trkpt>
      <trkpt lat="62.635961996523" lon="17.968479525048">
        <ele>63.8</ele>
        <time>2018-02-11T14:34:45Z</time>
      </trkpt>
      <trkpt lat="62.635999798892" lon="17.96847684284">
        <ele>63.8</ele>
        <time>2018-02-11T14:34:46Z</time>
      </trkpt>
    </trkseg>
  </trk>
</gpx>